South Armidale Weather

South Armidale Weather


This Months Observations
Date Time Temperature Humidity Dewpoint Wind Speed High Gust Wind Bearing Rainfall Rate Total Rainfall Pressure Gust Wind Chill Heat Index UV Index
01/03/19 00:18 13.5 93 12.4 0.0 0.0 0 0.0 0.0 1023.0 0.0 0.0 13.5 0.0
01/03/19 00:19 13.5 93 12.4 0.0 0.0 0 0.0 0.0 1023.0 0.0 0.0 13.5 0.0
01/03/19 00:33 13.3 94 12.4 0.0 0.0 0 0.0 0.0 1023.0 0.0 0.0 13.3 0.0
01/03/19 00:34 13.3 94 12.4 0.0 0.0 0 0.0 0.0 1023.0 0.0 0.0 13.3 0.0
01/03/19 00:35 13.4 94 12.5 0.0 0.0 0 0.0 0.0 1023.0 0.0 0.0 13.4 0.0
01/03/19 00:36 13.3 94 12.4 0.0 0.0 0 0.0 0.0 1023.0 0.0 0.0 13.3 0.0
01/03/19 00:37 13.3 94 12.4 0.0 0.0 0 0.0 0.0 1023.0 0.0 0.0 13.3 0.0
01/03/19 00:38 13.3 94 12.4 0.0 0.0 0 0.0 0.0 1023.0 0.0 0.0 13.3 0.0
01/03/19 00:39 13.3 94 12.4 0.0 0.0 0 0.0 0.0 1023.0 0.0 0.0 13.3 0.0
01/03/19 00:40 13.3 94 12.4 0.0 0.0 0 0.0 0.0 1023.0 0.0 0.0 13.3 0.0
01/03/19 00:41 13.3 94 12.4 0.0 0.0 0 0.0 0.0 1023.0 0.0 0.0 13.3 0.0
01/03/19 00:42 13.3 94 12.4 0.0 0.0 0 0.0 0.0 1023.0 0.0 0.0 13.3 0.0
01/03/19 00:43 13.3 94 12.4 0.0 0.0 0 0.0 0.0 1023.0 0.0 0.0 13.3 0.0
01/03/19 00:44 13.3 94 12.4 0.0 0.0 0 0.0 0.0 1023.0 0.0 0.0 13.3 0.0
01/03/19 00:45 13.3 94 12.4 0.0 0.0 0 0.0 0.0 1023.0 0.0 0.0 13.3 0.0
01/03/19 00:48 13.2 95 12.4 0.0 0.0 0 0.0 0.0 1023.0 0.0 0.0 13.2 0.0
01/03/19 00:49 13.2 94 12.3 0.0 0.0 0 0.0 0.0 1023.0 0.0 0.0 13.2 0.0
01/03/19 00:50 13.2 94 12.3 0.0 0.0 0 0.0 0.0 1023.0 0.0 0.0 13.2 0.0
01/03/19 00:51 13.2 94 12.3 0.0 0.0 0 0.0 0.0 1023.0 0.0 0.0 13.2 0.0
01/03/19 00:52 13.2 95 12.4 0.0 0.0 0 0.0 0.0 1023.0 0.0 0.0 13.2 0.0
01/03/19 00:53 13.1 95 12.3 0.0 0.0 0 0.0 0.0 1023.0 0.0 0.0 13.1 0.0
01/03/19 00:54 13.1 95 12.3 0.0 0.0 0 0.0 0.0 1023.0 0.0 0.0 13.1 0.0
01/03/19 00:55 13.1 95 12.3 0.0 0.0 0 0.0 0.0 1023.0 0.0 0.0 13.1 0.0
01/03/19 00:56 13.1 94 12.2 0.0 0.0 0 0.0 0.0 1023.0 0.0 0.0 13.1 0.0
01/03/19 00:57 13.1 94 12.2 0.0 0.0 0 0.0 0.0 1023.0 0.0 0.0 13.1 0.0
01/03/19 00:58 13.0 94 12.1 0.0 0.0 0 0.0 0.0 1023.0 0.0 0.0 13.0 0.0
01/03/19 00:59 13.0 94 12.1 0.0 0.0 0 0.0 0.0 1023.0 0.0 0.0 13.0 0.0
01/03/19 01:00 13.0 95 12.2 0.0 0.0 0 0.0 0.0 1023.0 0.0 0.0 13.0 0.0
01/03/19 01:03 13.1 95 12.3 0.0 0.0 0 0.0 0.0 1023.0 0.0 0.0 13.1 0.0
01/03/19 01:04 13.1 95 12.3 0.0 0.0 0 0.0 0.0 1023.0 0.0 0.0 13.1 0.0
01/03/19 01:05 13.1 95 12.3 0.0 0.0 0 0.0 0.0 1023.0 0.0 0.0 13.1 0.0
01/03/19 01:06 13.1 95 12.3 0.0 0.0 0 0.0 0.0 1023.0 0.0 0.0 13.1 0.0
01/03/19 01:07 13.0 95 12.2 0.0 0.0 0 0.0 0.0 1023.0 0.0 0.0 13.0 0.0
01/03/19 01:08 13.1 95 12.3 0.0 0.0 0 0.0 0.0 1023.0 0.0 0.0 13.1 0.0
01/03/19 01:09 13.0 95 12.2 0.0 0.0 0 0.0 0.0 1023.0 0.0 0.0 13.0 0.0
01/03/19 01:10 13.0 95 12.2 0.0 0.0 0 0.0 0.0 1023.0 0.0 0.0 13.0 0.0
01/03/19 01:11 13.0 95 12.2 0.0 0.0 0 0.0 0.0 1023.0 0.0 0.0 13.0 0.0
01/03/19 01:12 13.0 95 12.2 0.0 0.0 0 0.0 0.0 1023.0 0.0 0.0 13.0 0.0
01/03/19 01:13 13.0 95 12.2 0.0 0.0 0 0.0 0.0 1023.0 0.0 0.0 13.0 0.0
01/03/19 01:14 13.0 95 12.2 0.0 0.0 0 0.0 0.0 1023.0 0.0 0.0 13.0 0.0
01/03/19 01:15 13.0 95 12.2 0.0 0.0 0 0.0 0.0 1023.0 0.0 0.0 13.0 0.0
01/03/19 01:18 13.0 95 12.2 0.0 0.0 0 0.0 0.0 1023.0 0.0 0.0 13.0 0.0
01/03/19 01:19 13.0 95 12.2 0.0 0.0 0 0.0 0.0 1023.0 0.0 0.0 13.0 0.0
01/03/19 01:20 12.9 96 12.3 0.0 0.0 0 0.0 0.0 1023.0 0.0 0.0 12.9 0.0
01/03/19 01:21 12.9 96 12.3 0.0 0.0 0 0.0 0.0 1023.0 0.0 0.0 12.9 0.0
01/03/19 01:22 12.9 96 12.3 0.0 0.0 0 0.0 0.0 1023.0 0.0 0.0 12.9 0.0
01/03/19 01:23 13.0 96 12.4 0.0 0.0 0 0.0 0.0 1023.0 0.0 0.0 13.0 0.0
01/03/19 01:24 13.0 96 12.4 0.0 0.0 0 0.0 0.0 1023.0 0.0 0.0 13.0 0.0
01/03/19 01:25 12.9 96 12.3 0.0 0.0 0 0.0 0.0 1023.0 0.0 0.0 12.9 0.0
01/03/19 01:26 13.0 96 12.4 0.0 0.0 0 0.0 0.0 1023.0 0.0 0.0 13.0 0.0
01/03/19 01:27 13.0 96 12.4 0.0 0.0 0 0.0 0.0 1023.0 0.0 0.0 13.0 0.0
01/03/19 01:28 13.0 96 12.4 0.0 0.0 0 0.0 0.0 1023.0 0.0 0.0 13.0 0.0
01/03/19 01:29 13.0 96 12.4 0.0 0.0 0 0.0 0.0 1023.0 0.0 0.0 13.0 0.0
01/03/19 01:30 13.0 96 12.4 0.0 0.0 0 0.0 0.0 1023.0 0.0 0.0 13.0 0.0
01/03/19 01:33 13.0 96 12.4 0.0 0.0 0 0.0 0.0 1023.0 0.0 0.0 13.0 0.0
01/03/19 01:34 13.0 96 12.4 0.0 0.0 0 0.0 0.0 1023.0 0.0 0.0 13.0 0.0
01/03/19 01:35 13.0 96 12.4 0.0 0.0 0 0.0 0.0 1023.0 0.0 0.0 13.0 0.0
01/03/19 01:36 13.0 97 12.5 0.0 0.0 0 0.0 0.0 1023.0 0.0 0.0 13.0 0.0
01/03/19 01:37 13.0 97 12.5 0.0 0.0 0 0.0 0.0 1023.0 0.0 0.0 13.0 0.0
01/03/19 01:38 13.0 97 12.5 0.0 0.0 0 0.0 0.0 1023.0 0.0 0.0 13.0 0.0
01/03/19 01:39 13.0 97 12.5 0.0 0.0 0 0.0 0.0 1023.0 0.0 0.0 13.0 0.0
01/03/19 01:40 12.9 97 12.4 0.0 0.0 0 0.0 0.0 1023.0 0.0 0.0 12.9 0.0
01/03/19 01:41 12.9 97 12.4 0.0 0.0 0 0.0 0.0 1023.0 0.0 0.0 12.9 0.0
01/03/19 01:42 13.0 97 12.5 0.0 0.0 0 0.0 0.0 1023.0 0.0 0.0 13.0 0.0
01/03/19 01:43 12.9 97 12.4 0.0 0.0 0 0.0 0.0 1023.0 0.0 0.0 12.9 0.0
01/03/19 01:44 12.9 97 12.4 0.0 0.0 0 0.0 0.0 1023.0 0.0 0.0 12.9 0.0
01/03/19 01:48 12.9 97 12.4 0.0 0.0 0 0.0 0.0 1023.0 0.0 0.0 12.9 0.0
01/03/19 01:49 12.9 97 12.4 0.0 0.0 0 0.0 0.0 1023.0 0.0 0.0 12.9 0.0
01/03/19 01:50 12.8 97 12.3 0.0 0.0 0 0.0 0.0 1023.0 0.0 0.0 12.8 0.0
01/03/19 01:51 12.8 97 12.3 0.0 0.0 0 0.0 0.0 1023.0 0.0 0.0 12.8 0.0
01/03/19 01:52 12.8 97 12.3 0.0 0.0 0 0.0 0.0 1023.0 0.0 0.0 12.8 0.0
01/03/19 01:53 12.8 97 12.3 0.0 0.0 0 0.0 0.0 1022.0 0.0 0.0 12.8 0.0
01/03/19 01:54 12.8 97 12.3 0.0 0.0 0 0.0 0.0 1022.0 0.0 0.0 12.8 0.0
01/03/19 01:55 12.8 97 12.3 0.0 0.0 0 0.0 0.0 1022.0 0.0 0.0 12.8 0.0
01/03/19 01:56 12.8 97 12.3 0.0 0.0 0 0.0 0.0 1022.0 0.0 0.0 12.8 0.0
01/03/19 01:57 12.8 97 12.3 0.0 0.0 0 0.0 0.0 1022.0 0.0 0.0 12.8 0.0
01/03/19 01:58 12.8 97 12.3 0.0 0.0 0 0.0 0.0 1022.0 0.0 0.0 12.8 0.0
01/03/19 01:59 12.7 97 12.2 0.0 0.0 0 0.0 0.0 1022.0 0.0 0.0 12.7 0.0
01/03/19 02:00 12.8 97 12.3 0.0 0.0 0 0.0 0.0 1022.0 0.0 0.0 12.8 0.0
01/03/19 02:03 12.8 98 12.5 0.0 0.0 0 0.0 0.0 1022.0 0.0 0.0 12.8 0.0
01/03/19 02:04 12.8 98 12.5 0.0 0.0 0 0.0 0.0 1022.0 0.0 0.0 12.8 0.0
01/03/19 02:05 12.7 98 12.4 0.0 0.0 0 0.0 0.0 1022.0 0.0 0.0 12.7 0.0
01/03/19 02:06 12.7 98 12.4 0.0 0.0 0 0.0 0.0 1022.0 0.0 0.0 12.7 0.0
01/03/19 02:07 12.7 98 12.4 0.0 0.0 0 0.0 0.0 1022.0 0.0 0.0 12.7 0.0
01/03/19 02:08 12.7 98 12.4 0.0 0.0 0 0.0 0.0 1022.0 0.0 0.0 12.7 0.0
01/03/19 02:09 12.7 98 12.4 0.0 0.0 0 0.0 0.0 1022.0 0.0 0.0 12.7 0.0
01/03/19 02:10 12.7 98 12.4 0.0 0.0 0 0.0 0.0 1022.0 0.0 0.0 12.7 0.0
01/03/19 02:11 12.7 98 12.4 0.0 0.0 0 0.0 0.0 1022.0 0.0 0.0 12.7 0.0
01/03/19 02:12 12.7 98 12.4 0.0 0.0 0 0.0 0.0 1022.0 0.0 0.0 12.7 0.0
01/03/19 02:13 12.7 98 12.4 0.0 0.0 0 0.0 0.0 1022.0 0.0 0.0 12.7 0.0
01/03/19 02:14 12.7 98 12.4 0.0 0.0 0 0.0 0.0 1022.0 0.0 0.0 12.7 0.0
01/03/19 02:15 12.6 98 12.3 0.0 0.0 0 0.0 0.0 1022.0 0.0 0.0 12.6 0.0
01/03/19 02:18 12.6 98 12.3 0.0 0.0 0 0.0 0.0 1022.0 0.0 0.0 12.6 0.0
01/03/19 02:19 12.6 98 12.3 0.0 0.0 0 0.0 0.0 1022.0 0.0 0.0 12.6 0.0
01/03/19 02:20 12.6 98 12.3 0.0 0.0 0 0.0 0.0 1022.0 0.0 0.0 12.6 0.0
01/03/19 02:21 12.6 98 12.3 0.0 0.0 0 0.0 0.0 1022.0 0.0 0.0 12.6 0.0
01/03/19 02:22 12.6 98 12.3 0.0 0.0 0 0.0 0.0 1022.0 0.0 0.0 12.6 0.0
01/03/19 02:23 12.6 98 12.3 0.0 0.0 0 0.0 0.0 1022.0 0.0 0.0 12.6 0.0
01/03/19 02:24 12.6 98 12.3 0.0 0.0 0 0.0 0.0 1022.0 0.0 0.0 12.6 0.0
01/03/19 02:25 12.6 98 12.3 0.0 0.0 0 0.0 0.0 1022.0 0.0 0.0 12.6 0.0
01/03/19 02:26 12.6 98 12.3 0.0 0.0 0 0.0 0.0 1022.0 0.0 0.0 12.6 0.0
01/03/19 02:27 12.6 98 12.3 0.0 0.0 0 0.0 0.0 1022.0 0.0 0.0 12.6 0.0
01/03/19 02:28 12.6 98 12.3 0.0 0.0 0 0.0 0.0 1022.0 0.0 0.0 12.6 0.0
01/03/19 02:29 12.6 98 12.3 0.0 0.0 0 0.0 0.0 1022.0 0.0 0.0 12.6 0.0
01/03/19 02:30 12.6 98 12.3 0.0 0.0 0 0.0 0.0 1022.0 0.0 0.0 12.6 0.0
01/03/19 02:48 12.5 98 12.2 0.0 0.0 0 0.0 0.0 1022.0 0.0 0.0 12.5 0.0
01/03/19 02:49 12.5 98 12.2 0.0 0.0 0 0.0 0.0 1022.0 0.0 0.0 12.5 0.0
01/03/19 02:50 12.5 98 12.2 0.0 0.0 0 0.0 0.0 1022.0 0.0 0.0 12.5 0.0
01/03/19 02:51 12.5 98 12.2 0.0 0.0 0 0.0 0.0 1022.0 0.0 0.0 12.5 0.0
01/03/19 02:52 12.4 98 12.1 0.0 0.0 0 0.0 0.0 1022.0 0.0 0.0 12.4 0.0
01/03/19 02:53 12.4 98 12.1 0.0 0.0 0 0.0 0.0 1022.0 0.0 0.0 12.4 0.0
01/03/19 02:54 12.4 98 12.1 0.0 0.0 0 0.0 0.0 1022.0 0.0 0.0 12.4 0.0
01/03/19 02:55 12.4 98 12.1 0.0 0.0 0 0.0 0.0 1022.0 0.0 0.0 12.4 0.0
01/03/19 02:56 12.4 98 12.1 0.0 0.0 0 0.0 0.0 1022.0 0.0 0.0 12.4 0.0
01/03/19 02:57 12.4 98 12.1 0.0 0.0 0 0.0 0.0 1022.0 0.0 0.0 12.4 0.0
01/03/19 02:58 12.4 98 12.1 0.0 0.0 0 0.0 0.0 1022.0 0.0 0.0 12.4 0.0
01/03/19 02:59 12.4 98 12.1 0.0 0.0 0 0.0 0.0 1022.0 0.0 0.0 12.4 0.0
01/03/19 03:03 12.3 98 12.0 0.0 0.0 0 0.0 0.0 1022.0 0.0 0.0 12.3 0.0
01/03/19 03:04 12.3 98 12.0 0.0 0.0 0 0.0 0.0 1022.0 0.0 0.0 12.3 0.0
01/03/19 03:05 12.2 98 11.9 0.0 0.0 0 0.0 0.0 1022.0 0.0 0.0 12.2 0.0
01/03/19 03:06 12.2 98 11.9 0.0 0.0 0 0.0 0.0 1022.0 0.0 0.0 12.2 0.0
01/03/19 03:07 12.2 98 11.9 0.0 0.0 0 0.0 0.0 1022.0 0.0 0.0 12.2 0.0
01/03/19 03:08 12.2 98 11.9 0.0 0.0 0 0.0 0.0 1022.0 0.0 0.0 12.2 0.0
01/03/19 03:09 12.2 98 11.9 0.0 0.0 0 0.0 0.0 1022.0 0.0 0.0 12.2 0.0
01/03/19 03:10 12.2 98 11.9 0.0 0.0 0 0.0 0.0 1022.0 0.0 0.0 12.2 0.0
01/03/19 03:11 12.2 98 11.9 0.0 0.0 0 0.0 0.0 1022.0 0.0 0.0 12.2 0.0
01/03/19 03:12 12.2 98 11.9 0.0 0.0 0 0.0 0.0 1022.0 0.0 0.0 12.2 0.0
01/03/19 03:13 12.1 98 11.8 0.0 0.0 0 0.0 0.0 1022.0 0.0 0.0 12.1 0.0
01/03/19 03:14 12.1 98 11.8 0.0 0.0 0 0.0 0.0 1022.0 0.0 0.0 12.1 0.0
01/03/19 03:15 12.1 98 11.8 0.0 0.0 0 0.0 0.0 1022.0 0.0 0.0 12.1 0.0
01/03/19 03:18 12.1 98 11.8 0.0 0.0 0 0.0 0.0 1022.0 0.0 0.0 12.1 0.0
01/03/19 03:19 12.1 98 11.8 0.0 0.0 0 0.0 0.0 1022.0 0.0 0.0 12.1 0.0
01/03/19 03:20 12.1 98 11.8 0.0 0.0 0 0.0 0.0 1022.0 0.0 0.0 12.1 0.0
01/03/19 03:21 12.1 98 11.8 0.0 0.0 0 0.0 0.0 1022.0 0.0 0.0 12.1 0.0
01/03/19 03:22 12.1 98 11.8 0.0 0.0 0 0.0 0.0 1022.0 0.0 0.0 12.1 0.0
01/03/19 03:23 12.1 98 11.8 0.0 0.0 0 0.0 0.0 1022.0 0.0 0.0 12.1 0.0
01/03/19 03:24 12.1 98 11.8 0.0 0.0 0 0.0 0.0 1022.0 0.0 0.0 12.1 0.0
01/03/19 03:25 12.1 98 11.8 0.0 0.0 0 0.0 0.0 1022.0 0.0 0.0 12.1 0.0
01/03/19 03:26 12.1 98 11.8 0.0 0.0 0 0.0 0.0 1022.0 0.0 0.0 12.1 0.0
01/03/19 03:27 12.1 98 11.8 0.0 0.0 0 0.0 0.0 1022.0 0.0 0.0 12.1 0.0
01/03/19 03:28 12.1 98 11.8 0.0 0.0 0 0.0 0.0 1022.0 0.0 0.0 12.1 0.0
01/03/19 03:29 12.1 98 11.8 0.0 0.0 0 0.0 0.0 1022.0 0.0 0.0 12.1 0.0
01/03/19 03:33 12.1 98 11.8 0.0 0.0 0 0.0 0.0 1022.0 0.0 0.0 12.1 0.0
01/03/19 03:34 12.1 98 11.8 0.0 0.0 0 0.0 0.0 1022.0 0.0 0.0 12.1 0.0
01/03/19 03:35 12.1 98 11.8 0.0 0.0 0 0.0 0.0 1022.0 0.0 0.0 12.1 0.0
01/03/19 03:36 12.1 98 11.8 0.0 0.0 0 0.0 0.0 1022.0 0.0 0.0 12.1 0.0
01/03/19 03:37 12.1 98 11.8 0.0 0.0 0 0.0 0.0 1022.0 0.0 0.0 12.1 0.0
01/03/19 03:38 12.0 98 11.7 0.0 0.0 0 0.0 0.0 1022.0 0.0 0.0 12.0 0.0
01/03/19 03:39 12.0 98 11.7 0.0 0.0 0 0.0 0.0 1022.0 0.0 0.0 12.0 0.0
01/03/19 03:40 12.0 98 11.7 0.0 0.0 0 0.0 0.0 1022.0 0.0 0.0 12.0 0.0
01/03/19 03:41 12.0 98 11.7 0.0 0.0 0 0.0 0.0 1022.0 0.0 0.0 12.0 0.0
01/03/19 03:42 12.0 98 11.7 0.0 0.0 0 0.0 0.0 1022.0 0.0 0.0 12.0 0.0
01/03/19 03:43 12.0 98 11.7 0.0 0.0 0 0.0 0.0 1022.0 0.0 0.0 12.0 0.0
01/03/19 03:44 11.9 98 11.6 0.0 0.0 0 0.0 0.0 1022.0 0.0 0.0 11.9 0.0
01/03/19 03:48 12.0 98 11.7 0.0 0.0 0 0.0 0.0 1022.0 0.0 0.0 12.0 0.0
01/03/19 03:49 12.0 98 11.7 0.0 0.0 0 0.0 0.0 1022.0 0.0 0.0 12.0 0.0
01/03/19 03:50 12.0 98 11.7 0.0 0.0 0 0.0 0.0 1022.0 0.0 0.0 12.0 0.0
01/03/19 03:51 11.9 98 11.6 0.0 0.0 0 0.0 0.0 1022.0 0.0 0.0 11.9 0.0
01/03/19 03:52 11.9 98 11.6 0.0 0.0 0 0.0 0.0 1022.0 0.0 0.0 11.9 0.0
01/03/19 03:53 11.9 98 11.6 0.0 0.0 0 0.0 0.0 1021.0 0.0 0.0 11.9 0.0
01/03/19 03:54 11.9 98 11.6 0.0 0.0 0 0.0 0.0 1021.0 0.0 0.0 11.9 0.0
01/03/19 03:55 11.8 98 11.5 0.0 0.0 0 0.0 0.0 1021.0 0.0 0.0 11.8 0.0
01/03/19 03:56 11.8 98 11.5 0.0 0.0 0 0.0 0.0 1021.0 0.0 0.0 11.8 0.0
01/03/19 03:57 11.8 98 11.5 0.0 0.0 0 0.0 0.0 1021.0 0.0 0.0 11.8 0.0
01/03/19 03:58 11.8 98 11.5 0.0 0.0 0 0.0 0.0 1021.0 0.0 0.0 11.8 0.0
01/03/19 03:59 11.8 98 11.5 0.0 0.0 0 0.0 0.0 1021.0 0.0 0.0 11.8 0.0
01/03/19 04:00 11.7 98 11.4 0.0 0.0 0 0.0 0.0 1021.0 0.0 0.0 11.7 0.0
01/03/19 04:03 11.7 98 11.4 0.0 0.0 0 0.0 0.0 1021.0 0.0 0.0 11.7 0.0
01/03/19 04:04 11.7 98 11.4 0.0 0.0 0 0.0 0.0 1021.0 0.0 0.0 11.7 0.0
01/03/19 04:05 11.7 98 11.4 0.0 0.0 0 0.0 0.0 1021.0 0.0 0.0 11.7 0.0
01/03/19 04:06 11.7 98 11.4 0.0 0.0 0 0.0 0.0 1021.0 0.0 0.0 11.7 0.0
01/03/19 04:07 11.7 98 11.4 0.0 0.0 0 0.0 0.0 1021.0 0.0 0.0 11.7 0.0
01/03/19 04:08 11.7 98 11.4 0.0 0.0 0 0.0 0.0 1021.0 0.0 0.0 11.7 0.0
01/03/19 04:09 11.7 98 11.4 0.0 0.0 0 0.0 0.0 1021.0 0.0 0.0 11.7 0.0
01/03/19 04:10 11.6 98 11.3 0.0 0.0 0 0.0 0.0 1021.0 0.0 0.0 11.6 0.0
01/03/19 04:11 11.7 98 11.4 0.0 0.0 0 0.0 0.0 1021.0 0.0 0.0 11.7 0.0
01/03/19 04:12 11.7 98 11.4 0.0 0.0 0 0.0 0.0 1021.0 0.0 0.0 11.7 0.0
01/03/19 04:13 11.7 98 11.4 0.0 0.0 0 0.0 0.0 1021.0 0.0 0.0 11.7 0.0
01/03/19 04:14 11.7 98 11.4 0.0 0.0 0 0.0 0.0 1021.0 0.0 0.0 11.7 0.0
01/03/19 04:18 11.7 98 11.4 0.0 0.0 0 0.0 0.0 1021.0 0.0 0.0 11.7 0.0
01/03/19 04:19 11.7 98 11.4 0.0 0.0 0 0.0 0.0 1021.0 0.0 0.0 11.7 0.0
01/03/19 04:20 11.7 98 11.4 0.0 0.0 0 0.0 0.0 1021.0 0.0 0.0 11.7 0.0
01/03/19 04:21 11.7 98 11.4 0.0 0.0 0 0.0 0.0 1021.0 0.0 0.0 11.7 0.0
01/03/19 04:22 11.7 98 11.4 0.0 0.0 0 0.0 0.0 1021.0 0.0 0.0 11.7 0.0
01/03/19 04:23 11.7 98 11.4 0.0 0.0 0 0.0 0.0 1021.0 0.0 0.0 11.7 0.0
01/03/19 04:24 11.7 98 11.4 0.0 0.0 0 0.0 0.0 1021.0 0.0 0.0 11.7 0.0
01/03/19 04:25 11.7 98 11.4 0.0 0.0 0 0.0 0.0 1021.0 0.0 0.0 11.7 0.0
01/03/19 04:26 11.6 98 11.3 0.0 0.0 0 0.0 0.0 1021.0 0.0 0.0 11.6 0.0
01/03/19 04:27 11.6 98 11.3 0.0 0.0 0 0.0 0.0 1021.0 0.0 0.0 11.6 0.0
01/03/19 04:28 11.7 98 11.4 0.0 0.0 0 0.0 0.0 1021.0 0.0 0.0 11.7 0.0
01/03/19 04:29 11.7 98 11.4 0.0 0.0 0 0.0 0.0 1021.0 0.0 0.0 11.7 0.0
01/03/19 04:33 11.6 98 11.3 0.0 0.0 0 0.0 0.0 1021.0 0.0 0.0 11.6 0.0
01/03/19 04:34 11.6 98 11.3 0.0 0.0 0 0.0 0.0 1021.0 0.0 0.0 11.6 0.0
01/03/19 04:35 11.6 98 11.3 0.0 0.0 0 0.0 0.0 1021.0 0.0 0.0 11.6 0.0
01/03/19 04:36 11.6 98 11.3 0.0 0.0 0 0.0 0.0 1021.0 0.0 0.0 11.6 0.0
01/03/19 04:37 11.6 98 11.3 0.0 0.0 0 0.0 0.0 1021.0 0.0 0.0 11.6 0.0
01/03/19 04:38 11.6 98 11.3 0.0 0.0 0 0.0 0.0 1022.0 0.0 0.0 11.6 0.0
01/03/19 04:39 11.6 98 11.3 0.0 0.0 0 0.0 0.0 1022.0 0.0 0.0 11.6 0.0
01/03/19 04:40 11.7 98 11.4 0.0 0.0 0 0.0 0.0 1022.0 0.0 0.0 11.7 0.0
01/03/19 04:48 11.7 98 11.4 0.0 0.0 0 0.0 0.0 1022.0 0.0 0.0 11.7 0.0
01/03/19 04:49 11.6 98 11.3 0.0 0.0 0 0.0 0.0 1022.0 0.0 0.0 11.6 0.0
01/03/19 04:50 11.6 98 11.3 0.0 0.0 0 0.0 0.0 1022.0 0.0 0.0 11.6 0.0
01/03/19 04:51 11.6 98 11.3 0.0 0.0 0 0.0 0.0 1022.0 0.0 0.0 11.6 0.0
01/03/19 04:52 11.6 98 11.3 0.0 0.0 0 0.0 0.0 1022.0 0.0 0.0 11.6 0.0
01/03/19 04:53 11.6 98 11.3 0.0 0.0 0 0.0 0.0 1022.0 0.0 0.0 11.6 0.0
01/03/19 05:03 11.5 98 11.2 0.0 0.0 0 0.0 0.0 1022.0 0.0 0.0 11.5 0.0
01/03/19 05:04 11.5 98 11.2 0.0 0.0 0 0.0 0.0 1022.0 0.0 0.0 11.5 0.0
01/03/19 05:05 11.5 98 11.2 0.0 0.0 0 0.0 0.0 1022.0 0.0 0.0 11.5 0.0
01/03/19 05:06 11.5 98 11.2 0.0 0.0 0 0.0 0.0 1022.0 0.0 0.0 11.5 0.0
01/03/19 05:07 11.4 98 11.1 0.0 0.0 0 0.0 0.0 1022.0 0.0 0.0 11.4 0.0
01/03/19 05:08 11.4 98 11.1 0.0 0.0 0 0.0 0.0 1022.0 0.0 0.0 11.4 0.0
01/03/19 05:09 11.4 98 11.1 0.0 0.0 0 0.0 0.0 1022.0 0.0 0.0 11.4 0.0
01/03/19 05:10 11.4 98 11.1 0.0 0.0 0 0.0 0.0 1022.0 0.0 0.0 11.4 0.0
01/03/19 05:11 11.4 98 11.1 0.0 0.0 0 0.0 0.0 1022.0 0.0 0.0 11.4 0.0
01/03/19 05:12 11.4 98 11.1 0.0 0.0 0 0.0 0.0 1022.0 0.0 0.0 11.4 0.0
01/03/19 05:13 11.3 98 11.0 0.0 0.0 0 0.0 0.0 1022.0 0.0 0.0 11.3 0.0
01/03/19 05:14 11.3 98 11.0 0.0 0.0 0 0.0 0.0 1022.0 0.0 0.0 11.3 0.0
01/03/19 05:15 11.3 98 11.0 0.0 0.0 0 0.0 0.0 1022.0 0.0 0.0 11.3 0.0
01/03/19 05:18 11.2 98 10.9 0.0 0.0 0 0.0 0.0 1022.0 0.0 0.0 11.2 0.0
01/03/19 05:19 11.2 98 10.9 0.0 0.0 0 0.0 0.0 1022.0 0.0 0.0 11.2 0.0
01/03/19 05:20 11.2 98 10.9 0.0 0.0 0 0.0 0.0 1022.0 0.0 0.0 11.2 0.0
01/03/19 05:21 11.3 98 11.0 0.0 0.0 0 0.0 0.0 1022.0 0.0 0.0 11.3 0.0
01/03/19 05:22 11.3 98 11.0 0.0 0.0 0 0.0 0.0 1022.0 0.0 0.0 11.3 0.0
01/03/19 05:23 11.3 98 11.0 0.0 0.0 0 0.0 0.0 1022.0 0.0 0.0 11.3 0.0
01/03/19 05:24 11.3 98 11.0 0.0 0.0 0 0.0 0.0 1022.0 0.0 0.0 11.3 0.0
01/03/19 05:25 11.3 98 11.0 0.0 0.0 0 0.0 0.0 1022.0 0.0 0.0 11.3 0.0
01/03/19 05:26 11.3 98 11.0 0.0 0.0 0 0.0 0.0 1022.0 0.0 0.0 11.3 0.0
01/03/19 05:27 11.3 98 11.0 0.0 0.0 0 0.0 0.0 1022.0 0.0 0.0 11.3 0.0
01/03/19 05:28 11.3 98 11.0 0.0 0.0 0 0.0 0.0 1022.0 0.0 0.0 11.3 0.0
01/03/19 05:29 11.3 98 11.0 0.0 0.0 0 0.0 0.0 1022.0 0.0 0.0 11.3 0.0
01/03/19 05:30 11.3 98 11.0 0.0 0.0 0 0.0 0.0 1022.0 0.0 0.0 11.3 0.0
01/03/19 05:33 11.3 98 11.0 0.0 0.0 0 0.0 0.0 1022.0 0.0 0.0 11.3 0.0
01/03/19 05:34 11.4 98 11.1 0.0 0.0 0 0.0 0.0 1022.0 0.0 0.0 11.4 0.0
01/03/19 05:35 11.4 98 11.1 0.0 0.0 0 0.0 0.0 1022.0 0.0 0.0 11.4 0.0
01/03/19 05:36 11.4 98 11.1 0.0 0.0 0 0.0 0.0 1022.0 0.0 0.0 11.4 0.0
01/03/19 05:37 11.4 98 11.1 0.0 0.0 0 0.0 0.0 1022.0 0.0 0.0 11.4 0.0
01/03/19 05:38 11.4 98 11.1 0.0 0.0 0 0.0 0.0 1022.0 0.0 0.0 11.4 0.0
01/03/19 05:39 11.4 98 11.1 0.0 0.0 0 0.0 0.0 1022.0 0.0 0.0 11.4 0.0
01/03/19 05:40 11.4 98 11.1 0.0 0.0 0 0.0 0.0 1022.0 0.0 0.0 11.4 0.0
01/03/19 05:41 11.4 98 11.1 0.0 0.0 0 0.0 0.0 1022.0 0.0 0.0 11.4 0.0
01/03/19 05:42 11.4 98 11.1 0.0 0.0 0 0.0 0.0 1022.0 0.0 0.0 11.4 0.0
01/03/19 05:43 11.3 98 11.0 0.0 0.0 0 0.0 0.0 1022.0 0.0 0.0 11.3 0.0
01/03/19 05:44 11.3 98 11.0 0.0 0.0 0 0.0 0.0 1022.0 0.0 0.0 11.3 0.0
01/03/19 05:45 11.3 98 11.0 0.0 0.0 0 0.0 0.0 1022.0 0.0 0.0 11.3 0.0
01/03/19 05:48 11.3 98 11.0 0.0 0.0 0 0.0 0.0 1022.0 0.0 0.0 11.3 0.0
01/03/19 06:03 11.3 98 11.0 0.0 0.0 0 0.0 0.0 1022.0 0.0 0.0 11.3 0.0
01/03/19 06:04 11.3 98 11.0 0.0 0.0 0 0.0 0.0 1022.0 0.0 0.0 11.3 0.0
01/03/19 06:05 11.3 98 11.0 0.0 0.0 0 0.0 0.0 1022.0 0.0 0.0 11.3 0.0
01/03/19 06:06 11.3 98 11.0 0.0 0.0 0 0.0 0.0 1022.0 0.0 0.0 11.3 0.0
01/03/19 06:07 11.4 98 11.1 0.0 0.0 0 0.0 0.0 1022.0 0.0 0.0 11.4 0.0
01/03/19 06:08 11.4 98 11.1 0.0 0.0 0 0.0 0.0 1022.0 0.0 0.0 11.4 0.0
01/03/19 06:09 11.4 98 11.1 0.0 0.0 0 0.0 0.0 1022.0 0.0 0.0 11.4 0.0
01/03/19 06:10 11.3 98 11.0 0.0 0.0 0 0.0 0.0 1022.0 0.0 0.0 11.3 0.0
01/03/19 06:11 11.3 98 11.0 0.0 0.0 0 0.0 0.0 1022.0 0.0 0.0 11.3 0.0
01/03/19 06:12 11.3 98 11.0 0.0 0.0 0 0.0 0.0 1022.0 0.0 0.0 11.3 0.0
01/03/19 06:13 11.3 98 11.0 0.0 0.0 0 0.0 0.0 1022.0 0.0 0.0 11.3 0.0
01/03/19 06:14 11.4 98 11.1 0.0 0.0 0 0.0 0.0 1022.0 0.0 0.0 11.4 0.0
01/03/19 06:15 11.3 98 11.0 0.0 0.0 0 0.0 0.0 1022.0 0.0 0.0 11.3 0.0
01/03/19 06:18 11.3 98 11.0 0.0 0.0 0 0.0 0.0 1022.0 0.0 0.0 11.3 0.0
01/03/19 06:19 11.3 98 11.0 0.0 0.0 0 0.0 0.0 1022.0 0.0 0.0 11.3 0.0
01/03/19 06:20 11.3 98 11.0 0.0 0.0 0 0.0 0.0 1022.0 0.0 0.0 11.3 0.0
01/03/19 06:21 11.4 98 11.1 0.0 0.0 0 0.0 0.0 1022.0 0.0 0.0 11.4 0.0
01/03/19 06:22 11.4 98 11.1 0.0 0.0 0 0.0 0.0 1022.0 0.0 0.0 11.4 0.0
01/03/19 06:23 11.4 98 11.1 0.0 0.0 0 0.0 0.0 1022.0 0.0 0.0 11.4 0.0
01/03/19 06:24 11.4 98 11.1 0.0 0.0 0 0.0 0.0 1022.0 0.0 0.0 11.4 0.0
01/03/19 06:25 11.4 98 11.1 0.0 0.0 0 0.0 0.0 1022.0 0.0 0.0 11.4 0.0
01/03/19 06:26 11.4 98 11.1 0.0 0.0 0 0.0 0.0 1022.0 0.0 0.0 11.4 0.0
01/03/19 06:27 11.4 98 11.1 0.0 0.0 0 0.0 0.0 1022.0 0.0 0.0 11.4 0.0
01/03/19 06:28 11.4 98 11.1 0.0 0.0 0 0.0 0.0 1022.0 0.0 0.0 11.4 0.0
01/03/19 06:29 11.4 98 11.1 0.0 0.0 0 0.0 0.0 1022.0 0.0 0.0 11.4 0.0
01/03/19 06:30 11.4 98 11.1 0.0 0.0 0 0.0 0.0 1022.0 0.0 0.0 11.4 0.0
01/03/19 06:33 11.4 98 11.1 0.0 0.0 0 0.0 0.0 1022.0 0.0 0.0 11.4 0.0
01/03/19 06:34 11.4 98 11.1 0.0 0.0 0 0.0 0.0 1022.0 0.0 0.0 11.4 0.0
01/03/19 06:35 11.4 98 11.1 0.0 0.0 0 0.0 0.0 1022.0 0.0 0.0 11.4 0.0
01/03/19 07:18 11.3 98 11.0 0.0 0.0 0 0.0 0.0 1023.0 0.0 0.0 11.3 0.0
01/03/19 07:19 11.3 98 11.0 0.0 0.0 0 0.0 0.0 1023.0 0.0 0.0 11.3 0.0
01/03/19 07:20 11.4 98 11.1 0.0 0.0 0 0.0 0.0 1023.0 0.0 0.0 11.4 0.0
01/03/19 07:21 11.4 98 11.1 0.0 0.0 0 0.0 0.0 1023.0 0.0 0.0 11.4 0.0
01/03/19 07:22 11.7 98 11.4 0.0 0.0 0 0.0 0.0 1023.0 0.0 0.0 11.7 0.0
01/03/19 07:23 12.2 98 11.9 0.0 0.0 0 0.0 0.0 1023.0 0.0 0.0 12.2 0.0
01/03/19 07:24 12.7 98 12.4 0.0 0.0 0 0.0 0.0 1023.0 0.0 0.0 12.7 0.0
01/03/19 07:25 13.1 98 12.8 0.0 0.0 0 0.0 0.0 1023.0 0.0 0.0 13.1 0.0
01/03/19 07:26 13.3 98 13.0 0.0 0.0 0 0.0 0.0 1023.0 0.0 0.0 13.3 0.0
01/03/19 07:27 13.5 98 13.2 0.0 0.0 0 0.0 0.0 1023.0 0.0 0.0 13.5 0.0
01/03/19 07:28 13.6 98 13.3 0.0 0.0 0 0.0 0.0 1023.0 0.0 0.0 13.6 0.0
01/03/19 07:29 14.1 98 13.8 0.0 0.0 0 0.0 0.0 1023.0 0.0 0.0 14.1 0.0
01/03/19 07:30 14.2 98 13.9 0.0 0.0 0 0.0 0.0 1023.0 0.0 0.0 14.2 0.0
01/03/19 07:33 14.7 96 14.1 0.0 0.0 0 0.0 0.0 1023.0 0.0 0.0 14.7 0.0
01/03/19 07:34 14.8 96 14.2 0.0 0.0 0 0.0 0.0 1023.0 0.0 0.0 14.8 0.0
01/03/19 07:35 14.7 95 13.9 0.0 0.0 0 0.0 0.0 1023.0 0.0 0.0 14.7 0.0
01/03/19 07:36 14.7 95 13.9 0.0 0.0 0 0.0 0.0 1023.0 0.0 0.0 14.7 0.0
01/03/19 07:37 14.9 95 14.1 0.0 0.0 0 0.0 0.0 1023.0 0.0 0.0 14.9 0.0
01/03/19 07:38 14.9 94 13.9 0.0 0.0 0 0.0 0.0 1023.0 0.0 0.0 14.9 0.0
01/03/19 07:39 15.0 94 14.0 0.0 0.0 0 0.0 0.0 1023.0 0.0 0.0 15.0 0.0
01/03/19 07:40 15.1 94 14.1 0.0 0.0 0 0.0 0.0 1023.0 0.0 0.0 15.1 0.0
01/03/19 07:41 15.2 93 14.1 0.0 0.0 0 0.0 0.0 1023.0 0.0 0.0 15.2 0.0
01/03/19 07:42 15.2 93 14.1 0.0 0.0 0 0.0 0.0 1023.0 0.0 0.0 15.2 0.0
01/03/19 07:43 15.2 93 14.1 0.0 0.0 0 0.0 0.0 1023.0 0.0 0.0 15.2 0.0
01/03/19 07:44 15.2 93 14.1 0.0 0.0 0 0.0 0.0 1023.0 0.0 0.0 15.2 0.0
01/03/19 07:45 15.3 92 14.0 0.0 0.0 0 0.0 0.0 1023.0 0.0 0.0 15.3 0.0
01/03/19 07:48 15.2 92 13.9 0.0 0.0 0 0.0 0.0 1023.0 0.0 0.0 15.2 0.0
01/03/19 07:49 15.1 92 13.8 0.0 0.0 0 0.0 0.0 1023.0 0.0 0.0 15.1 0.0
01/03/19 07:50 15.1 92 13.8 0.0 0.0 0 0.0 0.0 1023.0 0.0 0.0 15.1 0.0
01/03/19 07:51 15.2 92 13.9 0.0 0.0 0 0.0 0.0 1023.0 0.0 0.0 15.2 0.0
01/03/19 07:52 15.2 92 13.9 0.0 0.0 0 0.0 0.0 1023.0 0.0 0.0 15.2 0.0
01/03/19 07:53 15.3 92 14.0 0.0 0.0 0 0.0 0.0 1022.0 0.0 0.0 15.3 0.0
01/03/19 07:54 15.3 92 14.0 0.0 0.0 0 0.0 0.0 1022.0 0.0 0.0 15.3 0.0
01/03/19 07:55 15.4 92 14.1 0.0 0.0 0 0.0 0.0 1022.0 0.0 0.0 15.4 0.0
01/03/19 07:56 15.5 92 14.2 0.0 0.0 0 0.0 0.0 1022.0 0.0 0.0 15.5 0.0
01/03/19 07:57 15.4 92 14.1 0.0 0.0 0 0.0 0.0 1022.0 0.0 0.0 15.4 0.0
01/03/19 07:58 15.4 91 13.9 0.0 0.0 0 0.0 0.0 1022.0 0.0 0.0 15.4 0.0
01/03/19 07:59 15.4 91 13.9 0.0 0.0 0 0.0 0.0 1022.0 0.0 0.0 15.4 0.0
01/03/19 08:00 15.2 91 13.7 0.0 0.0 0 0.0 0.0 1022.0 0.0 0.0 15.2 0.0
01/03/19 08:03 15.2 91 13.7 0.0 0.0 0 0.0 0.0 1022.0 0.0 0.0 15.2 0.0
01/03/19 08:04 15.1 91 13.6 0.0 0.0 0 0.0 0.0 1022.0 0.0 0.0 15.1 0.0
01/03/19 08:05 15.2 91 13.7 0.0 0.0 0 0.0 0.0 1022.0 0.0 0.0 15.2 0.0
01/03/19 08:06 15.2 91 13.7 0.0 0.0 0 0.0 0.0 1022.0 0.0 0.0 15.2 0.0
01/03/19 08:07 15.3 91 13.8 0.0 0.0 0 0.0 0.0 1022.0 0.0 0.0 15.3 0.0
01/03/19 08:08 15.4 91 13.9 0.0 0.0 0 0.0 0.0 1022.0 0.0 0.0 15.4 0.0
01/03/19 08:09 15.5 91 14.0 0.0 0.0 0 0.0 0.0 1022.0 0.0 0.0 15.5 0.0
01/03/19 08:10 15.6 91 14.1 0.0 0.0 0 0.0 0.0 1022.0 0.0 0.0 15.6 0.0
01/03/19 08:11 15.5 90 13.9 0.0 0.0 0 0.0 0.0 1022.0 0.0 0.0 15.5 0.0
01/03/19 08:12 15.6 90 14.0 0.0 0.0 0 0.0 0.0 1022.0 0.0 0.0 15.6 0.0
01/03/19 08:13 15.6 90 14.0 0.0 0.0 0 0.0 0.0 1022.0 0.0 0.0 15.6 0.0
01/03/19 08:14 15.6 90 14.0 0.0 0.0 0 0.0 0.0 1022.0 0.0 0.0 15.6 0.0
01/03/19 08:15 15.6 90 14.0 0.0 0.0 0 0.0 0.0 1022.0 0.0 0.0 15.6 0.0
01/03/19 08:18 15.6 90 14.0 0.0 0.0 0 0.0 0.0 1022.0 0.0 0.0 15.6 0.0
01/03/19 08:19 15.5 89 13.7 0.0 0.0 0 0.0 0.0 1022.0 0.0 0.0 15.5 0.0
01/03/19 08:20 15.4 89 13.6 0.0 0.0 0 0.0 0.0 1022.0 0.0 0.0 15.4 0.0
01/03/19 08:21 15.4 89 13.6 0.0 0.0 0 0.0 0.0 1022.0 0.0 0.0 15.4 0.0
01/03/19 08:22 15.4 89 13.6 0.0 0.0 0 0.0 0.0 1022.0 0.0 0.0 15.4 0.0
01/03/19 08:23 15.4 89 13.6 0.0 0.0 0 0.0 0.0 1022.0 0.0 0.0 15.4 0.0
01/03/19 08:24 15.4 89 13.6 0.0 0.0 0 0.0 0.0 1022.0 0.0 0.0 15.4 0.0
01/03/19 08:25 15.4 89 13.6 0.0 0.0 0 0.0 0.0 1022.0 0.0 0.0 15.4 0.0
01/03/19 08:26 15.5 89 13.7 0.0 0.0 0 0.0 0.0 1022.0 0.0 0.0 15.5 0.0
01/03/19 08:27 15.5 89 13.7 0.0 0.0 0 0.0 0.0 1022.0 0.0 0.0 15.5 0.0
01/03/19 08:28 15.5 89 13.7 0.0 0.0 0 0.0 0.0 1022.0 0.0 0.0 15.5 0.0
01/03/19 08:29 15.4 89 13.6 0.0 0.0 0 0.0 0.0 1022.0 0.0 0.0 15.4 0.0
01/03/19 08:30 15.3 89 13.5 0.0 0.0 0 0.0 0.0 1022.0 0.0 0.0 15.3 0.0
01/03/19 08:33 15.3 89 13.5 0.0 0.0 0 0.0 0.0 1022.0 0.0 0.0 15.3 0.0
01/03/19 08:34 15.3 89 13.5 0.0 0.0 0 0.0 0.0 1022.0 0.0 0.0 15.3 0.0
01/03/19 08:35 15.3 89 13.5 0.0 0.0 0 0.0 0.0 1022.0 0.0 0.0 15.3 0.0
01/03/19 08:36 15.3 89 13.5 0.0 0.0 0 0.0 0.0 1022.0 0.0 0.0 15.3 0.0
01/03/19 08:37 15.4 89 13.6 0.0 0.0 0 0.0 0.0 1022.0 0.0 0.0 15.4 0.0
01/03/19 08:38 15.6 89 13.8 0.0 0.0 0 0.0 0.0 1022.0 0.0 0.0 15.6 0.0
01/03/19 08:39 15.8 89 14.0 0.0 0.0 0 0.0 0.0 1022.0 0.0 0.0 15.8 0.0
01/03/19 08:40 16.0 89 14.2 0.0 0.0 0 0.0 0.0 1022.0 0.0 0.0 16.0 0.0
01/03/19 08:41 16.1 89 14.3 0.0 0.0 0 0.0 0.0 1022.0 0.0 0.0 16.1 0.0
01/03/19 08:42 16.2 89 14.4 0.0 0.0 0 0.0 0.0 1022.0 0.0 0.0 16.2 0.0
01/03/19 08:43 16.3 88 14.3 0.0 0.0 0 0.0 0.0 1022.0 0.0 0.0 16.3 0.0
01/03/19 08:44 16.3 88 14.3 0.0 0.0 0 0.0 0.0 1022.0 0.0 0.0 16.3 0.0
01/03/19 08:45 16.6 88 14.6 0.0 0.0 0 0.0 0.0 1022.0 0.0 0.0 16.6 0.0
01/03/19 08:48 17.0 87 14.8 0.0 0.0 0 0.0 0.0 1022.0 0.0 0.0 17.0 0.0
01/03/19 08:49 17.1 86 14.7 0.0 0.0 0 0.0 0.0 1022.0 0.0 0.0 17.1 0.0
01/03/19 08:50 17.1 86 14.7 0.0 0.0 0 0.0 0.0 1022.0 0.0 0.0 17.1 0.0
01/03/19 08:51 17.2 86 14.8 0.0 0.0 0 0.0 0.0 1022.0 0.0 0.0 17.2 0.0
01/03/19 08:52 17.4 85 14.9 0.0 0.0 0 0.0 0.0 1022.0 0.0 0.0 17.4 0.0
01/03/19 08:53 17.6 85 15.0 0.0 0.0 0 0.0 0.0 1023.0 0.0 0.0 17.6 0.0
01/03/19 08:54 17.7 84 15.0 0.0 0.0 0 0.0 0.0 1023.0 0.0 0.0 17.7 0.0
01/03/19 08:55 17.9 84 15.2 0.0 0.0 0 0.0 0.0 1023.0 0.0 0.0 17.9 0.0
01/03/19 08:56 18.1 84 15.4 0.0 0.0 0 0.0 0.0 1023.0 0.0 0.0 18.1 0.0
01/03/19 08:57 18.2 84 15.5 0.0 0.0 0 0.0 0.0 1023.0 0.0 0.0 18.2 0.0
01/03/19 08:58 18.3 83 15.4 0.0 0.0 0 0.0 0.0 1023.0 0.0 0.0 18.3 0.0
01/03/19 08:59 18.3 82 15.2 0.0 0.0 0 0.0 0.0 1023.0 0.0 0.0 18.3 0.0
01/03/19 09:03 18.2 79 14.5 0.0 0.0 0 0.0 0.0 1023.0 0.0 0.0 18.2 0.0
01/03/19 09:04 18.2 79 14.5 0.0 0.0 0 0.0 0.0 1023.0 0.0 0.0 18.2 0.0
01/03/19 09:05 18.1 79 14.4 0.0 0.0 0 0.0 0.0 1023.0 0.0 0.0 18.1 0.0
01/03/19 09:06 18.1 79 14.4 0.0 0.0 0 0.0 0.0 1023.0 0.0 0.0 18.1 0.0
01/03/19 09:07 18.2 79 14.5 0.0 0.0 0 0.0 0.0 1023.0 0.0 0.0 18.2 0.0
01/03/19 09:08 18.3 79 14.6 0.0 0.0 0 0.0 0.0 1023.0 0.0 0.0 18.3 0.0
01/03/19 09:09 18.3 79 14.6 0.0 0.0 0 0.0 0.0 1023.0 0.0 0.0 18.3 0.0
01/03/19 09:10 18.3 78 14.4 0.0 0.0 0 0.0 0.0 1023.0 0.0 0.0 18.3 0.0
01/03/19 09:11 18.3 78 14.4 0.0 0.0 0 0.0 0.0 1023.0 0.0 0.0 18.3 0.0
01/03/19 09:12 18.5 78 14.6 0.0 0.0 0 0.0 0.0 1023.0 0.0 0.0 18.5 0.0
01/03/19 09:13 18.5 79 14.8 0.0 0.0 0 0.0 0.0 1023.0 0.0 0.0 18.5 0.0
01/03/19 09:14 18.4 78 14.5 0.0 0.0 0 0.0 0.0 1023.0 0.0 0.0 18.4 0.0
01/03/19 09:15 18.2 77 14.1 0.0 0.0 0 0.0 0.0 1023.0 0.0 0.0 18.2 0.0
01/03/19 09:18 18.4 78 14.5 0.0 0.0 0 0.0 0.0 1023.0 0.0 0.0 18.4 0.0
01/03/19 09:19 18.5 78 14.6 0.0 0.0 0 0.0 0.0 1023.0 0.0 0.0 18.5 0.0
01/03/19 09:20 18.5 78 14.6 0.0 0.0 0 0.0 0.0 1023.0 0.0 0.0 18.5 0.0
01/03/19 09:21 18.7 78 14.8 0.0 0.0 0 0.0 0.0 1023.0 0.0 0.0 18.7 0.0
01/03/19 09:22 18.9 78 15.0 0.0 0.0 0 0.0 0.0 1023.0 0.0 0.0 18.9 0.0
01/03/19 09:23 19.0 78 15.1 0.0 0.0 0 0.0 0.0 1023.0 0.0 0.0 19.0 0.0
01/03/19 09:24 19.1 77 15.0 0.0 0.0 0 0.0 0.0 1023.0 0.0 0.0 19.1 0.0
01/03/19 09:25 19.1 76 14.8 0.0 0.0 0 0.0 0.0 1023.0 0.0 0.0 19.1 0.0
01/03/19 09:26 19.1 76 14.8 0.0 0.0 0 0.0 0.0 1023.0 0.0 0.0 19.1 0.0
01/03/19 09:27 19.2 75 14.7 0.0 0.0 0 0.0 0.0 1023.0 0.0 0.0 19.2 0.0
01/03/19 09:28 19.2 74 14.5 0.0 0.0 0 0.0 0.0 1023.0 0.0 0.0 19.2 0.0
01/03/19 09:29 19.4 74 14.6 0.0 0.0 0 0.0 0.0 1023.0 0.0 0.0 19.4 0.0
01/03/19 09:30 19.4 73 14.4 0.0 0.0 0 0.0 0.0 1023.0 0.0 0.0 19.4 0.0
01/03/19 09:33 19.3 71 13.9 0.0 0.0 0 0.0 0.0 1023.0 0.0 0.0 19.3 0.0
01/03/19 09:34 19.2 71 13.8 0.0 0.0 0 0.0 0.0 1023.0 0.0 0.0 19.2 0.0
01/03/19 09:35 19.4 70 13.8 0.0 0.0 0 0.0 0.0 1023.0 0.0 0.0 19.4 0.0
01/03/19 09:36 19.6 70 14.0 0.0 0.0 0 0.0 0.0 1023.0 0.0 0.0 19.6 0.0
01/03/19 09:37 19.9 70 14.3 0.0 0.0 0 0.0 0.0 1023.0 0.0 0.0 19.9 0.0
01/03/19 09:38 20.2 69 14.3 0.0 0.0 0 0.0 0.0 1023.0 0.0 0.0 20.2 0.0
01/03/19 09:39 20.3 69 14.4 0.0 0.0 0 0.0 0.0 1023.0 0.0 0.0 20.3 0.0
01/03/19 09:40 20.5 68 14.4 0.0 0.0 0 0.0 0.0 1023.0 0.0 0.0 20.5 0.0
01/03/19 09:41 20.6 68 14.5 0.0 0.0 0 0.0 0.0 1023.0 0.0 0.0 20.6 0.0
01/03/19 09:42 20.5 67 14.2 5.8 8.6 1 0.0 0.0 1023.0 8.6 20.6 20.5 0.0
01/03/19 09:43 20.6 67 14.3 5.8 8.6 1 0.0 0.0 1023.0 8.6 20.5 20.6 0.0
01/03/19 09:44 20.7 67 14.4 5.8 8.6 1 0.0 0.0 1023.0 8.6 20.6 20.7 0.0
01/03/19 09:45 20.8 67 14.4 5.8 8.6 1 0.0 0.0 1023.0 8.6 20.7 20.8 0.0
01/03/19 09:48 21.4 66 14.8 5.8 8.6 1 0.0 0.0 1023.0 8.6 21.5 21.4 0.0
01/03/19 10:03 21.1 57 12.2 6.5 1.8 135 0.0 0.0 1023.0 1.8 21.1 21.1 0.0
01/03/19 10:04 21.3 59 13.0 7.2 4.3 152 0.0 0.0 1023.0 4.3 21.3 21.3 0.0
01/03/19 10:05 21.5 59 13.1 3.2 4.3 166 0.0 0.0 1023.0 3.2 21.3 21.5 0.0
01/03/19 10:06 21.7 58 13.1 3.2 4.3 168 0.0 0.0 1023.0 3.2 21.5 21.7 0.0
01/03/19 10:07 21.6 57 12.7 3.2 4.3 169 0.0 0.0 1023.0 3.2 21.7 21.6 0.0
01/03/19 10:08 21.7 56 12.5 3.2 4.3 171 0.0 0.0 1023.0 3.2 21.6 21.7 0.0
01/03/19 10:09 21.8 56 12.6 6.8 4.3 166 0.0 0.0 1023.0 3.2 21.7 21.8 0.0
01/03/19 10:10 21.9 56 12.7 6.8 4.3 163 0.0 0.0 1023.0 3.2 21.8 21.9 0.0
01/03/19 10:11 21.9 54 12.2 6.8 4.3 161 0.0 0.0 1023.0 3.2 21.9 21.9 0.0
01/03/19 10:12 21.8 54 12.1 6.8 4.3 159 0.0 0.0 1023.0 3.2 21.9 21.8 0.0
01/03/19 10:13 21.8 55 12.4 6.8 4.3 159 0.0 0.0 1023.0 3.2 21.8 21.8 0.0
01/03/19 10:14 21.9 54 12.2 6.8 4.3 159 0.0 0.0 1023.0 3.2 21.8 21.9 0.0
01/03/19 10:18 22.5 54 12.7 6.8 3.2 159 0.0 0.0 1023.0 3.2 0.0 22.5 0.0
01/03/19 10:19 22.6 52 12.2 3.6 13.0 145 0.0 0.0 1023.0 13.0 22.5 22.6 0.0
01/03/19 10:20 22.6 52 12.2 3.6 13.0 145 0.0 0.0 1023.0 13.0 22.5 22.6 0.0
01/03/19 10:21 22.6 51 11.9 3.6 13.0 140 0.0 0.0 1023.0 13.0 22.6 22.6 0.0
01/03/19 10:22 22.6 51 11.9 6.5 13.0 130 0.0 0.0 1023.0 6.5 22.6 22.6 0.0
01/03/19 10:23 22.7 52 12.3 6.5 13.0 123 0.0 0.0 1023.0 6.5 22.6 22.7 0.0
01/03/19 10:24 22.9 52 12.5 6.5 13.0 105 0.0 0.0 1023.0 6.5 22.8 22.9 0.0
01/03/19 10:25 22.9 52 12.5 6.5 13.0 105 0.0 0.0 1023.0 6.5 22.8 22.9 0.0
01/03/19 10:50 22.2 50 11.3 4.7 5.8 135 0.0 0.0 1024.0 5.8 0.0 22.2 0.0
01/03/19 10:51 22.1 50 11.2 4.7 5.8 135 0.0 0.0 1024.0 5.8 22.2 22.1 0.0
01/03/19 10:52 22.0 49 10.8 4.7 5.8 135 0.0 0.0 1024.0 5.8 22.1 22.0 0.0
01/03/19 10:53 22.1 50 11.2 3.6 5.8 112 0.0 0.0 1023.0 3.6 22.0 22.1 0.0
01/03/19 10:54 22.0 49 10.8 4.7 5.8 111 0.0 0.0 1023.0 4.0 22.1 22.0 0.0
01/03/19 10:55 22.1 49 10.9 4.7 5.8 115 0.0 0.0 1023.0 4.0 22.0 22.1 0.0
01/03/19 10:56 22.2 49 11.0 4.7 5.8 118 0.0 0.0 1023.0 4.0 22.1 22.2 0.0
01/03/19 10:57 22.3 49 11.1 4.7 5.8 120 0.0 0.0 1023.0 4.0 22.2 22.3 0.0
01/03/19 10:58 22.5 49 11.2 5.8 5.8 123 0.0 0.0 1023.0 4.7 22.5 22.5 0.0
01/03/19 10:59 22.6 48 11.0 5.8 5.8 124 0.0 0.0 1023.0 4.7 22.5 22.6 0.0
01/03/19 11:00 22.5 47 10.6 5.8 5.8 125 0.0 0.0 1023.0 4.7 22.6 22.5 0.0
01/03/19 11:03 22.9 47 11.0 5.8 4.7 122 0.0 0.0 1023.0 4.7 22.7 22.9 0.0
01/03/19 11:04 23.1 46 10.8 4.7 6.1 105 0.0 0.0 1023.0 6.1 22.9 23.1 0.0
01/03/19 11:05 23.1 45 10.5 4.7 6.1 93 0.0 0.0 1023.0 6.1 23.1 23.1 0.0
01/03/19 11:06 23.2 46 10.9 5.8 6.1 85 0.0 0.0 1023.0 4.7 23.2 23.2 0.0
01/03/19 11:07 23.3 45 10.7 5.8 6.1 88 0.0 0.0 1023.0 4.7 23.2 23.3 0.0
01/03/19 11:08 23.3 45 10.7 7.2 7.9 94 0.0 0.0 1024.0 7.9 23.3 23.3 0.0
01/03/19 11:09 23.1 45 10.5 7.2 7.9 106 0.0 0.0 1024.0 7.9 23.2 23.1 0.0
01/03/19 11:10 23.1 44 10.2 6.5 7.9 80 0.0 0.0 1024.0 7.2 23.1 23.1 0.0
01/03/19 11:11 23.1 44 10.2 7.6 7.9 59 0.0 0.0 1024.0 4.7 23.1 23.1 0.0
01/03/19 11:12 23.3 44 10.4 7.6 7.9 53 0.0 0.0 1024.0 4.7 23.1 23.3 0.0
01/03/19 11:13 23.4 44 10.4 4.3 7.9 29 0.0 0.0 1024.0 3.6 23.4 23.4 0.0
01/03/19 11:14 23.5 44 10.5 4.3 8.6 36 0.0 0.0 1024.0 8.6 23.5 23.5 0.0
01/03/19 11:18 23.3 43 10.0 5.4 8.6 90 0.0 0.0 1024.0 6.8 23.5 23.3 0.0
01/03/19 11:19 23.2 44 10.3 4.7 8.6 102 0.0 0.0 1024.0 5.4 23.2 23.2 0.0
01/03/19 11:20 23.2 44 10.3 4.7 8.6 106 0.0 0.0 1024.0 5.4 23.2 23.2 0.0
01/03/19 11:21 23.1 44 10.2 4.7 8.6 114 0.0 0.0 1024.0 5.4 23.2 23.1 0.0
01/03/19 11:22 23.2 44 10.3 4.7 8.6 122 0.0 0.0 1024.0 5.4 23.1 23.2 0.0
01/03/19 11:23 23.3 45 10.7 4.7 8.6 129 0.0 0.0 1023.0 5.4 23.2 23.3 0.0
01/03/19 11:24 23.2 43 9.9 4.7 8.6 144 0.0 0.0 1023.0 5.4 23.3 23.2 0.0
01/03/19 11:25 23.2 43 9.9 4.7 6.8 160 0.0 0.0 1023.0 5.4 23.2 23.2 0.0
01/03/19 11:26 23.3 44 10.4 3.6 6.8 154 0.0 0.0 1023.0 2.2 23.3 23.3 0.0
01/03/19 11:27 23.5 44 10.5 3.6 6.8 156 0.0 0.0 1023.0 2.2 23.3 23.5 0.0
01/03/19 11:28 23.6 43 10.3 3.2 6.8 168 0.0 0.0 1023.0 6.5 23.5 23.6 0.0
01/03/19 11:29 23.6 43 10.3 3.2 6.5 185 0.0 0.0 1023.0 6.5 23.6 23.6 0.0
01/03/19 11:30 23.6 43 10.3 4.3 6.5 215 0.0 0.0 1023.0 3.2 23.6 23.6 0.0
01/03/19 11:32 23.8 44 10.8 4.3 6.5 155 0.0 0.0 1023.0 3.2 23.6 23.8 0.0
01/03/19 11:33 23.8 44 10.8 4.3 6.5 158 0.0 0.0 1023.0 3.2 23.8 23.8 0.0
01/03/19 11:34 23.8 43 10.5 4.3 6.5 160 0.0 0.0 1023.0 3.2 23.8 23.8 0.0
01/03/19 11:35 23.9 43 10.6 4.3 6.5 160 0.0 0.0 1023.0 3.2 23.8 23.9 0.0
01/03/19 11:36 23.8 43 10.5 6.5 6.5 155 0.0 0.0 1023.0 4.3 23.8 23.8 0.0
01/03/19 11:37 23.9 43 10.6 6.5 6.5 146 0.0 0.0 1023.0 3.6 23.8 23.9 0.0
01/03/19 11:38 24.0 42 10.3 6.5 6.5 138 0.0 0.0 1023.0 3.6 23.9 24.0 0.0
01/03/19 11:39 24.3 43 10.9 6.5 6.5 79 0.0 0.0 1023.0 3.6 24.2 24.3 0.0
01/03/19 11:40 24.3 43 10.9 6.5 4.3 40 0.0 0.0 1023.0 3.6 24.3 24.3 0.0
01/03/19 11:41 24.1 43 10.7 6.5 4.3 33 0.0 0.0 1023.0 3.6 24.3 24.1 0.0
01/03/19 11:42 23.9 42 10.2 6.5 4.3 28 0.0 0.0 1023.0 3.6 24.1 23.9 0.0
01/03/19 11:43 23.8 43 10.5 6.5 4.3 19 0.0 0.0 1023.0 3.6 23.9 23.8 0.0
01/03/19 11:44 23.7 43 10.4 6.5 4.3 12 0.0 0.0 1023.0 3.6 23.8 23.7 0.0
01/03/19 11:45 23.7 42 10.0 4.7 4.3 6 0.0 0.0 1023.0 2.5 23.7 23.7 0.0
01/03/19 11:47 23.6 42 9.9 5.4 4.0 61 0.0 0.0 1023.0 4.0 23.7 23.6 0.0
01/03/19 11:48 23.4 42 9.8 5.4 4.0 62 0.0 0.0 1023.0 4.0 23.6 23.4 0.0
01/03/19 11:49 23.2 42 9.6 5.4 4.0 63 0.0 0.0 1023.0 4.0 23.4 23.2 0.0
01/03/19 11:50 23.1 42 9.5 5.0 5.0 84 0.0 0.0 1023.0 5.0 23.2 23.1 0.0
01/03/19 11:51 23.2 42 9.6 5.0 5.0 97 0.0 0.0 1023.0 5.0 23.1 23.2 0.0
01/03/19 11:52 23.3 42 9.7 5.0 5.0 110 0.0 0.0 1023.0 5.0 23.2 23.3 0.0
01/03/19 11:53 23.3 42 9.7 5.0 5.0 120 0.0 0.0 1023.0 5.0 23.3 23.3 0.0
01/03/19 11:54 23.4 41 9.4 6.5 6.5 129 0.0 0.0 1023.0 6.5 23.4 23.4 0.0
01/03/19 11:55 23.5 41 9.5 8.6 6.5 133 0.0 0.0 1023.0 6.5 23.4 23.5 0.0
01/03/19 11:56 23.6 41 9.6 7.2 9.7 135 0.0 0.0 1023.0 9.7 23.5 23.6 0.0
01/03/19 11:57 23.6 41 9.6 7.2 9.7 135 0.0 0.0 1023.0 9.7 23.6 23.6 0.0
01/03/19 11:58 23.5 41 9.5 7.2 9.7 135 0.0 0.0 1023.0 9.7 23.6 23.5 0.0
01/03/19 11:59 23.5 41 9.5 7.2 9.7 135 0.0 0.0 1023.0 9.7 23.5 23.5 0.0
01/03/19 12:02 23.8 42 10.1 7.2 9.7 131 0.0 0.0 1023.0 9.7 23.7 23.8 0.0
01/03/19 12:03 23.9 42 10.2 7.2 9.7 133 0.0 0.0 1023.0 9.7 23.8 23.9 0.0
01/03/19 12:04 23.8 41 9.8 7.2 9.7 134 0.0 0.0 1023.0 9.7 23.9 23.8 0.0
01/03/19 12:05 24.0 41 9.9 4.7 9.7 134 0.0 0.0 1023.0 4.3 24.0 24.0 0.0
01/03/19 12:06 24.2 41 10.1 4.7 9.7 135 0.0 0.0 1023.0 4.3 24.0 24.2 0.0
01/03/19 12:07 24.3 40 9.8 6.5 9.7 135 0.0 0.0 1023.0 6.5 24.3 24.3 0.0
01/03/19 12:08 24.4 40 9.9 6.5 9.7 135 0.0 0.0 1023.0 6.8 24.4 24.4 0.0
01/03/19 12:09 24.5 40 10.0 6.5 9.7 135 0.0 0.0 1023.0 6.1 24.5 24.5 0.0
01/03/19 12:10 25.0 40 10.5 6.1 9.7 135 0.0 0.0 1023.0 6.8 24.7 25.0 0.0
01/03/19 12:11 25.0 40 10.5 5.4 9.7 135 0.0 0.0 1023.0 6.5 25.0 25.0 0.0
01/03/19 12:12 25.2 40 10.6 2.5 9.7 128 0.0 0.0 1023.0 0.0 25.2 25.2 0.0
01/03/19 12:13 25.5 41 11.3 2.5 9.7 127 0.0 0.0 1023.0 0.0 25.2 25.5 0.0
01/03/19 12:14 25.6 40 11.0 3.6 9.7 125 0.0 0.0 1023.0 3.2 25.6 25.6 0.0
01/03/19 12:15 25.7 40 11.1 3.6 9.7 124 0.0 0.0 1023.0 3.2 25.6 25.7 0.0
01/03/19 12:18 26.2 37 10.4 8.6 9.7 132 0.0 0.0 1023.0 9.7 26.2 26.2 0.0
01/03/19 12:19 26.0 36 9.8 8.6 11.9 359 0.0 0.0 1023.0 11.9 26.2 26.0 0.0
01/03/19 12:20 25.8 36 9.6 8.6 11.9 330 0.0 0.0 1023.0 11.9 26.0 25.8 0.0
01/03/19 12:21 25.8 36 9.6 9.4 11.9 325 0.0 0.0 1023.0 5.0 25.8 25.8 0.0
01/03/19 12:22 25.6 37 9.8 9.4 11.9 322 0.0 0.0 1023.0 5.0 25.8 25.6 0.0
01/03/19 12:23 25.6 37 9.8 9.4 11.9 322 0.0 0.0 1022.0 5.0 25.8 25.6 0.0
01/03/19 12:24 25.5 38 10.1 9.4 11.9 322 0.0 0.0 1022.0 5.0 25.6 25.5 0.0
01/03/19 12:25 25.4 38 10.0 9.4 11.9 320 0.0 0.0 1022.0 5.0 25.5 25.4 0.0
01/03/19 12:26 25.4 38 10.0 9.4 11.9 320 0.0 0.0 1022.0 5.0 25.5 25.4 0.0
01/03/19 12:27 25.3 38 10.0 9.4 11.9 319 0.0 0.0 1022.0 5.0 25.4 25.3 0.0
01/03/19 12:28 25.3 38 10.0 4.7 11.9 319 0.0 0.0 1022.0 4.0 25.3 25.3 0.0
01/03/19 12:29 25.8 39 10.8 4.7 11.9 314 0.0 0.0 1022.0 4.0 25.3 25.8 0.0
01/03/19 12:30 25.8 39 10.8 4.7 11.9 314 0.0 0.0 1022.0 4.0 25.3 25.8 0.0
01/03/19 12:32 26.1 37 10.3 4.7 5.0 319 0.0 0.0 1022.0 4.0 26.1 26.1 0.0
01/03/19 12:33 26.1 38 10.7 4.3 5.0 304 0.0 0.0 1022.0 4.3 26.1 26.1 0.0
01/03/19 12:34 26.2 38 10.8 5.4 5.0 287 0.0 0.0 1022.0 4.0 26.1 26.2 0.0
01/03/19 12:48 26.4 35 9.7 9.0 13.7 343 0.0 0.0 1023.0 2.5 26.2 26.4 0.0
01/03/19 12:49 26.5 36 10.2 9.0 13.7 344 0.0 0.0 1023.0 2.5 26.4 26.5 0.0
01/03/19 12:50 26.5 35 9.8 5.4 13.7 347 0.0 0.0 1023.0 7.2 26.5 26.5 0.0
01/03/19 12:51 26.5 36 10.2 5.4 13.7 348 0.0 0.0 1023.0 7.2 26.5 26.5 0.0
01/03/19 12:52 26.7 36 10.4 5.4 13.7 350 0.0 0.0 1023.0 4.3 26.5 26.5 0.0
01/03/19 12:53 26.8 36 10.5 5.4 13.7 350 0.0 0.0 1023.0 4.3 26.7 26.5 0.0
01/03/19 12:54 26.8 36 10.5 4.3 13.7 348 0.0 0.0 1023.0 5.4 26.8 26.5 0.0
01/03/19 12:55 26.7 35 10.0 6.5 13.7 349 0.0 0.0 1023.0 10.4 26.7 26.4 0.0
01/03/19 12:56 26.6 35 9.9 6.1 13.7 351 0.0 0.0 1023.0 8.6 26.7 26.6 0.0
01/03/19 12:57 26.3 34 9.2 9.0 10.4 349 0.0 0.0 1023.0 4.0 26.6 26.3 0.0
01/03/19 12:58 26.0 35 9.3 9.0 10.4 351 0.0 0.0 1023.0 4.0 26.3 26.0 0.0
01/03/19 12:59 25.8 35 9.2 9.0 10.4 349 0.0 0.0 1023.0 4.0 26.0 25.8 0.0
01/03/19 13:00 25.6 36 9.4 9.0 10.4 347 0.0 0.0 1023.0 4.0 25.8 25.6 0.0
01/03/19 13:02 25.2 36 9.1 5.0 10.4 350 0.0 0.0 1023.0 2.2 25.2 25.2 0.0
01/03/19 13:03 25.7 36 9.5 3.2 10.4 354 0.0 0.0 1023.0 5.8 25.4 25.7 0.0
01/03/19 13:04 25.8 36 9.6 5.4 10.4 346 0.0 0.0 1023.0 4.0 25.7 25.8 0.0
01/03/19 13:05 26.1 36 9.9 5.4 10.4 341 0.0 0.0 1023.0 4.0 25.8 26.1 0.0
01/03/19 13:06 26.3 35 9.6 3.2 8.6 344 0.0 0.0 1023.0 5.8 26.1 26.3 0.0
01/03/19 13:07 26.2 35 9.5 3.2 5.8 345 0.0 0.0 1023.0 5.8 26.3 26.2 0.0
01/03/19 13:08 26.3 35 9.6 6.5 5.8 351 0.0 0.0 1023.0 2.5 26.3 26.3 0.0
01/03/19 13:09 26.4 35 9.7 4.0 6.8 1 0.0 0.0 1023.0 6.8 26.4 26.4 0.0
01/03/19 13:10 26.3 35 9.6 6.8 12.2 83 0.0 0.0 1023.0 5.8 26.4 26.3 0.0
01/03/19 13:11 26.3 34 9.2 9.0 12.2 28 0.0 0.0 1023.0 5.0 26.3 26.3 0.0
01/03/19 13:12 26.3 34 9.2 9.0 12.2 9 0.0 0.0 1023.0 11.9 26.3 26.3 0.0
01/03/19 13:13 26.2 34 9.1 9.7 12.2 354 0.0 0.0 1023.0 8.6 26.3 26.2 0.0
01/03/19 13:14 26.2 34 9.1 9.7 12.2 348 0.0 0.0 1023.0 8.6 26.2 26.2 0.0
01/03/19 13:17 26.3 34 9.2 0.0 0.0 0 0.0 0.0 1023.0 0.0 0.0 26.3 0.0
01/03/19 13:18 26.3 34 9.2 5.0 11.9 34 0.0 0.0 1023.0 6.5 26.4 26.3 0.0
01/03/19 13:19 26.2 34 9.1 6.1 11.9 50 0.0 0.0 1023.0 4.0 26.3 26.2 0.0
01/03/19 13:20 26.2 35 9.5 6.1 11.9 67 0.0 0.0 1023.0 4.0 26.2 26.2 0.0
01/03/19 13:21 26.4 34 9.3 4.7 11.9 103 0.0 0.0 1023.0 8.6 26.2 26.4 0.0
01/03/19 13:22 26.5 35 9.8 4.7 11.9 132 0.0 0.0 1023.0 8.6 26.4 26.5 0.0
01/03/19 13:23 26.5 34 9.4 4.7 8.6 154 0.0 0.0 1023.0 8.6 26.5 26.5 0.0
01/03/19 13:24 26.5 35 9.8 6.1 8.6 160 0.0 0.0 1023.0 1.8 26.5 26.5 0.0
01/03/19 13:25 26.7 35 10.0 5.0 8.6 155 0.0 0.0 1023.0 6.1 26.7 26.4 0.0
01/03/19 13:26 26.7 35 10.0 5.0 8.6 153 0.0 0.0 1023.0 5.8 26.7 26.4 0.0
01/03/19 13:27 26.4 35 9.7 5.0 8.6 152 0.0 0.0 1023.0 5.8 26.7 26.4 0.0
01/03/19 13:28 26.3 35 9.6 5.0 8.6 153 0.0 0.0 1023.0 5.8 26.4 26.3 0.0
01/03/19 13:29 26.2 35 9.5 5.0 8.6 153 0.0 0.0 1023.0 5.8 26.3 26.2 0.0
01/03/19 13:30 26.4 35 9.7 6.1 8.6 151 0.0 0.0 1023.0 2.5 26.4 26.4 0.0
01/03/19 13:32 26.7 35 10.0 4.3 8.6 154 0.0 0.0 1023.0 4.7 0.0 26.4 0.0
01/03/19 13:33 27.0 34 9.8 5.0 8.6 151 0.0 0.0 1023.0 8.6 26.9 26.6 0.0
01/03/19 13:34 27.2 34 10.0 5.0 8.6 140 0.0 0.0 1023.0 8.6 27.0 26.7 0.0
01/03/19 13:35 27.1 34 9.9 5.4 8.6 322 0.0 0.0 1023.0 6.1 27.1 26.6 0.0
01/03/19 13:36 27.1 33 9.4 5.4 8.6 318 0.0 0.0 1023.0 6.1 27.1 26.6 0.0
01/03/19 13:37 27.2 33 9.5 5.4 8.6 321 0.0 0.0 1023.0 6.1 27.1 26.7 0.0
01/03/19 13:38 26.9 33 9.3 5.4 8.6 321 0.0 0.0 1023.0 6.1 27.2 26.5 0.0
01/03/19 13:39 26.9 34 9.7 8.6 16.6 305 0.0 0.0 1023.0 16.6 26.9 26.5 0.0
01/03/19 13:40 26.9 34 9.7 7.6 16.6 270 0.0 0.0 1023.0 5.4 26.8 26.5 0.0
01/03/19 13:41 26.9 34 9.7 7.6 16.6 262 0.0 0.0 1023.0 5.4 26.9 26.5 0.0
01/03/19 13:42 26.9 34 9.7 7.6 16.6 268 0.0 0.0 1023.0 5.4 26.9 26.5 0.0
01/03/19 13:43 26.9 34 9.7 7.6 16.6 267 0.0 0.0 1023.0 5.4 26.9 26.5 0.0
01/03/19 13:44 27.1 34 9.9 7.6 16.6 233 0.0 0.0 1023.0 5.4 26.9 26.6 0.0
01/03/19 13:48 27.8 33 10.0 5.0 16.6 253 0.0 0.0 1023.0 6.8 27.8 27.1 0.0
01/03/19 13:49 27.4 33 9.7 5.0 16.6 231 0.0 0.0 1023.0 6.8 27.8 26.8 0.0
01/03/19 13:50 27.2 34 10.0 5.0 6.8 191 0.0 0.0 1023.0 6.8 27.4 26.7 0.0
01/03/19 13:51 27.4 34 10.1 5.0 6.8 174 0.0 0.0 1023.0 6.8 27.2 26.9 0.0
01/03/19 13:52 27.4 34 10.1 5.0 6.8 162 0.0 0.0 1023.0 6.8 27.4 26.9 0.0
01/03/19 13:53 27.5 34 10.2 5.0 6.8 153 0.0 0.0 1022.0 6.8 27.4 26.9 0.0
01/03/19 13:54 27.4 33 9.7 5.0 6.8 146 0.0 0.0 1022.0 6.8 27.5 26.8 0.0
01/03/19 13:55 27.6 34 10.3 5.0 6.8 141 0.0 0.0 1022.0 6.8 27.4 27.0 0.0
01/03/19 13:56 27.1 33 9.4 5.0 6.8 140 0.0 0.0 1022.0 6.8 27.4 26.6 0.0
01/03/19 13:57 26.7 34 9.5 5.0 6.8 137 0.0 0.0 1022.0 6.8 27.1 26.4 0.0
01/03/19 13:58 26.5 34 9.4 5.0 6.8 135 0.0 0.0 1022.0 6.8 26.7 26.5 0.0
01/03/19 13:59 26.3 34 9.2 5.0 6.8 135 0.0 0.0 1022.0 6.8 26.5 26.3 0.0
01/03/19 14:00 26.1 34 9.0 5.0 6.8 135 0.0 0.0 1022.0 6.8 26.3 26.1 0.0
01/03/19 14:03 27.0 34 9.8 3.2 6.8 138 0.0 0.0 1022.0 1.4 26.5 26.6 0.0
01/03/19 14:04 27.3 34 10.1 4.0 6.8 136 0.0 0.0 1022.0 3.6 27.0 26.8 0.0
01/03/19 14:05 27.6 35 10.8 3.6 6.8 136 0.0 0.0 1022.0 1.8 27.3 27.0 0.0
01/03/19 14:06 27.5 34 10.2 3.6 6.8 135 0.0 0.0 1022.0 1.8 27.6 26.9 0.0
01/03/19 14:07 27.2 34 10.0 3.6 6.8 135 0.0 0.0 1022.0 1.8 27.5 26.7 0.0
01/03/19 14:08 27.0 34 9.8 4.7 6.8 135 0.0 0.0 1022.0 4.3 27.0 26.6 0.0
01/03/19 14:09 27.1 34 9.9 4.7 6.8 135 0.0 0.0 1022.0 4.3 27.0 26.6 0.0
01/03/19 14:10 27.2 34 10.0 5.4 6.8 132 0.0 0.0 1022.0 4.0 27.2 26.7 0.0
01/03/19 14:11 27.6 33 9.9 4.3 13.7 124 0.0 0.0 1022.0 13.7 27.4 26.9 0.0
01/03/19 14:12 27.7 33 10.0 7.6 13.7 185 0.0 0.0 1022.0 6.5 27.6 27.0 0.0
01/03/19 14:13 27.6 33 9.9 7.6 13.7 258 0.0 0.0 1022.0 6.5 27.7 26.9 0.0
01/03/19 14:14 27.2 33 9.5 7.6 13.7 278 0.0 0.0 1022.0 6.5 27.6 26.7 0.0
01/03/19 14:15 26.8 33 9.2 7.6 13.7 287 0.0 0.0 1022.0 6.5 27.2 26.4 0.0
01/03/19 14:18 26.5 34 9.4 4.7 13.7 224 0.0 0.0 1022.0 6.5 25.9 26.5 0.0
01/03/19 14:19 26.9 34 9.7 5.4 13.7 182 0.0 0.0 1022.0 4.7 26.9 26.5 0.0
01/03/19 14:20 27.2 34 10.0 5.4 13.7 182 0.0 0.0 1022.0 4.7 26.9 26.7 0.0
01/03/19 14:21 27.6 34 10.3 4.3 13.7 185 0.0 0.0 1022.0 4.0 27.6 27.0 0.0
01/03/19 14:22 27.6 34 10.3 4.3 13.7 185 0.0 0.0 1022.0 4.0 27.6 27.0 0.0
01/03/19 14:23 28.2 33 10.4 4.3 6.5 262 0.0 0.0 1022.0 4.0 27.6 27.4 0.0
01/03/19 14:24 28.2 33 10.4 4.3 6.5 262 0.0 0.0 1022.0 4.0 27.6 27.4 0.0
01/03/19 14:25 27.5 33 9.8 4.3 6.5 279 0.0 0.0 1022.0 4.0 28.2 26.9 0.0
01/03/19 14:26 26.7 33 9.1 4.3 6.5 314 0.0 0.0 1022.0 4.0 27.5 26.4 0.0
01/03/19 14:27 26.7 33 9.1 4.3 6.5 314 0.0 0.0 1022.0 4.0 27.5 26.4 0.0
01/03/19 14:28 26.7 33 9.1 6.5 9.4 135 0.0 0.0 1022.0 9.4 26.7 26.4 0.0
01/03/19 14:33 28.0 33 10.2 6.8 9.4 245 0.0 0.0 1022.0 1.8 27.7 27.2 0.0
01/03/19 14:34 28.0 32 9.8 6.8 9.4 228 0.0 0.0 1022.0 1.8 28.0 27.2 0.0
01/03/19 14:35 28.2 32 9.9 6.8 9.4 202 0.0 0.0 1022.0 1.8 28.0 27.3 0.0
01/03/19 14:36 28.5 32 10.2 6.8 9.4 174 0.0 0.0 1022.0 1.8 28.2 27.6 0.0
01/03/19 14:37 28.6 32 10.3 6.8 9.4 165 0.0 0.0 1022.0 1.8 28.5 27.7 0.0
01/03/19 14:48 29.5 31 10.6 5.8 5.0 314 0.0 0.0 1022.0 5.0 29.5 28.4 0.0
01/03/19 14:49 29.6 31 10.7 5.8 5.0 314 0.0 0.0 1022.0 5.0 29.5 28.5 0.0
01/03/19 14:50 29.7 31 10.8 5.8 5.0 314 0.0 0.0 1022.0 5.0 29.6 28.5 0.0
01/03/19 14:51 29.8 31 10.9 6.8 9.4 335 0.0 0.0 1022.0 9.4 29.7 28.6 0.0
01/03/19 14:52 29.7 31 10.8 6.5 9.4 342 0.0 0.0 1022.0 2.2 29.7 28.5 0.0
01/03/19 14:53 29.6 31 10.7 6.5 9.7 343 0.0 0.0 1022.0 9.7 29.6 28.5 0.0
01/03/19 14:54 29.6 31 10.7 6.5 9.7 343 0.0 0.0 1022.0 5.0 29.6 28.5 0.0
01/03/19 14:55 29.6 31 10.7 6.5 9.7 342 0.0 0.0 1022.0 5.0 29.6 28.5 0.0
01/03/19 14:56 29.8 31 10.9 5.4 9.7 343 0.0 0.0 1022.0 4.3 29.6 28.6 0.0
01/03/19 14:57 30.0 31 11.0 5.4 9.7 346 0.0 0.0 1022.0 4.3 29.8 28.8 0.0
01/03/19 14:58 29.8 32 11.3 5.4 9.7 351 0.0 0.0 1022.0 4.3 30.0 28.7 0.0
01/03/19 14:59 29.9 32 11.4 7.6 9.7 2 0.0 0.0 1022.0 6.1 29.8 28.8 0.0
01/03/19 15:02 29.9 32 11.4 4.3 9.7 350 0.0 0.0 1022.0 4.3 0.0 28.8 0.0
01/03/19 15:03 29.7 32 11.2 4.3 9.7 355 0.0 0.0 1022.0 4.3 29.9 28.6 0.0
01/03/19 15:04 29.1 32 10.7 4.3 6.1 23 0.0 0.0 1022.0 4.3 29.3 28.1 0.0
01/03/19 15:05 28.7 32 10.4 4.3 6.1 54 0.0 0.0 1022.0 4.3 29.1 27.7 0.0
01/03/19 15:06 28.2 32 9.9 4.3 6.1 89 0.0 0.0 1022.0 4.3 28.7 27.3 0.0
01/03/19 15:07 28.0 32 9.8 4.3 6.1 109 0.0 0.0 1022.0 4.3 28.2 27.2 0.0
01/03/19 15:08 27.9 33 10.1 4.3 6.1 120 0.0 0.0 1021.0 4.3 28.0 27.2 0.0
01/03/19 15:09 27.8 32 9.6 4.3 6.1 127 0.0 0.0 1021.0 4.3 27.9 27.0 0.0
01/03/19 15:10 27.4 32 9.2 4.3 4.3 135 0.0 0.0 1021.0 4.3 27.8 26.8 0.0
01/03/19 15:11 27.1 32 9.0 4.3 4.3 135 0.0 0.0 1021.0 4.3 27.1 26.6 0.0
01/03/19 15:12 27.2 32 9.1 4.3 4.3 135 0.0 0.0 1021.0 4.3 27.1 26.6 0.0
01/03/19 15:13 27.5 32 9.3 4.3 4.3 135 0.0 0.0 1021.0 4.3 27.2 26.8 0.0
01/03/19 15:14 27.8 33 10.0 4.3 4.3 135 0.0 0.0 1021.0 4.3 27.5 27.1 0.0
01/03/19 15:15 28.1 33 10.3 4.3 4.3 135 0.0 0.0 1021.0 4.3 27.8 27.3 0.0
01/03/19 15:18 29.0 33 11.1 0.0 0.0 0 0.0 0.0 1021.0 0.0 0.0 28.1 0.0
01/03/19 15:19 28.9 33 11.0 0.0 0.0 0 0.0 0.0 1021.0 0.0 0.0 28.0 0.0
01/03/19 15:20 28.9 33 11.0 0.0 0.0 0 0.0 0.0 1021.0 0.0 0.0 28.0 0.0
01/03/19 15:21 28.4 32 10.1 0.0 0.0 0 0.0 0.0 1021.0 0.0 0.0 27.5 0.0
01/03/19 15:22 28.1 32 9.9 0.0 0.0 0 0.0 0.0 1021.0 0.0 0.0 27.3 0.0
01/03/19 15:23 27.9 33 10.1 0.0 0.0 0 0.0 0.0 1021.0 0.0 0.0 27.2 0.0
01/03/19 15:24 27.8 33 10.0 0.0 0.0 0 0.0 0.0 1021.0 0.0 0.0 27.1 0.0
01/03/19 15:25 27.7 33 10.0 0.0 0.0 0 0.0 0.0 1021.0 0.0 0.0 27.0 0.0
01/03/19 15:26 27.4 32 9.2 0.0 0.0 0 0.0 0.0 1021.0 0.0 0.0 26.8 0.0
01/03/19 15:27 27.1 32 9.0 0.0 0.0 0 0.0 0.0 1021.0 0.0 0.0 26.6 0.0
01/03/19 15:28 27.3 32 9.2 0.0 0.0 0 0.0 0.0 1021.0 0.0 0.0 26.7 0.0
01/03/19 15:29 27.6 32 9.4 0.0 0.0 0 0.0 0.0 1021.0 0.0 0.0 26.9 0.0
01/03/19 15:33 27.8 33 10.0 0.0 0.0 0 0.0 0.0 1021.0 0.0 0.0 27.1 0.0
01/03/19 15:34 28.0 33 10.2 0.0 0.0 0 0.0 0.0 1021.0 0.0 0.0 27.2 0.0
01/03/19 15:35 27.9 34 10.6 0.0 0.0 0 0.0 0.0 1021.0 0.0 0.0 27.2 0.0
01/03/19 15:36 27.9 34 10.6 0.0 0.0 0 0.0 0.0 1021.0 0.0 0.0 27.2 0.0
01/03/19 15:37 28.1 34 10.8 0.0 0.0 0 0.0 0.0 1021.0 0.0 0.0 27.4 0.0
01/03/19 15:38 28.1 34 10.8 0.0 0.0 0 0.0 0.0 1021.0 0.0 0.0 27.4 0.0
01/03/19 15:39 28.5 34 11.1 0.0 0.0 0 0.0 0.0 1021.0 0.0 0.0 27.7 0.0
01/03/19 15:40 28.7 34 11.3 0.0 0.0 0 0.0 0.0 1021.0 0.0 0.0 27.9 0.0
01/03/19 15:41 28.8 34 11.4 0.0 0.0 0 0.0 0.0 1021.0 0.0 0.0 28.0 0.0
01/03/19 15:42 28.2 33 10.4 0.0 0.0 0 0.0 0.0 1021.0 0.0 0.0 27.4 0.0
01/03/19 15:43 27.9 34 10.6 0.0 0.0 0 0.0 0.0 1021.0 0.0 0.0 27.2 0.0
01/03/19 15:44 27.7 34 10.4 0.0 0.0 0 0.0 0.0 1021.0 0.0 0.0 27.1 0.0
01/03/19 15:45 27.6 34 10.3 0.0 0.0 0 0.0 0.0 1021.0 0.0 0.0 27.0 0.0
01/03/19 15:48 26.5 35 9.8 0.0 0.0 0 0.0 0.0 1021.0 0.0 0.0 26.5 0.0
01/03/19 15:49 26.1 35 9.4 0.0 0.0 0 0.0 0.0 1021.0 0.0 0.0 26.1 0.0
01/03/19 15:50 26.5 35 9.8 0.0 0.0 0 0.0 0.0 1021.0 0.0 0.0 26.5 0.0
01/03/19 15:51 26.8 35 10.1 0.0 0.0 0 0.0 0.0 1021.0 0.0 0.0 26.5 0.0
01/03/19 15:52 27.1 35 10.3 0.0 0.0 0 0.0 0.0 1021.0 0.0 0.0 26.7 0.0
01/03/19 15:53 27.4 35 10.6 0.0 0.0 0 0.0 0.0 1021.0 0.0 0.0 26.9 0.0
01/03/19 15:54 27.6 35 10.8 0.0 0.0 0 0.0 0.0 1021.0 0.0 0.0 27.0 0.0
01/03/19 15:55 27.7 34 10.4 0.0 0.0 0 0.0 0.0 1021.0 0.0 0.0 27.1 0.0
01/03/19 15:56 27.6 34 10.3 0.0 0.0 0 0.0 0.0 1021.0 0.0 0.0 27.0 0.0
01/03/19 15:57 27.8 34 10.5 0.0 0.0 0 0.0 0.0 1021.0 0.0 0.0 27.1 0.0
01/03/19 15:58 27.9 34 10.6 0.0 0.0 0 0.0 0.0 1021.0 0.0 0.0 27.2 0.0
01/03/19 15:59 27.9 34 10.6 0.0 0.0 0 0.0 0.0 1021.0 0.0 0.0 27.2 0.0
01/03/19 16:00 28.0 33 10.2 0.0 0.0 0 0.0 0.0 1021.0 0.0 0.0 27.2 0.0
01/03/19 16:03 28.6 34 11.2 0.0 0.0 0 0.0 0.0 1021.0 0.0 0.0 27.8 0.0
01/03/19 16:04 29.0 34 11.5 0.0 0.0 0 0.0 0.0 1021.0 0.0 0.0 28.1 0.0
01/03/19 16:05 29.4 34 11.9 0.0 0.0 0 0.0 0.0 1021.0 0.0 0.0 28.5 0.0
01/03/19 16:06 29.8 34 12.2 0.0 0.0 0 0.0 0.0 1021.0 0.0 0.0 28.9 0.0
01/03/19 16:07 29.8 33 11.8 0.0 0.0 0 0.0 0.0 1021.0 0.0 0.0 28.8 0.0
01/03/19 16:08 29.7 33 11.7 0.0 0.0 0 0.0 0.0 1021.0 0.0 0.0 28.7 0.0
01/03/19 16:09 29.6 33 11.6 0.0 0.0 0 0.0 0.0 1021.0 0.0 0.0 28.6 0.0
01/03/19 16:10 29.3 32 10.9 0.0 0.0 0 0.0 0.0 1021.0 0.0 0.0 28.3 0.0
01/03/19 16:18 29.7 32 11.2 0.0 0.0 0 0.0 0.0 1021.0 0.0 0.0 28.6 0.0
01/03/19 16:19 29.6 32 11.2 0.0 0.0 0 0.0 0.0 1021.0 0.0 0.0 28.5 0.0
01/03/19 16:20 29.4 32 11.0 0.0 0.0 0 0.0 0.0 1021.0 0.0 0.0 28.3 0.0
01/03/19 16:21 29.4 32 11.0 0.0 0.0 0 0.0 0.0 1021.0 0.0 0.0 28.3 0.0
01/03/19 16:22 29.9 32 11.4 0.0 0.0 0 0.0 0.0 1021.0 0.0 0.0 28.8 0.0
01/03/19 16:23 30.1 32 11.6 0.0 0.0 0 0.0 0.0 1021.0 0.0 0.0 29.0 0.0
01/03/19 16:24 30.1 32 11.6 0.0 0.0 0 0.0 0.0 1021.0 0.0 0.0 29.0 0.0
01/03/19 16:25 30.3 32 11.8 0.0 0.0 0 0.0 0.0 1021.0 0.0 0.0 29.2 0.0
01/03/19 16:26 30.4 32 11.9 0.0 0.0 0 0.0 0.0 1021.0 0.0 0.0 29.3 0.0
01/03/19 16:27 30.5 31 11.5 0.0 0.0 0 0.0 0.0 1021.0 0.0 0.0 29.3 0.0
01/03/19 16:28 30.1 31 11.1 0.0 0.0 0 0.0 0.0 1021.0 0.0 0.0 28.9 0.0
01/03/19 16:29 29.8 31 10.9 0.0 0.0 0 0.0 0.0 1021.0 0.0 0.0 28.6 0.0
01/03/19 16:30 29.5 31 10.6 0.0 0.0 0 0.0 0.0 1021.0 0.0 0.0 28.4 0.0
01/03/19 16:33 28.9 31 10.1 0.0 0.0 0 0.0 0.0 1021.0 0.0 0.0 27.8 0.0
01/03/19 16:34 28.5 31 9.7 0.0 0.0 0 0.0 0.0 1021.0 0.0 0.0 27.5 0.0
01/03/19 16:35 28.0 32 9.8 0.0 0.0 0 0.0 0.0 1021.0 0.0 0.0 27.2 0.0
01/03/19 16:36 27.8 32 9.6 0.0 0.0 0 0.0 0.0 1021.0 0.0 0.0 27.0 0.0
01/03/19 16:37 27.6 32 9.4 0.0 0.0 0 0.0 0.0 1021.0 0.0 0.0 26.9 0.0
01/03/19 16:38 27.5 32 9.3 0.0 0.0 0 0.0 0.0 1021.0 0.0 0.0 26.8 0.0
01/03/19 16:39 27.6 32 9.4 0.0 0.0 0 0.0 0.0 1021.0 0.0 0.0 26.9 0.0
01/03/19 16:40 27.7 32 9.5 0.0 0.0 0 0.0 0.0 1021.0 0.0 0.0 27.0 0.0
01/03/19 16:41 27.7 32 9.5 0.0 0.0 0 0.0 0.0 1021.0 0.0 0.0 27.0 0.0
01/03/19 16:42 27.4 32 9.2 0.0 0.0 0 0.0 0.0 1021.0 0.0 0.0 26.8 0.0
01/03/19 16:43 27.2 32 9.1 0.0 0.0 0 0.0 0.0 1021.0 0.0 0.0 26.6 0.0
01/03/19 16:44 27.2 32 9.1 0.0 0.0 0 0.0 0.0 1021.0 0.0 0.0 26.6 0.0
01/03/19 16:48 28.1 32 9.9 0.0 0.0 0 0.0 0.0 1021.0 0.0 0.0 27.3 0.0
01/03/19 16:49 28.1 32 9.9 0.0 0.0 0 0.0 0.0 1021.0 0.0 0.0 27.3 0.0
01/03/19 16:50 27.7 32 9.5 0.0 0.0 0 0.0 0.0 1021.0 0.0 0.0 27.0 0.0
01/03/19 16:51 27.5 32 9.3 0.0 0.0 0 0.0 0.0 1021.0 0.0 0.0 26.8 0.0
01/03/19 16:52 27.4 32 9.2 0.0 0.0 0 0.0 0.0 1021.0 0.0 0.0 26.8 0.0
01/03/19 16:53 27.5 32 9.3 0.0 0.0 0 0.0 0.0 1021.0 0.0 0.0 26.8 0.0
01/03/19 16:54 27.5 32 9.3 0.0 0.0 0 0.0 0.0 1021.0 0.0 0.0 26.8 0.0
01/03/19 16:55 27.5 32 9.3 0.0 0.0 0 0.0 0.0 1021.0 0.0 0.0 26.8 0.0
01/03/19 16:56 27.6 32 9.4 0.0 0.0 0 0.0 0.0 1021.0 0.0 0.0 26.9 0.0
01/03/19 16:57 27.4 32 9.2 0.0 0.0 0 0.0 0.0 1021.0 0.0 0.0 26.8 0.0
01/03/19 16:58 27.5 32 9.3 0.0 0.0 0 0.0 0.0 1021.0 0.0 0.0 26.8 0.0
01/03/19 16:59 27.6 32 9.4 0.0 0.0 0 0.0 0.0 1021.0 0.0 0.0 26.9 0.0
01/03/19 17:03 27.9 32 9.7 0.0 0.0 0 0.0 0.0 1021.0 0.0 0.0 27.1 0.0
01/03/19 17:04 27.5 31 8.9 0.0 0.0 0 0.0 0.0 1021.0 0.0 0.0 26.8 0.0
01/03/19 17:05 27.0 32 8.9 0.0 0.0 0 0.0 0.0 1021.0 0.0 0.0 26.5 0.0
01/03/19 17:06 26.9 32 8.8 0.0 0.0 0 0.0 0.0 1021.0 0.0 0.0 26.4 0.0
01/03/19 17:07 26.9 32 8.8 0.0 0.0 0 0.0 0.0 1021.0 0.0 0.0 26.4 0.0
01/03/19 17:08 27.1 32 9.0 0.0 0.0 0 0.0 0.0 1021.0 0.0 0.0 26.6 0.0
01/03/19 17:09 27.3 32 9.2 0.0 0.0 0 0.0 0.0 1021.0 0.0 0.0 26.7 0.0
01/03/19 17:10 27.4 32 9.2 0.0 0.0 0 0.0 0.0 1021.0 0.0 0.0 26.8 0.0
01/03/19 17:11 27.4 32 9.2 0.0 0.0 0 0.0 0.0 1021.0 0.0 0.0 26.8 0.0
01/03/19 17:12 26.9 32 8.8 0.0 0.0 0 0.0 0.0 1021.0 0.0 0.0 26.4 0.0
01/03/19 17:13 26.8 32 8.7 0.0 0.0 0 0.0 0.0 1021.0 0.0 0.0 26.4 0.0
01/03/19 17:14 26.7 32 8.6 0.0 0.0 0 0.0 0.0 1021.0 0.0 0.0 26.3 0.0
01/03/19 17:15 26.7 32 8.6 0.0 0.0 0 0.0 0.0 1021.0 0.0 0.0 26.3 0.0
01/03/19 17:18 26.5 32 8.5 0.0 0.0 0 0.0 0.0 1021.0 0.0 0.0 26.5 0.0
01/03/19 17:19 26.5 32 8.5 0.0 0.0 0 0.0 0.0 1021.0 0.0 0.0 26.5 0.0
01/03/19 17:20 26.5 33 8.9 0.0 0.0 0 0.0 0.0 1021.0 0.0 0.0 26.5 0.0
01/03/19 17:21 26.6 33 9.0 0.0 0.0 0 0.0 0.0 1021.0 0.0 0.0 26.6 0.0
01/03/19 17:22 26.7 33 9.1 0.0 0.0 0 0.0 0.0 1021.0 0.0 0.0 26.4 0.0
01/03/19 17:33 25.7 34 8.7 0.0 0.0 0 0.0 0.0 1021.0 0.0 0.0 25.7 0.0
01/03/19 17:34 25.4 34 8.4 0.0 0.0 0 0.0 0.0 1021.0 0.0 0.0 25.4 0.0
01/03/19 17:35 24.9 34 8.0 0.0 0.0 0 0.0 0.0 1021.0 0.0 0.0 24.9 0.0
01/03/19 17:36 24.8 34 7.9 0.0 0.0 0 0.0 0.0 1021.0 0.0 0.0 24.8 0.0
01/03/19 17:37 24.8 34 7.9 0.0 0.0 0 0.0 0.0 1021.0 0.0 0.0 24.8 0.0
01/03/19 17:38 24.7 35 8.2 0.0 0.0 0 0.0 0.0 1021.0 0.0 0.0 24.7 0.0
01/03/19 17:39 24.5 35 8.0 0.0 0.0 0 0.0 0.0 1021.0 0.0 0.0 24.5 0.0
01/03/19 17:40 24.4 35 7.9 0.0 0.0 0 0.0 0.0 1021.0 0.0 0.0 24.4 0.0
01/03/19 17:41 24.3 35 7.9 0.0 0.0 0 0.0 0.0 1021.0 0.0 0.0 24.3 0.0
01/03/19 17:42 24.3 35 7.9 0.0 0.0 0 0.0 0.0 1021.0 0.0 0.0 24.3 0.0
01/03/19 17:43 23.9 36 7.9 0.0 0.0 0 0.0 0.0 1021.0 0.0 0.0 23.9 0.0
01/03/19 17:44 23.9 36 7.9 0.0 0.0 0 0.0 0.0 1021.0 0.0 0.0 23.9 0.0
01/03/19 17:45 23.8 36 7.8 0.0 0.0 0 0.0 0.0 1021.0 0.0 0.0 23.8 0.0
01/03/19 17:48 23.5 36 7.6 0.0 0.0 0 0.0 0.0 1021.0 0.0 0.0 23.5 0.0
01/03/19 17:49 23.5 37 8.0 0.0 0.0 0 0.0 0.0 1021.0 0.0 0.0 23.5 0.0
01/03/19 17:50 23.4 37 7.9 0.0 0.0 0 0.0 0.0 1021.0 0.0 0.0 23.4 0.0
01/03/19 17:51 23.4 37 7.9 0.0 0.0 0 0.0 0.0 1021.0 0.0 0.0 23.4 0.0
01/03/19 17:52 23.4 38 8.3 0.0 0.0 0 0.0 0.0 1021.0 0.0 0.0 23.4 0.0
01/03/19 17:53 23.4 38 8.3 0.0 0.0 0 0.0 0.0 1022.0 0.0 0.0 23.4 0.0
01/03/19 17:54 23.4 38 8.3 0.0 0.0 0 0.0 0.0 1022.0 0.0 0.0 23.4 0.0
01/03/19 17:55 23.4 38 8.3 0.0 0.0 0 0.0 0.0 1022.0 0.0 0.0 23.4 0.0
01/03/19 17:56 23.4 39 8.7 0.0 0.0 0 0.0 0.0 1022.0 0.0 0.0 23.4 0.0
01/03/19 17:57 23.5 39 8.7 0.0 0.0 0 0.0 0.0 1022.0 0.0 0.0 23.5 0.0
01/03/19 17:58 23.6 40 9.2 0.0 0.0 0 0.0 0.0 1022.0 0.0 0.0 23.6 0.0
01/03/19 17:59 23.6 40 9.2 0.0 0.0 0 0.0 0.0 1022.0 0.0 0.0 23.6 0.0
01/03/19 18:00 23.6 40 9.2 0.0 0.0 0 0.0 0.0 1022.0 0.0 0.0 23.6 0.0
01/03/19 18:03 23.3 41 9.3 0.0 0.0 0 0.0 0.0 1022.0 0.0 0.0 23.3 0.0
01/03/19 18:04 23.2 41 9.2 0.0 0.0 0 0.0 0.0 1022.0 0.0 0.0 23.2 0.0
01/03/19 18:05 23.1 42 9.5 0.0 0.0 0 0.0 0.0 1022.0 0.0 0.0 23.1 0.0
01/03/19 18:06 23.0 42 9.4 0.0 0.0 0 0.0 0.0 1022.0 0.0 0.0 23.0 0.0
01/03/19 18:18 22.3 43 9.1 0.0 0.0 0 0.0 0.0 1022.0 0.0 0.0 22.3 0.0
01/03/19 18:19 22.3 43 9.1 0.0 0.0 0 0.0 0.0 1022.0 0.0 0.0 22.3 0.0
01/03/19 18:20 22.3 43 9.1 0.0 0.0 0 0.0 0.0 1022.0 0.0 0.0 22.3 0.0
01/03/19 18:21 22.2 43 9.0 0.0 0.0 0 0.0 0.0 1022.0 0.0 0.0 22.2 0.0
01/03/19 18:22 22.2 43 9.0 0.0 0.0 0 0.0 0.0 1022.0 0.0 0.0 22.2 0.0
01/03/19 18:23 22.2 43 9.0 0.0 0.0 0 0.0 0.0 1022.0 0.0 0.0 22.2 0.0
01/03/19 18:24 22.2 43 9.0 0.0 0.0 0 0.0 0.0 1022.0 0.0 0.0 22.2 0.0
01/03/19 18:25 22.2 43 9.0 0.0 0.0 0 0.0 0.0 1022.0 0.0 0.0 22.2 0.0
01/03/19 18:26 22.3 44 9.5 0.0 0.0 0 0.0 0.0 1022.0 0.0 0.0 22.3 0.0
01/03/19 18:27 22.3 44 9.5 0.0 0.0 0 0.0 0.0 1022.0 0.0 0.0 22.3 0.0
01/03/19 18:28 22.2 45 9.7 0.0 0.0 0 0.0 0.0 1022.0 0.0 0.0 22.2 0.0
01/03/19 18:29 22.1 45 9.6 0.0 0.0 0 0.0 0.0 1022.0 0.0 0.0 22.1 0.0
01/03/19 18:30 22.1 46 9.9 0.0 0.0 0 0.0 0.0 1022.0 0.0 0.0 22.1 0.0
01/03/19 18:33 22.1 46 9.9 0.0 0.0 0 0.0 0.0 1022.0 0.0 0.0 22.1 0.0
01/03/19 18:34 22.1 47 10.3 0.0 0.0 0 0.0 0.0 1022.0 0.0 0.0 22.1 0.0
01/03/19 18:35 22.0 47 10.2 0.0 0.0 0 0.0 0.0 1022.0 0.0 0.0 22.0 0.0
01/03/19 18:36 22.1 47 10.3 0.0 0.0 0 0.0 0.0 1022.0 0.0 0.0 22.1 0.0
01/03/19 18:37 22.1 48 10.6 0.0 0.0 0 0.0 0.0 1022.0 0.0 0.0 22.1 0.0
01/03/19 18:38 22.1 48 10.6 0.0 0.0 0 0.0 0.0 1022.0 0.0 0.0 22.1 0.0
01/03/19 18:39 22.0 48 10.5 0.0 0.0 0 0.0 0.0 1022.0 0.0 0.0 22.0 0.0
01/03/19 18:40 22.0 48 10.5 0.0 0.0 0 0.0 0.0 1022.0 0.0 0.0 22.0 0.0
01/03/19 18:41 22.0 48 10.5 0.0 0.0 0 0.0 0.0 1022.0 0.0 0.0 22.0 0.0
01/03/19 18:42 22.0 48 10.5 0.0 0.0 0 0.0 0.0 1022.0 0.0 0.0 22.0 0.0
01/03/19 18:43 21.9 49 10.7 0.0 0.0 0 0.0 0.0 1022.0 0.0 0.0 21.9 0.0
01/03/19 18:44 21.9 49 10.7 0.0 0.0 0 0.0 0.0 1022.0 0.0 0.0 21.9 0.0
01/03/19 18:45 21.8 49 10.6 0.0 0.0 0 0.0 0.0 1022.0 0.0 0.0 21.8 0.0
01/03/19 18:48 21.6 50 10.7 0.0 0.0 0 0.0 0.0 1022.0 0.0 0.0 21.6 0.0
01/03/19 18:49 21.6 50 10.7 0.0 0.0 0 0.0 0.0 1022.0 0.0 0.0 21.6 0.0
01/03/19 18:50 21.6 50 10.7 0.0 0.0 0 0.0 0.0 1022.0 0.0 0.0 21.6 0.0
01/03/19 18:51 21.5 50 10.6 0.0 0.0 0 0.0 0.0 1022.0 0.0 0.0 21.5 0.0
01/03/19 18:52 21.4 50 10.5 0.0 0.0 0 0.0 0.0 1022.0 0.0 0.0 21.4 0.0
01/03/19 18:53 21.4 50 10.5 0.0 0.0 0 0.0 0.0 1022.0 0.0 0.0 21.4 0.0
01/03/19 18:54 21.4 50 10.5 0.0 0.0 0 0.0 0.0 1022.0 0.0 0.0 21.4 0.0
01/03/19 18:55 21.3 51 10.7 0.0 0.0 0 0.0 0.0 1022.0 0.0 0.0 21.3 0.0
01/03/19 18:56 21.3 51 10.7 0.0 0.0 0 0.0 0.0 1022.0 0.0 0.0 21.3 0.0
01/03/19 18:57 21.3 51 10.7 0.0 0.0 0 0.0 0.0 1022.0 0.0 0.0 21.3 0.0
01/03/19 18:58 21.2 51 10.7 0.0 0.0 0 0.0 0.0 1022.0 0.0 0.0 21.2 0.0
01/03/19 18:59 21.2 51 10.7 0.0 0.0 0 0.0 0.0 1022.0 0.0 0.0 21.2 0.0
01/03/19 19:03 21.0 53 11.1 0.0 0.0 0 0.0 0.0 1022.0 0.0 0.0 21.0 0.0
01/03/19 19:04 21.0 54 11.3 0.0 0.0 0 0.0 0.0 1022.0 0.0 0.0 21.0 0.0
01/03/19 19:05 20.9 54 11.2 0.0 0.0 0 0.0 0.0 1022.0 0.0 0.0 20.9 0.0
01/03/19 19:06 20.9 54 11.2 0.0 0.0 0 0.0 0.0 1022.0 0.0 0.0 20.9 0.0
01/03/19 19:07 20.9 54 11.2 0.0 0.0 0 0.0 0.0 1022.0 0.0 0.0 20.9 0.0
01/03/19 19:08 20.8 55 11.4 0.0 0.0 0 0.0 0.0 1022.0 0.0 0.0 20.8 0.0
01/03/19 19:09 20.8 55 11.4 0.0 0.0 0 0.0 0.0 1022.0 0.0 0.0 20.8 0.0
01/03/19 19:10 20.8 56 11.7 0.0 0.0 0 0.0 0.0 1022.0 0.0 0.0 20.8 0.0
01/03/19 19:11 20.8 56 11.7 0.0 0.0 0 0.0 0.0 1022.0 0.0 0.0 20.8 0.0
01/03/19 19:12 20.8 56 11.7 0.0 0.0 0 0.0 0.0 1022.0 0.0 0.0 20.8 0.0
01/03/19 19:13 20.7 57 11.9 0.0 0.0 0 0.0 0.0 1022.0 0.0 0.0 20.7 0.0
01/03/19 19:14 20.7 58 12.1 0.0 0.0 0 0.0 0.0 1022.0 0.0 0.0 20.7 0.0
01/03/19 19:15 20.7 58 12.1 0.0 0.0 0 0.0 0.0 1022.0 0.0 0.0 20.7 0.0
01/03/19 19:18 20.5 60 12.5 0.0 0.0 0 0.0 0.0 1022.0 0.0 0.0 20.5 0.0
01/03/19 19:19 20.5 61 12.7 0.0 0.0 0 0.0 0.0 1022.0 0.0 0.0 20.5 0.0
01/03/19 19:20 20.4 61 12.6 0.0 0.0 0 0.0 0.0 1022.0 0.0 0.0 20.4 0.0
01/03/19 19:21 20.3 61 12.5 0.0 0.0 0 0.0 0.0 1022.0 0.0 0.0 20.3 0.0
01/03/19 19:22 20.3 60 12.3 0.0 0.0 0 0.0 0.0 1022.0 0.0 0.0 20.3 0.0
01/03/19 19:23 20.2 60 12.2 0.0 0.0 0 0.0 0.0 1023.0 0.0 0.0 20.2 0.0
01/03/19 19:24 20.2 61 12.4 0.0 0.0 0 0.0 0.0 1023.0 0.0 0.0 20.2 0.0
01/03/19 19:25 20.2 61 12.4 0.0 0.0 0 0.0 0.0 1023.0 0.0 0.0 20.2 0.0
01/03/19 19:26 20.1 61 12.3 0.0 0.0 0 0.0 0.0 1023.0 0.0 0.0 20.1 0.0
01/03/19 19:27 20.1 61 12.3 0.0 0.0 0 0.0 0.0 1023.0 0.0 0.0 20.1 0.0
01/03/19 19:28 20.0 61 12.2 0.0 0.0 0 0.0 0.0 1023.0 0.0 0.0 20.0 0.0
01/03/19 19:29 19.9 63 12.6 0.0 0.0 0 0.0 0.0 1023.0 0.0 0.0 19.9 0.0
01/03/19 19:33 19.7 64 12.7 0.0 0.0 0 0.0 0.0 1023.0 0.0 0.0 19.7 0.0
01/03/19 19:34 19.7 65 12.9 0.0 0.0 0 0.0 0.0 1023.0 0.0 0.0 19.7 0.0
01/03/19 19:35 19.6 64 12.6 0.0 0.0 0 0.0 0.0 1023.0 0.0 0.0 19.6 0.0
01/03/19 19:36 19.5 65 12.7 0.0 0.0 0 0.0 0.0 1023.0 0.0 0.0 19.5 0.0
01/03/19 19:37 19.5 65 12.7 0.0 0.0 0 0.0 0.0 1023.0 0.0 0.0 19.5 0.0
01/03/19 19:38 19.5 65 12.7 0.0 0.0 0 0.0 0.0 1023.0 0.0 0.0 19.5 0.0
01/03/19 19:39 19.4 66 12.9 0.0 0.0 0 0.0 0.0 1023.0 0.0 0.0 19.4 0.0
01/03/19 19:40 19.4 67 13.1 0.0 0.0 0 0.0 0.0 1023.0 0.0 0.0 19.4 0.0
01/03/19 19:41 19.3 66 12.8 0.0 0.0 0 0.0 0.0 1023.0 0.0 0.0 19.3 0.0
01/03/19 19:42 19.3 66 12.8 0.0 0.0 0 0.0 0.0 1023.0 0.0 0.0 19.3 0.0
01/03/19 19:48 19.1 68 13.1 0.0 0.0 0 0.0 0.0 1023.0 0.0 0.0 19.1 0.0
01/03/19 19:49 19.0 68 13.0 0.0 0.0 0 0.0 0.0 1023.0 0.0 0.0 19.0 0.0
01/03/19 19:50 19.0 68 13.0 0.0 0.0 0 0.0 0.0 1023.0 0.0 0.0 19.0 0.0
01/03/19 19:51 18.9 69 13.1 0.0 0.0 0 0.0 0.0 1023.0 0.0 0.0 18.9 0.0
01/03/19 19:52 18.9 69 13.1 0.0 0.0 0 0.0 0.0 1023.0 0.0 0.0 18.9 0.0
01/03/19 19:53 18.9 70 13.3 0.0 0.0 0 0.0 0.0 1023.0 0.0 0.0 18.9 0.0
01/03/19 19:54 18.8 70 13.2 0.0 0.0 0 0.0 0.0 1023.0 0.0 0.0 18.8 0.0
01/03/19 19:55 18.8 69 13.0 0.0 0.0 0 0.0 0.0 1023.0 0.0 0.0 18.8 0.0
01/03/19 19:56 18.8 70 13.2 0.0 0.0 0 0.0 0.0 1023.0 0.0 0.0 18.8 0.0
01/03/19 19:57 18.8 70 13.2 0.0 0.0 0 0.0 0.0 1023.0 0.0 0.0 18.8 0.0
01/03/19 19:58 18.7 70 13.1 0.0 0.0 0 0.0 0.0 1023.0 0.0 0.0 18.7 0.0
01/03/19 19:59 18.7 70 13.1 0.0 0.0 0 0.0 0.0 1023.0 0.0 0.0 18.7 0.0
01/03/19 20:00 18.7 70 13.1 0.0 0.0 0 0.0 0.0 1023.0 0.0 0.0 18.7 0.0
01/03/19 20:03 18.6 70 13.0 0.0 0.0 0 0.0 0.0 1023.0 0.0 0.0 18.6 0.0
01/03/19 20:18 18.1 72 13.0 0.0 0.0 0 0.0 0.0 1022.0 0.0 0.0 18.1 0.0
01/03/19 20:19 18.1 72 13.0 0.0 0.0 0 0.0 0.0 1022.0 0.0 0.0 18.1 0.0
01/03/19 20:20 18.1 72 13.0 0.0 0.0 0 0.0 0.0 1022.0 0.0 0.0 18.1 0.0
01/03/19 20:21 18.1 72 13.0 0.0 0.0 0 0.0 0.0 1022.0 0.0 0.0 18.1 0.0
01/03/19 20:22 18.0 73 13.1 0.0 0.0 0 0.0 0.0 1022.0 0.0 0.0 18.0 0.0
01/03/19 20:23 18.0 73 13.1 0.0 0.0 0 0.0 0.0 1022.0 0.0 0.0 18.0 0.0
01/03/19 20:24 18.0 73 13.1 0.0 0.0 0 0.0 0.0 1022.0 0.0 0.0 18.0 0.0
01/03/19 20:25 18.0 73 13.1 0.0 0.0 0 0.0 0.0 1022.0 0.0 0.0 18.0 0.0
01/03/19 20:26 18.0 74 13.3 0.0 0.0 0 0.0 0.0 1022.0 0.0 0.0 18.0 0.0
01/03/19 20:27 17.9 74 13.2 0.0 0.0 0 0.0 0.0 1022.0 0.0 0.0 17.9 0.0
01/03/19 20:28 17.9 74 13.2 0.0 0.0 0 0.0 0.0 1022.0 0.0 0.0 17.9 0.0
01/03/19 20:29 17.9 75 13.4 0.0 0.0 0 0.0 0.0 1022.0 0.0 0.0 17.9 0.0
01/03/19 20:30 17.9 75 13.4 0.0 0.0 0 0.0 0.0 1022.0 0.0 0.0 17.9 0.0
01/03/19 20:33 17.8 76 13.5 0.0 0.0 0 0.0 0.0 1022.0 0.0 0.0 17.8 0.0
01/03/19 20:34 17.7 75 13.2 0.0 0.0 0 0.0 0.0 1022.0 0.0 0.0 17.7 0.0
01/03/19 20:35 17.7 75 13.2 0.0 0.0 0 0.0 0.0 1022.0 0.0 0.0 17.7 0.0
01/03/19 20:36 17.7 75 13.2 0.0 0.0 0 0.0 0.0 1022.0 0.0 0.0 17.7 0.0
01/03/19 20:37 17.7 76 13.4 0.0 0.0 0 0.0 0.0 1022.0 0.0 0.0 17.7 0.0
01/03/19 20:38 17.7 76 13.4 0.0 0.0 0 0.0 0.0 1023.0 0.0 0.0 17.7 0.0
01/03/19 20:39 17.6 76 13.3 0.0 0.0 0 0.0 0.0 1023.0 0.0 0.0 17.6 0.0
01/03/19 20:40 17.6 77 13.5 0.0 0.0 0 0.0 0.0 1023.0 0.0 0.0 17.6 0.0
01/03/19 20:41 17.6 77 13.5 0.0 0.0 0 0.0 0.0 1023.0 0.0 0.0 17.6 0.0
01/03/19 20:42 17.6 77 13.5 0.0 0.0 0 0.0 0.0 1023.0 0.0 0.0 17.6 0.0
01/03/19 20:43 17.6 78 13.7 0.0 0.0 0 0.0 0.0 1023.0 0.0 0.0 17.6 0.0
01/03/19 20:44 17.5 77 13.4 0.0 0.0 0 0.0 0.0 1023.0 0.0 0.0 17.5 0.0
01/03/19 20:45 17.5 77 13.4 0.0 0.0 0 0.0 0.0 1023.0 0.0 0.0 17.5 0.0
01/03/19 20:48 17.5 77 13.4 0.0 0.0 0 0.0 0.0 1023.0 0.0 0.0 17.5 0.0
01/03/19 20:49 17.5 77 13.4 0.0 0.0 0 0.0 0.0 1023.0 0.0 0.0 17.5 0.0
01/03/19 20:50 17.4 77 13.3 0.0 0.0 0 0.0 0.0 1023.0 0.0 0.0 17.4 0.0
01/03/19 20:51 17.4 77 13.3 0.0 0.0 0 0.0 0.0 1023.0 0.0 0.0 17.4 0.0
01/03/19 20:52 17.4 77 13.3 0.0 0.0 0 0.0 0.0 1023.0 0.0 0.0 17.4 0.0
01/03/19 20:53 17.4 77 13.3 0.0 0.0 0 0.0 0.0 1023.0 0.0 0.0 17.4 0.0
01/03/19 20:54 17.4 78 13.5 0.0 0.0 0 0.0 0.0 1023.0 0.0 0.0 17.4 0.0
01/03/19 20:55 17.3 78 13.4 0.0 0.0 0 0.0 0.0 1023.0 0.0 0.0 17.3 0.0
01/03/19 20:56 17.4 78 13.5 0.0 0.0 0 0.0 0.0 1023.0 0.0 0.0 17.4 0.0
01/03/19 20:57 17.3 79 13.6 0.0 0.0 0 0.0 0.0 1023.0 0.0 0.0 17.3 0.0
01/03/19 20:58 17.3 78 13.4 0.0 0.0 0 0.0 0.0 1023.0 0.0 0.0 17.3 0.0
01/03/19 20:59 17.3 78 13.4 0.0 0.0 0 0.0 0.0 1023.0 0.0 0.0 17.3 0.0
01/03/19 21:03 17.2 79 13.5 0.0 0.0 0 0.0 0.0 1023.0 0.0 0.0 17.2 0.0
01/03/19 21:04 17.2 79 13.5 0.0 0.0 0 0.0 0.0 1023.0 0.0 0.0 17.2 0.0
01/03/19 21:05 17.2 78 13.3 0.0 0.0 0 0.0 0.0 1023.0 0.0 0.0 17.2 0.0
01/03/19 21:06 17.2 79 13.5 0.0 0.0 0 0.0 0.0 1023.0 0.0 0.0 17.2 0.0
01/03/19 21:07 17.1 79 13.4 0.0 0.0 0 0.0 0.0 1023.0 0.0 0.0 17.1 0.0
01/03/19 21:08 17.1 80 13.6 0.0 0.0 0 0.0 0.0 1024.0 0.0 0.0 17.1 0.0
01/03/19 21:09 17.1 80 13.6 0.0 0.0 0 0.0 0.0 1024.0 0.0 0.0 17.1 0.0
01/03/19 21:10 17.1 79 13.4 0.0 0.0 0 0.0 0.0 1024.0 0.0 0.0 17.1 0.0
01/03/19 21:11 17.0 79 13.3 0.0 0.0 0 0.0 0.0 1024.0 0.0 0.0 17.0 0.0
01/03/19 21:12 17.0 79 13.3 0.0 0.0 0 0.0 0.0 1024.0 0.0 0.0 17.0 0.0
01/03/19 21:13 17.1 79 13.4 0.0 0.0 0 0.0 0.0 1024.0 0.0 0.0 17.1 0.0
01/03/19 21:14 17.0 80 13.5 0.0 0.0 0 0.0 0.0 1024.0 0.0 0.0 17.0 0.0
01/03/19 21:15 17.0 80 13.5 0.0 0.0 0 0.0 0.0 1024.0 0.0 0.0 17.0 0.0
01/03/19 21:18 17.0 80 13.5 0.0 0.0 0 0.0 0.0 1024.0 0.0 0.0 17.0 0.0
01/03/19 21:19 16.9 81 13.6 0.0 0.0 0 0.0 0.0 1024.0 0.0 0.0 16.9 0.0
01/03/19 21:20 16.9 80 13.4 0.0 0.0 0 0.0 0.0 1024.0 0.0 0.0 16.9 0.0
01/03/19 21:21 16.9 81 13.6 0.0 0.0 0 0.0 0.0 1024.0 0.0 0.0 16.9 0.0
01/03/19 21:22 16.9 81 13.6 0.0 0.0 0 0.0 0.0 1024.0 0.0 0.0 16.9 0.0
01/03/19 21:23 16.9 81 13.6 0.0 0.0 0 0.0 0.0 1024.0 0.0 0.0 16.9 0.0
01/03/19 21:24 16.9 81 13.6 0.0 0.0 0 0.0 0.0 1024.0 0.0 0.0 16.9 0.0
01/03/19 21:25 16.9 81 13.6 0.0 0.0 0 0.0 0.0 1024.0 0.0 0.0 16.9 0.0
01/03/19 21:26 16.9 81 13.6 0.0 0.0 0 0.0 0.0 1024.0 0.0 0.0 16.9 0.0
01/03/19 21:27 16.9 82 13.8 0.0 0.0 0 0.0 0.0 1024.0 0.0 0.0 16.9 0.0
01/03/19 21:28 16.9 82 13.8 0.0 0.0 0 0.0 0.0 1024.0 0.0 0.0 16.9 0.0
01/03/19 21:29 16.9 82 13.8 0.0 0.0 0 0.0 0.0 1024.0 0.0 0.0 16.9 0.0
01/03/19 21:30 16.9 82 13.8 0.0 0.0 0 0.0 0.0 1024.0 0.0 0.0 16.9 0.0
01/03/19 21:33 16.9 82 13.8 0.0 0.0 0 0.0 0.0 1024.0 0.0 0.0 16.9 0.0
01/03/19 21:34 16.9 82 13.8 0.0 0.0 0 0.0 0.0 1024.0 0.0 0.0 16.9 0.0
01/03/19 21:35 16.9 82 13.8 0.0 0.0 0 0.0 0.0 1024.0 0.0 0.0 16.9 0.0
01/03/19 21:36 16.9 82 13.8 0.0 0.0 0 0.0 0.0 1024.0 0.0 0.0 16.9 0.0
01/03/19 21:37 16.9 82 13.8 0.0 0.0 0 0.0 0.0 1024.0 0.0 0.0 16.9 0.0
01/03/19 21:38 17.0 82 13.9 0.0 0.0 0 0.0 0.0 1024.0 0.0 0.0 17.0 0.0
01/03/19 21:39 17.0 83 14.1 0.0 0.0 0 0.0 0.0 1024.0 0.0 0.0 17.0 0.0
01/03/19 21:40 17.0 83 14.1 0.0 0.0 0 0.0 0.0 1024.0 0.0 0.0 17.0 0.0
01/03/19 21:41 17.0 83 14.1 0.0 0.0 0 0.0 0.0 1024.0 0.0 0.0 17.0 0.0
01/03/19 21:42 17.0 83 14.1 0.0 0.0 0 0.0 0.0 1024.0 0.0 0.0 17.0 0.0
01/03/19 21:43 17.0 83 14.1 0.0 0.0 0 0.0 0.0 1024.0 0.0 0.0 17.0 0.0
01/03/19 21:44 17.0 83 14.1 0.0 0.0 0 0.0 0.0 1024.0 0.0 0.0 17.0 0.0
01/03/19 21:48 17.0 82 13.9 0.0 0.0 0 0.0 0.0 1024.0 0.0 0.0 17.0 0.0
01/03/19 21:49 17.0 83 14.1 0.0 0.0 0 0.0 0.0 1024.0 0.0 0.0 17.0 0.0
01/03/19 21:50 17.0 83 14.1 0.0 0.0 0 0.0 0.0 1024.0 0.0 0.0 17.0 0.0
01/03/19 21:51 17.0 83 14.1 0.0 0.0 0 0.0 0.0 1024.0 0.0 0.0 17.0 0.0
01/03/19 21:52 17.1 83 14.2 0.0 0.0 0 0.0 0.0 1024.0 0.0 0.0 17.1 0.0
01/03/19 21:53 17.0 84 14.3 0.0 0.0 0 0.0 0.0 1024.0 0.0 0.0 17.0 0.0
01/03/19 21:54 17.1 84 14.4 0.0 0.0 0 0.0 0.0 1024.0 0.0 0.0 17.1 0.0
01/03/19 21:55 17.1 85 14.6 0.0 0.0 0 0.0 0.0 1024.0 0.0 0.0 17.1 0.0
01/03/19 21:56 17.1 85 14.6 0.0 0.0 0 0.0 0.0 1024.0 0.0 0.0 17.1 0.0
01/03/19 21:57 17.1 85 14.6 0.0 0.0 0 0.0 0.0 1024.0 0.0 0.0 17.1 0.0
01/03/19 21:58 17.1 85 14.6 0.0 0.0 0 0.0 0.0 1024.0 0.0 0.0 17.1 0.0
01/03/19 21:59 17.1 85 14.6 0.0 0.0 0 0.0 0.0 1024.0 0.0 0.0 17.1 0.0
01/03/19 22:03 17.1 86 14.7 0.0 0.0 0 0.0 0.0 1024.0 0.0 0.0 17.1 0.0
01/03/19 22:04 17.1 85 14.6 0.0 0.0 0 0.0 0.0 1024.0 0.0 0.0 17.1 0.0
01/03/19 22:05 17.1 85 14.6 0.0 0.0 0 0.0 0.0 1024.0 0.0 0.0 17.1 0.0
01/03/19 22:06 17.1 85 14.6 0.0 0.0 0 0.0 0.0 1024.0 0.0 0.0 17.1 0.0
01/03/19 22:07 17.0 85 14.5 0.0 0.0 0 0.0 0.0 1024.0 0.0 0.0 17.0 0.0
01/03/19 22:08 17.0 85 14.5 0.0 0.0 0 0.0 0.0 1025.0 0.0 0.0 17.0 0.0
01/03/19 22:09 17.0 85 14.5 0.0 0.0 0 0.0 0.0 1025.0 0.0 0.0 17.0 0.0
01/03/19 22:10 16.9 85 14.4 0.0 0.0 0 0.0 0.0 1025.0 0.0 0.0 16.9 0.0
01/03/19 22:11 16.9 86 14.5 0.0 0.0 0 0.0 0.0 1025.0 0.0 0.0 16.9 0.0
01/03/19 22:12 16.9 86 14.5 0.0 0.0 0 0.0 0.0 1025.0 0.0 0.0 16.9 0.0
01/03/19 22:13 16.9 86 14.5 0.0 0.0 0 0.0 0.0 1025.0 0.0 0.0 16.9 0.0
01/03/19 22:14 16.8 86 14.4 0.0 0.0 0 0.0 0.0 1025.0 0.0 0.0 16.8 0.0
01/03/19 22:18 16.6 87 14.4 0.0 0.0 0 0.0 0.0 1025.0 0.0 0.0 16.6 0.0
01/03/19 22:19 16.6 87 14.4 0.0 0.0 0 0.0 0.0 1025.0 0.0 0.0 16.6 0.0
01/03/19 22:20 16.6 88 14.6 0.0 0.0 0 0.0 0.0 1025.0 0.0 0.0 16.6 0.0
01/03/19 22:21 16.5 87 14.3 0.0 0.0 0 0.0 0.0 1025.0 0.0 0.0 16.5 0.0
01/03/19 22:22 16.5 87 14.3 0.0 0.0 0 0.0 0.0 1025.0 0.0 0.0 16.5 0.0
01/03/19 22:23 16.5 87 14.3 0.0 0.0 0 0.0 0.0 1025.0 0.0 0.0 16.5 0.0
01/03/19 22:24 16.5 88 14.5 0.0 0.0 0 0.0 0.0 1025.0 0.0 0.0 16.5 0.0
01/03/19 22:25 16.5 88 14.5 0.0 0.0 0 0.0 0.0 1025.0 0.0 0.0 16.5 0.0
01/03/19 22:26 16.5 88 14.5 0.0 0.0 0 0.0 0.0 1025.0 0.0 0.0 16.5 0.0
01/03/19 22:27 16.4 88 14.4 0.0 0.0 0 0.0 0.0 1025.0 0.0 0.0 16.4 0.0
01/03/19 22:28 16.4 88 14.4 0.0 0.0 0 0.0 0.0 1025.0 0.0 0.0 16.4 0.0
01/03/19 22:29 16.4 89 14.6 0.0 0.0 0 0.0 0.0 1025.0 0.0 0.0 16.4 0.0
01/03/19 22:30 16.4 89 14.6 0.0 0.0 0 0.0 0.0 1025.0 0.0 0.0 16.4 0.0
01/03/19 22:33 16.3 90 14.7 0.0 0.0 0 0.0 0.0 1025.0 0.0 0.0 16.3 0.0
01/03/19 22:34 16.3 89 14.5 0.0 0.0 0 0.0 0.0 1025.0 0.0 0.0 16.3 0.0
01/03/19 22:35 16.3 90 14.7 0.0 0.0 0 0.0 0.0 1025.0 0.0 0.0 16.3 0.0
01/03/19 22:36 16.2 90 14.6 0.0 0.0 0 0.0 0.0 1025.0 0.0 0.0 16.2 0.0
01/03/19 22:37 16.2 90 14.6 0.0 0.0 0 0.0 0.0 1025.0 0.0 0.0 16.2 0.0
01/03/19 22:38 16.1 90 14.5 0.0 0.0 0 0.0 0.0 1025.0 0.0 0.0 16.1 0.0
01/03/19 22:39 16.1 90 14.5 0.0 0.0 0 0.0 0.0 1025.0 0.0 0.0 16.1 0.0
01/03/19 22:40 16.1 91 14.6 0.0 0.0 0 0.0 0.0 1025.0 0.0 0.0 16.1 0.0
01/03/19 23:03 15.8 94 14.8 0.0 0.0 0 0.0 0.0 1025.0 0.0 0.0 15.8 0.0
01/03/19 23:04 15.8 94 14.8 0.0 0.0 0 0.0 0.0 1025.0 0.0 0.0 15.8 0.0
01/03/19 23:05 15.7 94 14.7 0.0 0.0 0 0.0 0.0 1025.0 0.0 0.0 15.7 0.0
01/03/19 23:06 15.8 94 14.8 0.0 0.0 0 0.0 0.0 1025.0 0.0 0.0 15.8 0.0
01/03/19 23:07 15.8 94 14.8 0.0 0.0 0 0.0 0.0 1025.0 0.0 0.0 15.8 0.0
01/03/19 23:08 15.6 94 14.6 0.0 0.0 0 0.0 0.0 1025.0 0.0 0.0 15.6 0.0
01/03/19 23:09 15.6 94 14.6 0.0 0.0 0 0.0 0.0 1025.0 0.0 0.0 15.6 0.0
01/03/19 23:10 15.6 94 14.6 0.0 0.0 0 0.0 0.0 1025.0 0.0 0.0 15.6 0.0
01/03/19 23:11 15.6 94 14.6 0.0 0.0 0 0.0 0.0 1025.0 0.0 0.0 15.6 0.0
01/03/19 23:12 15.7 94 14.7 0.0 0.0 0 0.0 0.0 1025.0 0.0 0.0 15.7 0.0
01/03/19 23:13 15.6 94 14.6 0.0 0.0 0 0.0 0.0 1025.0 0.0 0.0 15.6 0.0
01/03/19 23:14 15.5 94 14.5 0.0 0.0 0 0.0 0.0 1025.0 0.0 0.0 15.5 0.0
01/03/19 23:18 15.4 94 14.4 0.0 0.0 0 0.0 0.0 1025.0 0.0 0.0 15.4 0.0
01/03/19 23:19 15.4 94 14.4 0.0 0.0 0 0.0 0.0 1025.0 0.0 0.0 15.4 0.0
01/03/19 23:20 15.3 94 14.3 0.0 0.0 0 0.0 0.0 1025.0 0.0 0.0 15.3 0.0
01/03/19 23:21 15.3 94 14.3 0.0 0.0 0 0.0 0.0 1025.0 0.0 0.0 15.3 0.0
01/03/19 23:22 15.2 94 14.2 0.0 0.0 0 0.0 0.0 1025.0 0.0 0.0 15.2 0.0
01/03/19 23:23 15.2 94 14.2 0.0 0.0 0 0.0 0.0 1025.0 0.0 0.0 15.2 0.0
01/03/19 23:24 15.1 94 14.1 0.0 0.0 0 0.0 0.0 1025.0 0.0 0.0 15.1 0.0
01/03/19 23:25 15.1 94 14.1 0.0 0.0 0 0.0 0.0 1025.0 0.0 0.0 15.1 0.0
01/03/19 23:26 15.1 94 14.1 0.0 0.0 0 0.0 0.0 1025.0 0.0 0.0 15.1 0.0
01/03/19 23:27 15.1 94 14.1 0.0 0.0 0 0.0 0.0 1025.0 0.0 0.0 15.1 0.0
01/03/19 23:28 15.0 94 14.0 0.0 0.0 0 0.0 0.0 1025.0 0.0 0.0 15.0 0.0
01/03/19 23:29 15.0 94 14.0 0.0 0.0 0 0.0 0.0 1025.0 0.0 0.0 15.0 0.0
01/03/19 23:30 15.0 94 14.0 0.0 0.0 0 0.0 0.0 1025.0 0.0 0.0 15.0 0.0
01/03/19 23:33 14.9 94 13.9 0.0 0.0 0 0.0 0.0 1025.0 0.0 0.0 14.9 0.0
01/03/19 23:34 14.9 94 13.9 0.0 0.0 0 0.0 0.0 1025.0 0.0 0.0 14.9 0.0
01/03/19 23:35 14.9 94 13.9 0.0 0.0 0 0.0 0.0 1025.0 0.0 0.0 14.9 0.0
01/03/19 23:36 14.8 94 13.8 0.0 0.0 0 0.0 0.0 1025.0 0.0 0.0 14.8 0.0
01/03/19 23:37 14.8 94 13.8 0.0 0.0 0 0.0 0.0 1025.0 0.0 0.0 14.8 0.0
01/03/19 23:38 14.8 94 13.8 0.0 0.0 0 0.0 0.0 1025.0 0.0 0.0 14.8 0.0
01/03/19 23:39 14.7 94 13.7 0.0 0.0 0 0.0 0.0 1025.0 0.0 0.0 14.7 0.0
01/03/19 23:40 14.7 94 13.7 0.0 0.0 0 0.0 0.0 1025.0 0.0 0.0 14.7 0.0
01/03/19 23:41 14.7 94 13.7 0.0 0.0 0 0.0 0.0 1025.0 0.0 0.0 14.7 0.0
01/03/19 23:42 14.7 94 13.7 0.0 0.0 0 0.0 0.0 1025.0 0.0 0.0 14.7 0.0
01/03/19 23:43 14.7 94 13.7 0.0 0.0 0 0.0 0.0 1025.0 0.0 0.0 14.7 0.0
01/03/19 23:44 14.6 94 13.6 0.0 0.0 0 0.0 0.0 1025.0 0.0 0.0 14.6 0.0
01/03/19 23:45 14.6 94 13.6 0.0 0.0 0 0.0 0.0 1025.0 0.0 0.0 14.6 0.0
 
  Back to Top
Date Time Temperature Humidity Dewpoint Wind Speed High Gust Wind Bearing Rainfall Rate Total Rainfall Pressure Gust Wind Chill Heat Index UV Index
02/03/19 00:03 14.4 94 13.4 0.0 0.0 0 0.0 0.0 1024.0 0.0 0.0 14.4 0.0
02/03/19 00:04 14.4 94 13.4 0.0 0.0 0 0.0 0.0 1024.0 0.0 0.0 14.4 0.0
02/03/19 00:05 14.4 94 13.4 0.0 0.0 0 0.0 0.0 1024.0 0.0 0.0 14.4 0.0
02/03/19 00:06 14.4 94 13.4 0.0 0.0 0 0.0 0.0 1024.0 0.0 0.0 14.4 0.0
02/03/19 00:07 14.4 94 13.4 0.0 0.0 0 0.0 0.0 1024.0 0.0 0.0 14.4 0.0
02/03/19 00:08 14.4 94 13.4 0.0 0.0 0 0.0 0.0 1024.0 0.0 0.0 14.4 0.0
02/03/19 00:09 14.4 94 13.4 0.0 0.0 0 0.0 0.0 1024.0 0.0 0.0 14.4 0.0
02/03/19 00:10 14.3 94 13.3 0.0 0.0 0 0.0 0.0 1024.0 0.0 0.0 14.3 0.0
02/03/19 00:11 14.4 94 13.4 0.0 0.0 0 0.0 0.0 1024.0 0.0 0.0 14.4 0.0
02/03/19 00:12 14.4 94 13.4 0.0 0.0 0 0.0 0.0 1024.0 0.0 0.0 14.4 0.0
02/03/19 00:13 14.4 94 13.4 0.0 0.0 0 0.0 0.0 1024.0 0.0 0.0 14.4 0.0
02/03/19 00:14 14.4 94 13.4 0.0 0.0 0 0.0 0.0 1024.0 0.0 0.0 14.4 0.0
02/03/19 00:15 14.4 94 13.4 0.0 0.0 0 0.0 0.0 1024.0 0.0 0.0 14.4 0.0
02/03/19 00:35 14.5 94 13.5 0.0 0.0 0 0.0 0.0 1025.0 0.0 0.0 14.5 0.0
02/03/19 00:36 14.5 94 13.5 0.0 0.0 0 0.0 0.0 1025.0 0.0 0.0 14.5 0.0
02/03/19 00:37 14.5 94 13.5 0.0 0.0 0 0.0 0.0 1025.0 0.0 0.0 14.5 0.0
02/03/19 00:38 14.5 94 13.5 0.0 0.0 0 0.0 0.0 1024.0 0.0 0.0 14.5 0.0
02/03/19 00:39 14.5 94 13.5 0.0 0.0 0 0.0 0.0 1024.0 0.0 0.0 14.5 0.0
02/03/19 00:40 14.5 94 13.5 0.0 0.0 0 0.0 0.0 1024.0 0.0 0.0 14.5 0.0
02/03/19 00:41 14.4 94 13.4 0.0 0.0 0 0.0 0.0 1024.0 0.0 0.0 14.4 0.0
02/03/19 00:48 14.4 94 13.4 0.0 0.0 0 0.0 0.0 1024.0 0.0 0.0 14.4 0.0
02/03/19 00:49 14.4 94 13.4 0.0 0.0 0 0.0 0.0 1024.0 0.0 0.0 14.4 0.0
02/03/19 00:50 14.4 94 13.4 0.0 0.0 0 0.0 0.0 1024.0 0.0 0.0 14.4 0.0
02/03/19 00:51 14.4 94 13.4 0.0 0.0 0 0.0 0.0 1024.0 0.0 0.0 14.4 0.0
02/03/19 00:52 14.4 94 13.4 0.0 0.0 0 0.0 0.0 1024.0 0.0 0.0 14.4 0.0
02/03/19 00:53 14.4 94 13.4 0.0 0.0 0 0.0 0.0 1024.0 0.0 0.0 14.4 0.0
02/03/19 00:54 14.5 94 13.5 0.0 0.0 0 0.0 0.0 1024.0 0.0 0.0 14.5 0.0
02/03/19 00:55 14.5 94 13.5 0.0 0.0 0 0.0 0.0 1024.0 0.0 0.0 14.5 0.0
02/03/19 01:03 14.4 94 13.4 0.0 0.0 0 0.0 0.0 1024.0 0.0 0.0 14.4 0.0
02/03/19 01:04 14.4 94 13.4 0.0 0.0 0 0.0 0.0 1024.0 0.0 0.0 14.4 0.0
02/03/19 01:05 14.4 94 13.4 0.0 0.0 0 0.0 0.0 1024.0 0.0 0.0 14.4 0.0
02/03/19 01:06 14.4 94 13.4 0.0 0.0 0 0.0 0.0 1024.0 0.0 0.0 14.4 0.0
02/03/19 01:07 14.4 94 13.4 0.0 0.0 0 0.0 0.0 1024.0 0.0 0.0 14.4 0.0
02/03/19 01:08 14.4 94 13.4 0.0 0.0 0 0.0 0.0 1024.0 0.0 0.0 14.4 0.0
02/03/19 01:09 14.4 94 13.4 0.0 0.0 0 0.0 0.0 1024.0 0.0 0.0 14.4 0.0
02/03/19 01:10 14.4 94 13.4 0.0 0.0 0 0.0 0.0 1024.0 0.0 0.0 14.4 0.0
02/03/19 01:11 14.3 94 13.3 0.0 0.0 0 0.0 0.0 1024.0 0.0 0.0 14.3 0.0
02/03/19 01:12 14.3 94 13.3 0.0 0.0 0 0.0 0.0 1024.0 0.0 0.0 14.3 0.0
02/03/19 01:13 14.3 94 13.3 0.0 0.0 0 0.0 0.0 1024.0 0.0 0.0 14.3 0.0
02/03/19 01:14 14.3 94 13.3 0.0 0.0 0 0.0 0.0 1024.0 0.0 0.0 14.3 0.0
02/03/19 01:15 14.3 94 13.3 0.0 0.0 0 0.0 0.0 1024.0 0.0 0.0 14.3 0.0
02/03/19 01:18 14.2 94 13.2 0.0 0.0 0 0.0 0.0 1024.0 0.0 0.0 14.2 0.0
02/03/19 01:19 14.2 94 13.2 0.0 0.0 0 0.0 0.0 1024.0 0.0 0.0 14.2 0.0
02/03/19 01:20 14.2 94 13.2 0.0 0.0 0 0.0 0.0 1024.0 0.0 0.0 14.2 0.0
02/03/19 01:21 14.2 94 13.2 0.0 0.0 0 0.0 0.0 1024.0 0.0 0.0 14.2 0.0
02/03/19 01:22 14.2 94 13.2 0.0 0.0 0 0.0 0.0 1024.0 0.0 0.0 14.2 0.0
02/03/19 01:23 14.2 94 13.2 0.0 0.0 0 0.0 0.0 1024.0 0.0 0.0 14.2 0.0
02/03/19 01:24 14.2 94 13.2 0.0 0.0 0 0.0 0.0 1024.0 0.0 0.0 14.2 0.0
02/03/19 01:25 14.2 94 13.2 0.0 0.0 0 0.0 0.0 1024.0 0.0 0.0 14.2 0.0
02/03/19 01:26 14.2 94 13.2 0.0 0.0 0 0.0 0.0 1024.0 0.0 0.0 14.2 0.0
02/03/19 01:27 14.2 94 13.2 0.0 0.0 0 0.0 0.0 1024.0 0.0 0.0 14.2 0.0
02/03/19 01:28 14.2 94 13.2 0.0 0.0 0 0.0 0.0 1024.0 0.0 0.0 14.2 0.0
02/03/19 01:29 14.2 94 13.2 0.0 0.0 0 0.0 0.0 1024.0 0.0 0.0 14.2 0.0
02/03/19 01:30 14.2 94 13.2 0.0 0.0 0 0.0 0.0 1024.0 0.0 0.0 14.2 0.0
02/03/19 01:33 14.2 94 13.2 0.0 0.0 0 0.0 0.0 1024.0 0.0 0.0 14.2 0.0
02/03/19 01:34 14.2 94 13.2 0.0 0.0 0 0.0 0.0 1024.0 0.0 0.0 14.2 0.0
02/03/19 01:35 14.2 94 13.2 0.0 0.0 0 0.0 0.0 1024.0 0.0 0.0 14.2 0.0
02/03/19 01:36 14.2 94 13.2 0.0 0.0 0 0.0 0.0 1024.0 0.0 0.0 14.2 0.0
02/03/19 01:37 14.2 94 13.2 0.0 0.0 0 0.0 0.0 1024.0 0.0 0.0 14.2 0.0
02/03/19 01:38 14.2 94 13.2 0.0 0.0 0 0.0 0.0 1024.0 0.0 0.0 14.2 0.0
02/03/19 01:39 14.2 94 13.2 0.0 0.0 0 0.0 0.0 1024.0 0.0 0.0 14.2 0.0
02/03/19 01:40 14.2 94 13.2 0.0 0.0 0 0.0 0.0 1024.0 0.0 0.0 14.2 0.0
02/03/19 01:41 14.2 94 13.2 0.0 0.0 0 0.0 0.0 1024.0 0.0 0.0 14.2 0.0
02/03/19 01:42 14.2 94 13.2 0.0 0.0 0 0.0 0.0 1024.0 0.0 0.0 14.2 0.0
02/03/19 01:43 14.2 94 13.2 0.0 0.0 0 0.0 0.0 1024.0 0.0 0.0 14.2 0.0
02/03/19 01:44 14.2 94 13.2 0.0 0.0 0 0.0 0.0 1024.0 0.0 0.0 14.2 0.0
02/03/19 01:45 14.2 94 13.2 0.0 0.0 0 0.0 0.0 1024.0 0.0 0.0 14.2 0.0
02/03/19 01:48 14.2 94 13.2 0.0 0.0 0 0.0 0.0 1024.0 0.0 0.0 14.2 0.0
02/03/19 01:49 14.2 94 13.2 0.0 0.0 0 0.0 0.0 1024.0 0.0 0.0 14.2 0.0
02/03/19 01:50 14.2 94 13.2 0.0 0.0 0 0.0 0.0 1024.0 0.0 0.0 14.2 0.0
02/03/19 01:51 14.2 94 13.2 0.0 0.0 0 0.0 0.0 1024.0 0.0 0.0 14.2 0.0
02/03/19 01:52 14.2 94 13.2 0.0 0.0 0 0.0 0.0 1024.0 0.0 0.0 14.2 0.0
02/03/19 01:53 14.2 94 13.2 0.0 0.0 0 0.0 0.0 1023.0 0.0 0.0 14.2 0.0
02/03/19 01:54 14.2 94 13.2 0.0 0.0 0 0.0 0.0 1023.0 0.0 0.0 14.2 0.0
02/03/19 01:55 14.2 94 13.2 0.0 0.0 0 0.0 0.0 1023.0 0.0 0.0 14.2 0.0
02/03/19 01:56 14.2 94 13.2 0.0 0.0 0 0.0 0.0 1023.0 0.0 0.0 14.2 0.0
02/03/19 01:57 14.2 94 13.2 0.0 0.0 0 0.0 0.0 1023.0 0.0 0.0 14.2 0.0
02/03/19 01:58 14.2 94 13.2 0.0 0.0 0 0.0 0.0 1023.0 0.0 0.0 14.2 0.0
02/03/19 01:59 14.2 94 13.2 0.0 0.0 0 0.0 0.0 1023.0 0.0 0.0 14.2 0.0
02/03/19 02:00 14.2 94 13.2 0.0 0.0 0 0.0 0.0 1023.0 0.0 0.0 14.2 0.0
02/03/19 02:03 14.2 94 13.2 0.0 0.0 0 0.0 0.0 1023.0 0.0 0.0 14.2 0.0
02/03/19 02:04 14.2 94 13.2 0.0 0.0 0 0.0 0.0 1023.0 0.0 0.0 14.2 0.0
02/03/19 02:05 14.2 94 13.2 0.0 0.0 0 0.0 0.0 1023.0 0.0 0.0 14.2 0.0
02/03/19 02:06 14.2 94 13.2 0.0 0.0 0 0.0 0.0 1023.0 0.0 0.0 14.2 0.0
02/03/19 02:07 14.2 94 13.2 0.0 0.0 0 0.0 0.0 1023.0 0.0 0.0 14.2 0.0
02/03/19 02:08 14.2 94 13.2 0.0 0.0 0 0.0 0.0 1023.0 0.0 0.0 14.2 0.0
02/03/19 02:09 14.1 94 13.1 0.0 0.0 0 0.0 0.0 1023.0 0.0 0.0 14.1 0.0
02/03/19 02:10 14.1 94 13.1 0.0 0.0 0 0.0 0.0 1023.0 0.0 0.0 14.1 0.0
02/03/19 02:11 14.1 94 13.1 0.0 0.0 0 0.0 0.0 1023.0 0.0 0.0 14.1 0.0
02/03/19 02:12 14.1 94 13.1 0.0 0.0 0 0.0 0.0 1023.0 0.0 0.0 14.1 0.0
02/03/19 02:13 14.1 94 13.1 0.0 0.0 0 0.0 0.0 1023.0 0.0 0.0 14.1 0.0
02/03/19 02:14 14.1 94 13.1 0.0 0.0 0 0.0 0.0 1023.0 0.0 0.0 14.1 0.0
02/03/19 02:18 14.1 94 13.1 0.0 0.0 0 0.0 0.0 1023.0 0.0 0.0 14.1 0.0
02/03/19 02:19 14.0 94 13.0 0.0 0.0 0 0.0 0.0 1023.0 0.0 0.0 14.0 0.0
02/03/19 02:20 14.0 94 13.0 0.0 0.0 0 0.0 0.0 1023.0 0.0 0.0 14.0 0.0
02/03/19 02:21 14.0 94 13.0 0.0 0.0 0 0.0 0.0 1023.0 0.0 0.0 14.0 0.0
02/03/19 02:22 14.0 94 13.0 0.0 0.0 0 0.0 0.0 1023.0 0.0 0.0 14.0 0.0
02/03/19 02:23 14.0 94 13.0 0.0 0.0 0 0.0 0.0 1022.0 0.0 0.0 14.0 0.0
02/03/19 02:24 14.0 94 13.0 0.0 0.0 0 0.0 0.0 1022.0 0.0 0.0 14.0 0.0
02/03/19 02:25 14.0 94 13.0 0.0 0.0 0 0.0 0.0 1022.0 0.0 0.0 14.0 0.0
02/03/19 02:26 14.0 94 13.0 0.0 0.0 0 0.0 0.0 1022.0 0.0 0.0 14.0 0.0
02/03/19 02:27 14.0 95 13.2 0.0 0.0 0 0.0 0.0 1022.0 0.0 0.0 14.0 0.0
02/03/19 02:28 14.0 95 13.2 0.0 0.0 0 0.0 0.0 1022.0 0.0 0.0 14.0 0.0
02/03/19 02:29 14.0 95 13.2 0.0 0.0 0 0.0 0.0 1022.0 0.0 0.0 14.0 0.0
02/03/19 02:30 14.0 95 13.2 0.0 0.0 0 0.0 0.0 1022.0 0.0 0.0 14.0 0.0
02/03/19 02:33 14.0 95 13.2 0.0 0.0 0 0.0 0.0 1022.0 0.0 0.0 14.0 0.0
02/03/19 02:34 13.9 95 13.1 0.0 0.0 0 0.0 0.0 1022.0 0.0 0.0 13.9 0.0
02/03/19 02:35 13.9 95 13.1 0.0 0.0 0 0.0 0.0 1022.0 0.0 0.0 13.9 0.0
02/03/19 02:36 13.9 95 13.1 0.0 0.0 0 0.0 0.0 1022.0 0.0 0.0 13.9 0.0
02/03/19 02:37 13.9 95 13.1 0.0 0.0 0 0.0 0.0 1022.0 0.0 0.0 13.9 0.0
02/03/19 02:38 13.9 95 13.1 0.0 0.0 0 0.0 0.0 1023.0 0.0 0.0 13.9 0.0
02/03/19 02:39 13.9 95 13.1 0.0 0.0 0 0.0 0.0 1023.0 0.0 0.0 13.9 0.0
02/03/19 02:40 13.9 95 13.1 0.0 0.0 0 0.0 0.0 1023.0 0.0 0.0 13.9 0.0
02/03/19 02:41 13.9 95 13.1 0.0 0.0 0 0.0 0.0 1023.0 0.0 0.0 13.9 0.0
02/03/19 02:42 13.9 95 13.1 0.0 0.0 0 0.0 0.0 1023.0 0.0 0.0 13.9 0.0
02/03/19 02:43 13.9 95 13.1 0.0 0.0 0 0.0 0.0 1023.0 0.0 0.0 13.9 0.0
02/03/19 02:44 14.0 95 13.2 0.0 0.0 0 0.0 0.0 1023.0 0.0 0.0 14.0 0.0
02/03/19 02:45 14.0 95 13.2 0.0 0.0 0 0.0 0.0 1023.0 0.0 0.0 14.0 0.0
02/03/19 02:48 14.0 95 13.2 0.0 0.0 0 0.0 0.0 1023.0 0.0 0.0 14.0 0.0
02/03/19 02:49 14.0 95 13.2 0.0 0.0 0 0.0 0.0 1023.0 0.0 0.0 14.0 0.0
02/03/19 02:50 14.0 95 13.2 0.0 0.0 0 0.0 0.0 1023.0 0.0 0.0 14.0 0.0
02/03/19 03:03 14.2 96 13.6 0.0 0.0 0 0.0 0.0 1023.0 0.0 0.0 14.2 0.0
02/03/19 03:04 14.2 96 13.6 0.0 0.0 0 0.0 0.0 1023.0 0.0 0.0 14.2 0.0
02/03/19 03:05 14.2 96 13.6 0.0 0.0 0 0.0 0.0 1023.0 0.0 0.0 14.2 0.0
02/03/19 03:06 14.2 96 13.6 0.0 0.0 0 0.0 0.0 1023.0 0.0 0.0 14.2 0.0
02/03/19 03:07 14.2 96 13.6 0.0 0.0 0 0.0 0.0 1023.0 0.0 0.0 14.2 0.0
02/03/19 03:08 14.2 96 13.6 0.0 0.0 0 0.0 0.0 1023.0 0.0 0.0 14.2 0.0
02/03/19 03:09 14.3 96 13.7 0.0 0.0 0 0.0 0.0 1023.0 0.0 0.0 14.3 0.0
02/03/19 03:10 14.3 96 13.7 0.0 0.0 0 0.0 0.0 1023.0 0.0 0.0 14.3 0.0
02/03/19 03:11 14.3 96 13.7 0.0 0.0 0 0.0 0.0 1023.0 0.0 0.0 14.3 0.0
02/03/19 03:12 14.3 96 13.7 0.0 0.0 0 0.0 0.0 1023.0 0.0 0.0 14.3 0.0
02/03/19 03:13 14.3 96 13.7 0.0 0.0 0 0.0 0.0 1023.0 0.0 0.0 14.3 0.0
02/03/19 03:14 14.3 96 13.7 0.0 0.0 0 0.0 0.0 1023.0 0.0 0.0 14.3 0.0
02/03/19 03:15 14.3 96 13.7 0.0 0.0 0 0.0 0.0 1023.0 0.0 0.0 14.3 0.0
02/03/19 03:18 14.4 96 13.8 0.0 0.0 0 0.0 0.0 1023.0 0.0 0.0 14.4 0.0
02/03/19 03:19 14.4 96 13.8 0.0 0.0 0 0.0 0.0 1023.0 0.0 0.0 14.4 0.0
02/03/19 03:20 14.4 96 13.8 0.0 0.0 0 0.0 0.0 1023.0 0.0 0.0 14.4 0.0
02/03/19 03:21 14.4 96 13.8 0.0 0.0 0 0.0 0.0 1023.0 0.0 0.0 14.4 0.0
02/03/19 03:22 14.3 96 13.7 0.0 0.0 0 0.0 0.0 1023.0 0.0 0.0 14.3 0.0
02/03/19 03:23 14.3 96 13.7 0.0 0.0 0 0.0 0.0 1023.0 0.0 0.0 14.3 0.0
02/03/19 03:24 14.3 96 13.7 0.0 0.0 0 0.0 0.0 1023.0 0.0 0.0 14.3 0.0
02/03/19 03:25 14.3 96 13.7 0.0 0.0 0 0.0 0.0 1023.0 0.0 0.0 14.3 0.0
02/03/19 03:26 14.3 96 13.7 0.0 0.0 0 0.0 0.0 1023.0 0.0 0.0 14.3 0.0
02/03/19 03:27 14.3 96 13.7 0.0 0.0 0 0.0 0.0 1023.0 0.0 0.0 14.3 0.0
02/03/19 03:28 14.3 96 13.7 0.0 0.0 0 0.0 0.0 1023.0 0.0 0.0 14.3 0.0
02/03/19 03:29 14.3 96 13.7 0.0 0.0 0 0.0 0.0 1023.0 0.0 0.0 14.3 0.0
02/03/19 03:30 14.3 96 13.7 0.0 0.0 0 0.0 0.0 1023.0 0.0 0.0 14.3 0.0
02/03/19 03:48 14.2 97 13.7 0.0 0.0 0 0.0 0.0 1024.0 0.0 0.0 14.2 0.0
02/03/19 03:49 14.3 97 13.8 0.0 0.0 0 0.0 0.0 1024.0 0.0 0.0 14.3 0.0
02/03/19 03:50 14.2 97 13.7 0.0 0.0 0 0.0 0.0 1024.0 0.0 0.0 14.2 0.0
02/03/19 03:51 14.3 97 13.8 0.0 0.0 0 0.0 0.0 1024.0 0.0 0.0 14.3 0.0
02/03/19 03:52 14.2 97 13.7 0.0 0.0 0 0.0 0.0 1024.0 0.0 0.0 14.2 0.0
02/03/19 03:53 14.2 97 13.7 0.0 0.0 0 0.0 0.0 1023.0 0.0 0.0 14.2 0.0
02/03/19 03:54 14.2 97 13.7 0.0 0.0 0 0.0 0.0 1023.0 0.0 0.0 14.2 0.0
02/03/19 03:55 14.3 97 13.8 0.0 0.0 0 0.0 0.0 1023.0 0.0 0.0 14.3 0.0
02/03/19 03:56 14.2 97 13.7 0.0 0.0 0 0.0 0.0 1023.0 0.0 0.0 14.2 0.0
02/03/19 03:57 14.2 97 13.7 0.0 0.0 0 0.0 0.0 1023.0 0.0 0.0 14.2 0.0
02/03/19 03:58 14.2 97 13.7 0.0 0.0 0 0.0 0.0 1023.0 0.0 0.0 14.2 0.0
02/03/19 03:59 14.2 97 13.7 0.0 0.0 0 0.0 0.0 1023.0 0.0 0.0 14.2 0.0
02/03/19 04:00 14.2 97 13.7 0.0 0.0 0 0.0 0.0 1023.0 0.0 0.0 14.2 0.0
02/03/19 04:03 14.2 97 13.7 0.0 0.0 0 0.0 0.0 1023.0 0.0 0.0 14.2 0.0
02/03/19 04:04 14.2 97 13.7 0.0 0.0 0 0.0 0.0 1023.0 0.0 0.0 14.2 0.0
02/03/19 04:05 14.2 97 13.7 0.0 0.0 0 0.0 0.0 1023.0 0.0 0.0 14.2 0.0
02/03/19 04:06 14.3 97 13.8 0.0 0.0 0 0.0 0.0 1023.0 0.0 0.0 14.3 0.0
02/03/19 04:07 14.3 97 13.8 0.0 0.0 0 0.0 0.0 1023.0 0.0 0.0 14.3 0.0
02/03/19 04:08 14.2 97 13.7 0.0 0.0 0 0.0 0.0 1023.0 0.0 0.0 14.2 0.0
02/03/19 04:09 14.2 97 13.7 0.0 0.0 0 0.0 0.0 1023.0 0.0 0.0 14.2 0.0
02/03/19 04:10 14.2 97 13.7 0.0 0.0 0 0.0 0.0 1023.0 0.0 0.0 14.2 0.0
02/03/19 04:11 14.2 97 13.7 0.0 0.0 0 0.0 0.0 1023.0 0.0 0.0 14.2 0.0
02/03/19 04:12 14.1 97 13.6 0.0 0.0 0 0.0 0.0 1023.0 0.0 0.0 14.1 0.0
02/03/19 04:13 14.1 97 13.6 0.0 0.0 0 0.0 0.0 1023.0 0.0 0.0 14.1 0.0
02/03/19 04:14 14.1 97 13.6 0.0 0.0 0 0.0 0.0 1023.0 0.0 0.0 14.1 0.0
02/03/19 04:18 14.0 96 13.4 0.0 0.0 0 0.0 0.0 1023.0 0.0 0.0 14.0 0.0
02/03/19 04:19 14.1 97 13.6 0.0 0.0 0 0.0 0.0 1023.0 0.0 0.0 14.1 0.0
02/03/19 04:20 14.1 97 13.6 0.0 0.0 0 0.0 0.0 1023.0 0.0 0.0 14.1 0.0
02/03/19 04:21 14.1 97 13.6 0.0 0.0 0 0.0 0.0 1023.0 0.0 0.0 14.1 0.0
02/03/19 04:22 14.1 97 13.6 0.0 0.0 0 0.0 0.0 1023.0 0.0 0.0 14.1 0.0
02/03/19 04:23 14.1 97 13.6 0.0 0.0 0 0.0 0.0 1023.0 0.0 0.0 14.1 0.0
02/03/19 04:24 14.1 97 13.6 0.0 0.0 0 0.0 0.0 1023.0 0.0 0.0 14.1 0.0
02/03/19 04:25 14.1 97 13.6 0.0 0.0 0 0.0 0.0 1023.0 0.0 0.0 14.1 0.0
02/03/19 04:26 14.1 97 13.6 0.0 0.0 0 0.0 0.0 1023.0 0.0 0.0 14.1 0.0
02/03/19 04:27 14.1 97 13.6 0.0 0.0 0 0.0 0.0 1023.0 0.0 0.0 14.1 0.0
02/03/19 04:28 14.1 97 13.6 0.0 0.0 0 0.0 0.0 1023.0 0.0 0.0 14.1 0.0
02/03/19 04:29 14.1 97 13.6 0.0 0.0 0 0.0 0.0 1023.0 0.0 0.0 14.1 0.0
02/03/19 04:30 14.1 97 13.6 0.0 0.0 0 0.0 0.0 1023.0 0.0 0.0 14.1 0.0
02/03/19 04:33 14.0 97 13.5 0.0 0.0 0 0.0 0.0 1023.0 0.0 0.0 14.0 0.0
02/03/19 04:34 14.0 97 13.5 0.0 0.0 0 0.0 0.0 1023.0 0.0 0.0 14.0 0.0
02/03/19 04:35 14.0 97 13.5 0.0 0.0 0 0.0 0.0 1023.0 0.0 0.0 14.0 0.0
02/03/19 04:36 14.0 97 13.5 0.0 0.0 0 0.0 0.0 1023.0 0.0 0.0 14.0 0.0
02/03/19 04:37 14.0 97 13.5 0.0 0.0 0 0.0 0.0 1023.0 0.0 0.0 14.0 0.0
02/03/19 04:38 14.0 97 13.5 0.0 0.0 0 0.0 0.0 1023.0 0.0 0.0 14.0 0.0
02/03/19 04:48 13.9 97 13.4 0.0 0.0 0 0.0 0.0 1023.0 0.0 0.0 13.9 0.0
02/03/19 04:49 13.8 97 13.3 0.0 0.0 0 0.0 0.0 1023.0 0.0 0.0 13.8 0.0
02/03/19 04:50 13.8 97 13.3 0.0 0.0 0 0.0 0.0 1023.0 0.0 0.0 13.8 0.0
02/03/19 04:51 13.8 97 13.3 0.0 0.0 0 0.0 0.0 1023.0 0.0 0.0 13.8 0.0
02/03/19 04:52 13.8 97 13.3 0.0 0.0 0 0.0 0.0 1023.0 0.0 0.0 13.8 0.0
02/03/19 04:53 13.8 97 13.3 0.0 0.0 0 0.0 0.0 1023.0 0.0 0.0 13.8 0.0
02/03/19 04:54 13.8 97 13.3 0.0 0.0 0 0.0 0.0 1023.0 0.0 0.0 13.8 0.0
02/03/19 04:55 13.8 97 13.3 0.0 0.0 0 0.0 0.0 1023.0 0.0 0.0 13.8 0.0
02/03/19 04:56 13.8 97 13.3 0.0 0.0 0 0.0 0.0 1023.0 0.0 0.0 13.8 0.0
02/03/19 04:57 13.8 97 13.3 0.0 0.0 0 0.0 0.0 1023.0 0.0 0.0 13.8 0.0
02/03/19 04:58 13.7 97 13.2 0.0 0.0 0 0.0 0.0 1023.0 0.0 0.0 13.7 0.0
02/03/19 04:59 13.7 97 13.2 0.0 0.0 0 0.0 0.0 1023.0 0.0 0.0 13.7 0.0
02/03/19 05:00 13.7 97 13.2 0.0 0.0 0 0.0 0.0 1023.0 0.0 0.0 13.7 0.0
02/03/19 05:03 13.7 97 13.2 0.0 0.0 0 0.0 0.0 1023.0 0.0 0.0 13.7 0.0
02/03/19 05:04 13.7 97 13.2 0.0 0.0 0 0.0 0.0 1023.0 0.0 0.0 13.7 0.0
02/03/19 05:05 13.6 97 13.1 0.0 0.0 0 0.0 0.0 1023.0 0.0 0.0 13.6 0.0
02/03/19 05:06 13.6 97 13.1 0.0 0.0 0 0.0 0.0 1023.0 0.0 0.0 13.6 0.0
02/03/19 05:07 13.6 97 13.1 0.0 0.0 0 0.0 0.0 1023.0 0.0 0.0 13.6 0.0
02/03/19 05:08 13.6 97 13.1 0.0 0.0 0 0.0 0.0 1023.0 0.0 0.0 13.6 0.0
02/03/19 05:09 13.6 97 13.1 0.0 0.0 0 0.0 0.0 1023.0 0.0 0.0 13.6 0.0
02/03/19 05:10 13.6 97 13.1 0.0 0.0 0 0.0 0.0 1023.0 0.0 0.0 13.6 0.0
02/03/19 05:11 13.6 97 13.1 0.0 0.0 0 0.0 0.0 1023.0 0.0 0.0 13.6 0.0
02/03/19 05:12 13.6 97 13.1 0.0 0.0 0 0.0 0.0 1023.0 0.0 0.0 13.6 0.0
02/03/19 05:13 13.6 97 13.1 0.0 0.0 0 0.0 0.0 1023.0 0.0 0.0 13.6 0.0
02/03/19 05:14 13.6 97 13.1 0.0 0.0 0 0.0 0.0 1023.0 0.0 0.0 13.6 0.0
02/03/19 05:15 13.5 97 13.0 0.0 0.0 0 0.0 0.0 1023.0 0.0 0.0 13.5 0.0
02/03/19 05:18 13.5 97 13.0 0.0 0.0 0 0.0 0.0 1023.0 0.0 0.0 13.5 0.0
02/03/19 05:19 13.5 98 13.2 0.0 0.0 0 0.0 0.0 1023.0 0.0 0.0 13.5 0.0
02/03/19 05:20 13.5 98 13.2 0.0 0.0 0 0.0 0.0 1023.0 0.0 0.0 13.5 0.0
02/03/19 05:21 13.5 98 13.2 0.0 0.0 0 0.0 0.0 1023.0 0.0 0.0 13.5 0.0
02/03/19 05:22 13.5 98 13.2 0.0 0.0 0 0.0 0.0 1023.0 0.0 0.0 13.5 0.0
02/03/19 05:23 13.5 97 13.0 0.0 0.0 0 0.0 0.0 1023.0 0.0 0.0 13.5 0.0
02/03/19 05:24 13.5 97 13.0 0.0 0.0 0 0.0 0.0 1023.0 0.0 0.0 13.5 0.0
02/03/19 05:25 13.4 97 12.9 0.0 0.0 0 0.0 0.0 1023.0 0.0 0.0 13.4 0.0
02/03/19 05:26 13.4 97 12.9 0.0 0.0 0 0.0 0.0 1023.0 0.0 0.0 13.4 0.0
02/03/19 05:27 13.4 97 12.9 0.0 0.0 0 0.0 0.0 1023.0 0.0 0.0 13.4 0.0
02/03/19 05:28 13.4 97 12.9 0.0 0.0 0 0.0 0.0 1023.0 0.0 0.0 13.4 0.0
02/03/19 05:29 13.4 98 13.1 0.0 0.0 0 0.0 0.0 1023.0 0.0 0.0 13.4 0.0
02/03/19 05:30 13.3 98 13.0 0.0 0.0 0 0.0 0.0 1023.0 0.0 0.0 13.3 0.0
02/03/19 05:33 13.3 98 13.0 0.0 0.0 0 0.0 0.0 1023.0 0.0 0.0 13.3 0.0
02/03/19 05:34 13.3 98 13.0 0.0 0.0 0 0.0 0.0 1023.0 0.0 0.0 13.3 0.0
02/03/19 05:35 13.3 98 13.0 0.0 0.0 0 0.0 0.0 1023.0 0.0 0.0 13.3 0.0
02/03/19 05:36 13.3 98 13.0 0.0 0.0 0 0.0 0.0 1023.0 0.0 0.0 13.3 0.0
02/03/19 05:37 13.3 98 13.0 0.0 0.0 0 0.0 0.0 1023.0 0.0 0.0 13.3 0.0
02/03/19 05:38 13.2 98 12.9 0.0 0.0 0 0.0 0.0 1023.0 0.0 0.0 13.2 0.0
02/03/19 05:39 13.2 98 12.9 0.0 0.0 0 0.0 0.0 1023.0 0.0 0.0 13.2 0.0
02/03/19 05:40 13.3 98 13.0 0.0 0.0 0 0.0 0.0 1023.0 0.0 0.0 13.3 0.0
02/03/19 05:41 13.2 98 12.9 0.0 0.0 0 0.0 0.0 1023.0 0.0 0.0 13.2 0.0
02/03/19 05:42 13.2 98 12.9 0.0 0.0 0 0.0 0.0 1023.0 0.0 0.0 13.2 0.0
02/03/19 05:43 13.2 98 12.9 0.0 0.0 0 0.0 0.0 1023.0 0.0 0.0 13.2 0.0
02/03/19 05:44 13.2 98 12.9 0.0 0.0 0 0.0 0.0 1023.0 0.0 0.0 13.2 0.0
02/03/19 05:48 13.1 98 12.8 0.0 0.0 0 0.0 0.0 1023.0 0.0 0.0 13.1 0.0
02/03/19 05:49 13.1 98 12.8 0.0 0.0 0 0.0 0.0 1023.0 0.0 0.0 13.1 0.0
02/03/19 05:50 13.0 98 12.7 0.0 0.0 0 0.0 0.0 1023.0 0.0 0.0 13.0 0.0
02/03/19 05:51 13.0 98 12.7 0.0 0.0 0 0.0 0.0 1023.0 0.0 0.0 13.0 0.0
02/03/19 05:52 13.0 98 12.7 0.0 0.0 0 0.0 0.0 1023.0 0.0 0.0 13.0 0.0
02/03/19 05:53 13.0 98 12.7 0.0 0.0 0 0.0 0.0 1023.0 0.0 0.0 13.0 0.0
02/03/19 05:54 12.9 98 12.6 0.0 0.0 0 0.0 0.0 1023.0 0.0 0.0 12.9 0.0
02/03/19 05:55 12.9 98 12.6 0.0 0.0 0 0.0 0.0 1023.0 0.0 0.0 12.9 0.0
02/03/19 05:56 12.9 98 12.6 0.0 0.0 0 0.0 0.0 1023.0 0.0 0.0 12.9 0.0
02/03/19 05:57 12.9 98 12.6 0.0 0.0 0 0.0 0.0 1023.0 0.0 0.0 12.9 0.0
02/03/19 05:58 12.9 98 12.6 0.0 0.0 0 0.0 0.0 1023.0 0.0 0.0 12.9 0.0
02/03/19 05:59 12.9 98 12.6 0.0 0.0 0 0.0 0.0 1023.0 0.0 0.0 12.9 0.0
02/03/19 06:00 12.9 98 12.6 0.0 0.0 0 0.0 0.0 1023.0 0.0 0.0 12.9 0.0
02/03/19 06:03 12.9 98 12.6 0.0 0.0 0 0.0 0.0 1023.0 0.0 0.0 12.9 0.0
02/03/19 06:04 12.8 98 12.5 0.0 0.0 0 0.0 0.0 1023.0 0.0 0.0 12.8 0.0
02/03/19 06:05 12.8 98 12.5 0.0 0.0 0 0.0 0.0 1023.0 0.0 0.0 12.8 0.0
02/03/19 06:06 12.8 98 12.5 0.0 0.0 0 0.0 0.0 1023.0 0.0 0.0 12.8 0.0
02/03/19 06:07 12.8 98 12.5 0.0 0.0 0 0.0 0.0 1023.0 0.0 0.0 12.8 0.0
02/03/19 06:08 12.8 98 12.5 0.0 0.0 0 0.0 0.0 1023.0 0.0 0.0 12.8 0.0
02/03/19 06:09 12.8 98 12.5 0.0 0.0 0 0.0 0.0 1023.0 0.0 0.0 12.8 0.0
02/03/19 06:10 12.8 98 12.5 0.0 0.0 0 0.0 0.0 1023.0 0.0 0.0 12.8 0.0
02/03/19 06:11 12.7 98 12.4 0.0 0.0 0 0.0 0.0 1023.0 0.0 0.0 12.7 0.0
02/03/19 06:12 12.7 98 12.4 0.0 0.0 0 0.0 0.0 1023.0 0.0 0.0 12.7 0.0
02/03/19 06:13 12.7 98 12.4 0.0 0.0 0 0.0 0.0 1023.0 0.0 0.0 12.7 0.0
02/03/19 06:14 12.7 98 12.4 0.0 0.0 0 0.0 0.0 1023.0 0.0 0.0 12.7 0.0
02/03/19 06:18 12.7 98 12.4 0.0 0.0 0 0.0 0.0 1023.0 0.0 0.0 12.7 0.0
02/03/19 06:19 12.7 98 12.4 0.0 0.0 0 0.0 0.0 1023.0 0.0 0.0 12.7 0.0
02/03/19 06:20 12.6 98 12.3 0.0 0.0 0 0.0 0.0 1023.0 0.0 0.0 12.6 0.0
02/03/19 06:21 12.6 98 12.3 0.0 0.0 0 0.0 0.0 1023.0 0.0 0.0 12.6 0.0
02/03/19 06:22 12.6 98 12.3 0.0 0.0 0 0.0 0.0 1023.0 0.0 0.0 12.6 0.0
02/03/19 06:23 12.6 98 12.3 0.0 0.0 0 0.0 0.0 1023.0 0.0 0.0 12.6 0.0
02/03/19 06:24 12.6 98 12.3 0.0 0.0 0 0.0 0.0 1023.0 0.0 0.0 12.6 0.0
02/03/19 06:25 12.6 98 12.3 0.0 0.0 0 0.0 0.0 1023.0 0.0 0.0 12.6 0.0
02/03/19 06:26 12.5 98 12.2 0.0 0.0 0 0.0 0.0 1023.0 0.0 0.0 12.5 0.0
02/03/19 06:27 12.5 98 12.2 0.0 0.0 0 0.0 0.0 1023.0 0.0 0.0 12.5 0.0
02/03/19 06:28 12.5 98 12.2 0.0 0.0 0 0.0 0.0 1023.0 0.0 0.0 12.5 0.0
02/03/19 06:29 12.5 98 12.2 0.0 0.0 0 0.0 0.0 1023.0 0.0 0.0 12.5 0.0
02/03/19 06:30 12.5 98 12.2 0.0 0.0 0 0.0 0.0 1023.0 0.0 0.0 12.5 0.0
02/03/19 06:33 12.6 98 12.3 0.0 0.0 0 0.0 0.0 1023.0 0.0 0.0 12.6 0.0
02/03/19 06:34 12.6 98 12.3 0.0 0.0 0 0.0 0.0 1023.0 0.0 0.0 12.6 0.0
02/03/19 06:35 12.7 98 12.4 0.0 0.0 0 0.0 0.0 1023.0 0.0 0.0 12.7 0.0
02/03/19 06:36 12.7 98 12.4 0.0 0.0 0 0.0 0.0 1023.0 0.0 0.0 12.7 0.0
02/03/19 06:37 12.7 98 12.4 0.0 0.0 0 0.0 0.0 1023.0 0.0 0.0 12.7 0.0
02/03/19 06:38 12.7 98 12.4 0.0 0.0 0 0.0 0.0 1023.0 0.0 0.0 12.7 0.0
02/03/19 06:39 12.7 98 12.4 0.0 0.0 0 0.0 0.0 1023.0 0.0 0.0 12.7 0.0
02/03/19 06:40 12.8 98 12.5 0.0 0.0 0 0.0 0.0 1023.0 0.0 0.0 12.8 0.0
02/03/19 06:41 12.8 98 12.5 0.0 0.0 0 0.0 0.0 1023.0 0.0 0.0 12.8 0.0
02/03/19 06:42 12.8 98 12.5 0.0 0.0 0 0.0 0.0 1023.0 0.0 0.0 12.8 0.0
02/03/19 06:43 12.9 98 12.6 0.0 0.0 0 0.0 0.0 1023.0 0.0 0.0 12.9 0.0
02/03/19 06:44 12.9 98 12.6 0.0 0.0 0 0.0 0.0 1023.0 0.0 0.0 12.9 0.0
02/03/19 06:45 12.9 98 12.6 0.0 0.0 0 0.0 0.0 1023.0 0.0 0.0 12.9 0.0
02/03/19 06:48 13.0 98 12.7 0.0 0.0 0 0.0 0.0 1023.0 0.0 0.0 13.0 0.0
02/03/19 06:49 13.0 98 12.7 0.0 0.0 0 0.0 0.0 1023.0 0.0 0.0 13.0 0.0
02/03/19 06:50 13.0 98 12.7 0.0 0.0 0 0.0 0.0 1023.0 0.0 0.0 13.0 0.0
02/03/19 06:51 13.0 98 12.7 0.0 0.0 0 0.0 0.0 1023.0 0.0 0.0 13.0 0.0
02/03/19 06:52 13.0 98 12.7 0.0 0.0 0 0.0 0.0 1023.0 0.0 0.0 13.0 0.0
02/03/19 06:53 13.0 98 12.7 0.0 0.0 0 0.0 0.0 1023.0 0.0 0.0 13.0 0.0
02/03/19 06:54 13.0 98 12.7 0.0 0.0 0 0.0 0.0 1023.0 0.0 0.0 13.0 0.0
02/03/19 06:55 13.0 98 12.7 0.0 0.0 0 0.0 0.0 1023.0 0.0 0.0 13.0 0.0
02/03/19 06:56 13.0 98 12.7 0.0 0.0 0 0.0 0.0 1023.0 0.0 0.0 13.0 0.0
02/03/19 06:57 13.0 98 12.7 0.0 0.0 0 0.0 0.0 1023.0 0.0 0.0 13.0 0.0
02/03/19 06:58 13.0 98 12.7 0.0 0.0 0 0.0 0.0 1023.0 0.0 0.0 13.0 0.0
02/03/19 06:59 13.0 98 12.7 0.0 0.0 0 0.0 0.0 1023.0 0.0 0.0 13.0 0.0
02/03/19 07:03 13.0 98 12.7 0.0 0.0 0 0.0 0.0 1023.0 0.0 0.0 13.0 0.0
02/03/19 07:04 13.0 98 12.7 0.0 0.0 0 0.0 0.0 1023.0 0.0 0.0 13.0 0.0
02/03/19 07:05 13.0 98 12.7 0.0 0.0 0 0.0 0.0 1023.0 0.0 0.0 13.0 0.0
02/03/19 07:06 13.0 98 12.7 0.0 0.0 0 0.0 0.0 1023.0 0.0 0.0 13.0 0.0
02/03/19 07:07 13.0 98 12.7 0.0 0.0 0 0.0 0.0 1023.0 0.0 0.0 13.0 0.0
02/03/19 07:08 13.0 98 12.7 0.0 0.0 0 0.0 0.0 1023.0 0.0 0.0 13.0 0.0
02/03/19 07:09 13.0 98 12.7 0.0 0.0 0 0.0 0.0 1023.0 0.0 0.0 13.0 0.0
02/03/19 07:10 13.1 98 12.8 0.0 0.0 0 0.0 0.0 1023.0 0.0 0.0 13.1 0.0
02/03/19 07:11 13.1 98 12.8 0.0 0.0 0 0.0 0.0 1023.0 0.0 0.0 13.1 0.0
02/03/19 07:12 13.1 98 12.8 0.0 0.0 0 0.0 0.0 1023.0 0.0 0.0 13.1 0.0
02/03/19 07:13 13.1 98 12.8 0.0 0.0 0 0.0 0.0 1023.0 0.0 0.0 13.1 0.0
02/03/19 07:14 13.2 98 12.9 0.0 0.0 0 0.0 0.0 1023.0 0.0 0.0 13.2 0.0
02/03/19 07:15 13.2 98 12.9 0.0 0.0 0 0.0 0.0 1023.0 0.0 0.0 13.2 0.0
02/03/19 07:18 13.2 98 12.9 0.0 0.0 0 0.0 0.0 1023.0 0.0 0.0 13.2 0.0
02/03/19 07:19 13.3 98 13.0 0.0 0.0 0 0.0 0.0 1023.0 0.0 0.0 13.3 0.0
02/03/19 07:20 13.3 98 13.0 0.0 0.0 0 0.0 0.0 1023.0 0.0 0.0 13.3 0.0
02/03/19 07:21 13.3 98 13.0 0.0 0.0 0 0.0 0.0 1023.0 0.0 0.0 13.3 0.0
02/03/19 07:22 13.3 98 13.0 0.0 0.0 0 0.0 0.0 1023.0 0.0 0.0 13.3 0.0
02/03/19 07:23 13.3 98 13.0 0.0 0.0 0 0.0 0.0 1022.0 0.0 0.0 13.3 0.0
02/03/19 07:24 13.4 98 13.1 0.0 0.0 0 0.0 0.0 1022.0 0.0 0.0 13.4 0.0
02/03/19 07:25 13.4 98 13.1 0.0 0.0 0 0.0 0.0 1022.0 0.0 0.0 13.4 0.0
02/03/19 07:26 13.4 98 13.1 0.0 0.0 0 0.0 0.0 1022.0 0.0 0.0 13.4 0.0
02/03/19 07:27 13.4 98 13.1 0.0 0.0 0 0.0 0.0 1022.0 0.0 0.0 13.4 0.0
02/03/19 07:28 13.5 98 13.2 0.0 0.0 0 0.0 0.0 1022.0 0.0 0.0 13.5 0.0
02/03/19 07:29 13.5 98 13.2 0.0 0.0 0 0.0 0.0 1022.0 0.0 0.0 13.5 0.0
02/03/19 07:30 13.5 98 13.2 0.0 0.0 0 0.0 0.0 1022.0 0.0 0.0 13.5 0.0
02/03/19 07:33 13.5 98 13.2 0.0 0.0 0 0.0 0.0 1022.0 0.0 0.0 13.5 0.0
02/03/19 07:34 13.6 98 13.3 0.0 0.0 0 0.0 0.0 1022.0 0.0 0.0 13.6 0.0
02/03/19 07:35 13.6 98 13.3 0.0 0.0 0 0.0 0.0 1022.0 0.0 0.0 13.6 0.0
02/03/19 07:36 13.6 98 13.3 0.0 0.0 0 0.0 0.0 1022.0 0.0 0.0 13.6 0.0
02/03/19 07:37 13.7 98 13.4 0.0 0.0 0 0.0 0.0 1022.0 0.0 0.0 13.7 0.0
02/03/19 07:38 13.7 98 13.4 0.0 0.0 0 0.0 0.0 1023.0 0.0 0.0 13.7 0.0
02/03/19 07:39 13.7 98 13.4 0.0 0.0 0 0.0 0.0 1023.0 0.0 0.0 13.7 0.0
02/03/19 07:40 13.7 98 13.4 0.0 0.0 0 0.0 0.0 1023.0 0.0 0.0 13.7 0.0
02/03/19 07:41 13.8 98 13.5 0.0 0.0 0 0.0 0.0 1023.0 0.0 0.0 13.8 0.0
02/03/19 07:42 13.8 98 13.5 0.0 0.0 0 0.0 0.0 1023.0 0.0 0.0 13.8 0.0
02/03/19 07:43 13.8 98 13.5 0.0 0.0 0 0.0 0.0 1023.0 0.0 0.0 13.8 0.0
02/03/19 07:44 13.9 98 13.6 0.0 0.0 0 0.0 0.0 1023.0 0.0 0.0 13.9 0.0
02/03/19 07:45 13.9 98 13.6 0.0 0.0 0 0.0 0.0 1023.0 0.0 0.0 13.9 0.0
02/03/19 07:48 13.9 98 13.6 0.0 0.0 0 0.0 0.0 1023.0 0.0 0.0 13.9 0.0
02/03/19 07:49 13.9 98 13.6 0.0 0.0 0 0.0 0.0 1023.0 0.0 0.0 13.9 0.0
02/03/19 07:50 14.0 98 13.7 0.0 0.0 0 0.0 0.0 1023.0 0.0 0.0 14.0 0.0
02/03/19 07:51 14.0 98 13.7 0.0 0.0 0 0.0 0.0 1023.0 0.0 0.0 14.0 0.0
02/03/19 07:52 14.0 98 13.7 0.0 0.0 0 0.0 0.0 1023.0 0.0 0.0 14.0 0.0
02/03/19 07:53 14.1 98 13.8 0.0 0.0 0 0.0 0.0 1023.0 0.0 0.0 14.1 0.0
02/03/19 07:54 14.1 98 13.8 0.0 0.0 0 0.0 0.0 1023.0 0.0 0.0 14.1 0.0
02/03/19 07:55 14.1 98 13.8 0.0 0.0 0 0.0 0.0 1023.0 0.0 0.0 14.1 0.0
02/03/19 07:56 14.2 98 13.9 0.0 0.0 0 0.0 0.0 1023.0 0.0 0.0 14.2 0.0
02/03/19 07:57 14.2 98 13.9 0.0 0.0 0 0.0 0.0 1023.0 0.0 0.0 14.2 0.0
02/03/19 07:58 14.2 98 13.9 0.0 0.0 0 0.0 0.0 1023.0 0.0 0.0 14.2 0.0
02/03/19 07:59 14.3 98 14.0 0.0 0.0 0 0.0 0.0 1023.0 0.0 0.0 14.3 0.0
02/03/19 08:00 14.3 98 14.0 0.0 0.0 0 0.0 0.0 1023.0 0.0 0.0 14.3 0.0
02/03/19 08:03 14.4 98 14.1 0.0 0.0 0 0.0 0.0 1023.0 0.0 0.0 14.4 0.0
02/03/19 08:04 14.5 98 14.2 0.0 0.0 0 0.0 0.0 1023.0 0.0 0.0 14.5 0.0
02/03/19 08:05 14.5 98 14.2 0.0 0.0 0 0.0 0.0 1023.0 0.0 0.0 14.5 0.0
02/03/19 08:06 14.6 98 14.3 0.0 0.0 0 0.0 0.0 1023.0 0.0 0.0 14.6 0.0
02/03/19 08:07 14.6 98 14.3 0.0 0.0 0 0.0 0.0 1023.0 0.0 0.0 14.6 0.0
02/03/19 08:08 14.6 98 14.3 0.0 0.0 0 0.0 0.0 1023.0 0.0 0.0 14.6 0.0
02/03/19 08:09 14.6 98 14.3 0.0 0.0 0 0.0 0.0 1023.0 0.0 0.0 14.6 0.0
02/03/19 08:10 14.6 98 14.3 0.0 0.0 0 0.0 0.0 1023.0 0.0 0.0 14.6 0.0
02/03/19 08:11 14.6 98 14.3 0.0 0.0 0 0.0 0.0 1023.0 0.0 0.0 14.6 0.0
02/03/19 08:12 14.6 98 14.3 0.0 0.0 0 0.0 0.0 1023.0 0.0 0.0 14.6 0.0
02/03/19 08:13 14.7 98 14.4 0.0 0.0 0 0.0 0.0 1023.0 0.0 0.0 14.7 0.0
02/03/19 08:14 14.8 98 14.5 0.0 0.0 0 0.0 0.0 1023.0 0.0 0.0 14.8 0.0
02/03/19 08:15 14.9 98 14.6 0.0 0.0 0 0.0 0.0 1023.0 0.0 0.0 14.9 0.0
02/03/19 08:18 15.1 98 14.8 0.0 0.0 0 0.0 0.0 1023.0 0.0 0.0 15.1 0.0
02/03/19 08:19 15.1 98 14.8 0.0 0.0 0 0.0 0.0 1023.0 0.0 0.0 15.1 0.0
02/03/19 08:20 15.1 98 14.8 0.0 0.0 0 0.0 0.0 1023.0 0.0 0.0 15.1 0.0
02/03/19 08:21 15.1 98 14.8 0.0 0.0 0 0.0 0.0 1023.0 0.0 0.0 15.1 0.0
02/03/19 08:22 15.1 98 14.8 0.0 0.0 0 0.0 0.0 1023.0 0.0 0.0 15.1 0.0
02/03/19 08:23 15.1 98 14.8 0.0 0.0 0 0.0 0.0 1023.0 0.0 0.0 15.1 0.0
02/03/19 08:24 15.2 98 14.9 0.0 0.0 0 0.0 0.0 1023.0 0.0 0.0 15.2 0.0
02/03/19 08:25 15.2 98 14.9 0.0 0.0 0 0.0 0.0 1023.0 0.0 0.0 15.2 0.0
02/03/19 08:26 15.2 97 14.7 0.0 0.0 0 0.0 0.0 1023.0 0.0 0.0 15.2 0.0
02/03/19 08:27 15.2 97 14.7 0.0 0.0 0 0.0 0.0 1023.0 0.0 0.0 15.2 0.0
02/03/19 08:28 15.2 97 14.7 0.0 0.0 0 0.0 0.0 1023.0 0.0 0.0 15.2 0.0
02/03/19 08:29 15.2 97 14.7 0.0 0.0 0 0.0 0.0 1023.0 0.0 0.0 15.2 0.0
02/03/19 08:33 15.3 97 14.8 0.0 0.0 0 0.0 0.0 1023.0 0.0 0.0 15.3 0.0
02/03/19 08:34 15.3 97 14.8 0.0 0.0 0 0.0 0.0 1023.0 0.0 0.0 15.3 0.0
02/03/19 08:35 15.3 97 14.8 0.0 0.0 0 0.0 0.0 1023.0 0.0 0.0 15.3 0.0
02/03/19 08:36 15.4 97 14.9 0.0 0.0 0 0.0 0.0 1023.0 0.0 0.0 15.4 0.0
02/03/19 08:37 15.4 97 14.9 0.0 0.0 0 0.0 0.0 1023.0 0.0 0.0 15.4 0.0
02/03/19 08:38 15.4 97 14.9 0.0 0.0 0 0.0 0.0 1023.0 0.0 0.0 15.4 0.0
02/03/19 08:39 15.4 96 14.8 0.0 0.0 0 0.0 0.0 1023.0 0.0 0.0 15.4 0.0
02/03/19 08:40 15.5 97 15.0 0.0 0.0 0 0.0 0.0 1023.0 0.0 0.0 15.5 0.0
02/03/19 08:41 15.5 96 14.9 0.0 0.0 0 0.0 0.0 1023.0 0.0 0.0 15.5 0.0
02/03/19 08:42 15.5 96 14.9 0.0 0.0 0 0.0 0.0 1023.0 0.0 0.0 15.5 0.0
02/03/19 08:43 15.5 96 14.9 0.0 0.0 0 0.0 0.0 1023.0 0.0 0.0 15.5 0.0
02/03/19 08:44 15.6 96 15.0 0.0 0.0 0 0.0 0.0 1023.0 0.0 0.0 15.6 0.0
02/03/19 09:03 16.1 94 15.1 0.0 0.0 0 0.0 0.0 1023.0 0.0 0.0 16.1 0.0
02/03/19 09:04 16.2 94 15.2 0.0 0.0 0 0.0 0.0 1023.0 0.0 0.0 16.2 0.0
02/03/19 09:05 16.2 94 15.2 0.0 0.0 0 0.0 0.0 1023.0 0.0 0.0 16.2 0.0
02/03/19 09:06 16.3 94 15.3 0.0 0.0 0 0.0 0.0 1023.0 0.0 0.0 16.3 0.0
02/03/19 09:07 16.3 94 15.3 0.0 0.0 0 0.0 0.0 1023.0 0.0 0.0 16.3 0.0
02/03/19 09:08 16.3 94 15.3 0.0 0.0 0 0.0 0.0 1024.0 0.0 0.0 16.3 0.0
02/03/19 09:09 16.3 94 15.3 0.0 0.0 0 0.0 0.0 1024.0 0.0 0.0 16.3 0.0
02/03/19 09:10 16.3 94 15.3 0.0 0.0 0 0.0 0.0 1024.0 0.0 0.0 16.3 0.0
02/03/19 09:11 16.3 94 15.3 0.0 0.0 0 0.0 0.0 1024.0 0.0 0.0 16.3 0.0
02/03/19 09:12 16.4 94 15.4 0.0 0.0 0 0.0 0.0 1024.0 0.0 0.0 16.4 0.0
02/03/19 09:18 16.7 93 15.6 0.0 0.0 0 0.0 0.0 1024.0 0.0 0.0 16.7 0.0
02/03/19 09:19 16.6 93 15.5 0.0 0.0 0 0.0 0.0 1024.0 0.0 0.0 16.6 0.0
02/03/19 09:20 16.6 93 15.5 0.0 0.0 0 0.0 0.0 1024.0 0.0 0.0 16.6 0.0
02/03/19 09:33 17.0 92 15.7 0.0 0.0 0 0.0 0.0 1023.0 0.0 0.0 17.0 0.0
02/03/19 09:34 16.9 92 15.6 0.0 0.0 0 0.0 0.0 1023.0 0.0 0.0 16.9 0.0
02/03/19 09:35 16.9 92 15.6 0.0 0.0 0 0.0 0.0 1023.0 0.0 0.0 16.9 0.0
02/03/19 09:36 16.9 92 15.6 0.0 0.0 0 0.0 0.0 1023.0 0.0 0.0 16.9 0.0
02/03/19 09:37 17.0 92 15.7 0.0 0.0 0 0.0 0.0 1023.0 0.0 0.0 17.0 0.0
02/03/19 09:38 16.9 92 15.6 0.0 0.0 0 0.0 0.0 1024.0 0.0 0.0 16.9 0.0
02/03/19 09:39 16.9 92 15.6 0.0 0.0 0 0.0 0.0 1024.0 0.0 0.0 16.9 0.0
02/03/19 09:40 17.0 91 15.5 0.0 0.0 0 0.0 0.0 1024.0 0.0 0.0 17.0 0.0
02/03/19 09:41 17.0 91 15.5 0.0 0.0 0 0.0 0.0 1024.0 0.0 0.0 17.0 0.0
02/03/19 09:42 17.1 91 15.6 0.0 0.0 0 0.0 0.0 1024.0 0.0 0.0 17.1 0.0
02/03/19 09:43 17.2 92 15.9 0.0 0.0 0 0.0 0.0 1024.0 0.0 0.0 17.2 0.0
02/03/19 09:44 17.5 92 16.2 0.0 0.0 0 0.0 0.0 1024.0 0.0 0.0 17.5 0.0
02/03/19 09:45 17.5 91 16.0 0.0 0.0 0 0.0 0.0 1024.0 0.0 0.0 17.5 0.0
02/03/19 09:48 17.5 91 16.0 0.0 0.0 0 0.0 0.0 1024.0 0.0 0.0 17.5 0.0
02/03/19 09:49 17.5 91 16.0 0.0 0.0 0 0.0 0.0 1024.0 0.0 0.0 17.5 0.0
02/03/19 09:50 17.5 91 16.0 0.0 0.0 0 0.0 0.0 1024.0 0.0 0.0 17.5 0.0
02/03/19 09:51 17.5 91 16.0 0.0 0.0 0 0.0 0.0 1024.0 0.0 0.0 17.5 0.0
02/03/19 09:52 17.4 90 15.7 0.0 0.0 0 0.0 0.0 1024.0 0.0 0.0 17.4 0.0
02/03/19 09:53 17.4 90 15.7 0.0 0.0 0 0.0 0.0 1024.0 0.0 0.0 17.4 0.0
02/03/19 09:54 17.5 91 16.0 0.0 0.0 0 0.0 0.0 1024.0 0.0 0.0 17.5 0.0
02/03/19 09:55 17.5 91 16.0 0.0 0.0 0 0.0 0.0 1024.0 0.0 0.0 17.5 0.0
02/03/19 09:56 17.6 91 16.1 0.0 0.0 0 0.0 0.0 1024.0 0.0 0.0 17.6 0.0
02/03/19 09:57 17.5 91 16.0 0.0 0.0 0 0.0 0.0 1024.0 0.0 0.0 17.5 0.0
02/03/19 09:58 17.5 90 15.8 0.0 0.0 0 0.0 0.0 1024.0 0.0 0.0 17.5 0.0
02/03/19 09:59 17.5 91 16.0 0.0 0.0 0 0.0 0.0 1024.0 0.0 0.0 17.5 0.0
02/03/19 10:00 17.7 91 16.2 0.0 0.0 0 0.0 0.0 1024.0 0.0 0.0 17.7 0.0
02/03/19 10:03 17.8 90 16.1 0.0 0.0 0 0.0 0.0 1024.0 0.0 0.0 17.8 0.0
02/03/19 10:04 17.9 90 16.2 0.0 0.0 0 0.0 0.0 1024.0 0.0 0.0 17.9 0.0
02/03/19 10:05 17.9 90 16.2 0.0 0.0 0 0.0 0.0 1024.0 0.0 0.0 17.9 0.0
02/03/19 10:06 17.8 90 16.1 0.0 0.0 0 0.0 0.0 1024.0 0.0 0.0 17.8 0.0
02/03/19 10:07 17.7 89 15.9 0.0 0.0 0 0.0 0.0 1024.0 0.0 0.0 17.7 0.0
02/03/19 10:08 17.7 89 15.9 0.0 0.0 0 0.0 0.0 1024.0 0.0 0.0 17.7 0.0
02/03/19 10:09 17.8 89 16.0 0.0 0.0 0 0.0 0.0 1024.0 0.0 0.0 17.8 0.0
02/03/19 10:10 17.9 89 16.1 0.0 0.0 0 0.0 0.0 1024.0 0.0 0.0 17.9 0.0
02/03/19 10:11 17.9 89 16.1 0.0 0.0 0 0.0 0.0 1024.0 0.0 0.0 17.9 0.0
02/03/19 10:12 17.8 89 16.0 0.0 0.0 0 0.0 0.0 1024.0 0.0 0.0 17.8 0.0
02/03/19 10:13 17.8 89 16.0 0.0 0.0 0 0.0 0.0 1024.0 0.0 0.0 17.8 0.0
02/03/19 10:14 17.8 89 16.0 0.0 0.0 0 0.0 0.0 1024.0 0.0 0.0 17.8 0.0
02/03/19 10:18 17.6 88 15.6 0.0 0.0 0 0.0 0.0 1024.0 0.0 0.0 17.6 0.0
02/03/19 10:19 17.6 88 15.6 0.0 0.0 0 0.0 0.0 1024.0 0.0 0.0 17.6 0.0
02/03/19 10:20 17.6 89 15.8 0.0 0.0 0 0.0 0.0 1024.0 0.0 0.0 17.6 0.0
02/03/19 10:21 17.6 88 15.6 0.0 0.0 0 0.0 0.0 1024.0 0.0 0.0 17.6 0.0
02/03/19 10:22 17.6 88 15.6 0.0 0.0 0 0.0 0.0 1024.0 0.0 0.0 17.6 0.0
02/03/19 10:23 17.6 89 15.8 0.0 0.0 0 0.0 0.0 1024.0 0.0 0.0 17.6 0.0
02/03/19 10:24 17.6 89 15.8 0.0 0.0 0 0.0 0.0 1024.0 0.0 0.0 17.6 0.0
02/03/19 10:25 17.6 89 15.8 0.0 0.0 0 0.0 0.0 1024.0 0.0 0.0 17.6 0.0
02/03/19 10:26 17.7 89 15.9 0.0 0.0 0 0.0 0.0 1024.0 0.0 0.0 17.7 0.0
02/03/19 10:27 17.7 89 15.9 0.0 0.0 0 0.0 0.0 1024.0 0.0 0.0 17.7 0.0
02/03/19 10:28 17.7 89 15.9 0.0 0.0 0 0.0 0.0 1024.0 0.0 0.0 17.7 0.0
02/03/19 10:29 17.7 89 15.9 0.0 0.0 0 0.0 0.0 1024.0 0.0 0.0 17.7 0.0
02/03/19 10:30 17.8 89 16.0 0.0 0.0 0 0.0 0.0 1024.0 0.0 0.0 17.8 0.0
02/03/19 10:33 18.0 88 16.0 0.0 0.0 0 0.0 0.0 1024.0 0.0 0.0 18.0 0.0
02/03/19 10:34 18.1 88 16.1 0.0 0.0 0 0.0 0.0 1024.0 0.0 0.0 18.1 0.0
02/03/19 10:35 18.0 88 16.0 0.0 0.0 0 0.0 0.0 1024.0 0.0 0.0 18.0 0.0
02/03/19 10:36 18.0 88 16.0 0.0 0.0 0 0.0 0.0 1024.0 0.0 0.0 18.0 0.0
02/03/19 10:37 18.1 88 16.1 0.0 0.0 0 0.0 0.0 1024.0 0.0 0.0 18.1 0.0
02/03/19 10:38 18.2 88 16.2 0.0 0.0 0 0.0 0.0 1024.0 0.0 0.0 18.2 0.0
02/03/19 10:39 18.2 88 16.2 0.0 0.0 0 0.0 0.0 1024.0 0.0 0.0 18.2 0.0
02/03/19 10:40 18.3 88 16.3 0.0 0.0 0 0.0 0.0 1024.0 0.0 0.0 18.3 0.0
02/03/19 10:41 18.4 88 16.4 0.0 0.0 0 0.0 0.0 1024.0 0.0 0.0 18.4 0.0
02/03/19 10:42 18.4 88 16.4 0.0 0.0 0 0.0 0.0 1024.0 0.0 0.0 18.4 0.0
02/03/19 10:43 18.5 88 16.5 0.0 0.0 0 0.0 0.0 1024.0 0.0 0.0 18.5 0.0
02/03/19 10:44 18.5 87 16.3 0.0 0.0 0 0.0 0.0 1024.0 0.0 0.0 18.5 0.0
02/03/19 10:45 18.5 87 16.3 0.0 0.0 0 0.0 0.0 1024.0 0.0 0.0 18.5 0.0
02/03/19 10:48 18.5 86 16.1 0.0 0.0 0 0.0 0.0 1024.0 0.0 0.0 18.5 0.0
02/03/19 10:49 18.6 86 16.2 0.0 0.0 0 0.0 0.0 1024.0 0.0 0.0 18.6 0.0
02/03/19 10:50 18.7 86 16.3 0.0 0.0 0 0.0 0.0 1024.0 0.0 0.0 18.7 0.0
02/03/19 10:51 18.9 86 16.5 0.0 0.0 0 0.0 0.0 1024.0 0.0 0.0 18.9 0.0
02/03/19 10:52 19.1 86 16.7 0.0 0.0 0 0.0 0.0 1024.0 0.0 0.0 19.1 0.0
02/03/19 10:53 19.4 86 17.0 0.0 0.0 0 0.0 0.0 1024.0 0.0 0.0 19.4 0.0
02/03/19 10:54 19.7 86 17.3 0.0 0.0 0 0.0 0.0 1024.0 0.0 0.0 19.7 0.0
02/03/19 10:55 19.8 86 17.4 0.0 0.0 0 0.0 0.0 1024.0 0.0 0.0 19.8 0.0
02/03/19 10:56 19.8 85 17.2 0.0 0.0 0 0.0 0.0 1024.0 0.0 0.0 19.8 0.0
02/03/19 10:57 19.8 85 17.2 0.0 0.0 0 0.0 0.0 1024.0 0.0 0.0 19.8 0.0
02/03/19 10:58 19.7 84 16.9 0.0 0.0 0 0.0 0.0 1024.0 0.0 0.0 19.7 0.0
02/03/19 10:59 19.7 84 16.9 0.0 0.0 0 0.0 0.0 1024.0 0.0 0.0 19.7 0.0
02/03/19 11:00 19.7 84 16.9 0.0 0.0 0 0.0 0.0 1024.0 0.0 0.0 19.7 0.0
02/03/19 11:03 19.7 83 16.7 0.0 0.0 0 0.0 0.0 1024.0 0.0 0.0 19.7 0.0
02/03/19 11:04 19.7 83 16.7 0.0 0.0 0 0.0 0.0 1024.0 0.0 0.0 19.7 0.0
02/03/19 11:05 19.7 83 16.7 0.0 0.0 0 0.0 0.0 1024.0 0.0 0.0 19.7 0.0
02/03/19 11:06 19.8 83 16.8 0.0 0.0 0 0.0 0.0 1024.0 0.0 0.0 19.8 0.0
02/03/19 11:07 19.8 83 16.8 0.0 0.0 0 0.0 0.0 1024.0 0.0 0.0 19.8 0.0
02/03/19 11:08 19.8 82 16.6 0.0 0.0 0 0.0 0.0 1023.0 0.0 0.0 19.8 0.0
02/03/19 11:09 19.9 82 16.7 0.0 0.0 0 0.0 0.0 1023.0 0.0 0.0 19.9 0.0
02/03/19 11:10 20.0 82 16.8 0.0 0.0 0 0.0 0.0 1023.0 0.0 0.0 20.0 0.0
02/03/19 11:11 20.1 82 16.9 0.0 0.0 0 0.0 0.0 1023.0 0.0 0.0 20.1 0.0
02/03/19 11:12 20.2 81 16.8 4.3 2.2 270 0.0 0.0 1023.0 2.2 20.2 20.2 0.0
02/03/19 11:13 20.4 81 17.0 4.3 2.2 270 0.0 0.0 1023.0 2.2 20.2 20.4 0.0
02/03/19 11:14 20.6 81 17.2 4.3 2.2 270 0.0 0.0 1023.0 2.2 20.4 20.6 0.0
02/03/19 11:17 21.0 80 17.4 4.3 2.2 270 0.0 0.0 1023.0 2.2 0.0 21.0 0.0
02/03/19 11:18 20.9 80 17.3 4.3 2.2 270 0.0 0.0 1023.0 2.2 21.0 20.9 0.0
02/03/19 11:19 21.0 80 17.4 4.3 2.2 270 0.0 0.0 1023.0 2.2 20.9 21.0 0.0
02/03/19 11:20 21.2 79 17.4 4.3 2.2 270 0.0 0.0 1023.0 2.2 21.0 21.2 0.0
02/03/19 11:21 21.4 79 17.6 4.3 2.2 270 0.0 0.0 1023.0 2.2 21.2 21.4 0.0
02/03/19 11:22 21.6 79 17.8 4.3 2.2 270 0.0 0.0 1023.0 2.2 21.4 21.6 0.0
02/03/19 11:23 21.7 79 17.9 4.3 2.2 270 0.0 0.0 1023.0 2.2 21.6 21.7 0.0
02/03/19 11:24 21.8 79 18.0 4.3 2.2 270 0.0 0.0 1023.0 2.2 21.7 21.8 0.0
02/03/19 11:25 21.9 79 18.1 2.2 3.6 263 0.0 0.0 1023.0 3.6 21.9 21.9 0.0
02/03/19 11:26 22.1 78 18.1 2.2 3.6 253 0.0 0.0 1023.0 3.6 21.9 22.1 0.0
02/03/19 11:27 22.3 78 18.3 2.2 3.6 242 0.0 0.0 1023.0 3.6 22.1 22.3 0.0
02/03/19 11:28 22.3 77 18.1 2.2 3.6 223 0.0 0.0 1023.0 3.6 22.3 22.3 0.0
02/03/19 11:29 22.4 76 18.0 2.2 3.6 200 0.0 0.0 1023.0 3.6 22.3 22.4 0.0
02/03/19 11:30 22.6 73 17.5 2.2 3.6 164 0.0 0.0 1023.0 3.6 22.6 22.6 0.0
02/03/19 11:32 22.7 73 17.6 2.2 3.6 229 0.0 0.0 1023.0 3.6 0.0 22.7 0.0
02/03/19 11:33 22.8 73 17.7 2.2 3.6 215 0.0 0.0 1023.0 3.6 22.7 22.8 0.0
02/03/19 11:34 23.0 73 17.9 2.2 3.6 201 0.0 0.0 1023.0 3.6 22.8 23.0 0.0
02/03/19 11:35 23.2 72 17.9 2.2 3.6 187 0.0 0.0 1023.0 3.6 23.0 23.2 0.0
02/03/19 11:36 23.3 72 18.0 2.2 3.6 172 0.0 0.0 1023.0 3.6 23.2 23.3 0.0
02/03/19 11:37 23.4 72 18.1 2.2 3.6 160 0.0 0.0 1023.0 3.6 23.3 23.4 0.0
02/03/19 11:38 23.8 71 18.2 2.2 3.6 149 0.0 0.0 1022.0 3.6 23.7 23.8 0.0
02/03/19 11:39 23.9 70 18.1 2.2 3.6 142 0.0 0.0 1022.0 3.6 23.8 23.9 0.0
02/03/19 11:40 23.9 69 17.9 2.2 3.6 137 0.0 0.0 1022.0 3.6 23.9 23.9 0.0
02/03/19 11:41 24.0 69 18.0 2.2 3.6 137 0.0 0.0 1022.0 3.6 23.9 24.0 0.0
02/03/19 11:42 23.9 69 17.9 2.2 3.6 137 0.0 0.0 1022.0 3.6 23.9 23.9 0.0
02/03/19 11:43 23.7 69 17.7 2.2 3.6 137 0.0 0.0 1022.0 3.6 23.9 23.7 0.0
02/03/19 11:44 23.7 69 17.7 2.2 3.6 137 0.0 0.0 1022.0 3.6 23.9 23.7 0.0
02/03/19 11:45 23.8 69 17.8 2.2 3.6 137 0.0 0.0 1022.0 3.6 23.9 23.8 0.0
02/03/19 12:03 24.8 63 17.3 2.5 5.0 1 0.0 0.0 1022.0 5.0 24.8 24.8 0.0
02/03/19 12:04 24.6 63 17.1 2.5 5.0 248 0.0 0.0 1022.0 3.6 24.6 24.6 0.0
02/03/19 12:05 24.6 63 17.1 3.2 5.0 355 0.0 0.0 1022.0 4.0 24.6 24.6 0.0
02/03/19 12:18 24.4 63 16.9 3.2 4.0 327 0.0 0.0 1022.0 2.2 24.4 24.4 0.0
02/03/19 12:19 24.1 62 16.4 3.2 4.7 164 0.0 0.0 1022.0 3.6 24.1 24.1 0.0
02/03/19 12:20 24.1 62 16.4 3.2 4.7 168 0.0 0.0 1022.0 3.6 24.1 24.1 0.0
02/03/19 12:21 24.0 62 16.3 3.2 4.7 170 0.0 0.0 1022.0 3.6 24.1 24.0 0.0
02/03/19 12:22 23.8 63 16.3 3.2 4.7 172 0.0 0.0 1022.0 3.6 24.0 23.8 0.0
02/03/19 12:23 23.9 63 16.4 2.2 4.7 165 0.0 0.0 1024.0 3.2 23.9 23.9 0.0
02/03/19 12:24 23.9 64 16.7 2.2 4.7 162 0.0 0.0 1024.0 3.2 23.9 23.9 0.0
02/03/19 12:25 24.0 63 16.5 2.5 4.7 159 0.0 0.0 1024.0 2.2 23.9 24.0 0.0
02/03/19 12:26 23.9 63 16.4 2.5 4.7 158 0.0 0.0 1024.0 2.2 24.0 23.9 0.0
02/03/19 12:27 23.8 63 16.3 2.5 4.7 157 0.0 0.0 1024.0 2.2 23.9 23.8 0.0
02/03/19 12:28 23.9 63 16.4 3.2 4.7 160 0.0 0.0 1024.0 1.8 23.9 23.9 0.0
02/03/19 12:29 23.9 64 16.7 3.2 4.7 155 0.0 0.0 1024.0 1.8 23.9 23.9 0.0
02/03/19 12:30 24.0 63 16.5 3.2 3.6 162 0.0 0.0 1024.0 1.8 23.9 24.0 0.0
02/03/19 12:32 24.0 63 16.5 3.6 4.3 190 0.0 0.0 1024.0 2.2 0.0 24.0 0.0
02/03/19 12:33 24.0 63 16.5 2.5 4.3 230 0.0 0.0 1024.0 2.5 24.0 24.0 0.0
02/03/19 12:34 24.1 63 16.6 2.5 4.3 269 0.0 0.0 1024.0 2.5 24.0 24.1 0.0
02/03/19 12:35 24.3 63 16.8 2.5 4.3 292 0.0 0.0 1024.0 2.5 24.1 24.3 0.0
02/03/19 12:36 24.2 63 16.7 2.5 4.3 301 0.0 0.0 1024.0 2.5 24.3 24.2 0.0
02/03/19 12:37 24.2 63 16.7 3.6 4.3 319 0.0 0.0 1024.0 3.2 24.2 24.2 0.0
02/03/19 12:38 24.1 62 16.4 1.8 5.0 314 0.0 0.0 1023.0 5.0 24.1 24.1 0.0
02/03/19 12:39 23.9 62 16.2 1.8 5.0 298 0.0 0.0 1023.0 5.0 24.1 23.9 0.0
02/03/19 12:40 23.9 62 16.2 1.8 5.0 292 0.0 0.0 1023.0 5.0 23.9 23.9 0.0
02/03/19 12:41 23.8 61 15.8 1.8 5.0 287 0.0 0.0 1023.0 5.0 23.9 23.8 0.0
02/03/19 12:42 23.7 62 16.0 1.8 5.0 273 0.0 0.0 1023.0 5.0 23.8 23.7 0.0
02/03/19 12:43 23.6 62 15.9 1.8 5.0 261 0.0 0.0 1023.0 5.0 23.7 23.6 0.0
02/03/19 12:44 23.5 62 15.8 4.3 5.0 251 0.0 0.0 1023.0 2.2 23.5 23.5 0.0
02/03/19 12:47 24.0 62 16.3 2.5 5.0 270 0.0 0.0 1023.0 4.3 0.0 24.0 0.0
02/03/19 12:48 24.0 62 16.3 5.0 6.1 222 0.0 0.0 1023.0 3.6 24.0 24.0 0.0
02/03/19 12:49 24.1 62 16.4 5.0 6.1 188 0.0 0.0 1023.0 4.0 24.0 24.1 0.0
02/03/19 12:50 24.2 62 16.5 3.2 6.1 163 0.0 0.0 1023.0 2.2 24.2 24.2 0.0
02/03/19 12:51 24.5 61 16.5 2.5 6.1 151 0.0 0.0 1023.0 0.0 24.5 24.5 0.0
02/03/19 12:52 24.5 61 16.5 2.2 6.1 147 0.0 0.0 1023.0 1.8 24.5 24.5 0.0
02/03/19 12:53 24.8 61 16.8 3.2 6.1 149 0.0 0.0 1023.0 3.2 24.8 24.8 0.0
02/03/19 12:54 24.6 60 16.3 4.0 8.6 148 0.0 0.0 1023.0 3.2 24.8 24.6 0.0
02/03/19 12:55 24.2 59 15.7 4.3 8.6 157 0.0 0.0 1023.0 4.3 24.6 24.2 0.0
02/03/19 12:56 24.1 60 15.8 4.0 8.6 163 0.0 0.0 1023.0 3.2 24.1 24.1 0.0
02/03/19 12:57 24.1 61 16.1 4.0 8.6 158 0.0 0.0 1023.0 2.2 24.1 24.1 0.0
02/03/19 12:58 24.1 61 16.1 3.2 8.6 169 0.0 0.0 1023.0 2.5 24.1 24.1 0.0
02/03/19 12:59 24.2 61 16.2 2.2 8.6 171 0.0 0.0 1023.0 7.9 24.2 24.2 0.0
02/03/19 13:00 24.1 61 16.1 3.6 8.6 173 0.0 0.0 1023.0 3.2 24.1 24.1 0.0
02/03/19 13:02 23.9 62 16.2 4.0 7.9 162 0.0 0.0 1023.0 4.3 23.9 23.9 0.0
02/03/19 13:03 23.7 62 16.0 4.0 7.9 167 0.0 0.0 1023.0 3.6 23.9 23.7 0.0
02/03/19 13:04 23.7 62 16.0 4.3 7.9 165 0.0 0.0 1023.0 3.2 23.7 23.7 0.0
02/03/19 13:05 23.8 63 16.3 2.2 7.9 168 0.0 0.0 1023.0 2.2 23.8 23.8 0.0
02/03/19 13:06 24.0 62 16.3 0.0 7.9 169 0.0 0.0 1023.0 0.0 23.8 24.0 0.0
02/03/19 13:07 24.0 62 16.3 1.4 7.9 169 0.0 0.0 1023.0 1.8 24.0 24.0 0.0
02/03/19 13:08 24.1 62 16.4 2.2 7.9 170 0.0 0.0 1023.0 0.0 24.0 24.1 0.0
02/03/19 13:09 24.2 62 16.5 2.5 7.9 168 0.0 0.0 1023.0 1.8 24.1 24.2 0.0
02/03/19 13:10 24.3 62 16.6 2.2 6.1 152 0.0 0.0 1023.0 4.3 24.3 24.3 0.0
02/03/19 13:11 24.2 61 16.2 2.2 6.1 137 0.0 0.0 1023.0 4.0 24.3 24.2 0.0
02/03/19 13:12 24.1 61 16.1 3.2 6.1 157 0.0 0.0 1023.0 4.7 24.2 24.1 0.0
02/03/19 13:13 24.0 61 16.0 3.2 4.7 143 0.0 0.0 1023.0 4.7 24.1 24.0 0.0
02/03/19 13:14 23.9 61 15.9 3.6 4.7 134 0.0 0.0 1023.0 1.8 23.9 23.9 0.0
02/03/19 13:15 23.8 61 15.8 3.6 4.7 134 0.0 0.0 1023.0 1.8 23.9 23.8 0.0
02/03/19 13:17 23.9 62 16.2 2.5 4.7 148 0.0 0.0 1023.0 4.0 23.9 23.9 0.0
02/03/19 13:18 23.9 62 16.2 2.5 4.7 147 0.0 0.0 1023.0 0.0 23.9 23.9 0.0
02/03/19 13:19 23.9 62 16.2 1.4 4.7 172 0.0 0.0 1023.0 2.5 23.9 23.9 0.0
02/03/19 13:20 23.9 62 16.2 2.2 4.7 194 0.0 0.0 1023.0 3.2 23.9 23.9 0.0
02/03/19 13:21 24.0 62 16.3 2.2 4.7 225 0.0 0.0 1023.0 2.2 24.0 24.0 0.0
02/03/19 13:22 24.1 62 16.4 1.8 4.7 236 0.0 0.0 1023.0 4.3 24.1 24.1 0.0
02/03/19 13:23 24.1 62 16.4 1.8 4.7 236 0.0 0.0 1023.0 4.3 24.1 24.1 0.0
02/03/19 13:33 23.9 61 15.9 2.5 4.3 237 0.0 0.0 1023.0 0.0 23.9 23.9 0.0
02/03/19 13:34 23.9 61 15.9 2.5 0.0 0 0.0 0.0 1023.0 0.0 23.9 23.9 0.0
02/03/19 13:35 23.8 61 15.8 2.5 0.0 0 0.0 0.0 1023.0 0.0 23.9 23.8 0.0
02/03/19 13:36 23.7 61 15.7 1.8 3.2 225 0.0 0.0 1023.0 3.2 23.8 23.7 0.0
02/03/19 13:37 23.5 61 15.5 1.8 3.6 225 0.0 0.0 1023.0 3.6 23.7 23.5 0.0
02/03/19 13:38 23.3 61 15.4 1.8 3.6 225 0.0 0.0 1023.0 3.6 23.5 23.3 0.0
02/03/19 13:39 23.1 61 15.2 1.8 3.6 212 0.0 0.0 1023.0 2.5 23.2 23.1 0.0
02/03/19 13:40 23.1 61 15.2 1.8 3.6 206 0.0 0.0 1023.0 2.5 23.1 23.1 0.0
02/03/19 13:41 23.1 61 15.2 1.8 3.6 206 0.0 0.0 1023.0 2.5 23.1 23.1 0.0
02/03/19 13:42 22.8 62 15.1 1.8 3.6 200 0.0 0.0 1023.0 2.5 23.1 22.8 0.0
02/03/19 13:43 22.7 62 15.0 1.8 3.6 194 0.0 0.0 1023.0 2.5 22.8 22.7 0.0
02/03/19 13:48 22.2 63 14.8 3.2 3.6 201 0.0 0.0 1023.0 0.0 22.3 22.2 0.0
02/03/19 13:49 22.2 63 14.8 3.2 2.5 194 0.0 0.0 1023.0 0.0 22.2 22.2 0.0
02/03/19 13:50 22.1 63 14.7 3.2 2.5 190 0.0 0.0 1023.0 0.0 22.2 22.1 0.0
02/03/19 13:51 22.0 64 14.9 3.2 2.5 186 0.0 0.0 1023.0 0.0 22.1 22.0 0.0
02/03/19 13:52 21.9 64 14.8 2.2 5.0 158 0.0 0.0 1023.0 5.0 21.9 21.9 0.0
02/03/19 13:53 21.7 64 14.6 4.3 5.0 146 0.0 0.0 1023.0 1.4 21.7 21.7 0.0
02/03/19 13:54 21.6 65 14.7 4.3 5.0 146 0.0 0.0 1023.0 1.4 21.7 21.6 0.0
02/03/19 13:55 21.6 65 14.7 4.3 5.0 148 0.0 0.0 1023.0 1.4 21.6 21.6 0.0
02/03/19 13:56 21.6 66 15.0 3.6 5.0 146 0.0 0.0 1023.0 1.8 21.6 21.6 0.0
02/03/19 13:57 21.6 66 15.0 3.6 5.0 169 0.0 0.0 1023.0 3.2 21.6 21.6 0.0
02/03/19 13:58 21.5 66 14.9 4.0 9.0 166 0.0 0.0 1023.0 3.2 21.5 21.5 0.0
02/03/19 13:59 21.5 66 14.9 3.6 9.0 162 0.0 0.0 1023.0 2.5 21.5 21.5 0.0
02/03/19 14:02 21.9 67 15.5 3.6 5.0 155 0.0 0.0 1023.0 2.5 21.7 21.9 0.0
02/03/19 14:03 22.3 67 15.9 1.8 3.2 151 0.0 0.0 1023.0 1.8 21.9 22.3 0.0
02/03/19 14:04 22.6 66 15.9 0.0 3.2 163 0.0 0.0 1023.0 2.2 22.3 22.6 0.0
02/03/19 14:05 23.1 66 16.4 0.0 3.2 169 0.0 0.0 1023.0 2.2 22.6 23.1 0.0
02/03/19 14:06 23.3 66 16.6 0.0 3.2 176 0.0 0.0 1023.0 2.2 23.1 23.3 0.0
02/03/19 14:07 23.4 66 16.7 0.0 3.2 184 0.0 0.0 1023.0 2.2 23.3 23.4 0.0
02/03/19 14:08 23.5 65 16.5 0.0 3.2 190 0.0 0.0 1022.0 2.2 23.4 23.5 0.0
02/03/19 14:09 23.4 64 16.2 0.0 2.5 201 0.0 0.0 1022.0 2.2 23.5 23.4 0.0
02/03/19 14:10 23.4 64 16.2 0.0 2.5 208 0.0 0.0 1022.0 2.2 23.4 23.4 0.0
02/03/19 14:11 23.4 64 16.2 0.0 2.5 210 0.0 0.0 1022.0 2.2 23.4 23.4 0.0
02/03/19 14:12 23.4 63 16.0 0.0 2.5 211 0.0 0.0 1022.0 2.2 23.4 23.4 0.0
02/03/19 14:13 23.4 63 16.0 0.0 2.2 222 0.0 0.0 1022.0 2.2 23.4 23.4 0.0
02/03/19 14:14 23.3 62 15.6 0.0 2.2 225 0.0 0.0 1022.0 2.2 23.4 23.3 0.0
02/03/19 14:15 23.1 61 15.2 0.0 2.2 225 0.0 0.0 1022.0 2.2 23.3 23.1 0.0
02/03/19 14:33 22.1 61 14.2 2.2 5.0 225 0.0 0.0 1022.0 5.0 22.2 22.1 0.0
02/03/19 14:34 22.1 61 14.2 2.2 5.0 225 0.0 0.0 1022.0 5.0 22.1 22.1 0.0
02/03/19 14:35 22.1 61 14.2 2.2 5.0 225 0.0 0.0 1022.0 5.0 22.1 22.1 0.0
02/03/19 14:36 22.0 61 14.1 2.2 5.0 225 0.0 0.0 1022.0 5.0 22.1 22.0 0.0
02/03/19 14:37 22.1 62 14.5 2.2 5.0 225 0.0 0.0 1022.0 5.0 22.0 22.1 0.0
02/03/19 14:38 22.2 62 14.6 2.2 5.0 225 0.0 0.0 1022.0 5.0 22.1 22.2 0.0
02/03/19 14:39 22.1 62 14.5 2.2 5.0 225 0.0 0.0 1022.0 5.0 22.2 22.1 0.0
02/03/19 14:40 21.8 62 14.2 2.2 5.0 225 0.0 0.0 1022.0 5.0 22.0 21.8 0.0
02/03/19 14:41 21.8 63 14.4 2.2 5.0 225 0.0 0.0 1022.0 5.0 21.8 21.8 0.0
02/03/19 14:42 21.7 63 14.3 2.2 5.0 225 0.0 0.0 1022.0 5.0 21.8 21.7 0.0
02/03/19 14:43 21.7 63 14.3 2.2 5.0 225 0.0 0.0 1022.0 5.0 21.7 21.7 0.0
02/03/19 14:47 21.6 64 14.5 4.3 5.0 225 0.0 0.0 1022.0 0.0 21.5 21.6 0.0
02/03/19 14:48 21.4 64 14.3 7.9 9.0 209 0.0 0.0 1022.0 9.0 21.4 21.4 0.0
02/03/19 14:49 21.4 64 14.3 7.9 9.0 190 0.0 0.0 1022.0 9.0 21.4 21.4 0.0
02/03/19 14:50 21.4 64 14.3 7.9 9.0 171 0.0 0.0 1022.0 9.0 21.4 21.4 0.0
02/03/19 14:51 21.4 65 14.5 7.9 9.0 157 0.0 0.0 1022.0 9.0 21.4 21.4 0.0
02/03/19 14:52 21.3 65 14.5 5.0 9.0 145 0.0 0.0 1022.0 6.5 21.3 21.3 0.0
02/03/19 14:53 21.2 65 14.4 5.0 9.0 139 0.0 0.0 1022.0 5.8 21.3 21.2 0.0
02/03/19 14:54 21.2 65 14.4 5.0 9.0 135 0.0 0.0 1022.0 5.8 21.2 21.2 0.0
02/03/19 14:55 21.2 65 14.4 5.0 9.0 135 0.0 0.0 1022.0 5.8 21.3 21.2 0.0
02/03/19 14:56 21.3 65 14.5 5.0 9.0 135 0.0 0.0 1022.0 5.8 21.2 21.3 0.0
02/03/19 14:57 21.3 65 14.5 5.0 9.0 135 0.0 0.0 1022.0 5.8 21.3 21.3 0.0
02/03/19 14:58 21.4 65 14.5 5.0 9.0 135 0.0 0.0 1022.0 5.8 21.3 21.4 0.0
02/03/19 14:59 21.4 64 14.3 5.0 9.0 135 0.0 0.0 1022.0 5.8 21.4 21.4 0.0
02/03/19 15:00 21.4 64 14.3 5.0 9.0 135 0.0 0.0 1022.0 5.8 21.4 21.4 0.0
02/03/19 15:02 21.6 65 14.7 5.0 6.5 136 0.0 0.0 1022.0 5.8 21.6 21.6 0.0
02/03/19 15:03 21.8 64 14.7 5.0 5.8 135 0.0 0.0 1022.0 5.8 21.6 21.8 0.0
02/03/19 15:04 21.8 64 14.7 5.0 5.8 135 0.0 0.0 1022.0 5.8 21.8 21.8 0.0
02/03/19 15:05 21.9 63 14.5 5.0 5.8 135 0.0 0.0 1022.0 5.8 21.8 21.9 0.0
02/03/19 15:06 22.0 63 14.6 5.0 5.8 135 0.0 0.0 1022.0 5.8 21.9 22.0 0.0
02/03/19 15:07 22.2 63 14.8 5.0 5.8 135 0.0 0.0 1022.0 5.8 22.0 22.2 0.0
02/03/19 15:08 22.3 63 14.9 5.0 5.8 135 0.0 0.0 1022.0 5.8 22.2 22.3 0.0
02/03/19 15:09 22.4 63 15.0 5.0 5.8 135 0.0 0.0 1022.0 5.8 22.2 22.4 0.0
02/03/19 15:10 22.3 62 14.7 5.0 5.8 135 0.0 0.0 1022.0 5.8 22.2 22.3 0.0
02/03/19 15:11 22.3 62 14.7 5.0 5.8 135 0.0 0.0 1022.0 5.8 22.2 22.3 0.0
02/03/19 15:12 22.4 62 14.8 5.0 5.8 135 0.0 0.0 1022.0 5.8 22.2 22.4 0.0
02/03/19 15:13 22.6 62 14.9 5.0 5.8 135 0.0 0.0 1022.0 5.8 22.2 22.6 0.0
02/03/19 15:14 22.8 63 15.4 5.0 5.8 135 0.0 0.0 1022.0 5.8 22.2 22.8 0.0
02/03/19 15:15 22.9 62 15.2 1.8 5.8 135 0.0 0.0 1022.0 2.2 22.9 22.9 0.0
02/03/19 15:17 23.2 61 15.3 0.0 5.8 135 0.0 0.0 1022.0 4.0 23.2 23.2 0.0
02/03/19 15:18 23.3 59 14.8 0.0 5.8 135 0.0 0.0 1022.0 4.0 23.4 23.3 0.0
02/03/19 15:19 23.4 59 14.9 4.0 6.1 139 0.0 0.0 1022.0 3.2 23.3 23.4 0.0
02/03/19 15:33 22.1 57 13.2 4.0 4.7 135 0.0 0.0 1022.0 4.7 22.2 22.1 0.0
02/03/19 15:34 21.9 57 13.0 4.0 4.7 135 0.0 0.0 1022.0 4.7 22.1 21.9 0.0
02/03/19 15:35 21.7 57 12.8 4.0 4.7 135 0.0 0.0 1022.0 4.7 21.9 21.7 0.0
02/03/19 15:36 21.6 58 13.0 4.0 4.7 135 0.0 0.0 1022.0 4.7 21.7 21.6 0.0
02/03/19 15:37 21.6 58 13.0 4.0 4.7 135 0.0 0.0 1022.0 4.7 21.6 21.6 0.0
02/03/19 15:38 21.6 58 13.0 4.0 4.7 135 0.0 0.0 1021.0 4.7 21.6 21.6 0.0
02/03/19 15:39 21.6 59 13.2 4.0 4.7 135 0.0 0.0 1021.0 4.7 21.6 21.6 0.0
02/03/19 15:40 21.5 59 13.1 4.0 4.7 135 0.0 0.0 1021.0 4.7 21.6 21.5 0.0
02/03/19 15:41 21.6 59 13.2 4.0 4.7 135 0.0 0.0 1021.0 4.7 21.6 21.6 0.0
02/03/19 15:42 21.5 59 13.1 4.0 4.7 135 0.0 0.0 1021.0 4.7 21.6 21.5 0.0
02/03/19 15:43 21.5 59 13.1 4.0 4.7 135 0.0 0.0 1021.0 4.7 21.6 21.5 0.0
02/03/19 15:44 21.6 60 13.5 4.0 4.7 135 0.0 0.0 1021.0 4.7 21.6 21.6 0.0
02/03/19 15:45 21.7 60 13.6 3.6 4.7 78 0.0 0.0 1021.0 4.0 21.7 21.7 0.0
02/03/19 15:47 21.8 59 13.4 4.3 5.4 131 0.0 0.0 1021.0 5.4 21.8 21.8 0.0
02/03/19 15:48 21.9 58 13.3 7.2 8.6 132 0.0 0.0 1021.0 8.6 21.9 21.9 0.0
02/03/19 15:49 21.9 58 13.3 7.2 8.6 132 0.0 0.0 1021.0 1.4 21.9 21.9 0.0
02/03/19 15:50 22.0 57 13.1 4.3 9.7 133 0.0 0.0 1021.0 2.2 22.0 22.0 0.0
02/03/19 15:51 21.9 57 13.0 4.3 9.7 132 0.0 0.0 1021.0 2.2 22.0 21.9 0.0
02/03/19 15:52 21.9 56 12.7 6.5 9.7 133 0.0 0.0 1021.0 6.8 21.9 21.9 0.0
02/03/19 16:03 22.2 55 12.7 4.7 4.3 135 0.0 0.0 1021.0 4.3 22.0 22.2 0.0
02/03/19 16:04 22.3 55 12.8 4.7 4.3 135 0.0 0.0 1021.0 4.3 22.2 22.3 0.0
02/03/19 16:05 22.4 56 13.2 4.7 4.3 135 0.0 0.0 1021.0 4.3 22.3 22.4 0.0
02/03/19 16:06 22.8 56 13.6 4.7 4.3 135 0.0 0.0 1021.0 4.3 22.4 22.8 0.0
02/03/19 16:07 23.3 56 14.0 4.7 4.3 135 0.0 0.0 1021.0 4.3 22.8 23.3 0.0
02/03/19 16:08 23.6 55 14.0 4.7 4.3 135 0.0 0.0 1021.0 4.3 23.3 23.6 0.0
02/03/19 16:09 24.0 54 14.1 4.7 4.3 138 0.0 0.0 1021.0 3.2 24.0 24.0 0.0
02/03/19 16:10 24.2 53 14.0 4.7 4.3 143 0.0 0.0 1021.0 3.2 24.2 24.2 0.0
02/03/19 16:11 24.0 52 13.5 4.7 4.3 147 0.0 0.0 1021.0 3.2 24.1 24.0 0.0
02/03/19 16:12 24.0 52 13.5 4.7 4.3 150 0.0 0.0 1021.0 3.2 24.0 24.0 0.0
02/03/19 16:13 23.8 52 13.4 4.7 4.3 154 0.0 0.0 1021.0 3.2 24.0 23.8 0.0
02/03/19 16:14 23.6 52 13.2 4.7 4.3 157 0.0 0.0 1021.0 3.2 23.8 23.6 0.0
02/03/19 16:15 23.6 52 13.2 4.7 4.3 161 0.0 0.0 1021.0 3.2 23.6 23.6 0.0
02/03/19 16:17 23.3 51 12.6 4.7 4.3 148 0.0 0.0 1021.0 3.2 0.0 23.3 0.0
02/03/19 16:18 23.2 51 12.5 4.7 4.3 156 0.0 0.0 1021.0 3.2 23.3 23.2 0.0
02/03/19 16:19 23.2 51 12.5 4.7 3.2 160 0.0 0.0 1021.0 3.2 23.2 23.2 0.0
02/03/19 16:20 23.0 49 11.7 4.7 3.2 164 0.0 0.0 1021.0 3.2 23.2 23.0 0.0
02/03/19 16:21 23.0 50 12.0 4.7 3.2 168 0.0 0.0 1021.0 3.2 23.0 23.0 0.0
02/03/19 16:22 23.1 49 11.8 4.7 3.2 171 0.0 0.0 1021.0 3.2 23.0 23.1 0.0
02/03/19 16:23 23.3 49 12.0 4.7 3.2 173 0.0 0.0 1021.0 3.2 23.1 23.3 0.0
02/03/19 16:24 23.4 50 12.4 4.7 3.2 176 0.0 0.0 1021.0 3.2 23.3 23.4 0.0
02/03/19 16:25 23.4 50 12.4 4.7 3.2 178 0.0 0.0 1021.0 3.2 23.4 23.4 0.0
02/03/19 16:26 23.5 49 12.2 4.7 3.2 178 0.0 0.0 1021.0 3.2 23.4 23.5 0.0
02/03/19 16:27 23.4 49 12.1 4.7 3.2 178 0.0 0.0 1021.0 3.2 23.4 23.4 0.0
02/03/19 16:28 23.5 49 12.2 4.7 3.2 178 0.0 0.0 1021.0 3.2 23.4 23.5 0.0
02/03/19 16:29 23.8 50 12.7 3.6 3.2 181 0.0 0.0 1021.0 0.0 23.5 23.8 0.0
02/03/19 16:30 23.8 50 12.7 3.6 3.2 181 0.0 0.0 1021.0 0.0 23.8 23.8 0.0
02/03/19 16:32 24.1 50 13.0 1.4 3.2 176 0.0 0.0 1021.0 0.0 0.0 24.1 0.0
02/03/19 16:33 24.2 48 12.5 1.4 3.2 176 0.0 0.0 1021.0 0.0 24.2 24.2 0.0
02/03/19 16:34 24.3 47 12.3 1.4 3.2 177 0.0 0.0 1021.0 0.0 24.2 24.3 0.0
02/03/19 16:35 24.3 47 12.3 6.5 6.5 202 0.0 0.0 1021.0 6.5 24.3 24.3 0.0
02/03/19 16:36 24.2 47 12.2 4.0 6.5 215 0.0 0.0 1021.0 3.2 24.2 24.2 0.0
02/03/19 16:37 24.3 48 12.6 4.0 6.5 236 0.0 0.0 1021.0 2.2 24.3 24.3 0.0
02/03/19 16:38 24.3 47 12.3 4.0 6.5 246 0.0 0.0 1021.0 2.2 24.3 24.3 0.0
02/03/19 16:39 24.2 48 12.5 3.2 6.5 259 0.0 0.0 1021.0 1.8 24.2 24.2 0.0
02/03/19 16:40 24.2 48 12.5 3.2 6.5 262 0.0 0.0 1021.0 1.8 24.2 24.2 0.0
02/03/19 16:41 24.0 47 12.0 3.2 6.5 267 0.0 0.0 1021.0 1.8 24.1 24.0 0.0
02/03/19 16:42 24.0 48 12.3 3.2 6.5 270 0.0 0.0 1021.0 1.8 24.0 24.0 0.0
02/03/19 16:43 24.0 48 12.3 3.2 6.5 271 0.0 0.0 1021.0 1.8 24.0 24.0 0.0
02/03/19 16:47 23.6 48 11.9 3.2 2.2 264 0.0 0.0 1021.0 1.8 0.0 23.6 0.0
02/03/19 16:48 23.6 48 11.9 3.2 2.2 278 0.0 0.0 1021.0 1.8 23.6 23.6 0.0
02/03/19 16:49 23.6 48 11.9 3.2 1.8 287 0.0 0.0 1021.0 1.8 23.6 23.6 0.0
02/03/19 16:50 23.5 48 11.9 3.2 1.8 294 0.0 0.0 1021.0 1.8 23.6 23.5 0.0
02/03/19 16:51 23.3 48 11.7 3.2 1.8 300 0.0 0.0 1021.0 1.8 23.5 23.3 0.0
02/03/19 16:52 23.2 48 11.6 3.2 1.8 305 0.0 0.0 1021.0 1.8 23.3 23.2 0.0
02/03/19 16:53 23.2 48 11.6 3.2 1.8 310 0.0 0.0 1021.0 1.8 23.2 23.2 0.0
02/03/19 16:54 23.2 48 11.6 4.7 6.8 270 0.0 0.0 1021.0 2.5 23.2 23.2 0.0
02/03/19 16:55 23.1 48 11.5 4.7 6.8 270 0.0 0.0 1021.0 4.7 23.2 23.1 0.0
02/03/19 16:56 23.2 49 11.9 2.2 6.8 270 0.0 0.0 1021.0 1.4 23.1 23.2 0.0
02/03/19 16:57 23.3 49 12.0 1.4 6.8 268 0.0 0.0 1021.0 0.0 23.2 23.3 0.0
02/03/19 16:58 23.3 49 12.0 1.4 6.8 264 0.0 0.0 1021.0 0.0 23.3 23.3 0.0
02/03/19 16:59 23.3 49 12.0 1.4 6.8 261 0.0 0.0 1021.0 0.0 23.3 23.3 0.0
02/03/19 17:00 23.3 49 12.0 1.4 6.8 257 0.0 0.0 1021.0 0.0 23.3 23.3 0.0
02/03/19 17:18 22.1 53 12.1 0.0 0.0 0 0.0 0.0 1020.0 0.0 0.0 22.1 0.0
02/03/19 17:19 22.4 54 12.6 2.2 2.2 1 0.0 0.0 1020.0 2.2 22.3 22.4 0.0
02/03/19 17:20 22.4 54 12.6 4.3 5.0 121 0.0 0.0 1020.0 4.0 22.4 22.4 0.0
02/03/19 17:21 22.4 54 12.6 4.3 5.0 124 0.0 0.0 1020.0 4.0 22.4 22.4 0.0
02/03/19 17:22 22.6 54 12.8 4.3 5.0 126 0.0 0.0 1020.0 4.0 22.4 22.6 0.0
02/03/19 17:23 22.7 55 13.2 4.3 5.0 127 0.0 0.0 1021.0 4.0 22.6 22.7 0.0
02/03/19 17:24 22.8 55 13.3 4.3 5.0 128 0.0 0.0 1021.0 4.0 22.7 22.8 0.0
02/03/19 17:25 23.0 54 13.2 4.3 5.0 129 0.0 0.0 1021.0 4.0 22.8 23.0 0.0
02/03/19 17:26 23.1 54 13.3 4.3 5.0 130 0.0 0.0 1021.0 4.0 23.1 23.1 0.0
02/03/19 17:27 23.2 54 13.4 4.3 5.0 131 0.0 0.0 1021.0 4.0 23.1 23.2 0.0
02/03/19 17:28 23.4 54 13.6 4.3 5.0 131 0.0 0.0 1021.0 4.0 23.2 23.4 0.0
02/03/19 17:29 23.5 54 13.7 4.3 5.0 131 0.0 0.0 1021.0 4.0 23.4 23.5 0.0
02/03/19 17:30 23.3 53 13.2 4.3 4.0 135 0.0 0.0 1021.0 4.0 23.5 23.3 0.0
02/03/19 17:32 22.7 53 12.6 4.3 4.0 130 0.0 0.0 1021.0 4.0 0.0 22.7 0.0
02/03/19 17:33 22.7 54 12.9 4.3 4.0 131 0.0 0.0 1021.0 4.0 22.7 22.7 0.0
02/03/19 17:34 22.6 54 12.8 3.2 4.0 132 0.0 0.0 1021.0 1.8 22.6 22.6 0.0
02/03/19 17:35 22.6 54 12.8 3.2 4.0 132 0.0 0.0 1021.0 1.8 22.6 22.6 0.0
02/03/19 17:36 22.7 54 12.9 3.2 4.0 133 0.0 0.0 1021.0 1.8 22.6 22.7 0.0
02/03/19 17:37 22.6 54 12.8 3.2 4.0 133 0.0 0.0 1021.0 1.8 22.7 22.6 0.0
02/03/19 17:38 22.6 54 12.8 3.2 4.0 134 0.0 0.0 1021.0 1.8 22.6 22.6 0.0
02/03/19 17:39 22.7 54 12.9 3.2 4.0 134 0.0 0.0 1021.0 1.8 22.6 22.7 0.0
02/03/19 17:40 22.9 55 13.4 3.2 4.0 135 0.0 0.0 1021.0 1.8 22.7 22.9 0.0
02/03/19 17:41 22.9 54 13.1 4.0 4.3 135 0.0 0.0 1021.0 4.3 22.9 22.9 0.0
02/03/19 17:42 22.9 54 13.1 4.0 4.3 135 0.0 0.0 1021.0 4.3 22.9 22.9 0.0
02/03/19 17:43 23.1 53 13.0 4.0 4.3 135 0.0 0.0 1021.0 4.3 22.9 23.1 0.0
02/03/19 17:44 23.1 53 13.0 4.0 4.3 135 0.0 0.0 1021.0 4.3 23.1 23.1 0.0
02/03/19 17:45 23.1 53 13.0 4.0 4.3 135 0.0 0.0 1021.0 4.3 23.1 23.1 0.0
02/03/19 17:47 23.1 52 12.7 4.0 4.3 134 0.0 0.0 1021.0 4.3 0.0 23.1 0.0
02/03/19 17:48 23.0 53 12.9 4.0 4.3 134 0.0 0.0 1021.0 4.3 23.1 23.0 0.0
02/03/19 17:49 22.8 53 12.7 4.0 4.3 134 0.0 0.0 1021.0 4.3 22.9 22.8 0.0
02/03/19 17:50 22.6 53 12.5 4.0 4.3 135 0.0 0.0 1021.0 4.3 22.8 22.6 0.0
02/03/19 17:51 22.6 53 12.5 4.0 4.3 135 0.0 0.0 1021.0 4.3 22.8 22.6 0.0
02/03/19 17:52 22.2 53 12.2 4.0 4.3 135 0.0 0.0 1021.0 4.3 22.6 22.2 0.0
02/03/19 17:53 22.2 53 12.2 4.0 4.3 135 0.0 0.0 1021.0 4.3 22.6 22.2 0.0
02/03/19 17:54 21.9 54 12.2 4.0 4.3 135 0.0 0.0 1021.0 4.3 22.2 21.9 0.0
02/03/19 17:55 21.9 54 12.2 4.0 4.3 135 0.0 0.0 1021.0 4.3 21.9 21.9 0.0
02/03/19 17:56 21.8 54 12.1 4.0 4.3 135 0.0 0.0 1021.0 4.3 21.9 21.8 0.0
02/03/19 17:57 21.8 55 12.4 4.0 4.3 135 0.0 0.0 1021.0 4.3 21.9 21.8 0.0
02/03/19 17:58 21.7 55 12.3 4.0 4.3 135 0.0 0.0 1021.0 4.3 21.9 21.7 0.0
02/03/19 17:59 21.6 56 12.4 4.0 4.3 135 0.0 0.0 1021.0 4.3 21.9 21.6 0.0
02/03/19 18:00 21.6 56 12.4 4.0 4.3 135 0.0 0.0 1021.0 4.3 21.9 21.6 0.0
02/03/19 18:03 21.5 57 12.6 0.0 0.0 0 0.0 0.0 1021.0 0.0 0.0 21.5 0.0
02/03/19 18:04 21.6 57 12.7 0.0 0.0 0 0.0 0.0 1021.0 0.0 0.0 21.6 0.0
02/03/19 18:05 21.5 58 12.9 0.0 0.0 0 0.0 0.0 1021.0 0.0 0.0 21.5 0.0
02/03/19 18:06 21.5 58 12.9 0.0 0.0 0 0.0 0.0 1021.0 0.0 0.0 21.5 0.0
02/03/19 18:07 21.4 58 12.8 0.0 0.0 0 0.0 0.0 1021.0 0.0 0.0 21.4 0.0
02/03/19 18:08 21.3 59 13.0 0.0 0.0 0 0.0 0.0 1021.0 0.0 0.0 21.3 0.0
02/03/19 18:09 21.2 59 12.9 0.0 0.0 0 0.0 0.0 1021.0 0.0 0.0 21.2 0.0
02/03/19 18:10 21.1 59 12.8 0.0 0.0 0 0.0 0.0 1021.0 0.0 0.0 21.1 0.0
02/03/19 18:11 21.1 60 13.0 0.0 0.0 0 0.0 0.0 1021.0 0.0 0.0 21.1 0.0
02/03/19 18:12 21.0 60 12.9 0.0 0.0 0 0.0 0.0 1021.0 0.0 0.0 21.0 0.0
02/03/19 18:13 20.9 61 13.1 0.0 0.0 0 0.0 0.0 1021.0 0.0 0.0 20.9 0.0
02/03/19 18:14 20.8 61 13.0 0.0 0.0 0 0.0 0.0 1021.0 0.0 0.0 20.8 0.0
02/03/19 18:15 20.8 61 13.0 0.0 0.0 0 0.0 0.0 1021.0 0.0 0.0 20.8 0.0
02/03/19 18:18 20.6 62 13.1 0.0 0.0 0 0.0 0.0 1021.0 0.0 0.0 20.6 0.0
02/03/19 18:19 20.5 63 13.2 0.0 0.0 0 0.0 0.0 1021.0 0.0 0.0 20.5 0.0
02/03/19 18:20 20.4 64 13.4 0.0 0.0 0 0.0 0.0 1021.0 0.0 0.0 20.4 0.0
02/03/19 18:21 20.4 64 13.4 0.0 0.0 0 0.0 0.0 1021.0 0.0 0.0 20.4 0.0
02/03/19 18:22 20.3 65 13.5 0.0 0.0 0 0.0 0.0 1021.0 0.0 0.0 20.3 0.0
02/03/19 18:23 20.3 64 13.3 0.0 0.0 0 0.0 0.0 1021.0 0.0 0.0 20.3 0.0
02/03/19 18:24 20.2 66 13.6 0.0 0.0 0 0.0 0.0 1021.0 0.0 0.0 20.2 0.0
02/03/19 18:25 20.1 66 13.5 0.0 0.0 0 0.0 0.0 1021.0 0.0 0.0 20.1 0.0
02/03/19 18:26 20.1 66 13.5 0.0 0.0 0 0.0 0.0 1021.0 0.0 0.0 20.1 0.0
02/03/19 18:27 20.0 65 13.2 0.0 0.0 0 0.0 0.0 1021.0 0.0 0.0 20.0 0.0
02/03/19 18:28 20.0 65 13.2 0.0 0.0 0 0.0 0.0 1021.0 0.0 0.0 20.0 0.0
02/03/19 18:29 20.0 65 13.2 0.0 0.0 0 0.0 0.0 1021.0 0.0 0.0 20.0 0.0
02/03/19 18:30 19.9 66 13.4 0.0 0.0 0 0.0 0.0 1021.0 0.0 0.0 19.9 0.0
02/03/19 18:33 19.8 67 13.5 0.0 0.0 0 0.0 0.0 1021.0 0.0 0.0 19.8 0.0
02/03/19 18:34 19.7 66 13.2 0.0 0.0 0 0.0 0.0 1021.0 0.0 0.0 19.7 0.0
02/03/19 18:35 19.7 67 13.4 0.0 0.0 0 0.0 0.0 1021.0 0.0 0.0 19.7 0.0
02/03/19 18:36 19.7 66 13.2 0.0 0.0 0 0.0 0.0 1021.0 0.0 0.0 19.7 0.0
02/03/19 18:37 19.7 66 13.2 0.0 0.0 0 0.0 0.0 1021.0 0.0 0.0 19.7 0.0
02/03/19 19:20 18.1 73 13.2 0.0 0.0 0 0.0 0.0 1022.0 0.0 0.0 18.1 0.0
02/03/19 19:21 18.1 73 13.2 0.0 0.0 0 0.0 0.0 1022.0 0.0 0.0 18.1 0.0
02/03/19 19:22 18.0 73 13.1 0.0 0.0 0 0.0 0.0 1022.0 0.0 0.0 18.0 0.0
02/03/19 19:23 18.0 73 13.1 0.0 0.0 0 0.0 0.0 1022.0 0.0 0.0 18.0 0.0
02/03/19 19:24 18.0 73 13.1 0.0 0.0 0 0.0 0.0 1022.0 0.0 0.0 18.0 0.0
02/03/19 19:25 18.0 74 13.3 0.0 0.0 0 0.0 0.0 1022.0 0.0 0.0 18.0 0.0
02/03/19 19:26 17.9 75 13.4 0.0 0.0 0 0.0 0.0 1022.0 0.0 0.0 17.9 0.0
02/03/19 19:27 17.9 74 13.2 0.0 0.0 0 0.0 0.0 1022.0 0.0 0.0 17.9 0.0
02/03/19 19:28 17.8 74 13.1 0.0 0.0 0 0.0 0.0 1022.0 0.0 0.0 17.8 0.0
02/03/19 19:29 17.8 74 13.1 0.0 0.0 0 0.0 0.0 1022.0 0.0 0.0 17.8 0.0
02/03/19 19:30 17.8 75 13.3 0.0 0.0 0 0.0 0.0 1022.0 0.0 0.0 17.8 0.0
02/03/19 19:33 17.6 75 13.1 0.0 0.0 0 0.0 0.0 1022.0 0.0 0.0 17.6 0.0
02/03/19 19:34 17.6 75 13.1 0.0 0.0 0 0.0 0.0 1022.0 0.0 0.0 17.6 0.0
02/03/19 19:35 17.5 76 13.2 0.0 0.0 0 0.0 0.0 1022.0 0.0 0.0 17.5 0.0
02/03/19 19:36 17.5 77 13.4 0.0 0.0 0 0.0 0.0 1022.0 0.0 0.0 17.5 0.0
02/03/19 19:37 17.5 77 13.4 0.0 0.0 0 0.0 0.0 1022.0 0.0 0.0 17.5 0.0
02/03/19 19:38 17.4 77 13.3 0.0 0.0 0 0.0 0.0 1022.0 0.0 0.0 17.4 0.0
02/03/19 19:39 17.4 77 13.3 0.0 0.0 0 0.0 0.0 1022.0 0.0 0.0 17.4 0.0
02/03/19 19:40 17.4 77 13.3 0.0 0.0 0 0.0 0.0 1022.0 0.0 0.0 17.4 0.0
02/03/19 19:41 17.4 78 13.5 0.0 0.0 0 0.0 0.0 1022.0 0.0 0.0 17.4 0.0
02/03/19 19:42 17.4 78 13.5 0.0 0.0 0 0.0 0.0 1022.0 0.0 0.0 17.4 0.0
02/03/19 19:43 17.3 79 13.6 0.0 0.0 0 0.0 0.0 1022.0 0.0 0.0 17.3 0.0
02/03/19 19:44 17.3 80 13.8 0.0 0.0 0 0.0 0.0 1022.0 0.0 0.0 17.3 0.0
02/03/19 19:45 17.3 79 13.6 0.0 0.0 0 0.0 0.0 1022.0 0.0 0.0 17.3 0.0
02/03/19 19:48 17.2 80 13.7 0.0 0.0 0 0.0 0.0 1022.0 0.0 0.0 17.2 0.0
02/03/19 19:49 17.2 80 13.7 0.0 0.0 0 0.0 0.0 1022.0 0.0 0.0 17.2 0.0
02/03/19 19:50 17.2 80 13.7 0.0 0.0 0 0.0 0.0 1022.0 0.0 0.0 17.2 0.0
02/03/19 19:51 17.1 80 13.6 0.0 0.0 0 0.0 0.0 1022.0 0.0 0.0 17.1 0.0
02/03/19 19:52 17.1 80 13.6 0.0 0.0 0 0.0 0.0 1022.0 0.0 0.0 17.1 0.0
02/03/19 19:53 17.1 81 13.8 0.0 0.0 0 0.0 0.0 1023.0 0.0 0.0 17.1 0.0
02/03/19 19:54 17.1 81 13.8 0.0 0.0 0 0.0 0.0 1023.0 0.0 0.0 17.1 0.0
02/03/19 19:55 17.1 81 13.8 0.0 0.0 0 0.0 0.0 1023.0 0.0 0.0 17.1 0.0
02/03/19 19:56 17.0 81 13.7 0.0 0.0 0 0.0 0.0 1023.0 0.0 0.0 17.0 0.0
02/03/19 19:57 17.0 81 13.7 0.0 0.0 0 0.0 0.0 1023.0 0.0 0.0 17.0 0.0
02/03/19 19:58 17.0 81 13.7 0.0 0.0 0 0.0 0.0 1023.0 0.0 0.0 17.0 0.0
02/03/19 19:59 16.9 81 13.6 0.0 0.0 0 0.0 0.0 1023.0 0.0 0.0 16.9 0.0
02/03/19 20:00 16.9 81 13.6 0.0 0.0 0 0.0 0.0 1023.0 0.0 0.0 16.9 0.0
02/03/19 20:03 16.9 81 13.6 0.0 0.0 0 0.0 0.0 1023.0 0.0 0.0 16.9 0.0
02/03/19 20:04 16.8 82 13.7 0.0 0.0 0 0.0 0.0 1023.0 0.0 0.0 16.8 0.0
02/03/19 20:05 16.8 82 13.7 0.0 0.0 0 0.0 0.0 1023.0 0.0 0.0 16.8 0.0
02/03/19 20:06 16.8 82 13.7 0.0 0.0 0 0.0 0.0 1023.0 0.0 0.0 16.8 0.0
02/03/19 20:07 16.8 82 13.7 0.0 0.0 0 0.0 0.0 1023.0 0.0 0.0 16.8 0.0
02/03/19 20:08 16.7 82 13.6 0.0 0.0 0 0.0 0.0 1023.0 0.0 0.0 16.7 0.0
02/03/19 20:09 16.7 83 13.8 0.0 0.0 0 0.0 0.0 1023.0 0.0 0.0 16.7 0.0
02/03/19 20:10 16.7 82 13.6 0.0 0.0 0 0.0 0.0 1023.0 0.0 0.0 16.7 0.0
02/03/19 20:11 16.6 82 13.5 0.0 0.0 0 0.0 0.0 1023.0 0.0 0.0 16.6 0.0
02/03/19 20:12 16.6 82 13.5 0.0 0.0 0 0.0 0.0 1023.0 0.0 0.0 16.6 0.0
02/03/19 20:13 16.6 82 13.5 0.0 0.0 0 0.0 0.0 1023.0 0.0 0.0 16.6 0.0
02/03/19 20:14 16.6 83 13.7 0.0 0.0 0 0.0 0.0 1023.0 0.0 0.0 16.6 0.0
02/03/19 20:15 16.6 83 13.7 0.0 0.0 0 0.0 0.0 1023.0 0.0 0.0 16.6 0.0
02/03/19 20:18 16.5 83 13.6 0.0 0.0 0 0.0 0.0 1023.0 0.0 0.0 16.5 0.0
02/03/19 20:19 16.5 84 13.8 0.0 0.0 0 0.0 0.0 1023.0 0.0 0.0 16.5 0.0
02/03/19 20:20 16.5 84 13.8 0.0 0.0 0 0.0 0.0 1023.0 0.0 0.0 16.5 0.0
02/03/19 20:21 16.5 83 13.6 0.0 0.0 0 0.0 0.0 1023.0 0.0 0.0 16.5 0.0
02/03/19 20:22 16.5 83 13.6 0.0 0.0 0 0.0 0.0 1023.0 0.0 0.0 16.5 0.0
02/03/19 20:23 16.5 83 13.6 0.0 0.0 0 0.0 0.0 1023.0 0.0 0.0 16.5 0.0
02/03/19 20:24 16.5 83 13.6 0.0 0.0 0 0.0 0.0 1023.0 0.0 0.0 16.5 0.0
02/03/19 20:25 16.4 83 13.5 0.0 0.0 0 0.0 0.0 1023.0 0.0 0.0 16.4 0.0
02/03/19 20:26 16.4 83 13.5 0.0 0.0 0 0.0 0.0 1023.0 0.0 0.0 16.4 0.0
02/03/19 20:27 16.4 83 13.5 0.0 0.0 0 0.0 0.0 1023.0 0.0 0.0 16.4 0.0
02/03/19 20:28 16.4 83 13.5 0.0 0.0 0 0.0 0.0 1023.0 0.0 0.0 16.4 0.0
02/03/19 20:29 16.4 83 13.5 0.0 0.0 0 0.0 0.0 1023.0 0.0 0.0 16.4 0.0
02/03/19 20:30 16.4 83 13.5 0.0 0.0 0 0.0 0.0 1023.0 0.0 0.0 16.4 0.0
02/03/19 20:33 16.4 84 13.7 0.0 0.0 0 0.0 0.0 1023.0 0.0 0.0 16.4 0.0
02/03/19 20:34 16.4 84 13.7 0.0 0.0 0 0.0 0.0 1023.0 0.0 0.0 16.4 0.0
02/03/19 20:35 16.4 84 13.7 0.0 0.0 0 0.0 0.0 1023.0 0.0 0.0 16.4 0.0
02/03/19 20:36 16.3 85 13.8 0.0 0.0 0 0.0 0.0 1023.0 0.0 0.0 16.3 0.0
02/03/19 20:37 16.4 85 13.9 0.0 0.0 0 0.0 0.0 1023.0 0.0 0.0 16.4 0.0
02/03/19 20:38 16.3 85 13.8 0.0 0.0 0 0.0 0.0 1023.0 0.0 0.0 16.3 0.0
02/03/19 20:39 16.4 86 14.1 0.0 0.0 0 0.0 0.0 1023.0 0.0 0.0 16.4 0.0
02/03/19 20:40 16.4 86 14.1 0.0 0.0 0 0.0 0.0 1023.0 0.0 0.0 16.4 0.0
02/03/19 20:41 16.4 86 14.1 0.0 0.0 0 0.0 0.0 1023.0 0.0 0.0 16.4 0.0
02/03/19 20:42 16.4 87 14.2 0.0 0.0 0 0.0 0.0 1023.0 0.0 0.0 16.4 0.0
02/03/19 20:43 16.4 87 14.2 0.0 0.0 0 0.0 0.0 1023.0 0.0 0.0 16.4 0.0
02/03/19 20:44 16.4 87 14.2 0.0 0.0 0 0.0 0.0 1023.0 0.0 0.0 16.4 0.0
02/03/19 20:45 16.5 87 14.3 0.0 0.0 0 0.0 0.0 1023.0 0.0 0.0 16.5 0.0
02/03/19 20:48 16.5 88 14.5 0.0 0.0 0 0.0 0.0 1023.0 0.0 0.0 16.5 0.0
02/03/19 20:49 16.5 88 14.5 0.0 0.0 0 0.0 0.0 1023.0 0.0 0.0 16.5 0.0
02/03/19 20:50 16.5 88 14.5 0.0 0.0 0 0.0 0.0 1023.0 0.0 0.0 16.5 0.0
02/03/19 20:51 16.5 88 14.5 0.0 0.0 0 0.0 0.0 1023.0 0.0 0.0 16.5 0.0
02/03/19 20:52 16.5 88 14.5 0.0 0.0 0 0.0 0.0 1023.0 0.0 0.0 16.5 0.0
02/03/19 20:53 16.5 88 14.5 0.0 0.0 0 0.0 0.0 1024.0 0.0 0.0 16.5 0.0
02/03/19 20:54 16.5 88 14.5 0.0 0.0 0 0.0 0.0 1024.0 0.0 0.0 16.5 0.0
02/03/19 20:55 16.5 88 14.5 0.0 0.0 0 0.0 0.0 1024.0 0.0 0.0 16.5 0.0
02/03/19 20:56 16.4 87 14.2 0.0 0.0 0 0.0 0.0 1024.0 0.0 0.0 16.4 0.0
02/03/19 20:57 16.4 87 14.2 0.0 0.0 0 0.0 0.0 1024.0 0.0 0.0 16.4 0.0
02/03/19 20:58 16.4 87 14.2 0.0 0.0 0 0.0 0.0 1024.0 0.0 0.0 16.4 0.0
02/03/19 20:59 16.4 88 14.4 0.0 0.0 0 0.0 0.0 1024.0 0.0 0.0 16.4 0.0
02/03/19 21:00 16.4 88 14.4 0.0 0.0 0 0.0 0.0 1024.0 0.0 0.0 16.4 0.0
02/03/19 21:03 16.3 88 14.3 0.0 0.0 0 0.0 0.0 1024.0 0.0 0.0 16.3 0.0
02/03/19 21:04 16.3 87 14.1 0.0 0.0 0 0.0 0.0 1024.0 0.0 0.0 16.3 0.0
02/03/19 21:05 16.3 87 14.1 0.0 0.0 0 0.0 0.0 1024.0 0.0 0.0 16.3 0.0
02/03/19 21:06 16.3 88 14.3 0.0 0.0 0 0.0 0.0 1024.0 0.0 0.0 16.3 0.0
02/03/19 21:07 16.3 88 14.3 0.0 0.0 0 0.0 0.0 1024.0 0.0 0.0 16.3 0.0
02/03/19 21:08 16.3 88 14.3 0.0 0.0 0 0.0 0.0 1023.0 0.0 0.0 16.3 0.0
02/03/19 21:09 16.2 88 14.2 0.0 0.0 0 0.0 0.0 1023.0 0.0 0.0 16.2 0.0
02/03/19 21:10 16.2 88 14.2 0.0 0.0 0 0.0 0.0 1023.0 0.0 0.0 16.2 0.0
02/03/19 21:11 16.2 88 14.2 0.0 0.0 0 0.0 0.0 1023.0 0.0 0.0 16.2 0.0
02/03/19 21:12 16.2 88 14.2 0.0 0.0 0 0.0 0.0 1023.0 0.0 0.0 16.2 0.0
02/03/19 21:13 16.1 88 14.1 0.0 0.0 0 0.0 0.0 1023.0 0.0 0.0 16.1 0.0
02/03/19 21:14 16.1 88 14.1 0.0 0.0 0 0.0 0.0 1023.0 0.0 0.0 16.1 0.0
02/03/19 21:15 16.1 88 14.1 0.0 0.0 0 0.0 0.0 1023.0 0.0 0.0 16.1 0.0
02/03/19 21:18 16.1 88 14.1 0.0 0.0 0 0.0 0.0 1023.0 0.0 0.0 16.1 0.0
02/03/19 21:19 16.1 88 14.1 0.0 0.0 0 0.0 0.0 1023.0 0.0 0.0 16.1 0.0
02/03/19 21:20 16.1 89 14.3 0.0 0.0 0 0.0 0.0 1023.0 0.0 0.0 16.1 0.0
02/03/19 21:21 16.0 89 14.2 0.0 0.0 0 0.0 0.0 1023.0 0.0 0.0 16.0 0.0
02/03/19 21:22 16.0 89 14.2 0.0 0.0 0 0.0 0.0 1023.0 0.0 0.0 16.0 0.0
02/03/19 21:23 16.0 89 14.2 0.0 0.0 0 0.0 0.0 1023.0 0.0 0.0 16.0 0.0
02/03/19 21:24 15.9 89 14.1 0.0 0.0 0 0.0 0.0 1023.0 0.0 0.0 15.9 0.0
02/03/19 21:25 15.9 89 14.1 0.0 0.0 0 0.0 0.0 1023.0 0.0 0.0 15.9 0.0
02/03/19 21:26 15.9 90 14.3 0.0 0.0 0 0.0 0.0 1023.0 0.0 0.0 15.9 0.0
02/03/19 21:27 15.9 90 14.3 0.0 0.0 0 0.0 0.0 1023.0 0.0 0.0 15.9 0.0
02/03/19 21:28 15.8 90 14.2 0.0 0.0 0 0.0 0.0 1023.0 0.0 0.0 15.8 0.0
02/03/19 21:29 15.8 89 14.0 0.0 0.0 0 0.0 0.0 1023.0 0.0 0.0 15.8 0.0
02/03/19 21:33 15.7 90 14.1 0.0 0.0 0 0.0 0.0 1023.0 0.0 0.0 15.7 0.0
02/03/19 21:34 15.7 90 14.1 0.0 0.0 0 0.0 0.0 1023.0 0.0 0.0 15.7 0.0
02/03/19 21:35 15.7 90 14.1 0.0 0.0 0 0.0 0.0 1023.0 0.0 0.0 15.7 0.0
02/03/19 21:36 15.7 90 14.1 0.0 0.0 0 0.0 0.0 1023.0 0.0 0.0 15.7 0.0
02/03/19 21:37 15.7 90 14.1 0.0 0.0 0 0.0 0.0 1023.0 0.0 0.0 15.7 0.0
02/03/19 21:38 15.7 90 14.1 0.0 0.0 0 0.0 0.0 1023.0 0.0 0.0 15.7 0.0
02/03/19 21:39 15.7 90 14.1 0.0 0.0 0 0.0 0.0 1023.0 0.0 0.0 15.7 0.0
02/03/19 21:40 15.7 90 14.1 0.0 0.0 0 0.0 0.0 1023.0 0.0 0.0 15.7 0.0
02/03/19 21:41 15.7 90 14.1 0.0 0.0 0 0.0 0.0 1023.0 0.0 0.0 15.7 0.0
02/03/19 21:42 15.7 90 14.1 0.0 0.0 0 0.0 0.0 1023.0 0.0 0.0 15.7 0.0
02/03/19 21:43 15.7 90 14.1 0.0 0.0 0 0.0 0.0 1023.0 0.0 0.0 15.7 0.0
02/03/19 21:44 15.8 90 14.2 0.0 0.0 0 0.0 0.0 1023.0 0.0 0.0 15.8 0.0
02/03/19 21:45 15.8 90 14.2 0.0 0.0 0 0.0 0.0 1023.0 0.0 0.0 15.8 0.0
02/03/19 21:48 15.8 90 14.2 0.0 0.0 0 0.0 0.0 1023.0 0.0 0.0 15.8 0.0
02/03/19 21:49 15.8 90 14.2 0.0 0.0 0 0.0 0.0 1023.0 0.0 0.0 15.8 0.0
02/03/19 21:50 15.8 91 14.3 0.0 0.0 0 0.0 0.0 1023.0 0.0 0.0 15.8 0.0
02/03/19 21:51 15.8 91 14.3 0.0 0.0 0 0.0 0.0 1023.0 0.0 0.0 15.8 0.0
02/03/19 21:52 15.8 91 14.3 0.0 0.0 0 0.0 0.0 1023.0 0.0 0.0 15.8 0.0
02/03/19 21:53 15.8 91 14.3 0.0 0.0 0 0.0 0.0 1023.0 0.0 0.0 15.8 0.0
02/03/19 21:54 15.7 91 14.2 0.0 0.0 0 0.0 0.0 1023.0 0.0 0.0 15.7 0.0
02/03/19 21:55 15.7 91 14.2 0.0 0.0 0 0.0 0.0 1023.0 0.0 0.0 15.7 0.0
02/03/19 21:56 15.7 91 14.2 0.0 0.0 0 0.0 0.0 1023.0 0.0 0.0 15.7 0.0
02/03/19 21:57 15.7 91 14.2 0.0 0.0 0 0.0 0.0 1023.0 0.0 0.0 15.7 0.0
02/03/19 21:58 15.7 91 14.2 0.0 0.0 0 0.0 0.0 1023.0 0.0 0.0 15.7 0.0
02/03/19 21:59 15.6 91 14.1 0.0 0.0 0 0.0 0.0 1023.0 0.0 0.0 15.6 0.0
02/03/19 22:00 15.6 91 14.1 0.0 0.0 0 0.0 0.0 1023.0 0.0 0.0 15.6 0.0
02/03/19 22:03 15.6 91 14.1 0.0 0.0 0 0.0 0.0 1023.0 0.0 0.0 15.6 0.0
02/03/19 22:04 15.6 91 14.1 0.0 0.0 0 0.0 0.0 1023.0 0.0 0.0 15.6 0.0
02/03/19 22:05 15.5 91 14.0 0.0 0.0 0 0.0 0.0 1023.0 0.0 0.0 15.5 0.0
02/03/19 22:06 15.5 91 14.0 0.0 0.0 0 0.0 0.0 1023.0 0.0 0.0 15.5 0.0
02/03/19 22:07 15.5 91 14.0 0.0 0.0 0 0.0 0.0 1023.0 0.0 0.0 15.5 0.0
02/03/19 22:08 15.5 91 14.0 0.0 0.0 0 0.0 0.0 1023.0 0.0 0.0 15.5 0.0
02/03/19 22:09 15.5 91 14.0 0.0 0.0 0 0.0 0.0 1023.0 0.0 0.0 15.5 0.0
02/03/19 22:10 15.5 91 14.0 0.0 0.0 0 0.0 0.0 1023.0 0.0 0.0 15.5 0.0
02/03/19 22:11 15.5 92 14.2 0.0 0.0 0 0.0 0.0 1023.0 0.0 0.0 15.5 0.0
02/03/19 22:12 15.5 92 14.2 0.0 0.0 0 0.0 0.0 1023.0 0.0 0.0 15.5 0.0
02/03/19 22:13 15.5 92 14.2 0.0 0.0 0 0.0 0.0 1023.0 0.0 0.0 15.5 0.0
02/03/19 22:14 15.5 92 14.2 0.0 0.0 0 0.0 0.0 1023.0 0.0 0.0 15.5 0.0
02/03/19 22:15 15.4 92 14.1 0.0 0.0 0 0.0 0.0 1023.0 0.0 0.0 15.4 0.0
02/03/19 22:18 15.4 92 14.1 0.0 0.0 0 0.0 0.0 1023.0 0.0 0.0 15.4 0.0
02/03/19 22:19 15.4 92 14.1 0.0 0.0 0 0.0 0.0 1023.0 0.0 0.0 15.4 0.0
02/03/19 22:20 15.4 92 14.1 0.0 0.0 0 0.0 0.0 1023.0 0.0 0.0 15.4 0.0
02/03/19 22:21 15.4 92 14.1 0.0 0.0 0 0.0 0.0 1023.0 0.0 0.0 15.4 0.0
02/03/19 22:22 15.4 92 14.1 0.0 0.0 0 0.0 0.0 1023.0 0.0 0.0 15.4 0.0
02/03/19 22:23 15.4 92 14.1 0.0 0.0 0 0.0 0.0 1023.0 0.0 0.0 15.4 0.0
02/03/19 22:24 15.4 92 14.1 0.0 0.0 0 0.0 0.0 1023.0 0.0 0.0 15.4 0.0
02/03/19 22:25 15.4 92 14.1 0.0 0.0 0 0.0 0.0 1023.0 0.0 0.0 15.4 0.0
02/03/19 22:26 15.4 92 14.1 0.0 0.0 0 0.0 0.0 1023.0 0.0 0.0 15.4 0.0
02/03/19 22:27 15.4 92 14.1 0.0 0.0 0 0.0 0.0 1023.0 0.0 0.0 15.4 0.0
02/03/19 22:28 15.4 92 14.1 0.0 0.0 0 0.0 0.0 1023.0 0.0 0.0 15.4 0.0
02/03/19 22:29 15.4 92 14.1 0.0 0.0 0 0.0 0.0 1023.0 0.0 0.0 15.4 0.0
02/03/19 22:30 15.3 92 14.0 0.0 0.0 0 0.0 0.0 1023.0 0.0 0.0 15.3 0.0
02/03/19 22:33 15.3 92 14.0 0.0 0.0 0 0.0 0.0 1023.0 0.0 0.0 15.3 0.0
02/03/19 22:34 15.3 92 14.0 0.0 0.0 0 0.0 0.0 1023.0 0.0 0.0 15.3 0.0
02/03/19 22:35 15.3 92 14.0 0.0 0.0 0 0.0 0.0 1023.0 0.0 0.0 15.3 0.0
02/03/19 22:36 15.3 92 14.0 0.0 0.0 0 0.0 0.0 1023.0 0.0 0.0 15.3 0.0
02/03/19 22:37 15.3 92 14.0 0.0 0.0 0 0.0 0.0 1023.0 0.0 0.0 15.3 0.0
02/03/19 22:38 15.3 92 14.0 0.0 0.0 0 0.0 0.0 1023.0 0.0 0.0 15.3 0.0
02/03/19 22:39 15.3 92 14.0 0.0 0.0 0 0.0 0.0 1023.0 0.0 0.0 15.3 0.0
02/03/19 22:40 15.3 92 14.0 0.0 0.0 0 0.0 0.0 1023.0 0.0 0.0 15.3 0.0
02/03/19 22:41 15.3 92 14.0 0.0 0.0 0 0.0 0.0 1023.0 0.0 0.0 15.3 0.0
02/03/19 22:42 15.3 92 14.0 0.0 0.0 0 0.0 0.0 1023.0 0.0 0.0 15.3 0.0
02/03/19 22:43 15.3 92 14.0 0.0 0.0 0 0.0 0.0 1023.0 0.0 0.0 15.3 0.0
02/03/19 22:44 15.3 92 14.0 0.0 0.0 0 0.0 0.0 1023.0 0.0 0.0 15.3 0.0
02/03/19 22:45 15.2 92 13.9 0.0 0.0 0 0.0 0.0 1023.0 0.0 0.0 15.2 0.0
02/03/19 22:48 15.2 92 13.9 0.0 0.0 0 0.0 0.0 1023.0 0.0 0.0 15.2 0.0
02/03/19 23:03 15.1 93 14.0 0.0 0.0 0 0.0 0.0 1023.0 0.0 0.0 15.1 0.0
02/03/19 23:04 15.0 93 13.9 0.0 0.0 0 0.0 0.0 1023.0 0.0 0.0 15.0 0.0
02/03/19 23:05 15.0 93 13.9 0.0 0.0 0 0.0 0.0 1023.0 0.0 0.0 15.0 0.0
02/03/19 23:06 15.1 93 14.0 0.0 0.0 0 0.0 0.0 1023.0 0.0 0.0 15.1 0.0
02/03/19 23:07 15.0 93 13.9 0.0 0.0 0 0.0 0.0 1023.0 0.0 0.0 15.0 0.0
02/03/19 23:08 15.0 93 13.9 0.0 0.0 0 0.0 0.0 1023.0 0.0 0.0 15.0 0.0
02/03/19 23:09 15.1 93 14.0 0.0 0.0 0 0.0 0.0 1023.0 0.0 0.0 15.1 0.0
02/03/19 23:10 15.1 93 14.0 0.0 0.0 0 0.0 0.0 1023.0 0.0 0.0 15.1 0.0
02/03/19 23:11 15.0 93 13.9 0.0 0.0 0 0.0 0.0 1023.0 0.0 0.0 15.0 0.0
02/03/19 23:12 15.1 93 14.0 0.0 0.0 0 0.0 0.0 1023.0 0.0 0.0 15.1 0.0
02/03/19 23:13 15.1 93 14.0 0.0 0.0 0 0.0 0.0 1023.0 0.0 0.0 15.1 0.0
02/03/19 23:14 15.0 93 13.9 0.0 0.0 0 0.0 0.0 1023.0 0.0 0.0 15.0 0.0
02/03/19 23:15 15.1 93 14.0 0.0 0.0 0 0.0 0.0 1023.0 0.0 0.0 15.1 0.0
02/03/19 23:18 15.0 93 13.9 0.0 0.0 0 0.0 0.0 1023.0 0.0 0.0 15.0 0.0
02/03/19 23:19 15.1 94 14.1 0.0 0.0 0 0.0 0.0 1023.0 0.0 0.0 15.1 0.0
02/03/19 23:20 15.1 94 14.1 0.0 0.0 0 0.0 0.0 1023.0 0.0 0.0 15.1 0.0
02/03/19 23:21 15.1 94 14.1 0.0 0.0 0 0.0 0.0 1023.0 0.0 0.0 15.1 0.0
02/03/19 23:22 15.0 94 14.0 0.0 0.0 0 0.0 0.0 1023.0 0.0 0.0 15.0 0.0
02/03/19 23:23 15.1 94 14.1 0.0 0.0 0 0.0 0.0 1023.0 0.0 0.0 15.1 0.0
02/03/19 23:24 15.0 93 13.9 0.0 0.0 0 0.0 0.0 1023.0 0.0 0.0 15.0 0.0
02/03/19 23:25 15.0 93 13.9 0.0 0.0 0 0.0 0.0 1023.0 0.0 0.0 15.0 0.0
02/03/19 23:26 15.1 93 14.0 0.0 0.0 0 0.0 0.0 1023.0 0.0 0.0 15.1 0.0
02/03/19 23:27 15.0 93 13.9 0.0 0.0 0 0.0 0.0 1023.0 0.0 0.0 15.0 0.0
02/03/19 23:28 15.1 93 14.0 0.0 0.0 0 0.0 0.0 1023.0 0.0 0.0 15.1 0.0
02/03/19 23:29 15.0 93 13.9 0.0 0.0 0 0.0 0.0 1023.0 0.0 0.0 15.0 0.0
02/03/19 23:30 15.0 94 14.0 0.0 0.0 0 0.0 0.0 1023.0 0.0 0.0 15.0 0.0
02/03/19 23:33 15.1 94 14.1 0.0 0.0 0 0.0 0.0 1023.0 0.0 0.0 15.1 0.0
02/03/19 23:34 15.1 94 14.1 0.0 0.0 0 0.0 0.0 1023.0 0.0 0.0 15.1 0.0
02/03/19 23:38 15.1 94 14.1 0.0 0.0 0 0.0 0.0 1023.0 0.0 0.0 15.1 0.0
02/03/19 23:39 15.1 94 14.1 0.0 0.0 0 0.0 0.0 1023.0 0.0 0.0 15.1 0.0
02/03/19 23:40 15.2 94 14.2 0.0 0.0 0 0.0 0.0 1022.0 0.0 0.0 15.2 0.0
02/03/19 23:41 15.2 94 14.2 0.0 0.0 0 0.0 0.0 1022.0 0.0 0.0 15.2 0.0
02/03/19 23:42 15.2 94 14.2 0.0 0.0 0 0.0 0.0 1022.0 0.0 0.0 15.2 0.0
02/03/19 23:43 15.1 94 14.1 0.0 0.0 0 0.0 0.0 1022.0 0.0 0.0 15.1 0.0
02/03/19 23:44 15.2 94 14.2 0.0 0.0 0 0.0 0.0 1022.0 0.0 0.0 15.2 0.0
02/03/19 23:45 15.1 94 14.1 0.0 0.0 0 0.0 0.0 1022.0 0.0 0.0 15.1 0.0
02/03/19 23:48 15.2 94 14.2 0.0 0.0 0 0.0 0.0 1022.0 0.0 0.0 15.2 0.0
02/03/19 23:49 15.2 94 14.2 0.0 0.0 0 0.0 0.0 1022.0 0.0 0.0 15.2 0.0
02/03/19 23:50 15.2 94 14.2 0.0 0.0 0 0.0 0.0 1022.0 0.0 0.0 15.2 0.0
02/03/19 23:51 15.2 95 14.4 0.0 0.0 0 0.0 0.0 1022.0 0.0 0.0 15.2 0.0
02/03/19 23:52 15.2 95 14.4 0.0 0.0 0 0.0 0.0 1022.0 0.0 0.0 15.2 0.0
02/03/19 23:53 15.1 95 14.3 0.0 0.0 0 0.0 0.0 1022.0 0.0 0.0 15.1 0.0
 
  Back to Top
Date Time Temperature Humidity Dewpoint Wind Speed High Gust Wind Bearing Rainfall Rate Total Rainfall Pressure Gust Wind Chill Heat Index UV Index
03/03/19 00:03 15.1 95 14.3 0.0 0.0 0 0.0 0.0 1022.0 0.0 0.0 15.1 0.0
03/03/19 00:04 15.1 95 14.3 0.0 0.0 0 0.0 0.0 1022.0 0.0 0.0 15.1 0.0
03/03/19 00:05 15.1 95 14.3 0.0 0.0 0 0.0 0.0 1022.0 0.0 0.0 15.1 0.0
03/03/19 00:06 15.2 95 14.4 0.0 0.0 0 0.0 0.0 1022.0 0.0 0.0 15.2 0.0
03/03/19 00:07 15.1 95 14.3 0.0 0.0 0 0.0 0.0 1022.0 0.0 0.0 15.1 0.0
03/03/19 00:08 15.1 95 14.3 0.0 0.0 0 0.0 0.0 1023.0 0.0 0.0 15.1 0.0
03/03/19 00:09 15.1 94 14.1 0.0 0.0 0 0.0 0.0 1023.0 0.0 0.0 15.1 0.0
03/03/19 00:10 15.1 94 14.1 0.0 0.0 0 0.0 0.0 1023.0 0.0 0.0 15.1 0.0
03/03/19 00:11 15.1 94 14.1 0.0 0.0 0 0.0 0.0 1023.0 0.0 0.0 15.1 0.0
03/03/19 00:12 15.1 94 14.1 0.0 0.0 0 0.0 0.0 1023.0 0.0 0.0 15.1 0.0
03/03/19 00:13 15.1 94 14.1 0.0 0.0 0 0.0 0.0 1023.0 0.0 0.0 15.1 0.0
03/03/19 00:14 15.1 94 14.1 0.0 0.0 0 0.0 0.0 1023.0 0.0 0.0 15.1 0.0
03/03/19 00:15 15.1 94 14.1 0.0 0.0 0 0.0 0.0 1023.0 0.0 0.0 15.1 0.0
03/03/19 00:18 15.0 94 14.0 0.0 0.0 0 0.0 0.0 1023.0 0.0 0.0 15.0 0.0
03/03/19 00:19 14.9 95 14.1 0.0 0.0 0 0.0 0.0 1023.0 0.0 0.0 14.9 0.0
03/03/19 00:20 14.9 95 14.1 0.0 0.0 0 0.0 0.0 1023.0 0.0 0.0 14.9 0.0
03/03/19 00:21 14.9 95 14.1 0.0 0.0 0 0.0 0.0 1023.0 0.0 0.0 14.9 0.0
03/03/19 00:22 14.9 95 14.1 0.0 0.0 0 0.0 0.0 1023.0 0.0 0.0 14.9 0.0
03/03/19 00:23 14.8 95 14.0 0.0 0.0 0 0.0 0.0 1022.0 0.0 0.0 14.8 0.0
03/03/19 00:24 14.8 95 14.0 0.0 0.0 0 0.0 0.0 1022.0 0.0 0.0 14.8 0.0
03/03/19 00:25 14.8 95 14.0 0.0 0.0 0 0.0 0.0 1022.0 0.0 0.0 14.8 0.0
03/03/19 00:26 14.8 95 14.0 0.0 0.0 0 0.0 0.0 1022.0 0.0 0.0 14.8 0.0
03/03/19 00:27 14.7 95 13.9 0.0 0.0 0 0.0 0.0 1022.0 0.0 0.0 14.7 0.0
03/03/19 00:28 14.7 95 13.9 0.0 0.0 0 0.0 0.0 1022.0 0.0 0.0 14.7 0.0
03/03/19 00:29 14.7 95 13.9 0.0 0.0 0 0.0 0.0 1022.0 0.0 0.0 14.7 0.0
03/03/19 00:30 14.7 95 13.9 0.0 0.0 0 0.0 0.0 1022.0 0.0 0.0 14.7 0.0
03/03/19 00:33 14.6 95 13.8 0.0 0.0 0 0.0 0.0 1022.0 0.0 0.0 14.6 0.0
03/03/19 00:34 14.6 95 13.8 0.0 0.0 0 0.0 0.0 1022.0 0.0 0.0 14.6 0.0
03/03/19 00:35 14.6 95 13.8 0.0 0.0 0 0.0 0.0 1022.0 0.0 0.0 14.6 0.0
03/03/19 00:36 14.5 95 13.7 0.0 0.0 0 0.0 0.0 1022.0 0.0 0.0 14.5 0.0
03/03/19 00:37 14.5 95 13.7 0.0 0.0 0 0.0 0.0 1022.0 0.0 0.0 14.5 0.0
03/03/19 00:38 14.5 95 13.7 0.0 0.0 0 0.0 0.0 1023.0 0.0 0.0 14.5 0.0
03/03/19 00:39 14.5 95 13.7 0.0 0.0 0 0.0 0.0 1023.0 0.0 0.0 14.5 0.0
03/03/19 00:40 14.5 95 13.7 0.0 0.0 0 0.0 0.0 1023.0 0.0 0.0 14.5 0.0
03/03/19 00:41 14.4 95 13.6 0.0 0.0 0 0.0 0.0 1023.0 0.0 0.0 14.4 0.0
03/03/19 00:42 14.4 95 13.6 0.0 0.0 0 0.0 0.0 1023.0 0.0 0.0 14.4 0.0
03/03/19 00:43 14.4 95 13.6 0.0 0.0 0 0.0 0.0 1023.0 0.0 0.0 14.4 0.0
03/03/19 00:44 14.4 95 13.6 0.0 0.0 0 0.0 0.0 1023.0 0.0 0.0 14.4 0.0
03/03/19 00:45 14.4 95 13.6 0.0 0.0 0 0.0 0.0 1023.0 0.0 0.0 14.4 0.0
03/03/19 00:48 14.4 96 13.8 0.0 0.0 0 0.0 0.0 1023.0 0.0 0.0 14.4 0.0
03/03/19 00:49 14.4 96 13.8 0.0 0.0 0 0.0 0.0 1023.0 0.0 0.0 14.4 0.0
03/03/19 00:50 14.4 96 13.8 0.0 0.0 0 0.0 0.0 1023.0 0.0 0.0 14.4 0.0
03/03/19 00:51 14.3 96 13.7 0.0 0.0 0 0.0 0.0 1023.0 0.0 0.0 14.3 0.0
03/03/19 00:52 14.3 96 13.7 0.0 0.0 0 0.0 0.0 1023.0 0.0 0.0 14.3 0.0
03/03/19 00:53 14.3 96 13.7 0.0 0.0 0 0.0 0.0 1023.0 0.0 0.0 14.3 0.0
03/03/19 00:54 14.3 96 13.7 0.0 0.0 0 0.0 0.0 1023.0 0.0 0.0 14.3 0.0
03/03/19 00:55 14.3 96 13.7 0.0 0.0 0 0.0 0.0 1023.0 0.0 0.0 14.3 0.0
03/03/19 00:56 14.3 96 13.7 0.0 0.0 0 0.0 0.0 1023.0 0.0 0.0 14.3 0.0
03/03/19 00:57 14.3 96 13.7 0.0 0.0 0 0.0 0.0 1023.0 0.0 0.0 14.3 0.0
03/03/19 00:58 14.3 96 13.7 0.0 0.0 0 0.0 0.0 1023.0 0.0 0.0 14.3 0.0
03/03/19 00:59 14.3 96 13.7 0.0 0.0 0 0.0 0.0 1023.0 0.0 0.0 14.3 0.0
03/03/19 01:00 14.3 96 13.7 0.0 0.0 0 0.0 0.0 1023.0 0.0 0.0 14.3 0.0
03/03/19 01:03 14.3 96 13.7 0.0 0.0 0 0.0 0.0 1023.0 0.0 0.0 14.3 0.0
03/03/19 01:04 14.3 96 13.7 0.0 0.0 0 0.0 0.0 1023.0 0.0 0.0 14.3 0.0
03/03/19 01:05 14.3 96 13.7 0.0 0.0 0 0.0 0.0 1023.0 0.0 0.0 14.3 0.0
03/03/19 01:06 14.3 96 13.7 0.0 0.0 0 0.0 0.0 1023.0 0.0 0.0 14.3 0.0
03/03/19 01:07 14.2 96 13.6 0.0 0.0 0 0.0 0.0 1023.0 0.0 0.0 14.2 0.0
03/03/19 01:08 14.2 96 13.6 0.0 0.0 0 0.0 0.0 1023.0 0.0 0.0 14.2 0.0
03/03/19 01:09 14.2 96 13.6 0.0 0.0 0 0.0 0.0 1023.0 0.0 0.0 14.2 0.0
03/03/19 01:10 14.2 96 13.6 0.0 0.0 0 0.0 0.0 1023.0 0.0 0.0 14.2 0.0
03/03/19 01:11 14.2 96 13.6 0.0 0.0 0 0.0 0.0 1023.0 0.0 0.0 14.2 0.0
03/03/19 01:12 14.2 96 13.6 0.0 0.0 0 0.0 0.0 1023.0 0.0 0.0 14.2 0.0
03/03/19 01:13 14.2 96 13.6 0.0 0.0 0 0.0 0.0 1023.0 0.0 0.0 14.2 0.0
03/03/19 01:14 14.2 96 13.6 0.0 0.0 0 0.0 0.0 1023.0 0.0 0.0 14.2 0.0
03/03/19 01:15 14.2 96 13.6 0.0 0.0 0 0.0 0.0 1023.0 0.0 0.0 14.2 0.0
03/03/19 01:18 14.1 96 13.5 0.0 0.0 0 0.0 0.0 1023.0 0.0 0.0 14.1 0.0
03/03/19 01:19 14.1 96 13.5 0.0 0.0 0 0.0 0.0 1023.0 0.0 0.0 14.1 0.0
03/03/19 01:20 14.1 97 13.6 0.0 0.0 0 0.0 0.0 1023.0 0.0 0.0 14.1 0.0
03/03/19 01:21 14.1 97 13.6 0.0 0.0 0 0.0 0.0 1023.0 0.0 0.0 14.1 0.0
03/03/19 01:22 14.1 97 13.6 0.0 0.0 0 0.0 0.0 1023.0 0.0 0.0 14.1 0.0
03/03/19 01:23 14.1 97 13.6 0.0 0.0 0 0.0 0.0 1023.0 0.0 0.0 14.1 0.0
03/03/19 01:24 14.1 97 13.6 0.0 0.0 0 0.0 0.0 1023.0 0.0 0.0 14.1 0.0
03/03/19 01:25 14.0 97 13.5 0.0 0.0 0 0.0 0.0 1023.0 0.0 0.0 14.0 0.0
03/03/19 01:26 14.0 97 13.5 0.0 0.0 0 0.0 0.0 1023.0 0.0 0.0 14.0 0.0
03/03/19 01:27 14.0 97 13.5 0.0 0.0 0 0.0 0.0 1023.0 0.0 0.0 14.0 0.0
03/03/19 01:28 14.0 97 13.5 0.0 0.0 0 0.0 0.0 1023.0 0.0 0.0 14.0 0.0
03/03/19 01:29 14.0 97 13.5 0.0 0.0 0 0.0 0.0 1023.0 0.0 0.0 14.0 0.0
03/03/19 01:30 14.0 97 13.5 0.0 0.0 0 0.0 0.0 1023.0 0.0 0.0 14.0 0.0
03/03/19 01:33 14.0 97 13.5 0.0 0.0 0 0.0 0.0 1023.0 0.0 0.0 14.0 0.0
03/03/19 01:34 13.9 97 13.4 0.0 0.0 0 0.0 0.0 1023.0 0.0 0.0 13.9 0.0
03/03/19 01:35 13.9 97 13.4 0.0 0.0 0 0.0 0.0 1023.0 0.0 0.0 13.9 0.0
03/03/19 01:36 13.9 97 13.4 0.0 0.0 0 0.0 0.0 1023.0 0.0 0.0 13.9 0.0
03/03/19 01:37 13.9 97 13.4 0.0 0.0 0 0.0 0.0 1023.0 0.0 0.0 13.9 0.0
03/03/19 01:38 13.9 97 13.4 0.0 0.0 0 0.0 0.0 1023.0 0.0 0.0 13.9 0.0
03/03/19 01:39 13.9 97 13.4 0.0 0.0 0 0.0 0.0 1023.0 0.0 0.0 13.9 0.0
03/03/19 01:40 13.9 97 13.4 0.0 0.0 0 0.0 0.0 1023.0 0.0 0.0 13.9 0.0
03/03/19 01:41 13.9 97 13.4 0.0 0.0 0 0.0 0.0 1023.0 0.0 0.0 13.9 0.0
03/03/19 01:42 13.9 97 13.4 0.0 0.0 0 0.0 0.0 1023.0 0.0 0.0 13.9 0.0
03/03/19 01:43 13.9 97 13.4 0.0 0.0 0 0.0 0.0 1023.0 0.0 0.0 13.9 0.0
03/03/19 01:44 13.9 97 13.4 0.0 0.0 0 0.0 0.0 1023.0 0.0 0.0 13.9 0.0
03/03/19 01:48 13.8 97 13.3 0.0 0.0 0 0.0 0.0 1023.0 0.0 0.0 13.8 0.0
03/03/19 01:49 13.8 97 13.3 0.0 0.0 0 0.0 0.0 1023.0 0.0 0.0 13.8 0.0
03/03/19 01:50 13.9 98 13.6 0.0 0.0 0 0.0 0.0 1023.0 0.0 0.0 13.9 0.0
03/03/19 01:51 13.9 98 13.6 0.0 0.0 0 0.0 0.0 1023.0 0.0 0.0 13.9 0.0
03/03/19 01:52 13.9 98 13.6 0.0 0.0 0 0.0 0.0 1023.0 0.0 0.0 13.9 0.0
03/03/19 01:53 13.8 98 13.5 0.0 0.0 0 0.0 0.0 1022.0 0.0 0.0 13.8 0.0
03/03/19 01:54 13.8 98 13.5 0.0 0.0 0 0.0 0.0 1022.0 0.0 0.0 13.8 0.0
03/03/19 01:55 13.8 98 13.5 0.0 0.0 0 0.0 0.0 1022.0 0.0 0.0 13.8 0.0
03/03/19 01:56 13.8 98 13.5 0.0 0.0 0 0.0 0.0 1022.0 0.0 0.0 13.8 0.0
03/03/19 01:57 13.8 98 13.5 0.0 0.0 0 0.0 0.0 1022.0 0.0 0.0 13.8 0.0
03/03/19 01:58 13.8 98 13.5 0.0 0.0 0 0.0 0.0 1022.0 0.0 0.0 13.8 0.0
03/03/19 01:59 13.8 98 13.5 0.0 0.0 0 0.0 0.0 1022.0 0.0 0.0 13.8 0.0
03/03/19 02:00 13.9 98 13.6 0.0 0.0 0 0.0 0.0 1022.0 0.0 0.0 13.9 0.0
03/03/19 02:03 13.8 98 13.5 0.0 0.0 0 0.0 0.0 1022.0 0.0 0.0 13.8 0.0
03/03/19 02:04 13.9 98 13.6 0.0 0.0 0 0.0 0.0 1022.0 0.0 0.0 13.9 0.0
03/03/19 02:05 13.9 98 13.6 0.0 0.0 0 0.0 0.0 1022.0 0.0 0.0 13.9 0.0
03/03/19 02:06 13.8 98 13.5 0.0 0.0 0 0.0 0.0 1022.0 0.0 0.0 13.8 0.0
03/03/19 02:07 13.8 98 13.5 0.0 0.0 0 0.0 0.0 1022.0 0.0 0.0 13.8 0.0
03/03/19 02:08 13.8 98 13.5 0.0 0.0 0 0.0 0.0 1022.0 0.0 0.0 13.8 0.0
03/03/19 02:09 13.8 98 13.5 0.0 0.0 0 0.0 0.0 1022.0 0.0 0.0 13.8 0.0
03/03/19 02:10 13.8 98 13.5 0.0 0.0 0 0.0 0.0 1022.0 0.0 0.0 13.8 0.0
03/03/19 02:11 13.8 98 13.5 0.0 0.0 0 0.0 0.0 1022.0 0.0 0.0 13.8 0.0
03/03/19 02:12 13.8 98 13.5 0.0 0.0 0 0.0 0.0 1022.0 0.0 0.0 13.8 0.0
03/03/19 02:13 13.8 98 13.5 0.0 0.0 0 0.0 0.0 1022.0 0.0 0.0 13.8 0.0
03/03/19 02:14 13.8 98 13.5 0.0 0.0 0 0.0 0.0 1022.0 0.0 0.0 13.8 0.0
03/03/19 02:18 13.7 98 13.4 0.0 0.0 0 0.0 0.0 1022.0 0.0 0.0 13.7 0.0
03/03/19 02:19 13.7 98 13.4 0.0 0.0 0 0.0 0.0 1022.0 0.0 0.0 13.7 0.0
03/03/19 02:20 13.7 98 13.4 0.0 0.0 0 0.0 0.0 1022.0 0.0 0.0 13.7 0.0
03/03/19 02:21 13.7 98 13.4 0.0 0.0 0 0.0 0.0 1022.0 0.0 0.0 13.7 0.0
03/03/19 02:22 13.7 98 13.4 0.0 0.0 0 0.0 0.0 1022.0 0.0 0.0 13.7 0.0
03/03/19 02:23 13.7 98 13.4 0.0 0.0 0 0.0 0.0 1022.0 0.0 0.0 13.7 0.0
03/03/19 02:24 13.6 98 13.3 0.0 0.0 0 0.0 0.0 1022.0 0.0 0.0 13.6 0.0
03/03/19 02:25 13.6 98 13.3 0.0 0.0 0 0.0 0.0 1022.0 0.0 0.0 13.6 0.0
03/03/19 02:26 13.6 98 13.3 0.0 0.0 0 0.0 0.0 1022.0 0.0 0.0 13.6 0.0
03/03/19 02:27 13.6 98 13.3 0.0 0.0 0 0.0 0.0 1022.0 0.0 0.0 13.6 0.0
03/03/19 02:28 13.5 98 13.2 0.0 0.0 0 0.0 0.0 1022.0 0.0 0.0 13.5 0.0
03/03/19 02:29 13.6 98 13.3 0.0 0.0 0 0.0 0.0 1022.0 0.0 0.0 13.6 0.0
03/03/19 02:33 13.5 98 13.2 0.0 0.0 0 0.0 0.0 1022.0 0.0 0.0 13.5 0.0
03/03/19 02:34 13.5 98 13.2 0.0 0.0 0 0.0 0.0 1022.0 0.0 0.0 13.5 0.0
03/03/19 02:35 13.5 98 13.2 0.0 0.0 0 0.0 0.0 1022.0 0.0 0.0 13.5 0.0
03/03/19 02:36 13.5 98 13.2 0.0 0.0 0 0.0 0.0 1022.0 0.0 0.0 13.5 0.0
03/03/19 02:37 13.5 98 13.2 0.0 0.0 0 0.0 0.0 1022.0 0.0 0.0 13.5 0.0
03/03/19 02:38 13.5 98 13.2 0.0 0.0 0 0.0 0.0 1022.0 0.0 0.0 13.5 0.0
03/03/19 02:39 13.5 98 13.2 0.0 0.0 0 0.0 0.0 1022.0 0.0 0.0 13.5 0.0
03/03/19 02:40 13.5 98 13.2 0.0 0.0 0 0.0 0.0 1022.0 0.0 0.0 13.5 0.0
03/03/19 02:41 13.4 98 13.1 0.0 0.0 0 0.0 0.0 1022.0 0.0 0.0 13.4 0.0
03/03/19 02:42 13.4 98 13.1 0.0 0.0 0 0.0 0.0 1022.0 0.0 0.0 13.4 0.0
03/03/19 02:43 13.4 98 13.1 0.0 0.0 0 0.0 0.0 1022.0 0.0 0.0 13.4 0.0
03/03/19 02:44 13.4 98 13.1 0.0 0.0 0 0.0 0.0 1022.0 0.0 0.0 13.4 0.0
03/03/19 02:45 13.4 98 13.1 0.0 0.0 0 0.0 0.0 1022.0 0.0 0.0 13.4 0.0
03/03/19 02:49 13.4 98 13.1 0.0 0.0 0 0.0 0.0 1022.0 0.0 0.0 13.4 0.0
03/03/19 02:50 13.4 98 13.1 0.0 0.0 0 0.0 0.0 1022.0 0.0 0.0 13.4 0.0
03/03/19 02:51 13.4 98 13.1 0.0 0.0 0 0.0 0.0 1022.0 0.0 0.0 13.4 0.0
03/03/19 02:52 13.5 98 13.2 0.0 0.0 0 0.0 0.0 1022.0 0.0 0.0 13.5 0.0
03/03/19 02:53 13.4 98 13.1 0.0 0.0 0 0.0 0.0 1021.0 0.0 0.0 13.4 0.0
03/03/19 02:54 13.5 98 13.2 0.0 0.0 0 0.0 0.0 1021.0 0.0 0.0 13.5 0.0
03/03/19 02:55 13.5 98 13.2 0.0 0.0 0 0.0 0.0 1021.0 0.0 0.0 13.5 0.0
03/03/19 02:56 13.5 98 13.2 0.0 0.0 0 0.0 0.0 1021.0 0.0 0.0 13.5 0.0
03/03/19 02:57 13.5 98 13.2 0.0 0.0 0 0.0 0.0 1021.0 0.0 0.0 13.5 0.0
03/03/19 02:58 13.5 98 13.2 0.0 0.0 0 0.0 0.0 1021.0 0.0 0.0 13.5 0.0
03/03/19 02:59 13.5 98 13.2 0.0 0.0 0 0.0 0.0 1021.0 0.0 0.0 13.5 0.0
03/03/19 03:00 13.5 98 13.2 0.0 0.0 0 0.0 0.0 1021.0 0.0 0.0 13.5 0.0
03/03/19 03:02 13.5 98 13.2 0.0 0.0 0 0.0 0.0 1021.0 0.0 0.0 13.5 0.0
03/03/19 03:03 13.5 98 13.2 0.0 0.0 0 0.0 0.0 1021.0 0.0 0.0 13.5 0.0
03/03/19 03:04 13.5 98 13.2 0.0 0.0 0 0.0 0.0 1021.0 0.0 0.0 13.5 0.0
03/03/19 03:05 13.5 98 13.2 0.0 0.0 0 0.0 0.0 1021.0 0.0 0.0 13.5 0.0
03/03/19 03:06 13.5 98 13.2 0.0 0.0 0 0.0 0.0 1021.0 0.0 0.0 13.5 0.0
03/03/19 03:07 13.5 98 13.2 0.0 0.0 0 0.0 0.0 1021.0 0.0 0.0 13.5 0.0
03/03/19 03:08 13.5 98 13.2 0.0 0.0 0 0.0 0.0 1021.0 0.0 0.0 13.5 0.0
03/03/19 03:09 13.5 98 13.2 0.0 0.0 0 0.0 0.0 1021.0 0.0 0.0 13.5 0.0
03/03/19 03:10 13.5 98 13.2 0.0 0.0 0 0.0 0.0 1021.0 0.0 0.0 13.5 0.0
03/03/19 03:11 13.5 98 13.2 0.0 0.0 0 0.0 0.0 1021.0 0.0 0.0 13.5 0.0
03/03/19 03:12 13.5 98 13.2 0.0 0.0 0 0.0 0.0 1021.0 0.0 0.0 13.5 0.0
03/03/19 03:13 13.5 98 13.2 0.0 0.0 0 0.0 0.0 1021.0 0.0 0.0 13.5 0.0
03/03/19 03:14 13.5 98 13.2 0.0 0.0 0 0.0 0.0 1021.0 0.0 0.0 13.5 0.0
03/03/19 03:15 13.5 98 13.2 0.0 0.0 0 0.0 0.0 1021.0 0.0 0.0 13.5 0.0
03/03/19 03:17 13.4 98 13.1 0.0 0.0 0 0.0 0.0 1021.0 0.0 0.0 13.4 0.0
03/03/19 03:18 13.4 98 13.1 0.0 0.0 0 0.0 0.0 1021.0 0.0 0.0 13.4 0.0
03/03/19 03:19 13.4 98 13.1 0.0 0.0 0 0.0 0.0 1021.0 0.0 0.0 13.4 0.0
03/03/19 03:20 13.3 98 13.0 0.0 0.0 0 0.0 0.0 1021.0 0.0 0.0 13.3 0.0
03/03/19 03:21 13.3 98 13.0 0.0 0.0 0 0.0 0.0 1021.0 0.0 0.0 13.3 0.0
03/03/19 03:22 13.3 98 13.0 0.0 0.0 0 0.0 0.0 1021.0 0.0 0.0 13.3 0.0
03/03/19 03:23 13.3 98 13.0 0.0 0.0 0 0.0 0.0 1021.0 0.0 0.0 13.3 0.0
03/03/19 03:24 13.3 98 13.0 0.0 0.0 0 0.0 0.0 1021.0 0.0 0.0 13.3 0.0
03/03/19 03:25 13.3 98 13.0 0.0 0.0 0 0.0 0.0 1021.0 0.0 0.0 13.3 0.0
03/03/19 03:26 13.3 98 13.0 0.0 0.0 0 0.0 0.0 1021.0 0.0 0.0 13.3 0.0
03/03/19 03:27 13.3 98 13.0 0.0 0.0 0 0.0 0.0 1021.0 0.0 0.0 13.3 0.0
03/03/19 03:28 13.3 98 13.0 0.0 0.0 0 0.0 0.0 1021.0 0.0 0.0 13.3 0.0
03/03/19 03:29 13.3 98 13.0 0.0 0.0 0 0.0 0.0 1021.0 0.0 0.0 13.3 0.0
03/03/19 03:30 13.2 98 12.9 0.0 0.0 0 0.0 0.0 1021.0 0.0 0.0 13.2 0.0
03/03/19 03:32 13.2 98 12.9 0.0 0.0 0 0.0 0.0 1021.0 0.0 0.0 13.2 0.0
03/03/19 03:33 13.2 98 12.9 0.0 0.0 0 0.0 0.0 1021.0 0.0 0.0 13.2 0.0
03/03/19 03:34 13.2 98 12.9 0.0 0.0 0 0.0 0.0 1021.0 0.0 0.0 13.2 0.0
03/03/19 03:35 13.2 98 12.9 0.0 0.0 0 0.0 0.0 1021.0 0.0 0.0 13.2 0.0
03/03/19 03:36 13.2 98 12.9 0.0 0.0 0 0.0 0.0 1021.0 0.0 0.0 13.2 0.0
03/03/19 03:37 13.2 98 12.9 0.0 0.0 0 0.0 0.0 1021.0 0.0 0.0 13.2 0.0
03/03/19 03:38 13.2 98 12.9 0.0 0.0 0 0.0 0.0 1021.0 0.0 0.0 13.2 0.0
03/03/19 03:39 13.2 98 12.9 0.0 0.0 0 0.0 0.0 1021.0 0.0 0.0 13.2 0.0
03/03/19 03:40 13.2 98 12.9 0.0 0.0 0 0.0 0.0 1021.0 0.0 0.0 13.2 0.0
03/03/19 03:41 13.2 98 12.9 0.0 0.0 0 0.0 0.0 1021.0 0.0 0.0 13.2 0.0
03/03/19 03:42 13.3 98 13.0 0.0 0.0 0 0.0 0.0 1021.0 0.0 0.0 13.3 0.0
03/03/19 03:43 13.2 98 12.9 0.0 0.0 0 0.0 0.0 1021.0 0.0 0.0 13.2 0.0
03/03/19 03:44 13.3 98 13.0 0.0 0.0 0 0.0 0.0 1021.0 0.0 0.0 13.3 0.0
03/03/19 03:45 13.3 98 13.0 0.0 0.0 0 0.0 0.0 1021.0 0.0 0.0 13.3 0.0
03/03/19 03:47 13.3 98 13.0 0.0 0.0 0 0.0 0.0 1021.0 0.0 0.0 13.3 0.0
03/03/19 03:48 13.3 98 13.0 0.0 0.0 0 0.0 0.0 1021.0 0.0 0.0 13.3 0.0
03/03/19 03:49 13.3 98 13.0 0.0 0.0 0 0.0 0.0 1021.0 0.0 0.0 13.3 0.0
03/03/19 03:50 13.3 98 13.0 0.0 0.0 0 0.0 0.0 1021.0 0.0 0.0 13.3 0.0
03/03/19 03:51 13.3 98 13.0 0.0 0.0 0 0.0 0.0 1021.0 0.0 0.0 13.3 0.0
03/03/19 03:52 13.3 98 13.0 0.0 0.0 0 0.0 0.0 1021.0 0.0 0.0 13.3 0.0
03/03/19 03:53 13.3 98 13.0 0.0 0.0 0 0.0 0.0 1021.0 0.0 0.0 13.3 0.0
03/03/19 03:54 13.3 98 13.0 0.0 0.0 0 0.0 0.0 1021.0 0.0 0.0 13.3 0.0
03/03/19 03:55 13.3 98 13.0 0.0 0.0 0 0.0 0.0 1021.0 0.0 0.0 13.3 0.0
03/03/19 03:56 13.3 98 13.0 0.0 0.0 0 0.0 0.0 1021.0 0.0 0.0 13.3 0.0
03/03/19 03:57 13.3 98 13.0 0.0 0.0 0 0.0 0.0 1021.0 0.0 0.0 13.3 0.0
03/03/19 03:58 13.3 98 13.0 0.0 0.0 0 0.0 0.0 1021.0 0.0 0.0 13.3 0.0
03/03/19 03:59 13.3 98 13.0 0.0 0.0 0 0.0 0.0 1021.0 0.0 0.0 13.3 0.0
03/03/19 04:00 13.3 98 13.0 0.0 0.0 0 0.0 0.0 1021.0 0.0 0.0 13.3 0.0
03/03/19 04:02 13.4 98 13.1 0.0 0.0 0 0.0 0.0 1021.0 0.0 0.0 13.4 0.0
03/03/19 04:03 13.3 98 13.0 0.0 0.0 0 0.0 0.0 1021.0 0.0 0.0 13.3 0.0
03/03/19 04:04 13.4 98 13.1 0.0 0.0 0 0.0 0.0 1021.0 0.0 0.0 13.4 0.0
03/03/19 04:05 13.3 98 13.0 0.0 0.0 0 0.0 0.0 1021.0 0.0 0.0 13.3 0.0
03/03/19 04:06 13.4 98 13.1 0.0 0.0 0 0.0 0.0 1021.0 0.0 0.0 13.4 0.0
03/03/19 04:07 13.4 98 13.1 0.0 0.0 0 0.0 0.0 1021.0 0.0 0.0 13.4 0.0
03/03/19 04:08 13.4 98 13.1 0.0 0.0 0 0.0 0.0 1021.0 0.0 0.0 13.4 0.0
03/03/19 04:09 13.4 98 13.1 0.0 0.0 0 0.0 0.0 1021.0 0.0 0.0 13.4 0.0
03/03/19 04:10 13.4 98 13.1 0.0 0.0 0 0.0 0.0 1021.0 0.0 0.0 13.4 0.0
03/03/19 04:11 13.4 98 13.1 0.0 0.0 0 0.0 0.0 1021.0 0.0 0.0 13.4 0.0
03/03/19 04:12 13.4 98 13.1 0.0 0.0 0 0.0 0.0 1021.0 0.0 0.0 13.4 0.0
03/03/19 04:13 13.4 98 13.1 0.0 0.0 0 0.0 0.0 1021.0 0.0 0.0 13.4 0.0
03/03/19 04:14 13.4 98 13.1 0.0 0.0 0 0.0 0.0 1021.0 0.0 0.0 13.4 0.0
03/03/19 04:15 13.5 98 13.2 0.0 0.0 0 0.0 0.0 1021.0 0.0 0.0 13.5 0.0
03/03/19 04:17 13.4 98 13.1 0.0 0.0 0 0.0 0.0 1021.0 0.0 0.0 13.4 0.0
03/03/19 04:18 13.4 98 13.1 0.0 0.0 0 0.0 0.0 1021.0 0.0 0.0 13.4 0.0
03/03/19 04:19 13.4 98 13.1 0.0 0.0 0 0.0 0.0 1021.0 0.0 0.0 13.4 0.0
03/03/19 04:20 13.4 98 13.1 0.0 0.0 0 0.0 0.0 1021.0 0.0 0.0 13.4 0.0
03/03/19 04:21 13.4 98 13.1 0.0 0.0 0 0.0 0.0 1021.0 0.0 0.0 13.4 0.0
03/03/19 04:22 13.4 98 13.1 0.0 0.0 0 0.0 0.0 1021.0 0.0 0.0 13.4 0.0
03/03/19 04:23 13.4 98 13.1 0.0 0.0 0 0.0 0.0 1021.0 0.0 0.0 13.4 0.0
03/03/19 04:24 13.4 98 13.1 0.0 0.0 0 0.0 0.0 1021.0 0.0 0.0 13.4 0.0
03/03/19 04:25 13.4 98 13.1 0.0 0.0 0 0.0 0.0 1021.0 0.0 0.0 13.4 0.0
03/03/19 04:26 13.4 98 13.1 0.0 0.0 0 0.0 0.0 1021.0 0.0 0.0 13.4 0.0
03/03/19 04:27 13.5 98 13.2 0.0 0.0 0 0.0 0.0 1021.0 0.0 0.0 13.5 0.0
03/03/19 04:28 13.4 98 13.1 0.0 0.0 0 0.0 0.0 1021.0 0.0 0.0 13.4 0.0
03/03/19 04:29 13.4 98 13.1 0.0 0.0 0 0.0 0.0 1021.0 0.0 0.0 13.4 0.0
03/03/19 04:30 13.4 98 13.1 0.0 0.0 0 0.0 0.0 1021.0 0.0 0.0 13.4 0.0
03/03/19 04:33 13.4 98 13.1 0.0 0.0 0 0.0 0.0 1021.0 0.0 0.0 13.4 0.0
03/03/19 04:34 13.4 98 13.1 0.0 0.0 0 0.0 0.0 1021.0 0.0 0.0 13.4 0.0
03/03/19 04:35 13.4 98 13.1 0.0 0.0 0 0.0 0.0 1021.0 0.0 0.0 13.4 0.0
03/03/19 04:36 13.4 98 13.1 0.0 0.0 0 0.0 0.0 1021.0 0.0 0.0 13.4 0.0
03/03/19 04:37 13.4 98 13.1 0.0 0.0 0 0.0 0.0 1021.0 0.0 0.0 13.4 0.0
03/03/19 04:38 13.4 98 13.1 0.0 0.0 0 0.0 0.0 1021.0 0.0 0.0 13.4 0.0
03/03/19 04:39 13.4 98 13.1 0.0 0.0 0 0.0 0.0 1021.0 0.0 0.0 13.4 0.0
03/03/19 04:40 13.4 98 13.1 0.0 0.0 0 0.0 0.0 1021.0 0.0 0.0 13.4 0.0
03/03/19 04:41 13.5 98 13.2 0.0 0.0 0 0.0 0.0 1021.0 0.0 0.0 13.5 0.0
03/03/19 04:42 13.5 98 13.2 0.0 0.0 0 0.0 0.0 1021.0 0.0 0.0 13.5 0.0
03/03/19 04:43 13.5 98 13.2 0.0 0.0 0 0.0 0.0 1021.0 0.0 0.0 13.5 0.0
03/03/19 04:44 13.5 98 13.2 0.0 0.0 0 0.0 0.0 1021.0 0.0 0.0 13.5 0.0
03/03/19 04:45 13.5 98 13.2 0.0 0.0 0 0.0 0.0 1021.0 0.0 0.0 13.5 0.0
03/03/19 04:48 13.5 98 13.2 0.0 0.0 0 0.0 0.0 1021.0 0.0 0.0 13.5 0.0
03/03/19 04:49 13.5 98 13.2 0.0 0.0 0 0.0 0.0 1021.0 0.0 0.0 13.5 0.0
03/03/19 04:50 13.5 98 13.2 0.0 0.0 0 0.0 0.0 1021.0 0.0 0.0 13.5 0.0
03/03/19 04:51 13.5 98 13.2 0.0 0.0 0 0.0 0.0 1021.0 0.0 0.0 13.5 0.0
03/03/19 04:52 13.5 98 13.2 0.0 0.0 0 0.0 0.0 1021.0 0.0 0.0 13.5 0.0
03/03/19 04:53 13.5 98 13.2 0.0 0.0 0 0.0 0.0 1021.0 0.0 0.0 13.5 0.0
03/03/19 04:54 13.5 98 13.2 0.0 0.0 0 0.0 0.0 1021.0 0.0 0.0 13.5 0.0
03/03/19 04:55 13.5 98 13.2 0.0 0.0 0 0.0 0.0 1021.0 0.0 0.0 13.5 0.0
03/03/19 04:56 13.6 98 13.3 0.0 0.0 0 0.0 0.0 1021.0 0.0 0.0 13.6 0.0
03/03/19 04:57 13.6 98 13.3 0.0 0.0 0 0.0 0.0 1021.0 0.0 0.0 13.6 0.0
03/03/19 04:58 13.6 98 13.3 0.0 0.0 0 0.0 0.0 1021.0 0.0 0.0 13.6 0.0
03/03/19 04:59 13.6 98 13.3 0.0 0.0 0 0.0 0.0 1021.0 0.0 0.0 13.6 0.0
03/03/19 05:00 13.7 98 13.4 0.0 0.0 0 0.0 0.0 1021.0 0.0 0.0 13.7 0.0
03/03/19 05:18 13.7 98 13.4 0.0 0.0 0 0.0 0.0 1021.0 0.0 0.0 13.7 0.0
03/03/19 05:19 13.7 98 13.4 0.0 0.0 0 0.0 0.0 1021.0 0.0 0.0 13.7 0.0
03/03/19 05:20 13.7 98 13.4 0.0 0.0 0 0.0 0.0 1021.0 0.0 0.0 13.7 0.0
03/03/19 05:21 13.7 98 13.4 0.0 0.0 0 0.0 0.0 1021.0 0.0 0.0 13.7 0.0
03/03/19 05:22 13.7 98 13.4 0.0 0.0 0 0.0 0.0 1021.0 0.0 0.0 13.7 0.0
03/03/19 05:23 13.7 98 13.4 0.0 0.0 0 0.0 0.0 1021.0 0.0 0.0 13.7 0.0
03/03/19 05:24 13.7 98 13.4 0.0 0.0 0 0.0 0.0 1021.0 0.0 0.0 13.7 0.0
03/03/19 05:25 13.7 98 13.4 0.0 0.0 0 0.0 0.0 1021.0 0.0 0.0 13.7 0.0
03/03/19 05:26 13.8 98 13.5 0.0 0.0 0 0.0 0.0 1021.0 0.0 0.0 13.8 0.0
03/03/19 05:27 13.8 98 13.5 0.0 0.0 0 0.0 0.0 1021.0 0.0 0.0 13.8 0.0
03/03/19 05:28 13.8 98 13.5 0.0 0.0 0 0.0 0.0 1021.0 0.0 0.0 13.8 0.0
03/03/19 05:29 13.7 98 13.4 0.0 0.0 0 0.0 0.0 1021.0 0.0 0.0 13.7 0.0
03/03/19 05:30 13.8 98 13.5 0.0 0.0 0 0.0 0.0 1021.0 0.0 0.0 13.8 0.0
03/03/19 05:33 13.8 98 13.5 0.0 0.0 0 0.0 0.0 1021.0 0.0 0.0 13.8 0.0
03/03/19 05:34 13.8 98 13.5 0.0 0.0 0 0.0 0.0 1021.0 0.0 0.0 13.8 0.0
03/03/19 05:35 13.8 98 13.5 0.0 0.0 0 0.0 0.0 1021.0 0.0 0.0 13.8 0.0
03/03/19 05:36 13.8 98 13.5 0.0 0.0 0 0.0 0.0 1021.0 0.0 0.0 13.8 0.0
03/03/19 05:37 13.8 98 13.5 0.0 0.0 0 0.0 0.0 1021.0 0.0 0.0 13.8 0.0
03/03/19 05:38 13.8 98 13.5 0.0 0.0 0 0.0 0.0 1022.0 0.0 0.0 13.8 0.0
03/03/19 05:39 13.8 98 13.5 0.0 0.0 0 0.0 0.0 1022.0 0.0 0.0 13.8 0.0
03/03/19 05:40 13.8 98 13.5 0.0 0.0 0 0.0 0.0 1022.0 0.0 0.0 13.8 0.0
03/03/19 05:41 13.8 98 13.5 0.0 0.0 0 0.0 0.0 1022.0 0.0 0.0 13.8 0.0
03/03/19 05:42 13.8 98 13.5 0.0 0.0 0 0.0 0.0 1022.0 0.0 0.0 13.8 0.0
03/03/19 05:43 13.8 98 13.5 0.0 0.0 0 0.0 0.0 1022.0 0.0 0.0 13.8 0.0
03/03/19 05:44 13.8 98 13.5 0.0 0.0 0 0.0 0.0 1022.0 0.0 0.0 13.8 0.0
03/03/19 05:45 13.8 98 13.5 0.0 0.0 0 0.0 0.0 1022.0 0.0 0.0 13.8 0.0
03/03/19 05:48 13.8 98 13.5 0.0 0.0 0 0.0 0.0 1022.0 0.0 0.0 13.8 0.0
03/03/19 05:49 13.8 98 13.5 0.0 0.0 0 0.0 0.0 1022.0 0.0 0.0 13.8 0.0
03/03/19 05:50 13.8 98 13.5 0.0 0.0 0 0.0 0.0 1022.0 0.0 0.0 13.8 0.0
03/03/19 05:51 13.8 98 13.5 0.0 0.0 0 0.0 0.0 1022.0 0.0 0.0 13.8 0.0
03/03/19 05:52 13.8 98 13.5 0.0 0.0 0 0.0 0.0 1022.0 0.0 0.0 13.8 0.0
03/03/19 05:53 13.7 98 13.4 0.0 0.0 0 0.0 0.0 1022.0 0.0 0.0 13.7 0.0
03/03/19 05:54 13.7 98 13.4 0.0 0.0 0 0.0 0.0 1022.0 0.0 0.0 13.7 0.0
03/03/19 05:55 13.7 98 13.4 0.0 0.0 0 0.0 0.0 1022.0 0.0 0.0 13.7 0.0
03/03/19 05:56 13.7 98 13.4 0.0 0.0 0 0.0 0.0 1022.0 0.0 0.0 13.7 0.0
03/03/19 05:57 13.7 98 13.4 0.0 0.0 0 0.0 0.0 1022.0 0.0 0.0 13.7 0.0
03/03/19 05:58 13.7 98 13.4 0.0 0.0 0 0.0 0.0 1022.0 0.0 0.0 13.7 0.0
03/03/19 05:59 13.7 98 13.4 0.0 0.0 0 0.0 0.0 1022.0 0.0 0.0 13.7 0.0
03/03/19 06:00 13.7 98 13.4 0.0 0.0 0 0.0 0.0 1022.0 0.0 0.0 13.7 0.0
03/03/19 06:03 13.7 98 13.4 0.0 0.0 0 0.0 0.0 1022.0 0.0 0.0 13.7 0.0
03/03/19 06:04 13.7 98 13.4 0.0 0.0 0 0.0 0.0 1022.0 0.0 0.0 13.7 0.0
03/03/19 06:05 13.8 98 13.5 0.0 0.0 0 0.0 0.0 1022.0 0.0 0.0 13.8 0.0
03/03/19 06:06 13.8 98 13.5 0.0 0.0 0 0.0 0.0 1022.0 0.0 0.0 13.8 0.0
03/03/19 06:07 13.8 98 13.5 0.0 0.0 0 0.0 0.0 1022.0 0.0 0.0 13.8 0.0
03/03/19 06:08 13.8 98 13.5 0.0 0.0 0 0.0 0.0 1022.0 0.0 0.0 13.8 0.0
03/03/19 06:09 13.8 98 13.5 0.0 0.0 0 0.0 0.0 1022.0 0.0 0.0 13.8 0.0
03/03/19 06:10 13.8 98 13.5 0.0 0.0 0 0.0 0.0 1022.0 0.0 0.0 13.8 0.0
03/03/19 06:11 13.8 98 13.5 0.0 0.0 0 0.0 0.0 1022.0 0.0 0.0 13.8 0.0
03/03/19 06:12 13.8 98 13.5 0.0 0.0 0 0.0 0.0 1022.0 0.0 0.0 13.8 0.0
03/03/19 06:13 13.8 98 13.5 0.0 0.0 0 0.0 0.0 1022.0 0.0 0.0 13.8 0.0
03/03/19 06:14 13.8 98 13.5 0.0 0.0 0 0.0 0.0 1022.0 0.0 0.0 13.8 0.0
03/03/19 06:15 13.8 98 13.5 0.0 0.0 0 0.0 0.0 1022.0 0.0 0.0 13.8 0.0
03/03/19 06:18 13.8 98 13.5 0.0 0.0 0 0.0 0.0 1022.0 0.0 0.0 13.8 0.0
03/03/19 06:19 13.8 98 13.5 0.0 0.0 0 0.0 0.0 1022.0 0.0 0.0 13.8 0.0
03/03/19 06:20 13.8 98 13.5 0.0 0.0 0 0.0 0.0 1022.0 0.0 0.0 13.8 0.0
03/03/19 06:21 13.8 98 13.5 0.0 0.0 0 0.0 0.0 1022.0 0.0 0.0 13.8 0.0
03/03/19 06:22 13.8 98 13.5 0.0 0.0 0 0.0 0.0 1022.0 0.0 0.0 13.8 0.0
03/03/19 06:23 13.8 98 13.5 0.0 0.0 0 0.0 0.0 1022.0 0.0 0.0 13.8 0.0
03/03/19 06:24 13.8 98 13.5 0.0 0.0 0 0.0 0.0 1022.0 0.0 0.0 13.8 0.0
03/03/19 06:25 13.9 98 13.6 0.0 0.0 0 0.0 0.0 1022.0 0.0 0.0 13.9 0.0
03/03/19 06:26 13.9 98 13.6 0.0 0.0 0 0.0 0.0 1022.0 0.0 0.0 13.9 0.0
03/03/19 06:27 13.9 98 13.6 0.0 0.0 0 0.0 0.0 1022.0 0.0 0.0 13.9 0.0
03/03/19 06:28 13.9 98 13.6 0.0 0.0 0 0.0 0.0 1022.0 0.0 0.0 13.9 0.0
03/03/19 06:29 13.9 98 13.6 0.0 0.0 0 0.0 0.0 1022.0 0.0 0.0 13.9 0.0
03/03/19 06:33 13.8 98 13.5 0.0 0.0 0 0.0 0.0 1022.0 0.0 0.0 13.8 0.0
03/03/19 06:34 13.8 98 13.5 0.0 0.0 0 0.0 0.0 1022.0 0.0 0.0 13.8 0.0
03/03/19 06:35 13.8 98 13.5 0.0 0.0 0 0.0 0.0 1022.0 0.0 0.0 13.8 0.0
03/03/19 06:36 13.8 98 13.5 0.0 0.0 0 0.0 0.0 1022.0 0.0 0.0 13.8 0.0
03/03/19 06:37 13.8 98 13.5 0.0 0.0 0 0.0 0.0 1022.0 0.0 0.0 13.8 0.0
03/03/19 06:38 13.8 98 13.5 0.0 0.0 0 0.0 0.0 1022.0 0.0 0.0 13.8 0.0
03/03/19 06:39 13.8 98 13.5 0.0 0.0 0 0.0 0.0 1022.0 0.0 0.0 13.8 0.0
03/03/19 06:40 13.8 98 13.5 0.0 0.0 0 0.0 0.0 1022.0 0.0 0.0 13.8 0.0
03/03/19 06:41 13.8 98 13.5 0.0 0.0 0 0.0 0.0 1022.0 0.0 0.0 13.8 0.0
03/03/19 06:42 13.8 98 13.5 0.0 0.0 0 0.0 0.0 1022.0 0.0 0.0 13.8 0.0
03/03/19 06:43 13.8 98 13.5 0.0 0.0 0 0.0 0.0 1022.0 0.0 0.0 13.8 0.0
03/03/19 06:44 13.8 98 13.5 0.0 0.0 0 0.0 0.0 1022.0 0.0 0.0 13.8 0.0
03/03/19 06:48 13.8 98 13.5 0.0 0.0 0 0.0 0.0 1022.0 0.0 0.0 13.8 0.0
03/03/19 06:49 13.8 98 13.5 0.0 0.0 0 0.0 0.0 1022.0 0.0 0.0 13.8 0.0
03/03/19 06:50 13.8 98 13.5 0.0 0.0 0 0.0 0.0 1022.0 0.0 0.0 13.8 0.0
03/03/19 06:51 13.8 98 13.5 0.0 0.0 0 0.0 0.0 1022.0 0.0 0.0 13.8 0.0
03/03/19 06:52 13.8 98 13.5 0.0 0.0 0 0.0 0.0 1022.0 0.0 0.0 13.8 0.0
03/03/19 06:53 13.7 98 13.4 0.0 0.0 0 0.0 0.0 1022.0 0.0 0.0 13.7 0.0
03/03/19 06:54 13.8 98 13.5 0.0 0.0 0 0.0 0.0 1022.0 0.0 0.0 13.8 0.0
03/03/19 06:55 13.7 98 13.4 0.0 0.0 0 0.0 0.0 1022.0 0.0 0.0 13.7 0.0
03/03/19 06:56 13.7 98 13.4 0.0 0.0 0 0.0 0.0 1022.0 0.0 0.0 13.7 0.0
03/03/19 06:57 13.7 98 13.4 0.0 0.0 0 0.0 0.0 1022.0 0.0 0.0 13.7 0.0
03/03/19 06:58 13.7 98 13.4 0.0 0.0 0 0.0 0.0 1022.0 0.0 0.0 13.7 0.0
03/03/19 06:59 13.7 98 13.4 0.0 0.0 0 0.0 0.0 1022.0 0.0 0.0 13.7 0.0
03/03/19 07:00 13.7 98 13.4 0.0 0.0 0 0.0 0.0 1022.0 0.0 0.0 13.7 0.0
03/03/19 07:03 13.6 98 13.3 0.0 0.0 0 0.0 0.0 1022.0 0.0 0.0 13.6 0.0
03/03/19 07:04 13.6 98 13.3 0.0 0.0 0 0.0 0.0 1022.0 0.0 0.0 13.6 0.0
03/03/19 07:05 13.7 98 13.4 0.0 0.0 0 0.0 0.0 1022.0 0.0 0.0 13.7 0.0
03/03/19 07:06 13.7 98 13.4 0.0 0.0 0 0.0 0.0 1022.0 0.0 0.0 13.7 0.0
03/03/19 07:07 13.7 98 13.4 0.0 0.0 0 0.0 0.0 1022.0 0.0 0.0 13.7 0.0
03/03/19 07:08 13.7 98 13.4 0.0 0.0 0 0.0 0.0 1022.0 0.0 0.0 13.7 0.0
03/03/19 07:09 13.7 98 13.4 0.0 0.0 0 0.0 0.0 1022.0 0.0 0.0 13.7 0.0
03/03/19 07:10 13.6 98 13.3 0.0 0.0 0 0.0 0.0 1022.0 0.0 0.0 13.6 0.0
03/03/19 07:11 13.7 98 13.4 0.0 0.0 0 0.0 0.0 1022.0 0.0 0.0 13.7 0.0
03/03/19 07:12 13.7 98 13.4 0.0 0.0 0 0.0 0.0 1022.0 0.0 0.0 13.7 0.0
03/03/19 07:13 13.7 98 13.4 0.0 0.0 0 0.0 0.0 1022.0 0.0 0.0 13.7 0.0
03/03/19 07:14 13.7 98 13.4 0.0 0.0 0 0.0 0.0 1022.0 0.0 0.0 13.7 0.0
03/03/19 07:15 13.7 98 13.4 0.0 0.0 0 0.0 0.0 1022.0 0.0 0.0 13.7 0.0
03/03/19 07:18 13.7 98 13.4 0.0 0.0 0 0.0 0.0 1022.0 0.0 0.0 13.7 0.0
03/03/19 07:19 13.8 98 13.5 0.0 0.0 0 0.0 0.0 1022.0 0.0 0.0 13.8 0.0
03/03/19 07:20 13.8 98 13.5 0.0 0.0 0 0.0 0.0 1022.0 0.0 0.0 13.8 0.0
03/03/19 07:21 13.8 98 13.5 0.0 0.0 0 0.0 0.0 1022.0 0.0 0.0 13.8 0.0
03/03/19 07:22 13.8 98 13.5 0.0 0.0 0 0.0 0.0 1022.0 0.0 0.0 13.8 0.0
03/03/19 07:23 13.8 98 13.5 0.0 0.0 0 0.0 0.0 1022.0 0.0 0.0 13.8 0.0
03/03/19 07:24 13.8 98 13.5 0.0 0.0 0 0.0 0.0 1022.0 0.0 0.0 13.8 0.0
03/03/19 07:25 13.8 98 13.5 0.0 0.0 0 0.0 0.0 1022.0 0.0 0.0 13.8 0.0
03/03/19 07:26 13.9 98 13.6 0.0 0.0 0 0.0 0.0 1022.0 0.0 0.0 13.9 0.0
03/03/19 07:27 13.9 98 13.6 0.0 0.0 0 0.0 0.0 1022.0 0.0 0.0 13.9 0.0
03/03/19 07:33 14.0 98 13.7 0.0 0.0 0 0.0 0.0 1022.0 0.0 0.0 14.0 0.0
03/03/19 07:34 14.0 98 13.7 0.0 0.0 0 0.0 0.0 1022.0 0.0 0.0 14.0 0.0
03/03/19 07:35 14.0 98 13.7 0.0 0.0 0 0.0 0.0 1022.0 0.0 0.0 14.0 0.0
03/03/19 07:36 14.1 98 13.8 0.0 0.0 0 0.0 0.0 1022.0 0.0 0.0 14.1 0.0
03/03/19 07:37 14.1 98 13.8 0.0 0.0 0 0.0 0.0 1022.0 0.0 0.0 14.1 0.0
03/03/19 07:38 14.1 98 13.8 0.0 0.0 0 0.0 0.0 1023.0 0.0 0.0 14.1 0.0
03/03/19 07:39 14.1 98 13.8 0.0 0.0 0 0.0 0.0 1023.0 0.0 0.0 14.1 0.0
03/03/19 07:40 14.1 98 13.8 0.0 0.0 0 0.0 0.0 1023.0 0.0 0.0 14.1 0.0
03/03/19 07:41 14.1 98 13.8 0.0 0.0 0 0.0 0.0 1023.0 0.0 0.0 14.1 0.0
03/03/19 07:42 14.2 98 13.9 0.0 0.0 0 0.0 0.0 1023.0 0.0 0.0 14.2 0.0
03/03/19 07:43 14.2 98 13.9 0.0 0.0 0 0.0 0.0 1023.0 0.0 0.0 14.2 0.0
03/03/19 07:44 14.3 98 14.0 0.0 0.0 0 0.0 0.0 1023.0 0.0 0.0 14.3 0.0
03/03/19 07:45 14.4 98 14.1 0.0 0.0 0 0.0 0.0 1023.0 0.0 0.0 14.4 0.0
03/03/19 08:03 16.2 98 15.9 0.0 0.0 0 0.0 0.0 1023.0 0.0 0.0 16.2 0.0
03/03/19 08:18 17.3 97 16.8 0.0 0.0 0 0.0 0.0 1024.0 0.0 0.0 17.3 0.0
03/03/19 08:19 17.3 97 16.8 0.0 0.0 0 0.0 0.0 1024.0 0.0 0.0 17.3 0.0
03/03/19 08:20 17.7 97 17.2 0.0 0.0 0 0.0 0.0 1024.0 0.0 0.0 17.7 0.0
03/03/19 08:21 17.7 97 17.2 0.0 0.0 0 0.0 0.0 1024.0 0.0 0.0 17.7 0.0
03/03/19 08:22 17.7 96 17.1 0.0 0.0 0 0.0 0.0 1024.0 0.0 0.0 17.7 0.0
03/03/19 08:23 17.7 96 17.1 0.0 0.0 0 0.0 0.0 1023.0 0.0 0.0 17.7 0.0
03/03/19 08:24 17.8 96 17.2 0.0 0.0 0 0.0 0.0 1023.0 0.0 0.0 17.8 0.0
03/03/19 08:25 17.9 96 17.3 0.0 0.0 0 0.0 0.0 1023.0 0.0 0.0 17.9 0.0
03/03/19 08:26 17.8 96 17.2 0.0 0.0 0 0.0 0.0 1023.0 0.0 0.0 17.8 0.0
03/03/19 08:27 17.9 96 17.3 0.0 0.0 0 0.0 0.0 1023.0 0.0 0.0 17.9 0.0
03/03/19 08:28 18.0 95 17.2 0.0 0.0 0 0.0 0.0 1023.0 0.0 0.0 18.0 0.0
03/03/19 08:29 18.0 94 17.0 0.0 0.0 0 0.0 0.0 1023.0 0.0 0.0 18.0 0.0
03/03/19 08:30 18.0 94 17.0 0.0 0.0 0 0.0 0.0 1023.0 0.0 0.0 18.0 0.0
03/03/19 08:33 18.2 93 17.0 0.0 0.0 0 0.0 0.0 1023.0 0.0 0.0 18.2 0.0
03/03/19 08:34 18.1 92 16.8 0.0 0.0 0 0.0 0.0 1023.0 0.0 0.0 18.1 0.0
03/03/19 08:35 18.2 92 16.9 0.0 0.0 0 0.0 0.0 1023.0 0.0 0.0 18.2 0.0
03/03/19 08:36 18.1 91 16.6 0.0 0.0 0 0.0 0.0 1023.0 0.0 0.0 18.1 0.0
03/03/19 08:37 18.1 91 16.6 0.0 0.0 0 0.0 0.0 1023.0 0.0 0.0 18.1 0.0
03/03/19 08:38 18.0 90 16.3 0.0 0.0 0 0.0 0.0 1024.0 0.0 0.0 18.0 0.0
03/03/19 08:39 18.0 90 16.3 0.0 0.0 0 0.0 0.0 1024.0 0.0 0.0 18.0 0.0
03/03/19 08:40 18.1 90 16.4 0.0 0.0 0 0.0 0.0 1024.0 0.0 0.0 18.1 0.0
03/03/19 08:41 18.3 90 16.6 0.0 0.0 0 0.0 0.0 1024.0 0.0 0.0 18.3 0.0
03/03/19 08:42 18.4 90 16.7 0.0 0.0 0 0.0 0.0 1024.0 0.0 0.0 18.4 0.0
03/03/19 08:43 18.7 90 17.0 0.0 0.0 0 0.0 0.0 1024.0 0.0 0.0 18.7 0.0
03/03/19 08:44 18.9 90 17.2 0.0 0.0 0 0.0 0.0 1024.0 0.0 0.0 18.9 0.0
03/03/19 08:45 18.8 90 17.1 0.0 0.0 0 0.0 0.0 1024.0 0.0 0.0 18.8 0.0
03/03/19 08:48 19.1 88 17.1 4.0 1.4 45 0.0 0.0 1024.0 1.4 19.1 19.1 0.0
03/03/19 08:49 19.3 88 17.3 4.0 1.4 45 0.0 0.0 1024.0 1.4 19.1 19.3 0.0
03/03/19 08:50 19.4 87 17.2 4.0 1.4 45 0.0 0.0 1024.0 1.4 19.3 19.4 0.0
03/03/19 08:51 19.4 86 17.0 4.0 1.4 45 0.0 0.0 1024.0 1.4 19.4 19.4 0.0
03/03/19 08:52 19.5 86 17.1 4.0 1.4 45 0.0 0.0 1024.0 1.4 19.4 19.5 0.0
03/03/19 08:53 19.6 85 17.0 4.0 1.4 45 0.0 0.0 1022.0 1.4 19.5 19.6 0.0
03/03/19 08:54 19.5 84 16.7 4.0 1.4 45 0.0 0.0 1022.0 1.4 19.6 19.5 0.0
03/03/19 08:55 19.3 82 16.1 4.0 1.4 45 0.0 0.0 1022.0 1.4 19.5 19.3 0.0
03/03/19 08:56 19.4 82 16.2 4.0 1.4 45 0.0 0.0 1022.0 1.4 19.3 19.4 0.0
03/03/19 08:57 19.4 81 16.1 4.7 6.5 68 0.0 0.0 1022.0 6.5 19.4 19.4 0.0
03/03/19 08:58 19.8 82 16.6 4.0 6.5 96 0.0 0.0 1022.0 2.5 19.5 19.8 0.0
03/03/19 08:59 19.9 81 16.5 4.0 6.5 102 0.0 0.0 1022.0 2.5 19.8 19.9 0.0
03/03/19 09:02 19.9 79 16.1 4.0 6.5 75 0.0 0.0 1022.0 2.5 0.0 19.9 0.0
03/03/19 09:03 19.7 78 15.8 4.0 6.5 84 0.0 0.0 1022.0 2.5 19.9 19.7 0.0
03/03/19 09:04 19.6 78 15.7 4.0 6.5 92 0.0 0.0 1022.0 2.5 19.7 19.6 0.0
03/03/19 09:05 19.7 79 16.0 4.0 6.5 103 0.0 0.0 1022.0 2.5 19.7 19.7 0.0
03/03/19 09:06 19.7 78 15.8 4.0 6.5 109 0.0 0.0 1022.0 2.5 19.7 19.7 0.0
03/03/19 09:07 19.8 78 15.9 4.0 6.5 114 0.0 0.0 1022.0 2.5 19.7 19.8 0.0
03/03/19 09:08 19.8 79 16.1 4.0 2.5 128 0.0 0.0 1022.0 2.5 19.8 19.8 0.0
03/03/19 09:18 20.5 75 15.9 5.8 10.4 134 0.0 0.0 1022.0 10.4 20.4 20.5 0.0
03/03/19 09:19 20.6 75 16.0 5.8 10.4 135 0.0 0.0 1022.0 10.4 20.5 20.6 0.0
03/03/19 09:20 21.0 74 16.2 5.8 10.4 135 0.0 0.0 1022.0 10.4 20.8 21.0 0.0
03/03/19 09:21 21.0 73 16.0 5.8 10.4 135 0.0 0.0 1022.0 10.4 21.0 21.0 0.0
03/03/19 09:22 20.8 72 15.6 5.8 10.4 135 0.0 0.0 1022.0 10.4 21.0 20.8 0.0
03/03/19 09:23 20.6 71 15.2 5.8 10.4 135 0.0 0.0 1022.0 10.4 20.8 20.6 0.0
03/03/19 09:24 20.5 72 15.3 5.8 10.4 135 0.0 0.0 1022.0 10.4 20.6 20.5 0.0
03/03/19 09:25 20.4 72 15.2 5.8 10.4 135 0.0 0.0 1022.0 10.4 20.5 20.4 0.0
03/03/19 09:26 20.1 71 14.7 5.8 10.4 135 0.0 0.0 1022.0 10.4 20.4 20.1 0.0
03/03/19 09:27 20.0 71 14.6 5.8 10.4 135 0.0 0.0 1022.0 10.4 20.4 20.0 0.0
03/03/19 09:28 20.2 73 15.2 5.8 10.4 135 0.0 0.0 1022.0 10.4 20.4 20.2 0.0
03/03/19 09:29 20.2 73 15.2 5.8 10.4 135 0.0 0.0 1022.0 10.4 20.4 20.2 0.0
03/03/19 09:30 20.3 72 15.1 5.8 10.4 135 0.0 0.0 1022.0 10.4 20.4 20.3 0.0
03/03/19 09:33 20.4 71 15.0 4.3 10.4 132 0.0 0.0 1022.0 4.3 0.0 20.4 0.0
03/03/19 09:34 20.4 71 15.0 4.3 10.4 129 0.0 0.0 1022.0 4.3 20.4 20.4 0.0
03/03/19 09:35 20.3 70 14.6 6.1 10.4 126 0.0 0.0 1022.0 9.4 20.3 20.3 0.0
03/03/19 09:36 20.4 71 15.0 6.1 10.4 127 0.0 0.0 1022.0 9.4 20.3 20.4 0.0
03/03/19 09:37 20.3 70 14.6 6.1 10.4 127 0.0 0.0 1022.0 9.4 20.4 20.3 0.0
03/03/19 09:38 20.3 70 14.6 6.1 10.4 129 0.0 0.0 1022.0 4.0 20.3 20.3 0.0
03/03/19 09:39 20.4 70 14.7 6.1 10.4 131 0.0 0.0 1022.0 4.0 20.3 20.4 0.0
03/03/19 09:40 20.5 69 14.6 5.0 10.4 139 0.0 0.0 1022.0 5.8 20.4 20.5 0.0
03/03/19 09:41 20.6 69 14.7 4.0 9.4 144 0.0 0.0 1022.0 5.0 20.6 20.6 0.0
03/03/19 09:42 20.7 70 15.0 4.0 9.4 143 0.0 0.0 1022.0 5.0 20.6 20.7 0.0
03/03/19 09:43 20.6 69 14.7 4.0 9.4 144 0.0 0.0 1022.0 5.0 20.7 20.6 0.0
03/03/19 09:44 20.6 69 14.7 4.0 9.4 145 0.0 0.0 1022.0 5.0 20.6 20.6 0.0
03/03/19 09:45 20.6 70 14.9 3.2 9.4 154 0.0 0.0 1022.0 4.3 20.6 20.6 0.0
03/03/19 09:47 20.9 70 15.2 3.2 9.4 138 0.0 0.0 1022.0 4.7 20.9 20.9 0.0
03/03/19 09:48 20.9 70 15.2 3.2 5.8 139 0.0 0.0 1022.0 4.7 20.9 20.9 0.0
03/03/19 09:49 20.8 69 14.9 4.3 5.8 136 0.0 0.0 1022.0 4.3 20.8 20.8 0.0
03/03/19 09:50 20.9 69 15.0 4.7 6.8 139 0.0 0.0 1022.0 6.8 20.9 20.9 0.0
03/03/19 09:51 20.9 69 15.0 4.0 6.8 143 0.0 0.0 1022.0 3.2 20.9 20.9 0.0
03/03/19 09:52 20.9 69 15.0 4.0 6.8 143 0.0 0.0 1022.0 3.2 20.9 20.9 0.0
03/03/19 09:53 20.9 69 15.0 4.0 6.8 143 0.0 0.0 1023.0 3.2 20.9 20.9 0.0
03/03/19 09:54 20.9 67 14.5 4.0 6.8 142 0.0 0.0 1023.0 3.2 20.9 20.9 0.0
03/03/19 09:55 20.9 67 14.5 4.0 6.8 142 0.0 0.0 1023.0 3.2 20.9 20.9 0.0
03/03/19 09:56 21.0 68 14.9 4.0 6.8 140 0.0 0.0 1023.0 3.2 20.9 21.0 0.0
03/03/19 09:57 20.9 68 14.8 4.0 6.8 139 0.0 0.0 1023.0 3.2 21.0 20.9 0.0
03/03/19 09:58 20.6 67 14.3 4.0 6.8 140 0.0 0.0 1023.0 3.2 20.8 20.6 0.0
03/03/19 10:03 20.7 67 14.4 4.0 3.2 139 0.0 0.0 1023.0 3.2 20.6 20.7 0.0
03/03/19 10:04 20.9 68 14.8 3.6 4.3 137 0.0 0.0 1023.0 4.3 20.7 20.9 0.0
03/03/19 10:05 21.0 67 14.6 3.6 4.3 137 0.0 0.0 1023.0 4.3 20.9 21.0 0.0
03/03/19 10:06 21.0 67 14.6 3.6 6.1 135 0.0 0.0 1023.0 6.1 21.0 21.0 0.0
03/03/19 10:07 21.0 67 14.6 4.0 6.1 135 0.0 0.0 1023.0 2.5 21.0 21.0 0.0
03/03/19 10:08 21.1 67 14.7 4.0 6.1 135 0.0 0.0 1023.0 2.5 21.0 21.1 0.0
03/03/19 10:09 21.0 66 14.4 4.0 6.1 135 0.0 0.0 1023.0 2.5 21.1 21.0 0.0
03/03/19 10:10 21.1 67 14.7 5.4 6.1 126 0.0 0.0 1023.0 4.3 21.0 21.1 0.0
03/03/19 10:11 21.2 67 14.8 5.4 6.1 121 0.0 0.0 1023.0 4.3 21.1 21.2 0.0
03/03/19 10:12 21.3 67 14.9 5.4 6.1 115 0.0 0.0 1023.0 4.3 21.2 21.3 0.0
03/03/19 10:13 21.2 67 14.8 5.4 6.1 94 0.0 0.0 1023.0 4.3 21.3 21.2 0.0
03/03/19 10:14 21.2 67 14.8 5.4 6.1 70 0.0 0.0 1023.0 4.3 21.2 21.2 0.0
03/03/19 10:33 21.7 65 14.8 4.3 3.2 135 0.0 0.0 1023.0 3.2 21.6 21.7 0.0
03/03/19 10:34 21.8 65 14.9 4.3 3.2 135 0.0 0.0 1023.0 3.2 21.7 21.8 0.0
03/03/19 10:35 21.8 66 15.2 4.3 3.2 135 0.0 0.0 1023.0 3.2 21.8 21.8 0.0
03/03/19 10:36 21.6 65 14.7 4.3 3.2 135 0.0 0.0 1023.0 3.2 21.7 21.6 0.0
03/03/19 10:37 21.7 65 14.8 4.3 3.2 135 0.0 0.0 1023.0 3.2 21.6 21.7 0.0
03/03/19 10:38 21.8 65 14.9 4.3 3.2 135 0.0 0.0 1023.0 3.2 21.7 21.8 0.0
03/03/19 10:39 21.8 65 14.9 4.3 3.2 135 0.0 0.0 1023.0 3.2 21.8 21.8 0.0
03/03/19 10:40 21.8 65 14.9 4.3 3.2 135 0.0 0.0 1023.0 3.2 21.8 21.8 0.0
03/03/19 10:41 21.7 63 14.3 4.3 3.2 135 0.0 0.0 1023.0 3.2 21.8 21.7 0.0
03/03/19 10:42 21.7 63 14.3 6.1 3.6 135 0.0 0.0 1023.0 3.6 21.7 21.7 0.0
03/03/19 10:43 21.7 63 14.3 2.5 4.3 135 0.0 0.0 1023.0 4.3 21.7 21.7 0.0
03/03/19 10:44 22.0 64 14.9 3.2 4.3 135 0.0 0.0 1023.0 0.0 21.8 22.0 0.0
03/03/19 10:45 22.0 63 14.6 4.3 5.0 135 0.0 0.0 1023.0 4.0 22.0 22.0 0.0
03/03/19 10:47 22.2 64 15.1 1.8 4.7 147 0.0 0.0 1023.0 4.7 0.0 22.2 0.0
03/03/19 10:48 22.3 63 14.9 4.0 9.0 142 0.0 0.0 1023.0 2.2 22.3 22.3 0.0
03/03/19 10:49 22.5 63 15.1 4.0 9.0 142 0.0 0.0 1023.0 3.2 22.5 22.5 0.0
03/03/19 10:50 22.4 62 14.8 4.7 9.0 141 0.0 0.0 1023.0 3.2 22.4 22.4 0.0
03/03/19 10:51 22.6 63 15.2 4.7 9.0 141 0.0 0.0 1023.0 3.2 22.5 22.6 0.0
03/03/19 10:52 22.7 63 15.3 4.7 9.0 141 0.0 0.0 1023.0 3.2 22.6 22.7 0.0
03/03/19 10:53 22.7 62 15.0 2.2 9.0 141 0.0 0.0 1023.0 5.0 22.7 22.7 0.0
03/03/19 10:54 22.6 62 14.9 3.6 9.0 142 0.0 0.0 1023.0 4.7 22.6 22.6 0.0
03/03/19 10:55 22.5 62 14.9 3.6 9.0 143 0.0 0.0 1023.0 4.7 22.6 22.5 0.0
03/03/19 10:56 22.6 63 15.2 3.6 9.0 144 0.0 0.0 1023.0 4.7 22.5 22.6 0.0
03/03/19 10:57 22.6 63 15.2 3.6 9.0 146 0.0 0.0 1023.0 4.7 22.6 22.6 0.0
03/03/19 10:58 22.8 63 15.4 3.6 9.0 135 0.0 0.0 1023.0 4.7 22.6 22.8 0.0
03/03/19 10:59 22.9 63 15.5 3.6 5.0 314 0.0 0.0 1023.0 4.7 22.9 22.9 0.0
03/03/19 11:02 22.6 62 14.9 3.6 5.0 144 0.0 0.0 1023.0 4.7 0.0 22.6 0.0
03/03/19 11:03 22.4 61 14.5 3.6 5.0 148 0.0 0.0 1023.0 4.7 22.6 22.4 0.0
03/03/19 11:04 22.3 61 14.4 3.6 4.7 167 0.0 0.0 1023.0 4.7 22.4 22.3 0.0
03/03/19 11:05 22.1 61 14.2 3.6 4.7 288 0.0 0.0 1023.0 4.7 22.3 22.1 0.0
03/03/19 11:06 22.1 62 14.5 3.6 4.7 309 0.0 0.0 1023.0 4.7 22.1 22.1 0.0
03/03/19 11:07 22.0 61 14.1 3.6 4.7 313 0.0 0.0 1023.0 4.7 22.1 22.0 0.0
03/03/19 11:08 21.9 61 14.0 3.6 4.7 314 0.0 0.0 1023.0 4.7 22.0 21.9 0.0
03/03/19 11:18 22.6 61 14.7 3.2 4.7 340 0.0 0.0 1023.0 3.2 22.7 22.6 0.0
03/03/19 11:19 22.5 61 14.6 3.2 3.2 1 0.0 0.0 1023.0 3.2 22.6 22.5 0.0
03/03/19 11:20 22.4 61 14.5 3.2 3.2 1 0.0 0.0 1023.0 3.2 22.5 22.4 0.0
03/03/19 11:21 22.3 61 14.4 3.2 3.2 1 0.0 0.0 1023.0 3.2 22.4 22.3 0.0
03/03/19 11:22 22.3 62 14.7 3.2 3.2 1 0.0 0.0 1023.0 3.2 22.3 22.3 0.0
03/03/19 11:23 22.3 62 14.7 3.2 3.2 1 0.0 0.0 1023.0 3.2 22.3 22.3 0.0
03/03/19 11:24 22.3 62 14.7 3.2 3.2 1 0.0 0.0 1023.0 3.2 22.3 22.3 0.0
03/03/19 11:25 22.2 61 14.3 3.2 3.2 1 0.0 0.0 1023.0 3.2 22.3 22.2 0.0
03/03/19 11:26 22.2 62 14.6 3.2 3.2 1 0.0 0.0 1023.0 3.2 22.2 22.2 0.0
03/03/19 11:27 22.3 62 14.7 3.2 3.2 1 0.0 0.0 1023.0 3.2 22.2 22.3 0.0
03/03/19 11:28 22.2 62 14.6 1.8 3.2 4 0.0 0.0 1023.0 2.5 22.2 22.2 0.0
03/03/19 11:29 22.4 63 15.0 2.5 3.2 31 0.0 0.0 1023.0 3.2 22.3 22.4 0.0
03/03/19 11:30 22.2 62 14.6 2.5 3.2 44 0.0 0.0 1023.0 3.2 22.4 22.2 0.0
03/03/19 11:32 22.3 62 14.7 2.2 4.3 27 0.0 0.0 1023.0 4.3 0.0 22.3 0.0
03/03/19 11:33 22.4 62 14.8 1.8 4.3 49 0.0 0.0 1023.0 1.8 22.4 22.4 0.0
03/03/19 11:48 22.6 60 14.4 2.2 3.2 1 0.0 0.0 1023.0 3.2 0.0 22.6 0.0
03/03/19 11:49 22.7 61 14.8 2.2 3.2 1 0.0 0.0 1023.0 3.2 22.6 22.7 0.0
03/03/19 11:50 22.7 61 14.8 2.2 3.2 1 0.0 0.0 1023.0 3.2 22.6 22.7 0.0
03/03/19 11:51 22.6 60 14.4 2.2 3.2 1 0.0 0.0 1023.0 3.2 22.7 22.6 0.0
03/03/19 11:52 22.4 60 14.3 2.2 3.2 1 0.0 0.0 1023.0 3.2 22.6 22.4 0.0
03/03/19 11:53 22.4 60 14.3 2.2 3.2 1 0.0 0.0 1023.0 3.2 22.6 22.4 0.0
03/03/19 11:54 22.4 60 14.3 2.2 3.2 1 0.0 0.0 1023.0 3.2 22.6 22.4 0.0
03/03/19 11:55 22.5 60 14.3 4.0 4.7 1 0.0 0.0 1023.0 4.7 22.5 22.5 0.0
03/03/19 11:56 22.5 60 14.3 4.0 4.7 1 0.0 0.0 1023.0 4.7 22.5 22.5 0.0
03/03/19 11:57 22.7 60 14.5 0.0 4.7 1 0.0 0.0 1023.0 0.0 22.7 22.7 0.0
03/03/19 11:58 22.9 60 14.7 0.0 4.7 131 0.0 0.0 1023.0 4.7 22.9 22.9 0.0
03/03/19 11:59 23.3 60 15.1 4.0 4.7 152 0.0 0.0 1023.0 4.7 23.0 23.3 0.0
03/03/19 12:02 23.6 57 14.6 5.4 5.8 76 0.0 0.0 1023.0 5.8 0.0 23.6 0.0
03/03/19 12:03 23.8 58 15.0 4.7 5.8 104 0.0 0.0 1023.0 4.0 23.6 23.8 0.0
03/03/19 12:04 24.1 56 14.8 4.0 5.8 88 0.0 0.0 1023.0 2.5 23.8 24.1 0.0
03/03/19 12:05 24.4 55 14.8 4.0 5.8 90 0.0 0.0 1023.0 2.5 24.1 24.4 0.0
03/03/19 12:06 24.6 55 15.0 4.7 5.8 82 0.0 0.0 1023.0 4.7 24.6 24.6 0.0
03/03/19 12:07 25.0 55 15.3 4.7 5.8 70 0.0 0.0 1023.0 4.7 24.8 25.0 0.0
03/03/19 12:08 25.2 54 15.2 4.7 5.8 59 0.0 0.0 1023.0 4.7 25.0 25.2 0.0
03/03/19 12:09 25.3 54 15.3 4.7 5.8 39 0.0 0.0 1023.0 4.7 25.2 25.3 0.0
03/03/19 12:10 25.4 53 15.1 4.7 5.8 26 0.0 0.0 1023.0 4.7 25.3 25.4 0.0
03/03/19 12:11 25.0 52 14.5 4.7 5.8 23 0.0 0.0 1023.0 4.7 25.4 25.0 0.0
03/03/19 12:12 24.7 54 14.8 4.7 5.8 20 0.0 0.0 1023.0 4.7 25.0 24.7 0.0
03/03/19 12:13 24.8 51 14.0 4.7 6.5 357 0.0 0.0 1023.0 6.5 24.8 24.8 0.0
03/03/19 12:14 25.1 51 14.3 4.3 10.4 356 0.0 0.0 1023.0 10.4 25.1 25.1 0.0
03/03/19 12:15 25.4 50 14.2 3.6 10.4 9 0.0 0.0 1023.0 4.0 25.4 25.4 0.0
03/03/19 12:17 26.0 50 14.8 2.2 10.4 16 0.0 0.0 1023.0 6.5 0.0 26.0 0.0
03/03/19 12:18 26.2 50 15.0 2.2 10.4 11 0.0 0.0 1023.0 6.5 26.0 26.2 0.0
03/03/19 12:19 26.3 48 14.4 4.3 10.4 10 0.0 0.0 1023.0 3.2 26.3 26.3 0.0
03/03/19 12:20 26.5 48 14.6 4.3 10.4 10 0.0 0.0 1023.0 3.2 26.3 26.5 0.0
03/03/19 12:21 26.4 47 14.2 4.3 10.4 11 0.0 0.0 1023.0 3.2 26.5 26.4 0.0
03/03/19 12:22 26.4 45 13.5 4.3 10.4 17 0.0 0.0 1023.0 3.2 26.5 26.4 0.0
03/03/19 12:23 26.3 44 13.1 4.0 10.4 4 0.0 0.0 1022.0 5.8 26.4 26.3 0.0
03/03/19 12:24 26.2 45 13.3 5.8 10.4 358 0.0 0.0 1022.0 4.7 26.2 26.2 0.0
03/03/19 12:25 26.1 45 13.2 4.7 6.5 359 0.0 0.0 1022.0 1.8 26.1 26.1 0.0
03/03/19 12:26 26.0 46 13.5 4.7 6.5 32 0.0 0.0 1022.0 5.8 26.0 26.0 0.0
03/03/19 12:27 25.7 46 13.2 4.3 6.5 97 0.0 0.0 1022.0 3.2 25.7 25.7 0.0
03/03/19 12:28 25.7 46 13.2 4.3 6.5 109 0.0 0.0 1022.0 4.0 25.7 25.7 0.0
03/03/19 12:29 25.4 46 12.9 0.0 6.5 124 0.0 0.0 1022.0 0.0 25.4 25.4 0.0
03/03/19 12:30 25.6 47 13.4 4.0 6.5 126 0.0 0.0 1022.0 4.3 25.6 25.6 0.0
03/03/19 12:32 25.3 46 12.8 5.4 5.8 70 0.0 0.0 1022.0 5.4 0.0 25.3 0.0
03/03/19 12:33 25.1 46 12.7 4.7 5.8 90 0.0 0.0 1022.0 4.0 25.3 25.1 0.0
03/03/19 12:34 25.0 46 12.6 4.3 5.8 108 0.0 0.0 1022.0 2.5 25.0 25.0 0.0
03/03/19 12:35 25.0 47 12.9 4.3 5.8 118 0.0 0.0 1022.0 2.5 25.0 25.0 0.0
03/03/19 12:36 25.0 47 12.9 3.2 5.8 138 0.0 0.0 1022.0 4.3 25.0 25.0 0.0
03/03/19 12:37 25.1 47 13.0 3.6 5.4 149 0.0 0.0 1022.0 5.0 25.0 25.1 0.0
03/03/19 12:38 25.3 46 12.8 3.6 5.4 98 0.0 0.0 1023.0 4.7 25.1 25.3 0.0
03/03/19 12:39 25.3 46 12.8 4.3 5.4 135 0.0 0.0 1023.0 3.6 25.3 25.3 0.0
03/03/19 12:40 25.5 46 13.0 4.7 5.8 135 0.0 0.0 1023.0 1.8 25.5 25.5 0.0
03/03/19 12:41 25.9 47 13.7 1.4 5.8 137 0.0 0.0 1023.0 2.5 25.9 25.9 0.0
03/03/19 12:42 26.2 46 13.7 1.4 5.8 137 0.0 0.0 1023.0 2.5 25.9 26.2 0.0
03/03/19 12:43 26.4 45 13.5 1.4 5.8 139 0.0 0.0 1023.0 2.5 26.2 26.4 0.0
03/03/19 12:44 26.3 45 13.4 1.4 5.8 140 0.0 0.0 1023.0 2.5 26.4 26.3 0.0
03/03/19 12:45 26.3 45 13.4 4.7 5.8 76 0.0 0.0 1023.0 4.0 26.2 26.3 0.0
03/03/19 12:47 26.2 45 13.3 4.0 5.0 115 0.0 0.0 1023.0 5.0 0.0 26.2 0.0
03/03/19 12:48 25.8 45 13.0 4.0 5.0 92 0.0 0.0 1023.0 5.0 26.2 25.8 0.0
03/03/19 12:49 25.8 45 13.0 4.0 5.0 72 0.0 0.0 1023.0 5.0 25.8 25.8 0.0
03/03/19 12:50 25.8 45 13.0 4.0 5.0 44 0.0 0.0 1023.0 5.0 25.8 25.8 0.0
03/03/19 12:51 25.9 45 13.1 4.0 5.0 30 0.0 0.0 1023.0 5.0 25.8 25.9 0.0
03/03/19 12:52 26.0 45 13.1 4.0 5.0 17 0.0 0.0 1023.0 5.0 26.0 26.0 0.0
03/03/19 12:53 26.0 45 13.1 4.0 5.0 11 0.0 0.0 1023.0 5.0 26.0 26.0 0.0
03/03/19 12:54 26.0 44 12.8 4.0 5.0 8 0.0 0.0 1023.0 5.0 26.0 26.0 0.0
03/03/19 12:55 26.0 44 12.8 4.0 5.0 5 0.0 0.0 1023.0 5.0 26.0 26.0 0.0
03/03/19 12:56 26.0 44 12.8 4.0 5.0 1 0.0 0.0 1023.0 5.0 26.0 26.0 0.0
03/03/19 12:57 25.9 44 12.7 4.0 5.0 1 0.0 0.0 1023.0 5.0 26.0 25.9 0.0
03/03/19 12:58 26.0 44 12.8 4.0 5.0 1 0.0 0.0 1023.0 5.0 25.9 26.0 0.0
03/03/19 12:59 26.0 43 12.5 4.0 5.0 1 0.0 0.0 1023.0 5.0 26.0 26.0 0.0
03/03/19 13:00 25.8 44 12.6 4.0 5.0 1 0.0 0.0 1023.0 5.0 26.0 25.8 0.0
03/03/19 13:02 26.0 44 12.8 5.4 5.0 8 0.0 0.0 1023.0 2.2 0.0 26.0 0.0
03/03/19 13:03 26.1 44 12.9 5.4 5.0 9 0.0 0.0 1023.0 2.2 26.0 26.1 0.0
03/03/19 13:04 26.1 44 12.9 5.4 5.0 12 0.0 0.0 1023.0 2.2 26.1 26.1 0.0
03/03/19 13:05 25.8 43 12.3 5.4 5.0 17 0.0 0.0 1023.0 2.2 26.1 25.8 0.0
03/03/19 13:06 25.6 44 12.4 5.4 5.0 25 0.0 0.0 1023.0 2.2 25.8 25.6 0.0
03/03/19 13:18 25.6 44 12.4 3.6 4.0 174 0.0 0.0 1023.0 4.0 25.6 25.6 0.0
03/03/19 13:19 25.6 44 12.4 3.6 4.0 176 0.0 0.0 1023.0 1.8 25.6 25.6 0.0
03/03/19 13:20 25.8 44 12.6 2.2 4.0 177 0.0 0.0 1023.0 2.2 25.6 25.8 0.0
03/03/19 13:21 25.8 44 12.6 4.0 5.8 158 0.0 0.0 1023.0 4.3 25.8 25.8 0.0
03/03/19 13:22 25.8 44 12.6 4.0 5.8 153 0.0 0.0 1023.0 5.0 25.8 25.8 0.0
03/03/19 13:23 26.0 44 12.8 4.0 5.8 149 0.0 0.0 1022.0 3.2 25.9 26.0 0.0
03/03/19 13:24 26.1 43 12.5 4.0 5.8 148 0.0 0.0 1022.0 3.2 26.0 26.1 0.0
03/03/19 13:25 26.0 43 12.5 5.4 5.8 147 0.0 0.0 1022.0 4.3 26.0 26.0 0.0
03/03/19 13:26 26.1 43 12.5 6.8 7.9 144 0.0 0.0 1022.0 7.9 26.1 26.1 0.0
03/03/19 13:27 26.2 43 12.6 6.8 7.9 143 0.0 0.0 1022.0 7.9 26.1 26.2 0.0
03/03/19 13:28 26.1 43 12.5 6.8 7.9 142 0.0 0.0 1022.0 7.9 26.2 26.1 0.0
03/03/19 13:29 26.1 43 12.5 6.8 7.9 139 0.0 0.0 1022.0 7.9 26.1 26.1 0.0
03/03/19 13:30 26.0 43 12.5 6.8 7.9 135 0.0 0.0 1022.0 7.9 26.0 26.0 0.0
03/03/19 13:32 25.9 43 12.4 6.8 7.9 142 0.0 0.0 1022.0 7.9 0.0 25.9 0.0
03/03/19 13:33 26.2 43 12.6 2.2 7.9 139 0.0 0.0 1022.0 7.9 26.2 26.2 0.0
03/03/19 13:34 26.3 43 12.7 6.1 7.9 138 0.0 0.0 1022.0 4.3 26.3 26.3 0.0
03/03/19 13:35 26.6 43 13.0 4.0 7.9 138 0.0 0.0 1022.0 1.8 26.6 26.6 0.0
03/03/19 13:36 26.7 43 13.1 1.8 7.9 137 0.0 0.0 1022.0 5.4 26.7 26.8 0.0
03/03/19 13:37 26.7 43 13.1 1.8 7.9 136 0.0 0.0 1022.0 5.4 26.7 26.8 0.0
03/03/19 13:38 26.5 43 12.9 5.0 7.9 135 0.0 0.0 1022.0 4.7 26.7 26.5 0.0
03/03/19 13:39 26.5 43 12.9 5.0 7.9 135 0.0 0.0 1022.0 4.7 26.5 26.5 0.0
03/03/19 13:40 27.0 42 13.0 5.0 7.9 135 0.0 0.0 1022.0 4.7 26.5 27.0 0.0
03/03/19 13:41 27.0 42 13.0 5.0 7.9 135 0.0 0.0 1022.0 4.7 26.5 27.0 0.0
03/03/19 13:42 27.3 41 12.9 5.0 7.9 135 0.0 0.0 1022.0 4.7 27.0 27.1 0.0
03/03/19 13:43 27.3 41 12.9 3.6 7.9 135 0.0 0.0 1022.0 4.7 27.3 27.1 0.0
03/03/19 13:44 27.6 42 13.5 3.6 5.4 139 0.0 0.0 1022.0 4.3 27.6 27.5 0.0
03/03/19 13:45 27.8 41 13.3 3.6 5.4 150 0.0 0.0 1022.0 4.3 27.8 27.6 0.0
03/03/19 13:47 27.8 41 13.3 5.4 6.5 136 0.0 0.0 1022.0 6.5 0.0 27.6 0.0
03/03/19 13:48 27.7 41 13.3 5.4 6.5 136 0.0 0.0 1022.0 6.5 27.8 27.5 0.0
03/03/19 13:49 27.5 41 13.1 5.4 6.5 136 0.0 0.0 1022.0 6.5 27.7 27.3 0.0
03/03/19 13:50 27.5 41 13.1 5.4 6.5 136 0.0 0.0 1022.0 6.5 27.5 27.3 0.0
03/03/19 13:51 27.3 41 12.9 5.4 6.5 136 0.0 0.0 1022.0 6.5 27.5 27.1 0.0
03/03/19 13:52 27.5 41 13.1 4.0 6.5 136 0.0 0.0 1022.0 6.1 27.5 27.3 0.0
03/03/19 13:53 27.8 41 13.3 4.0 6.5 136 0.0 0.0 1022.0 6.1 27.7 27.6 0.0
03/03/19 13:54 27.9 41 13.4 4.0 6.5 136 0.0 0.0 1022.0 6.1 27.8 27.6 0.0
03/03/19 13:55 27.8 41 13.3 4.0 6.5 135 0.0 0.0 1022.0 6.1 27.9 27.6 0.0
03/03/19 13:56 27.5 41 13.1 4.0 6.5 135 0.0 0.0 1022.0 6.1 27.8 27.3 0.0
03/03/19 13:57 27.4 41 13.0 4.0 6.5 135 0.0 0.0 1022.0 6.1 27.5 27.2 0.0
03/03/19 13:58 27.5 41 13.1 4.0 6.5 135 0.0 0.0 1022.0 6.1 27.4 27.3 0.0
03/03/19 13:59 27.5 41 13.1 4.0 6.5 135 0.0 0.0 1022.0 6.1 27.5 27.3 0.0
03/03/19 14:00 27.4 40 12.6 4.0 6.5 135 0.0 0.0 1022.0 6.1 27.4 27.2 0.0
03/03/19 14:02 27.0 40 12.2 5.8 6.1 135 0.0 0.0 1022.0 1.8 27.0 26.9 0.0
03/03/19 14:03 27.0 41 12.6 2.5 6.1 135 0.0 0.0 1022.0 4.7 27.0 26.9 0.0
03/03/19 14:04 26.8 41 12.4 2.5 6.1 135 0.0 0.0 1022.0 4.7 27.0 26.8 0.0
03/03/19 14:05 26.7 41 12.4 5.0 6.8 149 0.0 0.0 1022.0 5.4 26.7 26.7 0.0
03/03/19 14:06 26.5 41 12.2 5.0 6.8 154 0.0 0.0 1022.0 3.2 26.5 26.5 0.0
03/03/19 14:07 26.5 41 12.2 4.0 6.8 158 0.0 0.0 1022.0 3.6 26.5 26.5 0.0
03/03/19 14:08 26.4 41 12.1 6.5 6.8 165 0.0 0.0 1022.0 6.1 26.5 26.4 0.0
03/03/19 14:09 26.3 41 12.0 6.5 6.8 164 0.0 0.0 1022.0 5.0 26.4 26.3 0.0
03/03/19 14:10 26.3 41 12.0 4.3 6.8 163 0.0 0.0 1022.0 2.2 26.3 26.3 0.0
03/03/19 14:11 26.3 41 12.0 5.8 9.4 154 0.0 0.0 1022.0 5.0 26.3 26.3 0.0
03/03/19 14:12 26.2 41 11.9 4.7 9.4 148 0.0 0.0 1022.0 6.8 26.2 26.2 0.0
03/03/19 14:13 26.1 41 11.8 4.7 9.4 153 0.0 0.0 1022.0 5.0 26.1 26.1 0.0
03/03/19 14:14 26.0 41 11.7 5.0 9.4 160 0.0 0.0 1022.0 5.8 26.0 26.0 0.0
03/03/19 14:15 25.9 42 12.0 5.8 9.4 159 0.0 0.0 1022.0 5.8 25.9 25.9 0.0
03/03/19 14:32 27.1 41 12.7 5.0 5.8 181 0.0 0.0 1022.0 5.8 27.1 27.0 0.0
03/03/19 14:33 26.9 41 12.5 4.3 5.8 98 0.0 0.0 1022.0 3.6 26.9 26.8 0.0
03/03/19 14:34 27.0 41 12.6 4.3 6.1 323 0.0 0.0 1022.0 6.1 26.9 26.9 0.0
03/03/19 14:35 27.0 41 12.6 6.5 7.6 350 0.0 0.0 1022.0 6.1 27.0 26.9 0.0
03/03/19 14:36 26.9 41 12.5 4.0 7.6 8 0.0 0.0 1022.0 5.8 26.9 26.8 0.0
03/03/19 14:37 26.8 41 12.4 4.0 7.6 23 0.0 0.0 1022.0 0.0 26.8 26.8 0.0
03/03/19 14:38 26.8 41 12.4 1.4 7.6 61 0.0 0.0 1021.0 6.1 26.9 26.8 0.0
03/03/19 14:39 26.8 42 12.8 4.0 7.6 80 0.0 0.0 1021.0 3.6 26.8 26.8 0.0
03/03/19 14:40 26.8 42 12.8 4.0 7.6 99 0.0 0.0 1021.0 4.3 26.8 26.8 0.0
03/03/19 14:41 26.6 41 12.3 4.0 7.6 109 0.0 0.0 1021.0 6.1 26.8 26.6 0.0
03/03/19 14:42 26.4 42 12.5 6.1 7.6 113 0.0 0.0 1021.0 1.4 26.6 26.4 0.0
03/03/19 14:43 26.5 42 12.5 1.8 7.6 107 0.0 0.0 1021.0 1.4 26.5 26.5 0.0
03/03/19 14:44 26.6 42 12.6 1.8 7.6 113 0.0 0.0 1021.0 2.2 26.5 26.6 0.0
03/03/19 14:45 26.7 42 12.7 2.2 6.5 131 0.0 0.0 1021.0 1.4 26.7 26.7 0.0
03/03/19 14:47 26.7 42 12.7 3.6 6.1 100 0.0 0.0 1021.0 2.5 0.0 26.7 0.0
03/03/19 14:48 26.7 42 12.7 3.6 6.1 88 0.0 0.0 1021.0 1.4 26.7 26.7 0.0
03/03/19 14:49 26.9 42 12.9 1.8 6.1 93 0.0 0.0 1021.0 0.0 26.7 26.9 0.0
03/03/19 14:50 27.1 42 13.1 1.8 6.1 103 0.0 0.0 1021.0 2.5 26.9 27.0 0.0
03/03/19 14:51 27.4 42 13.4 1.8 6.1 108 0.0 0.0 1021.0 2.5 27.1 27.3 0.0
03/03/19 14:52 27.5 42 13.4 2.2 4.0 119 0.0 0.0 1021.0 2.5 27.5 27.4 0.0
03/03/19 14:53 27.5 42 13.4 2.2 4.0 144 0.0 0.0 1021.0 0.0 27.5 27.4 0.0
03/03/19 14:54 27.9 42 13.8 3.2 4.3 137 0.0 0.0 1021.0 3.2 27.9 27.7 0.0
03/03/19 14:55 28.0 41 13.5 3.2 4.3 139 0.0 0.0 1021.0 3.2 27.9 27.7 0.0
03/03/19 14:56 28.0 41 13.5 2.5 4.3 154 0.0 0.0 1021.0 4.0 28.0 27.7 0.0
03/03/19 14:57 28.4 41 13.9 3.6 4.3 159 0.0 0.0 1021.0 0.0 28.4 28.1 0.0
03/03/19 14:58 28.7 42 14.5 1.4 5.8 161 0.0 0.0 1021.0 5.8 28.7 28.5 0.0
03/03/19 14:59 28.8 41 14.2 3.2 5.8 156 0.0 0.0 1021.0 3.2 28.8 28.5 0.0
03/03/19 15:00 29.1 41 14.5 3.2 5.8 155 0.0 0.0 1021.0 3.2 28.8 28.8 0.0
03/03/19 15:02 29.8 41 15.1 2.5 5.8 159 0.0 0.0 1021.0 4.7 0.0 29.6 0.0
03/03/19 15:03 29.7 41 15.0 3.6 5.8 164 0.0 0.0 1021.0 3.2 29.8 29.5 0.0
03/03/19 15:04 29.9 41 15.2 2.2 5.8 167 0.0 0.0 1021.0 1.8 29.9 29.7 0.0
03/03/19 15:05 29.9 41 15.2 1.8 5.8 170 0.0 0.0 1021.0 3.2 29.9 29.7 0.0
03/03/19 15:06 29.8 41 15.1 3.2 5.8 173 0.0 0.0 1021.0 4.0 29.8 29.6 0.0
03/03/19 15:07 29.6 40 14.6 3.2 5.8 175 0.0 0.0 1021.0 4.0 29.8 29.2 0.0
03/03/19 15:08 29.8 40 14.7 3.2 5.8 175 0.0 0.0 1021.0 4.0 29.6 29.5 0.0
03/03/19 15:09 30.2 40 15.1 3.2 4.7 177 0.0 0.0 1021.0 4.0 30.0 29.9 0.0
03/03/19 15:10 30.2 39 14.7 4.3 4.7 178 0.0 0.0 1021.0 2.5 30.2 29.8 0.0
03/03/19 15:11 29.9 39 14.4 4.3 4.7 181 0.0 0.0 1021.0 2.5 30.2 29.5 0.0
03/03/19 15:12 29.8 39 14.4 4.3 4.7 181 0.0 0.0 1021.0 2.5 29.9 29.4 0.0
03/03/19 15:13 29.7 39 14.3 4.3 4.0 181 0.0 0.0 1021.0 2.5 29.8 29.2 0.0
03/03/19 15:14 29.5 39 14.1 3.6 6.5 166 0.0 0.0 1021.0 4.7 29.5 29.0 0.0
03/03/19 15:15 29.3 39 13.9 5.4 6.5 159 0.0 0.0 1021.0 6.1 29.5 28.8 0.0
03/03/19 15:17 29.5 39 14.1 5.4 6.1 166 0.0 0.0 1021.0 6.1 0.0 29.0 0.0
03/03/19 15:18 29.2 39 13.8 5.4 6.1 161 0.0 0.0 1021.0 6.1 29.5 28.7 0.0
03/03/19 15:19 28.6 39 13.3 5.4 6.1 156 0.0 0.0 1021.0 6.1 29.2 28.1 0.0
03/03/19 15:20 28.3 40 13.4 5.4 6.1 151 0.0 0.0 1021.0 6.1 28.6 27.9 0.0
03/03/19 15:21 28.3 40 13.4 4.7 6.1 147 0.0 0.0 1021.0 5.4 28.3 27.9 0.0
03/03/19 15:22 27.6 40 12.8 4.7 6.1 144 0.0 0.0 1021.0 5.4 28.3 27.3 0.0
03/03/19 15:23 27.5 40 12.7 4.7 6.1 142 0.0 0.0 1021.0 5.4 27.6 27.2 0.0
03/03/19 15:24 27.4 40 12.6 4.7 6.1 140 0.0 0.0 1021.0 5.4 27.5 27.2 0.0
03/03/19 15:25 27.4 40 12.6 3.2 6.1 137 0.0 0.0 1021.0 5.0 27.4 27.2 0.0
03/03/19 15:26 27.2 40 12.4 3.2 6.1 135 0.0 0.0 1021.0 2.5 27.4 27.0 0.0
03/03/19 15:27 27.2 40 12.4 3.2 6.1 135 0.0 0.0 1021.0 2.5 27.4 27.0 0.0
03/03/19 15:28 27.1 40 12.3 5.0 6.1 135 0.0 0.0 1021.0 1.8 27.1 26.9 0.0
03/03/19 15:29 27.1 40 12.3 4.0 6.1 135 0.0 0.0 1021.0 4.0 27.1 26.9 0.0
03/03/19 15:30 28.0 40 13.1 4.0 6.1 135 0.0 0.0 1021.0 4.0 27.1 27.7 0.0
03/03/19 15:32 28.6 40 13.7 4.0 5.4 138 0.0 0.0 1021.0 4.0 0.0 28.2 0.0
03/03/19 15:33 28.4 40 13.5 4.0 5.4 136 0.0 0.0 1021.0 4.0 28.6 28.0 0.0
03/03/19 15:34 28.1 40 13.2 4.3 5.4 135 0.0 0.0 1021.0 3.6 28.1 27.8 0.0
03/03/19 15:35 28.2 40 13.3 3.6 5.0 135 0.0 0.0 1021.0 2.5 28.2 27.8 0.0
03/03/19 15:36 28.1 40 13.2 3.6 4.0 135 0.0 0.0 1021.0 2.5 28.2 27.8 0.0
03/03/19 15:37 28.2 40 13.3 3.6 4.0 135 0.0 0.0 1021.0 2.5 28.1 27.8 0.0
03/03/19 15:38 28.2 40 13.3 4.7 4.0 137 0.0 0.0 1020.0 2.2 28.2 27.8 0.0
03/03/19 15:39 28.9 40 13.9 4.7 4.0 141 0.0 0.0 1020.0 2.2 28.7 28.5 0.0
03/03/19 15:40 29.0 40 14.0 4.7 4.0 143 0.0 0.0 1020.0 2.2 28.9 28.6 0.0
03/03/19 15:41 29.1 39 13.7 4.7 4.0 146 0.0 0.0 1020.0 2.2 29.0 28.6 0.0
03/03/19 15:42 29.0 39 13.6 2.2 6.1 143 0.0 0.0 1020.0 6.1 29.1 28.5 0.0
03/03/19 15:43 28.5 40 13.6 2.2 6.1 143 0.0 0.0 1020.0 6.1 29.0 28.1 0.0
03/03/19 15:44 28.1 39 12.8 2.2 6.1 142 0.0 0.0 1020.0 6.1 28.5 27.7 0.0
03/03/19 15:45 27.8 40 13.0 5.0 6.1 143 0.0 0.0 1020.0 1.8 27.8 27.5 0.0
03/03/19 15:47 27.3 40 12.5 3.6 6.1 140 0.0 0.0 1020.0 4.7 0.0 27.1 0.0
03/03/19 15:48 27.2 40 12.4 3.6 6.1 139 0.0 0.0 1020.0 4.7 27.3 27.0 0.0
03/03/19 15:49 27.5 40 12.7 3.6 6.1 139 0.0 0.0 1020.0 4.7 27.2 27.2 0.0
03/03/19 15:50 27.9 41 13.4 3.6 6.1 139 0.0 0.0 1020.0 4.7 27.5 27.6 0.0
03/03/19 15:51 28.2 40 13.3 3.6 6.1 138 0.0 0.0 1020.0 4.7 27.9 27.8 0.0
03/03/19 15:52 28.5 40 13.6 3.6 6.1 137 0.0 0.0 1020.0 4.7 28.2 28.1 0.0
03/03/19 15:53 28.7 40 13.8 3.6 6.1 137 0.0 0.0 1021.0 4.7 28.5 28.3 0.0
03/03/19 16:03 29.7 39 14.3 3.6 4.7 136 0.0 0.0 1021.0 4.7 0.0 29.2 0.0
03/03/19 16:04 29.8 39 14.4 3.6 4.7 136 0.0 0.0 1021.0 4.7 0.0 29.4 0.0
03/03/19 16:05 30.0 39 14.5 3.6 4.7 136 0.0 0.0 1021.0 4.7 0.0 29.6 0.0
03/03/19 16:06 30.1 39 14.6 3.6 4.7 136 0.0 0.0 1021.0 4.7 0.0 29.7 0.0
03/03/19 16:07 30.0 39 14.5 3.6 4.7 136 0.0 0.0 1021.0 4.7 0.0 29.6 0.0
03/03/19 16:08 30.1 39 14.6 3.6 4.7 136 0.0 0.0 1021.0 4.7 0.0 29.7 0.0
03/03/19 16:18 28.6 40 13.7 0.0 0.0 0 0.0 0.0 1021.0 0.0 0.0 28.2 0.0
03/03/19 16:33 30.5 39 15.0 0.0 0.0 0 0.0 0.0 1021.0 0.0 0.0 30.2 0.0
03/03/19 16:34 30.5 39 15.0 0.0 0.0 0 0.0 0.0 1021.0 0.0 0.0 30.2 0.0
03/03/19 16:35 30.2 39 14.7 0.0 0.0 0 0.0 0.0 1021.0 0.0 0.0 29.8 0.0
03/03/19 16:48 29.3 40 14.3 0.0 0.0 0 0.0 0.0 1022.0 0.0 0.0 28.9 0.0
03/03/19 16:49 29.3 40 14.3 0.0 0.0 0 0.0 0.0 1022.0 0.0 0.0 28.9 0.0
03/03/19 16:50 29.4 40 14.4 0.0 0.0 0 0.0 0.0 1022.0 0.0 0.0 29.0 0.0
03/03/19 16:51 29.4 40 14.4 4.7 5.0 135 0.0 0.0 1022.0 5.0 29.4 29.0 0.0
03/03/19 16:52 29.3 40 14.3 4.7 5.0 135 0.0 0.0 1022.0 5.0 29.4 28.9 0.0
03/03/19 16:53 29.5 40 14.5 3.6 5.0 145 0.0 0.0 1021.0 4.3 29.5 29.1 0.0
03/03/19 16:54 29.8 40 14.7 3.6 5.0 158 0.0 0.0 1021.0 4.3 29.5 29.5 0.0
03/03/19 16:55 29.6 40 14.6 3.6 5.0 192 0.0 0.0 1021.0 4.3 29.6 29.2 0.0
03/03/19 16:56 29.3 40 14.3 3.6 5.0 208 0.0 0.0 1021.0 4.3 29.6 28.9 0.0
03/03/19 16:57 29.2 40 14.2 3.6 5.0 220 0.0 0.0 1021.0 4.3 29.3 28.8 0.0
03/03/19 16:58 28.9 41 14.3 3.6 5.0 229 0.0 0.0 1021.0 4.3 29.2 28.6 0.0
03/03/19 16:59 28.8 41 14.2 5.8 5.0 226 0.0 0.0 1021.0 4.0 28.8 28.5 0.0
03/03/19 17:02 28.6 41 14.1 5.8 5.0 183 0.0 0.0 1021.0 4.0 28.6 28.3 0.0
03/03/19 17:03 28.6 41 14.1 5.8 4.3 185 0.0 0.0 1021.0 4.0 28.6 28.3 0.0
03/03/19 17:04 28.5 41 14.0 5.8 4.3 184 0.0 0.0 1021.0 4.0 28.6 28.2 0.0
03/03/19 17:05 28.3 41 13.8 5.4 6.5 166 0.0 0.0 1021.0 4.7 28.3 28.0 0.0
03/03/19 17:06 28.2 41 13.7 4.0 6.5 157 0.0 0.0 1021.0 4.0 28.2 27.9 0.0
03/03/19 17:07 28.3 41 13.8 4.0 6.5 151 0.0 0.0 1021.0 4.0 28.2 28.0 0.0
03/03/19 17:08 28.1 41 13.6 7.2 8.6 143 0.0 0.0 1021.0 8.6 28.1 27.8 0.0
03/03/19 17:09 28.2 41 13.7 7.2 8.6 138 0.0 0.0 1021.0 8.6 28.1 27.9 0.0
03/03/19 17:10 28.3 41 13.8 7.2 8.6 135 0.0 0.0 1021.0 8.6 28.4 28.0 0.0
03/03/19 17:11 28.5 41 14.0 6.5 8.6 135 0.0 0.0 1021.0 3.6 28.5 28.2 0.0
03/03/19 17:12 28.7 41 14.1 3.2 8.6 132 0.0 0.0 1021.0 5.8 28.7 28.4 0.0
03/03/19 17:13 28.6 41 14.1 4.0 8.6 127 0.0 0.0 1021.0 4.7 28.7 28.3 0.0
03/03/19 17:14 28.6 42 14.4 4.0 8.6 124 0.0 0.0 1021.0 4.7 28.6 28.4 0.0
03/03/19 17:15 28.6 42 14.4 4.7 8.6 121 0.0 0.0 1021.0 8.6 28.6 28.4 0.0
03/03/19 17:17 28.5 42 14.3 5.4 8.6 144 0.0 0.0 1021.0 6.8 28.5 28.3 0.0
03/03/19 17:18 28.5 42 14.3 5.4 8.6 143 0.0 0.0 1021.0 1.8 28.5 28.3 0.0
03/03/19 17:19 28.6 43 14.8 3.6 8.6 141 0.0 0.0 1021.0 4.3 28.6 28.5 0.0
03/03/19 17:20 28.4 43 14.6 3.6 8.6 138 0.0 0.0 1021.0 4.3 28.6 28.3 0.0
03/03/19 17:21 28.3 43 14.5 3.6 8.6 134 0.0 0.0 1021.0 4.3 28.4 28.2 0.0
03/03/19 17:22 28.2 43 14.4 3.6 8.6 128 0.0 0.0 1021.0 4.3 28.3 28.1 0.0
03/03/19 17:23 28.0 43 14.3 3.6 8.6 119 0.0 0.0 1020.0 4.3 28.2 27.9 0.0
03/03/19 17:24 27.7 43 14.0 3.6 8.6 102 0.0 0.0 1020.0 4.3 28.0 27.6 0.0
03/03/19 17:25 27.0 43 13.4 3.6 8.6 55 0.0 0.0 1020.0 4.3 27.4 27.0 0.0
03/03/19 17:26 26.7 44 13.4 3.6 6.8 13 0.0 0.0 1020.0 4.3 27.0 26.8 0.0
03/03/19 17:27 26.5 44 13.3 3.6 6.8 9 0.0 0.0 1020.0 4.3 26.7 26.5 0.0
03/03/19 17:28 26.3 44 13.1 3.6 4.3 5 0.0 0.0 1020.0 4.3 26.5 26.3 0.0
03/03/19 17:29 26.1 44 12.9 3.6 4.3 3 0.0 0.0 1020.0 1.4 26.1 26.1 0.0
03/03/19 17:30 25.9 45 13.1 3.6 4.3 3 0.0 0.0 1020.0 1.4 26.1 25.9 0.0
03/03/19 17:32 25.5 46 13.0 0.0 0.0 0 0.0 0.0 1020.0 0.0 0.0 25.5 0.0
03/03/19 17:33 25.4 46 12.9 3.6 4.3 51 0.0 0.0 1020.0 1.4 25.4 25.4 0.0
03/03/19 17:34 25.4 46 12.9 3.6 4.3 43 0.0 0.0 1020.0 1.4 25.4 25.4 0.0
03/03/19 17:35 25.5 47 13.4 3.6 4.3 36 0.0 0.0 1020.0 1.4 25.4 25.5 0.0
03/03/19 17:36 25.6 47 13.4 3.6 4.3 35 0.0 0.0 1020.0 1.4 25.5 25.6 0.0
03/03/19 17:37 25.6 47 13.4 3.6 4.3 55 0.0 0.0 1020.0 1.4 25.6 25.6 0.0
03/03/19 17:38 25.5 47 13.4 3.6 4.3 90 0.0 0.0 1021.0 1.4 25.6 25.5 0.0
03/03/19 17:39 25.5 48 13.7 3.6 1.4 122 0.0 0.0 1021.0 1.4 25.5 25.5 0.0
03/03/19 17:40 25.4 48 13.6 3.6 1.4 130 0.0 0.0 1021.0 1.4 25.4 25.4 0.0
03/03/19 17:41 25.5 48 13.7 3.6 1.4 135 0.0 0.0 1021.0 1.4 25.4 25.5 0.0
03/03/19 17:42 25.5 49 14.0 3.6 1.4 135 0.0 0.0 1021.0 1.4 25.5 25.5 0.0
03/03/19 17:43 25.5 49 14.0 3.6 1.4 135 0.0 0.0 1021.0 1.4 25.5 25.5 0.0
03/03/19 17:44 25.5 50 14.3 3.6 1.4 135 0.0 0.0 1021.0 1.4 25.5 25.5 0.0
03/03/19 17:45 25.5 50 14.3 6.5 4.7 135 0.0 0.0 1021.0 4.7 25.5 25.5 0.0
03/03/19 17:47 25.3 51 14.4 6.8 6.5 127 0.0 0.0 1021.0 6.5 0.0 25.3 0.0
03/03/19 17:48 25.2 52 14.6 6.8 7.9 133 0.0 0.0 1021.0 7.9 25.3 25.2 0.0
03/03/19 17:49 25.0 53 14.8 6.8 7.9 134 0.0 0.0 1021.0 7.9 25.2 25.0 0.0
03/03/19 17:50 25.0 53 14.8 6.1 10.8 143 0.0 0.0 1021.0 7.6 25.0 25.0 0.0
03/03/19 17:51 25.0 53 14.8 6.1 10.8 147 0.0 0.0 1021.0 7.6 25.0 25.0 0.0
03/03/19 17:52 24.8 54 14.9 6.1 10.8 150 0.0 0.0 1021.0 7.6 25.0 24.8 0.0
03/03/19 17:53 24.7 54 14.8 6.1 10.8 153 0.0 0.0 1020.0 7.6 24.8 24.7 0.0
03/03/19 17:54 24.7 55 15.1 6.1 10.8 155 0.0 0.0 1020.0 7.6 24.7 24.7 0.0
03/03/19 17:55 24.7 55 15.1 6.1 10.8 157 0.0 0.0 1020.0 7.6 24.7 24.7 0.0
03/03/19 17:56 24.7 55 15.1 6.1 10.8 160 0.0 0.0 1020.0 7.6 24.7 24.7 0.0
03/03/19 17:57 24.7 55 15.1 6.1 10.8 163 0.0 0.0 1020.0 7.6 24.7 24.7 0.0
03/03/19 17:58 24.5 55 14.9 6.1 10.8 168 0.0 0.0 1020.0 7.6 24.7 24.5 0.0
03/03/19 17:59 24.4 55 14.8 6.1 10.8 172 0.0 0.0 1020.0 7.6 24.5 24.4 0.0
03/03/19 18:00 24.3 55 14.7 6.1 7.6 181 0.0 0.0 1020.0 7.6 24.4 24.3 0.0
03/03/19 18:02 24.0 56 14.7 6.1 7.6 163 0.0 0.0 1020.0 7.6 0.0 24.0 0.0
03/03/19 18:03 23.7 58 14.9 6.1 7.6 168 0.0 0.0 1020.0 7.6 23.8 23.7 0.0
03/03/19 18:04 23.6 58 14.9 6.1 7.6 170 0.0 0.0 1020.0 7.6 23.7 23.6 0.0
03/03/19 18:05 23.6 58 14.9 6.1 7.6 172 0.0 0.0 1020.0 7.6 23.6 23.6 0.0
03/03/19 18:06 23.5 58 14.8 6.1 7.6 172 0.0 0.0 1020.0 7.6 23.6 23.5 0.0
03/03/19 18:07 23.5 58 14.8 6.1 7.6 172 0.0 0.0 1020.0 7.6 23.6 23.5 0.0
03/03/19 18:08 23.4 58 14.7 6.1 7.6 172 0.0 0.0 1021.0 7.6 23.6 23.4 0.0
03/03/19 18:09 23.4 59 14.9 6.1 7.6 172 0.0 0.0 1021.0 7.6 23.6 23.4 0.0
03/03/19 18:10 23.3 59 14.8 6.1 7.6 172 0.0 0.0 1021.0 7.6 23.6 23.3 0.0
03/03/19 18:11 23.3 59 14.8 6.1 7.6 172 0.0 0.0 1021.0 7.6 23.6 23.3 0.0
03/03/19 18:12 23.3 59 14.8 6.1 7.6 172 0.0 0.0 1021.0 7.6 23.6 23.3 0.0
03/03/19 18:13 23.2 59 14.7 6.1 7.6 172 0.0 0.0 1021.0 7.6 23.6 23.2 0.0
03/03/19 18:14 23.1 59 14.6 6.1 7.6 172 0.0 0.0 1021.0 7.6 23.6 23.1 0.0
03/03/19 18:15 22.9 60 14.7 6.1 7.6 172 0.0 0.0 1021.0 7.6 23.6 22.9 0.0
03/03/19 18:18 22.6 61 14.7 0.0 0.0 0 0.0 0.0 1021.0 0.0 0.0 22.6 0.0
03/03/19 18:19 22.6 61 14.7 0.0 0.0 0 0.0 0.0 1021.0 0.0 0.0 22.6 0.0
03/03/19 18:33 21.7 63 14.3 0.0 0.0 0 0.0 0.0 1021.0 0.0 0.0 21.7 0.0
03/03/19 18:34 21.6 63 14.3 0.0 0.0 0 0.0 0.0 1021.0 0.0 0.0 21.6 0.0
03/03/19 18:35 21.6 63 14.3 0.0 0.0 0 0.0 0.0 1021.0 0.0 0.0 21.6 0.0
03/03/19 18:48 21.0 66 14.4 0.0 0.0 0 0.0 0.0 1021.0 0.0 0.0 21.0 0.0
03/03/19 18:49 21.0 67 14.6 0.0 0.0 0 0.0 0.0 1021.0 0.0 0.0 21.0 0.0
03/03/19 18:50 21.0 67 14.6 0.0 0.0 0 0.0 0.0 1021.0 0.0 0.0 21.0 0.0
03/03/19 18:51 20.9 67 14.5 0.0 0.0 0 0.0 0.0 1021.0 0.0 0.0 20.9 0.0
03/03/19 18:52 20.9 67 14.5 0.0 0.0 0 0.0 0.0 1021.0 0.0 0.0 20.9 0.0
03/03/19 18:53 20.9 67 14.5 0.0 0.0 0 0.0 0.0 1021.0 0.0 0.0 20.9 0.0
03/03/19 18:54 20.8 68 14.7 0.0 0.0 0 0.0 0.0 1021.0 0.0 0.0 20.8 0.0
03/03/19 18:55 20.8 68 14.7 0.0 0.0 0 0.0 0.0 1021.0 0.0 0.0 20.8 0.0
03/03/19 18:56 20.8 68 14.7 0.0 0.0 0 0.0 0.0 1021.0 0.0 0.0 20.8 0.0
03/03/19 18:57 20.7 68 14.6 0.0 0.0 0 0.0 0.0 1021.0 0.0 0.0 20.7 0.0
03/03/19 18:58 20.7 68 14.6 0.0 0.0 0 0.0 0.0 1021.0 0.0 0.0 20.7 0.0
03/03/19 18:59 20.7 68 14.6 0.0 0.0 0 0.0 0.0 1021.0 0.0 0.0 20.7 0.0
03/03/19 19:00 20.6 69 14.7 0.0 0.0 0 0.0 0.0 1021.0 0.0 0.0 20.6 0.0
03/03/19 19:03 20.5 69 14.6 0.0 0.0 0 0.0 0.0 1021.0 0.0 0.0 20.5 0.0
03/03/19 19:04 20.4 69 14.5 0.0 0.0 0 0.0 0.0 1021.0 0.0 0.0 20.4 0.0
03/03/19 19:05 20.4 69 14.5 0.0 0.0 0 0.0 0.0 1021.0 0.0 0.0 20.4 0.0
03/03/19 19:06 20.4 70 14.7 0.0 0.0 0 0.0 0.0 1021.0 0.0 0.0 20.4 0.0
03/03/19 19:07 20.4 69 14.5 0.0 0.0 0 0.0 0.0 1021.0 0.0 0.0 20.4 0.0
03/03/19 19:08 20.3 69 14.4 0.0 0.0 0 0.0 0.0 1021.0 0.0 0.0 20.3 0.0
03/03/19 19:09 20.3 69 14.4 0.0 0.0 0 0.0 0.0 1021.0 0.0 0.0 20.3 0.0
03/03/19 19:10 20.3 70 14.6 0.0 0.0 0 0.0 0.0 1021.0 0.0 0.0 20.3 0.0
03/03/19 19:11 20.2 70 14.6 0.0 0.0 0 0.0 0.0 1021.0 0.0 0.0 20.2 0.0
03/03/19 19:12 20.2 70 14.6 0.0 0.0 0 0.0 0.0 1021.0 0.0 0.0 20.2 0.0
03/03/19 19:13 20.2 70 14.6 0.0 0.0 0 0.0 0.0 1021.0 0.0 0.0 20.2 0.0
03/03/19 19:14 20.1 71 14.7 0.0 0.0 0 0.0 0.0 1021.0 0.0 0.0 20.1 0.0
03/03/19 19:15 20.1 71 14.7 0.0 0.0 0 0.0 0.0 1021.0 0.0 0.0 20.1 0.0
03/03/19 19:18 20.0 71 14.6 0.0 0.0 0 0.0 0.0 1021.0 0.0 0.0 20.0 0.0
03/03/19 19:19 19.9 72 14.7 0.0 0.0 0 0.0 0.0 1021.0 0.0 0.0 19.9 0.0
03/03/19 19:20 19.9 72 14.7 0.0 0.0 0 0.0 0.0 1021.0 0.0 0.0 19.9 0.0
03/03/19 19:21 19.9 72 14.7 0.0 0.0 0 0.0 0.0 1021.0 0.0 0.0 19.9 0.0
03/03/19 19:22 19.9 72 14.7 0.0 0.0 0 0.0 0.0 1021.0 0.0 0.0 19.9 0.0
03/03/19 19:23 19.8 72 14.6 0.0 0.0 0 0.0 0.0 1021.0 0.0 0.0 19.8 0.0
03/03/19 19:24 19.8 72 14.6 0.0 0.0 0 0.0 0.0 1021.0 0.0 0.0 19.8 0.0
03/03/19 19:25 19.8 72 14.6 0.0 0.0 0 0.0 0.0 1021.0 0.0 0.0 19.8 0.0
03/03/19 19:26 19.7 72 14.5 0.0 0.0 0 0.0 0.0 1021.0 0.0 0.0 19.7 0.0
03/03/19 19:27 19.7 72 14.5 0.0 0.0 0 0.0 0.0 1021.0 0.0 0.0 19.7 0.0
03/03/19 19:28 19.7 72 14.5 0.0 0.0 0 0.0 0.0 1021.0 0.0 0.0 19.7 0.0
03/03/19 19:29 19.6 73 14.6 0.0 0.0 0 0.0 0.0 1021.0 0.0 0.0 19.6 0.0
03/03/19 19:30 19.6 72 14.4 0.0 0.0 0 0.0 0.0 1021.0 0.0 0.0 19.6 0.0
03/03/19 19:33 19.5 73 14.5 0.0 0.0 0 0.0 0.0 1021.0 0.0 0.0 19.5 0.0
03/03/19 19:34 19.5 73 14.5 0.0 0.0 0 0.0 0.0 1021.0 0.0 0.0 19.5 0.0
03/03/19 19:35 19.4 74 14.6 0.0 0.0 0 0.0 0.0 1021.0 0.0 0.0 19.4 0.0
03/03/19 19:36 19.5 75 14.9 0.0 0.0 0 0.0 0.0 1021.0 0.0 0.0 19.5 0.0
03/03/19 19:37 19.4 75 14.9 0.0 0.0 0 0.0 0.0 1021.0 0.0 0.0 19.4 0.0
03/03/19 19:38 19.4 75 14.9 0.0 0.0 0 0.0 0.0 1022.0 0.0 0.0 19.4 0.0
03/03/19 19:39 19.4 74 14.6 0.0 0.0 0 0.0 0.0 1022.0 0.0 0.0 19.4 0.0
03/03/19 19:40 19.3 75 14.8 0.0 0.0 0 0.0 0.0 1022.0 0.0 0.0 19.3 0.0
03/03/19 19:41 19.3 75 14.8 0.0 0.0 0 0.0 0.0 1022.0 0.0 0.0 19.3 0.0
03/03/19 19:42 19.3 75 14.8 0.0 0.0 0 0.0 0.0 1022.0 0.0 0.0 19.3 0.0
03/03/19 19:43 19.3 75 14.8 0.0 0.0 0 0.0 0.0 1022.0 0.0 0.0 19.3 0.0
03/03/19 19:44 19.2 76 14.9 0.0 0.0 0 0.0 0.0 1022.0 0.0 0.0 19.2 0.0
03/03/19 19:48 19.2 77 15.1 0.0 0.0 0 0.0 0.0 1022.0 0.0 0.0 19.2 0.0
03/03/19 19:49 19.1 78 15.2 0.0 0.0 0 0.0 0.0 1022.0 0.0 0.0 19.1 0.0
03/03/19 19:50 19.1 78 15.2 0.0 0.0 0 0.0 0.0 1022.0 0.0 0.0 19.1 0.0
03/03/19 19:51 19.1 78 15.2 0.0 0.0 0 0.0 0.0 1022.0 0.0 0.0 19.1 0.0
03/03/19 19:52 19.0 78 15.1 0.0 0.0 0 0.0 0.0 1022.0 0.0 0.0 19.0 0.0
03/03/19 19:53 19.0 78 15.1 0.0 0.0 0 0.0 0.0 1022.0 0.0 0.0 19.0 0.0
03/03/19 19:54 19.0 78 15.1 0.0 0.0 0 0.0 0.0 1022.0 0.0 0.0 19.0 0.0
03/03/19 19:55 19.0 78 15.1 0.0 0.0 0 0.0 0.0 1022.0 0.0 0.0 19.0 0.0
03/03/19 19:56 18.9 79 15.2 0.0 0.0 0 0.0 0.0 1022.0 0.0 0.0 18.9 0.0
03/03/19 19:57 18.9 79 15.2 0.0 0.0 0 0.0 0.0 1022.0 0.0 0.0 18.9 0.0
03/03/19 19:58 18.9 79 15.2 0.0 0.0 0 0.0 0.0 1022.0 0.0 0.0 18.9 0.0
03/03/19 19:59 18.8 79 15.1 0.0 0.0 0 0.0 0.0 1022.0 0.0 0.0 18.8 0.0
03/03/19 20:00 18.8 80 15.3 0.0 0.0 0 0.0 0.0 1022.0 0.0 0.0 18.8 0.0
03/03/19 20:03 18.7 80 15.2 0.0 0.0 0 0.0 0.0 1022.0 0.0 0.0 18.7 0.0
03/03/19 20:04 18.7 80 15.2 0.0 0.0 0 0.0 0.0 1022.0 0.0 0.0 18.7 0.0
03/03/19 20:05 18.7 81 15.4 0.0 0.0 0 0.0 0.0 1022.0 0.0 0.0 18.7 0.0
03/03/19 20:06 18.7 81 15.4 0.0 0.0 0 0.0 0.0 1022.0 0.0 0.0 18.7 0.0
03/03/19 20:07 18.6 81 15.3 0.0 0.0 0 0.0 0.0 1022.0 0.0 0.0 18.6 0.0
03/03/19 20:08 18.6 80 15.1 0.0 0.0 0 0.0 0.0 1022.0 0.0 0.0 18.6 0.0
03/03/19 20:09 18.6 80 15.1 0.0 0.0 0 0.0 0.0 1022.0 0.0 0.0 18.6 0.0
03/03/19 20:10 18.5 80 15.0 0.0 0.0 0 0.0 0.0 1022.0 0.0 0.0 18.5 0.0
03/03/19 20:11 18.5 80 15.0 0.0 0.0 0 0.0 0.0 1022.0 0.0 0.0 18.5 0.0
03/03/19 20:12 18.5 81 15.2 0.0 0.0 0 0.0 0.0 1022.0 0.0 0.0 18.5 0.0
03/03/19 20:13 18.4 81 15.1 0.0 0.0 0 0.0 0.0 1022.0 0.0 0.0 18.4 0.0
03/03/19 20:14 18.4 81 15.1 0.0 0.0 0 0.0 0.0 1022.0 0.0 0.0 18.4 0.0
03/03/19 20:15 18.4 81 15.1 0.0 0.0 0 0.0 0.0 1022.0 0.0 0.0 18.4 0.0
03/03/19 20:18 18.3 81 15.0 0.0 0.0 0 0.0 0.0 1022.0 0.0 0.0 18.3 0.0
03/03/19 20:19 18.3 81 15.0 0.0 0.0 0 0.0 0.0 1022.0 0.0 0.0 18.3 0.0
03/03/19 20:20 18.3 81 15.0 0.0 0.0 0 0.0 0.0 1022.0 0.0 0.0 18.3 0.0
03/03/19 20:21 18.2 81 14.9 0.0 0.0 0 0.0 0.0 1022.0 0.0 0.0 18.2 0.0
03/03/19 20:22 18.2 81 14.9 0.0 0.0 0 0.0 0.0 1022.0 0.0 0.0 18.2 0.0
03/03/19 20:23 18.2 81 14.9 0.0 0.0 0 0.0 0.0 1022.0 0.0 0.0 18.2 0.0
03/03/19 20:24 18.2 81 14.9 0.0 0.0 0 0.0 0.0 1022.0 0.0 0.0 18.2 0.0
03/03/19 20:25 18.2 81 14.9 0.0 0.0 0 0.0 0.0 1022.0 0.0 0.0 18.2 0.0
03/03/19 20:26 18.1 82 15.0 0.0 0.0 0 0.0 0.0 1022.0 0.0 0.0 18.1 0.0
03/03/19 20:27 18.1 81 14.8 0.0 0.0 0 0.0 0.0 1022.0 0.0 0.0 18.1 0.0
03/03/19 20:28 18.0 81 14.7 0.0 0.0 0 0.0 0.0 1022.0 0.0 0.0 18.0 0.0
03/03/19 20:29 18.0 81 14.7 0.0 0.0 0 0.0 0.0 1022.0 0.0 0.0 18.0 0.0
03/03/19 20:30 18.0 81 14.7 0.0 0.0 0 0.0 0.0 1022.0 0.0 0.0 18.0 0.0
03/03/19 20:33 17.9 82 14.8 0.0 0.0 0 0.0 0.0 1022.0 0.0 0.0 17.9 0.0
03/03/19 20:34 17.9 83 15.0 0.0 0.0 0 0.0 0.0 1022.0 0.0 0.0 17.9 0.0
03/03/19 20:35 17.9 83 15.0 0.0 0.0 0 0.0 0.0 1022.0 0.0 0.0 17.9 0.0
03/03/19 20:36 17.9 83 15.0 0.0 0.0 0 0.0 0.0 1022.0 0.0 0.0 17.9 0.0
03/03/19 20:37 17.8 83 14.9 0.0 0.0 0 0.0 0.0 1022.0 0.0 0.0 17.8 0.0
03/03/19 20:38 17.8 83 14.9 0.0 0.0 0 0.0 0.0 1022.0 0.0 0.0 17.8 0.0
03/03/19 20:39 17.8 83 14.9 0.0 0.0 0 0.0 0.0 1022.0 0.0 0.0 17.8 0.0
03/03/19 20:40 17.7 83 14.8 0.0 0.0 0 0.0 0.0 1022.0 0.0 0.0 17.7 0.0
03/03/19 20:41 17.7 83 14.8 0.0 0.0 0 0.0 0.0 1022.0 0.0 0.0 17.7 0.0
03/03/19 20:42 17.7 83 14.8 0.0 0.0 0 0.0 0.0 1022.0 0.0 0.0 17.7 0.0
03/03/19 20:43 17.7 84 15.0 0.0 0.0 0 0.0 0.0 1022.0 0.0 0.0 17.7 0.0
03/03/19 20:44 17.7 83 14.8 0.0 0.0 0 0.0 0.0 1022.0 0.0 0.0 17.7 0.0
03/03/19 20:45 17.6 83 14.7 0.0 0.0 0 0.0 0.0 1022.0 0.0 0.0 17.6 0.0
03/03/19 20:48 17.5 84 14.8 0.0 0.0 0 0.0 0.0 1022.0 0.0 0.0 17.5 0.0
03/03/19 20:49 17.5 84 14.8 0.0 0.0 0 0.0 0.0 1022.0 0.0 0.0 17.5 0.0
03/03/19 20:50 17.5 84 14.8 0.0 0.0 0 0.0 0.0 1022.0 0.0 0.0 17.5 0.0
03/03/19 20:51 17.4 84 14.7 0.0 0.0 0 0.0 0.0 1022.0 0.0 0.0 17.4 0.0
03/03/19 20:52 17.4 85 14.9 0.0 0.0 0 0.0 0.0 1022.0 0.0 0.0 17.4 0.0
03/03/19 20:53 17.4 85 14.9 0.0 0.0 0 0.0 0.0 1023.0 0.0 0.0 17.4 0.0
03/03/19 20:54 17.4 85 14.9 0.0 0.0 0 0.0 0.0 1023.0 0.0 0.0 17.4 0.0
03/03/19 20:55 17.4 85 14.9 0.0 0.0 0 0.0 0.0 1023.0 0.0 0.0 17.4 0.0
03/03/19 20:56 17.4 86 15.0 0.0 0.0 0 0.0 0.0 1023.0 0.0 0.0 17.4 0.0
03/03/19 20:57 17.4 86 15.0 0.0 0.0 0 0.0 0.0 1023.0 0.0 0.0 17.4 0.0
03/03/19 20:58 17.3 86 14.9 0.0 0.0 0 0.0 0.0 1023.0 0.0 0.0 17.3 0.0
03/03/19 20:59 17.3 86 14.9 0.0 0.0 0 0.0 0.0 1023.0 0.0 0.0 17.3 0.0
03/03/19 21:00 17.3 87 15.1 0.0 0.0 0 0.0 0.0 1023.0 0.0 0.0 17.3 0.0
03/03/19 21:03 17.3 87 15.1 0.0 0.0 0 0.0 0.0 1023.0 0.0 0.0 17.3 0.0
03/03/19 21:04 17.3 86 14.9 0.0 0.0 0 0.0 0.0 1023.0 0.0 0.0 17.3 0.0
03/03/19 21:05 17.2 87 15.0 0.0 0.0 0 0.0 0.0 1023.0 0.0 0.0 17.2 0.0
03/03/19 21:06 17.2 87 15.0 0.0 0.0 0 0.0 0.0 1023.0 0.0 0.0 17.2 0.0
03/03/19 21:07 17.2 87 15.0 0.0 0.0 0 0.0 0.0 1023.0 0.0 0.0 17.2 0.0
03/03/19 21:08 17.2 87 15.0 0.0 0.0 0 0.0 0.0 1023.0 0.0 0.0 17.2 0.0
03/03/19 21:09 17.2 88 15.2 0.0 0.0 0 0.0 0.0 1023.0 0.0 0.0 17.2 0.0
03/03/19 21:10 17.2 88 15.2 0.0 0.0 0 0.0 0.0 1023.0 0.0 0.0 17.2 0.0
03/03/19 21:11 17.2 88 15.2 0.0 0.0 0 0.0 0.0 1023.0 0.0 0.0 17.2 0.0
03/03/19 21:12 17.1 88 15.1 0.0 0.0 0 0.0 0.0 1023.0 0.0 0.0 17.1 0.0
03/03/19 21:13 17.1 88 15.1 0.0 0.0 0 0.0 0.0 1023.0 0.0 0.0 17.1 0.0
03/03/19 21:14 17.1 87 14.9 0.0 0.0 0 0.0 0.0 1023.0 0.0 0.0 17.1 0.0
03/03/19 21:15 17.1 88 15.1 0.0 0.0 0 0.0 0.0 1023.0 0.0 0.0 17.1 0.0
03/03/19 21:18 17.0 88 15.0 0.0 0.0 0 0.0 0.0 1023.0 0.0 0.0 17.0 0.0
03/03/19 21:19 17.0 88 15.0 0.0 0.0 0 0.0 0.0 1023.0 0.0 0.0 17.0 0.0
03/03/19 21:20 17.0 88 15.0 0.0 0.0 0 0.0 0.0 1023.0 0.0 0.0 17.0 0.0
03/03/19 21:21 17.0 88 15.0 0.0 0.0 0 0.0 0.0 1023.0 0.0 0.0 17.0 0.0
03/03/19 21:22 17.0 89 15.2 0.0 0.0 0 0.0 0.0 1023.0 0.0 0.0 17.0 0.0
03/03/19 21:23 17.0 89 15.2 0.0 0.0 0 0.0 0.0 1023.0 0.0 0.0 17.0 0.0
03/03/19 21:24 17.0 89 15.2 0.0 0.0 0 0.0 0.0 1023.0 0.0 0.0 17.0 0.0
03/03/19 21:25 17.0 89 15.2 0.0 0.0 0 0.0 0.0 1023.0 0.0 0.0 17.0 0.0
03/03/19 21:26 16.9 90 15.2 0.0 0.0 0 0.0 0.0 1023.0 0.0 0.0 16.9 0.0
03/03/19 21:27 16.9 89 15.1 0.0 0.0 0 0.0 0.0 1023.0 0.0 0.0 16.9 0.0
03/03/19 21:28 16.9 89 15.1 0.0 0.0 0 0.0 0.0 1023.0 0.0 0.0 16.9 0.0
03/03/19 21:29 16.9 89 15.1 0.0 0.0 0 0.0 0.0 1023.0 0.0 0.0 16.9 0.0
03/03/19 21:33 16.8 90 15.1 0.0 0.0 0 0.0 0.0 1023.0 0.0 0.0 16.8 0.0
03/03/19 21:34 16.8 90 15.1 0.0 0.0 0 0.0 0.0 1023.0 0.0 0.0 16.8 0.0
03/03/19 21:35 16.8 90 15.1 0.0 0.0 0 0.0 0.0 1023.0 0.0 0.0 16.8 0.0
03/03/19 21:36 16.7 90 15.1 0.0 0.0 0 0.0 0.0 1023.0 0.0 0.0 16.7 0.0
03/03/19 21:37 16.8 90 15.1 0.0 0.0 0 0.0 0.0 1023.0 0.0 0.0 16.8 0.0
03/03/19 21:38 16.7 90 15.1 0.0 0.0 0 0.0 0.0 1023.0 0.0 0.0 16.7 0.0
03/03/19 21:39 16.7 90 15.1 1.8 1.8 1 0.0 0.0 1023.0 1.8 16.7 16.7 0.0
03/03/19 21:48 16.6 91 15.1 1.8 1.8 1 0.0 0.0 1023.0 1.8 16.6 16.6 0.0
03/03/19 21:49 16.5 91 15.0 1.8 1.8 1 0.0 0.0 1023.0 1.8 16.6 16.5 0.0
03/03/19 21:50 16.5 92 15.2 1.8 1.8 1 0.0 0.0 1023.0 1.8 16.5 16.5 0.0
03/03/19 21:51 16.5 92 15.2 1.8 1.8 1 0.0 0.0 1023.0 1.8 16.5 16.5 0.0
03/03/19 21:52 16.5 92 15.2 1.8 1.8 1 0.0 0.0 1023.0 1.8 16.5 16.5 0.0
03/03/19 21:53 16.5 92 15.2 1.8 1.8 1 0.0 0.0 1023.0 1.8 16.5 16.5 0.0
03/03/19 21:54 16.5 92 15.2 1.8 1.8 1 0.0 0.0 1023.0 1.8 16.5 16.5 0.0
03/03/19 21:55 16.5 92 15.2 1.8 1.8 1 0.0 0.0 1023.0 1.8 16.5 16.5 0.0
03/03/19 21:56 16.5 92 15.2 1.8 1.8 1 0.0 0.0 1023.0 1.8 16.5 16.5 0.0
03/03/19 21:57 16.5 92 15.2 1.8 1.8 1 0.0 0.0 1023.0 1.8 16.5 16.5 0.0
03/03/19 21:58 16.5 93 15.4 1.8 1.8 1 0.0 0.0 1023.0 1.8 16.5 16.5 0.0
03/03/19 21:59 16.4 93 15.3 1.8 1.8 1 0.0 0.0 1023.0 1.8 16.5 16.4 0.0
03/03/19 22:00 16.4 93 15.3 1.8 1.8 1 0.0 0.0 1023.0 1.8 16.5 16.4 0.0
03/03/19 22:03 16.4 93 15.3 0.0 0.0 0 0.0 0.0 1023.0 0.0 0.0 16.4 0.0
03/03/19 22:04 16.4 93 15.3 0.0 0.0 0 0.0 0.0 1023.0 0.0 0.0 16.4 0.0
03/03/19 22:05 16.4 93 15.3 0.0 0.0 0 0.0 0.0 1023.0 0.0 0.0 16.4 0.0
03/03/19 22:06 16.4 93 15.3 0.0 0.0 0 0.0 0.0 1023.0 0.0 0.0 16.4 0.0
03/03/19 22:07 16.3 93 15.2 0.0 0.0 0 0.0 0.0 1023.0 0.0 0.0 16.3 0.0
03/03/19 22:08 16.3 93 15.2 0.0 0.0 0 0.0 0.0 1023.0 0.0 0.0 16.3 0.0
03/03/19 22:09 16.3 93 15.2 0.0 0.0 0 0.0 0.0 1023.0 0.0 0.0 16.3 0.0
03/03/19 22:10 16.3 93 15.2 0.0 0.0 0 0.0 0.0 1023.0 0.0 0.0 16.3 0.0
03/03/19 22:11 16.3 93 15.2 0.0 0.0 0 0.0 0.0 1023.0 0.0 0.0 16.3 0.0
03/03/19 22:12 16.3 93 15.2 0.0 0.0 0 0.0 0.0 1023.0 0.0 0.0 16.3 0.0
03/03/19 22:13 16.2 93 15.1 0.0 0.0 0 0.0 0.0 1023.0 0.0 0.0 16.2 0.0
03/03/19 22:14 16.2 93 15.1 0.0 0.0 0 0.0 0.0 1023.0 0.0 0.0 16.2 0.0
03/03/19 22:15 16.3 94 15.3 0.0 0.0 0 0.0 0.0 1023.0 0.0 0.0 16.3 0.0
03/03/19 22:18 16.2 93 15.1 0.0 0.0 0 0.0 0.0 1023.0 0.0 0.0 16.2 0.0
03/03/19 22:33 15.9 94 14.9 0.0 0.0 0 0.0 0.0 1024.0 0.0 0.0 15.9 0.0
03/03/19 22:34 15.9 94 14.9 0.0 0.0 0 0.0 0.0 1024.0 0.0 0.0 15.9 0.0
03/03/19 22:35 15.9 95 15.1 0.0 0.0 0 0.0 0.0 1024.0 0.0 0.0 15.9 0.0
03/03/19 22:36 15.9 95 15.1 0.0 0.0 0 0.0 0.0 1024.0 0.0 0.0 15.9 0.0
03/03/19 22:37 15.8 95 15.0 0.0 0.0 0 0.0 0.0 1024.0 0.0 0.0 15.8 0.0
03/03/19 22:38 15.8 95 15.0 0.0 0.0 0 0.0 0.0 1023.0 0.0 0.0 15.8 0.0
03/03/19 22:39 15.9 95 15.1 0.0 0.0 0 0.0 0.0 1023.0 0.0 0.0 15.9 0.0
03/03/19 22:40 15.8 95 15.0 0.0 0.0 0 0.0 0.0 1023.0 0.0 0.0 15.8 0.0
03/03/19 22:41 15.9 95 15.1 0.0 0.0 0 0.0 0.0 1023.0 0.0 0.0 15.9 0.0
03/03/19 22:42 15.8 95 15.0 0.0 0.0 0 0.0 0.0 1023.0 0.0 0.0 15.8 0.0
03/03/19 22:43 15.8 95 15.0 0.0 0.0 0 0.0 0.0 1023.0 0.0 0.0 15.8 0.0
03/03/19 22:44 15.8 95 15.0 0.0 0.0 0 0.0 0.0 1023.0 0.0 0.0 15.8 0.0
03/03/19 22:45 15.8 95 15.0 0.0 0.0 0 0.0 0.0 1023.0 0.0 0.0 15.8 0.0
03/03/19 22:48 15.8 95 15.0 0.0 0.0 0 0.0 0.0 1023.0 0.0 0.0 15.8 0.0
03/03/19 22:49 15.7 95 14.9 0.0 0.0 0 0.0 0.0 1023.0 0.0 0.0 15.7 0.0
03/03/19 22:50 15.7 95 14.9 0.0 0.0 0 0.0 0.0 1023.0 0.0 0.0 15.7 0.0
03/03/19 22:51 15.7 95 14.9 0.0 0.0 0 0.0 0.0 1023.0 0.0 0.0 15.7 0.0
03/03/19 22:52 15.7 95 14.9 0.0 0.0 0 0.0 0.0 1023.0 0.0 0.0 15.7 0.0
03/03/19 22:53 15.7 95 14.9 0.0 0.0 0 0.0 0.0 1023.0 0.0 0.0 15.7 0.0
03/03/19 22:54 15.7 95 14.9 0.0 0.0 0 0.0 0.0 1023.0 0.0 0.0 15.7 0.0
03/03/19 22:55 15.7 95 14.9 0.0 0.0 0 0.0 0.0 1023.0 0.0 0.0 15.7 0.0
03/03/19 22:56 15.7 95 14.9 0.0 0.0 0 0.0 0.0 1023.0 0.0 0.0 15.7 0.0
03/03/19 22:57 15.7 95 14.9 0.0 0.0 0 0.0 0.0 1023.0 0.0 0.0 15.7 0.0
03/03/19 22:58 15.7 96 15.1 0.0 0.0 0 0.0 0.0 1023.0 0.0 0.0 15.7 0.0
03/03/19 22:59 15.7 96 15.1 0.0 0.0 0 0.0 0.0 1023.0 0.0 0.0 15.7 0.0
03/03/19 23:00 15.7 96 15.1 0.0 0.0 0 0.0 0.0 1023.0 0.0 0.0 15.7 0.0
03/03/19 23:03 15.6 96 15.0 0.0 0.0 0 0.0 0.0 1023.0 0.0 0.0 15.6 0.0
03/03/19 23:04 15.6 96 15.0 0.0 0.0 0 0.0 0.0 1023.0 0.0 0.0 15.6 0.0
03/03/19 23:05 15.6 96 15.0 0.0 0.0 0 0.0 0.0 1023.0 0.0 0.0 15.6 0.0
03/03/19 23:06 15.6 96 15.0 0.0 0.0 0 0.0 0.0 1023.0 0.0 0.0 15.6 0.0
03/03/19 23:07 15.6 96 15.0 0.0 0.0 0 0.0 0.0 1023.0 0.0 0.0 15.6 0.0
03/03/19 23:08 15.6 96 15.0 0.0 0.0 0 0.0 0.0 1023.0 0.0 0.0 15.6 0.0
03/03/19 23:09 15.6 96 15.0 0.0 0.0 0 0.0 0.0 1023.0 0.0 0.0 15.6 0.0
03/03/19 23:10 15.6 96 15.0 0.0 0.0 0 0.0 0.0 1023.0 0.0 0.0 15.6 0.0
03/03/19 23:11 15.6 96 15.0 0.0 0.0 0 0.0 0.0 1023.0 0.0 0.0 15.6 0.0
03/03/19 23:12 15.6 96 15.0 0.0 0.0 0 0.0 0.0 1023.0 0.0 0.0 15.6 0.0
03/03/19 23:13 15.6 96 15.0 0.0 0.0 0 0.0 0.0 1023.0 0.0 0.0 15.6 0.0
03/03/19 23:14 15.6 96 15.0 0.0 0.0 0 0.0 0.0 1023.0 0.0 0.0 15.6 0.0
03/03/19 23:15 15.6 96 15.0 0.0 0.0 0 0.0 0.0 1023.0 0.0 0.0 15.6 0.0
03/03/19 23:18 15.6 96 15.0 0.0 0.0 0 0.0 0.0 1023.0 0.0 0.0 15.6 0.0
03/03/19 23:19 15.6 96 15.0 0.0 0.0 0 0.0 0.0 1023.0 0.0 0.0 15.6 0.0
03/03/19 23:20 15.6 96 15.0 0.0 0.0 0 0.0 0.0 1023.0 0.0 0.0 15.6 0.0
03/03/19 23:21 15.6 96 15.0 0.0 0.0 0 0.0 0.0 1023.0 0.0 0.0 15.6 0.0
03/03/19 23:22 15.5 96 14.9 0.0 0.0 0 0.0 0.0 1023.0 0.0 0.0 15.5 0.0
03/03/19 23:23 15.5 96 14.9 0.0 0.0 0 0.0 0.0 1023.0 0.0 0.0 15.5 0.0
03/03/19 23:24 15.5 96 14.9 0.0 0.0 0 0.0 0.0 1023.0 0.0 0.0 15.5 0.0
03/03/19 23:25 15.5 96 14.9 0.0 0.0 0 0.0 0.0 1023.0 0.0 0.0 15.5 0.0
03/03/19 23:26 15.5 96 14.9 0.0 0.0 0 0.0 0.0 1023.0 0.0 0.0 15.5 0.0
03/03/19 23:27 15.5 96 14.9 0.0 0.0 0 0.0 0.0 1023.0 0.0 0.0 15.5 0.0
03/03/19 23:28 15.4 96 14.8 0.0 0.0 0 0.0 0.0 1023.0 0.0 0.0 15.4 0.0
03/03/19 23:29 15.5 96 14.9 0.0 0.0 0 0.0 0.0 1023.0 0.0 0.0 15.5 0.0
03/03/19 23:30 15.5 96 14.9 0.0 0.0 0 0.0 0.0 1023.0 0.0 0.0 15.5 0.0
03/03/19 23:33 15.5 96 14.9 0.0 0.0 0 0.0 0.0 1023.0 0.0 0.0 15.5 0.0
03/03/19 23:34 15.4 96 14.8 0.0 0.0 0 0.0 0.0 1023.0 0.0 0.0 15.4 0.0
03/03/19 23:35 15.4 96 14.8 0.0 0.0 0 0.0 0.0 1023.0 0.0 0.0 15.4 0.0
03/03/19 23:36 15.4 95 14.6 0.0 0.0 0 0.0 0.0 1023.0 0.0 0.0 15.4 0.0
03/03/19 23:37 15.4 95 14.6 0.0 0.0 0 0.0 0.0 1023.0 0.0 0.0 15.4 0.0
03/03/19 23:38 15.4 95 14.6 0.0 0.0 0 0.0 0.0 1023.0 0.0 0.0 15.4 0.0
03/03/19 23:39 15.4 95 14.6 2.2 1.8 135 0.0 0.0 1023.0 1.8 15.4 15.4 0.0
03/03/19 23:40 15.4 95 14.6 2.2 1.8 135 0.0 0.0 1023.0 1.8 15.4 15.4 0.0
03/03/19 23:41 15.4 95 14.6 2.2 1.8 135 0.0 0.0 1023.0 1.8 15.4 15.4 0.0
03/03/19 23:42 15.4 95 14.6 2.2 1.8 135 0.0 0.0 1023.0 1.8 15.4 15.4 0.0
03/03/19 23:43 15.4 95 14.6 2.2 1.8 135 0.0 0.0 1023.0 1.8 15.4 15.4 0.0
03/03/19 23:44 15.3 95 14.5 2.2 1.8 135 0.0 0.0 1023.0 1.8 15.3 15.3 0.0
03/03/19 23:45 15.3 95 14.5 2.2 1.8 135 0.0 0.0 1023.0 1.8 15.3 15.3 0.0
03/03/19 23:47 15.3 95 14.5 2.2 1.8 135 0.0 0.0 1023.0 1.8 0.0 15.3 0.0
03/03/19 23:48 15.3 95 14.5 2.2 1.8 135 0.0 0.0 1023.0 1.8 15.3 15.3 0.0
03/03/19 23:49 15.3 95 14.5 2.2 1.8 135 0.0 0.0 1023.0 1.8 15.3 15.3 0.0
03/03/19 23:50 15.3 95 14.5 2.2 1.8 135 0.0 0.0 1023.0 1.8 15.3 15.3 0.0
03/03/19 23:51 15.3 95 14.5 2.2 1.8 135 0.0 0.0 1023.0 1.8 15.3 15.3 0.0
03/03/19 23:52 15.3 95 14.5 2.2 1.8 135 0.0 0.0 1023.0 1.8 15.3 15.3 0.0
03/03/19 23:53 15.2 95 14.4 2.2 1.8 135 0.0 0.0 1023.0 1.8 15.3 15.2 0.0
03/03/19 23:54 15.2 95 14.4 2.2 1.8 135 0.0 0.0 1023.0 1.8 15.3 15.2 0.0
03/03/19 23:55 15.2 95 14.4 2.2 1.8 135 0.0 0.0 1023.0 1.8 15.3 15.2 0.0
03/03/19 23:56 15.2 95 14.4 2.2 1.8 135 0.0 0.0 1023.0 1.8 15.3 15.2 0.0
03/03/19 23:57 15.2 95 14.4 2.2 1.8 135 0.0 0.0 1023.0 1.8 15.3 15.2 0.0
03/03/19 23:58 15.2 95 14.4 2.2 1.8 135 0.0 0.0 1023.0 1.8 15.3 15.2 0.0
03/03/19 23:59 15.2 95 14.4 2.2 1.8 135 0.0 0.0 1023.0 1.8 15.3 15.2 0.0
 
  Back to Top
Date Time Temperature Humidity Dewpoint Wind Speed High Gust Wind Bearing Rainfall Rate Total Rainfall Pressure Gust Wind Chill Heat Index UV Index
04/03/19 00:03 15.2 95 14.4 0.0 0.0 0 0.0 0.0 1023.0 0.0 0.0 15.2 0.0
04/03/19 00:04 15.2 95 14.4 0.0 0.0 0 0.0 0.0 1023.0 0.0 0.0 15.2 0.0
04/03/19 00:05 15.2 95 14.4 0.0 0.0 0 0.0 0.0 1023.0 0.0 0.0 15.2 0.0
04/03/19 00:06 15.2 95 14.4 0.0 0.0 0 0.0 0.0 1023.0 0.0 0.0 15.2 0.0
04/03/19 00:07 15.2 95 14.4 0.0 0.0 0 0.0 0.0 1023.0 0.0 0.0 15.2 0.0
04/03/19 00:08 15.2 95 14.4 0.0 0.0 0 0.0 0.0 1024.0 0.0 0.0 15.2 0.0
04/03/19 00:09 15.2 95 14.4 0.0 0.0 0 0.0 0.0 1024.0 0.0 0.0 15.2 0.0
04/03/19 00:10 15.2 95 14.4 0.0 0.0 0 0.0 0.0 1024.0 0.0 0.0 15.2 0.0
04/03/19 00:11 15.2 95 14.4 0.0 0.0 0 0.0 0.0 1024.0 0.0 0.0 15.2 0.0
04/03/19 00:12 15.2 95 14.4 0.0 0.0 0 0.0 0.0 1024.0 0.0 0.0 15.2 0.0
04/03/19 00:13 15.2 95 14.4 0.0 0.0 0 0.0 0.0 1024.0 0.0 0.0 15.2 0.0
04/03/19 00:14 15.1 95 14.3 0.0 0.0 0 0.0 0.0 1024.0 0.0 0.0 15.1 0.0
04/03/19 00:18 15.1 95 14.3 0.0 0.0 0 0.0 0.0 1024.0 0.0 0.0 15.1 0.0
04/03/19 00:19 15.1 94 14.1 0.0 0.0 0 0.0 0.0 1024.0 0.0 0.0 15.1 0.0
04/03/19 00:20 15.1 94 14.1 0.0 0.0 0 0.0 0.0 1024.0 0.0 0.0 15.1 0.0
04/03/19 00:21 15.1 94 14.1 0.0 0.0 0 0.0 0.0 1024.0 0.0 0.0 15.1 0.0
04/03/19 00:22 15.1 95 14.3 0.0 0.0 0 0.0 0.0 1024.0 0.0 0.0 15.1 0.0
04/03/19 00:23 15.1 95 14.3 0.0 0.0 0 0.0 0.0 1023.0 0.0 0.0 15.1 0.0
04/03/19 00:24 15.1 94 14.1 0.0 0.0 0 0.0 0.0 1023.0 0.0 0.0 15.1 0.0
04/03/19 00:25 15.1 94 14.1 0.0 0.0 0 0.0 0.0 1023.0 0.0 0.0 15.1 0.0
04/03/19 00:26 15.0 94 14.0 0.0 0.0 0 0.0 0.0 1023.0 0.0 0.0 15.0 0.0
04/03/19 00:27 15.1 94 14.1 0.0 0.0 0 0.0 0.0 1023.0 0.0 0.0 15.1 0.0
04/03/19 00:28 15.0 94 14.0 0.0 0.0 0 0.0 0.0 1023.0 0.0 0.0 15.0 0.0
04/03/19 00:29 15.0 94 14.0 0.0 0.0 0 0.0 0.0 1023.0 0.0 0.0 15.0 0.0
04/03/19 00:30 15.0 94 14.0 0.0 0.0 0 0.0 0.0 1023.0 0.0 0.0 15.0 0.0
04/03/19 00:33 15.0 94 14.0 0.0 0.0 0 0.0 0.0 1023.0 0.0 0.0 15.0 0.0
04/03/19 00:34 15.0 94 14.0 0.0 0.0 0 0.0 0.0 1023.0 0.0 0.0 15.0 0.0
04/03/19 00:35 15.0 94 14.0 0.0 0.0 0 0.0 0.0 1023.0 0.0 0.0 15.0 0.0
04/03/19 00:36 14.9 95 14.1 0.0 0.0 0 0.0 0.0 1023.0 0.0 0.0 14.9 0.0
04/03/19 00:37 14.9 95 14.1 0.0 0.0 0 0.0 0.0 1023.0 0.0 0.0 14.9 0.0
04/03/19 00:38 14.9 95 14.1 0.0 0.0 0 0.0 0.0 1023.0 0.0 0.0 14.9 0.0
04/03/19 00:39 14.9 95 14.1 0.0 0.0 0 0.0 0.0 1023.0 0.0 0.0 14.9 0.0
04/03/19 00:40 14.9 95 14.1 0.0 0.0 0 0.0 0.0 1023.0 0.0 0.0 14.9 0.0
04/03/19 00:41 14.9 95 14.1 0.0 0.0 0 0.0 0.0 1023.0 0.0 0.0 14.9 0.0
04/03/19 00:42 14.9 95 14.1 0.0 0.0 0 0.0 0.0 1023.0 0.0 0.0 14.9 0.0
04/03/19 00:43 14.9 95 14.1 0.0 0.0 0 0.0 0.0 1023.0 0.0 0.0 14.9 0.0
04/03/19 00:44 14.9 95 14.1 0.0 0.0 0 0.0 0.0 1023.0 0.0 0.0 14.9 0.0
04/03/19 00:45 14.9 95 14.1 0.0 0.0 0 0.0 0.0 1023.0 0.0 0.0 14.9 0.0
04/03/19 00:48 14.8 95 14.0 0.0 0.0 0 0.0 0.0 1023.0 0.0 0.0 14.8 0.0
04/03/19 00:49 14.8 95 14.0 0.0 0.0 0 0.0 0.0 1023.0 0.0 0.0 14.8 0.0
04/03/19 00:50 14.8 95 14.0 0.0 0.0 0 0.0 0.0 1023.0 0.0 0.0 14.8 0.0
04/03/19 00:51 14.8 95 14.0 0.0 0.0 0 0.0 0.0 1023.0 0.0 0.0 14.8 0.0
04/03/19 00:52 14.8 95 14.0 0.0 0.0 0 0.0 0.0 1023.0 0.0 0.0 14.8 0.0
04/03/19 00:53 14.8 95 14.0 0.0 0.0 0 0.0 0.0 1023.0 0.0 0.0 14.8 0.0
04/03/19 00:54 14.8 95 14.0 0.0 0.0 0 0.0 0.0 1023.0 0.0 0.0 14.8 0.0
04/03/19 00:55 14.8 95 14.0 0.0 0.0 0 0.0 0.0 1023.0 0.0 0.0 14.8 0.0
04/03/19 00:56 14.8 95 14.0 0.0 0.0 0 0.0 0.0 1023.0 0.0 0.0 14.8 0.0
04/03/19 00:57 14.8 95 14.0 0.0 0.0 0 0.0 0.0 1023.0 0.0 0.0 14.8 0.0
04/03/19 00:58 14.8 95 14.0 0.0 0.0 0 0.0 0.0 1023.0 0.0 0.0 14.8 0.0
04/03/19 00:59 14.8 95 14.0 0.0 0.0 0 0.0 0.0 1023.0 0.0 0.0 14.8 0.0
04/03/19 01:03 14.7 95 13.9 0.0 0.0 0 0.0 0.0 1023.0 0.0 0.0 14.7 0.0
04/03/19 01:04 14.7 95 13.9 0.0 0.0 0 0.0 0.0 1023.0 0.0 0.0 14.7 0.0
04/03/19 01:05 14.8 95 14.0 0.0 0.0 0 0.0 0.0 1023.0 0.0 0.0 14.8 0.0
04/03/19 01:06 14.7 95 13.9 0.0 0.0 0 0.0 0.0 1023.0 0.0 0.0 14.7 0.0
04/03/19 01:07 14.7 95 13.9 0.0 0.0 0 0.0 0.0 1023.0 0.0 0.0 14.7 0.0
04/03/19 01:08 14.7 95 13.9 0.0 0.0 0 0.0 0.0 1023.0 0.0 0.0 14.7 0.0
04/03/19 01:09 14.7 95 13.9 0.0 0.0 0 0.0 0.0 1023.0 0.0 0.0 14.7 0.0
04/03/19 01:10 14.7 95 13.9 0.0 0.0 0 0.0 0.0 1023.0 0.0 0.0 14.7 0.0
04/03/19 01:11 14.7 95 13.9 0.0 0.0 0 0.0 0.0 1023.0 0.0 0.0 14.7 0.0
04/03/19 01:12 14.7 95 13.9 0.0 0.0 0 0.0 0.0 1023.0 0.0 0.0 14.7 0.0
04/03/19 01:13 14.7 95 13.9 0.0 0.0 0 0.0 0.0 1023.0 0.0 0.0 14.7 0.0
04/03/19 01:14 14.7 95 13.9 0.0 0.0 0 0.0 0.0 1023.0 0.0 0.0 14.7 0.0
04/03/19 01:15 14.7 95 13.9 0.0 0.0 0 0.0 0.0 1023.0 0.0 0.0 14.7 0.0
04/03/19 01:18 14.7 95 13.9 0.0 0.0 0 0.0 0.0 1023.0 0.0 0.0 14.7 0.0
04/03/19 01:19 14.7 95 13.9 0.0 0.0 0 0.0 0.0 1023.0 0.0 0.0 14.7 0.0
04/03/19 01:20 14.7 95 13.9 0.0 0.0 0 0.0 0.0 1023.0 0.0 0.0 14.7 0.0
04/03/19 01:21 14.7 95 13.9 0.0 0.0 0 0.0 0.0 1023.0 0.0 0.0 14.7 0.0
04/03/19 01:22 14.7 95 13.9 0.0 0.0 0 0.0 0.0 1023.0 0.0 0.0 14.7 0.0
04/03/19 01:23 14.7 95 13.9 0.0 0.0 0 0.0 0.0 1023.0 0.0 0.0 14.7 0.0
04/03/19 01:24 14.7 95 13.9 0.0 0.0 0 0.0 0.0 1023.0 0.0 0.0 14.7 0.0
04/03/19 01:25 14.7 95 13.9 0.0 0.0 0 0.0 0.0 1023.0 0.0 0.0 14.7 0.0
04/03/19 01:26 14.7 95 13.9 0.0 0.0 0 0.0 0.0 1023.0 0.0 0.0 14.7 0.0
04/03/19 01:27 14.7 95 13.9 0.0 0.0 0 0.0 0.0 1023.0 0.0 0.0 14.7 0.0
04/03/19 01:28 14.7 95 13.9 0.0 0.0 0 0.0 0.0 1023.0 0.0 0.0 14.7 0.0
04/03/19 01:29 14.7 95 13.9 0.0 0.0 0 0.0 0.0 1023.0 0.0 0.0 14.7 0.0
04/03/19 01:33 14.7 95 13.9 0.0 0.0 0 0.0 0.0 1023.0 0.0 0.0 14.7 0.0
04/03/19 01:34 14.7 95 13.9 0.0 0.0 0 0.0 0.0 1023.0 0.0 0.0 14.7 0.0
04/03/19 01:35 14.7 95 13.9 0.0 0.0 0 0.0 0.0 1023.0 0.0 0.0 14.7 0.0
04/03/19 01:36 14.7 95 13.9 0.0 0.0 0 0.0 0.0 1023.0 0.0 0.0 14.7 0.0
04/03/19 01:37 14.7 95 13.9 0.0 0.0 0 0.0 0.0 1023.0 0.0 0.0 14.7 0.0
04/03/19 01:38 14.7 95 13.9 0.0 0.0 0 0.0 0.0 1022.0 0.0 0.0 14.7 0.0
04/03/19 01:39 14.7 95 13.9 0.0 0.0 0 0.0 0.0 1022.0 0.0 0.0 14.7 0.0
04/03/19 01:40 14.7 95 13.9 0.0 0.0 0 0.0 0.0 1022.0 0.0 0.0 14.7 0.0
04/03/19 01:41 14.7 95 13.9 0.0 0.0 0 0.0 0.0 1022.0 0.0 0.0 14.7 0.0
04/03/19 01:42 14.7 95 13.9 0.0 0.0 0 0.0 0.0 1022.0 0.0 0.0 14.7 0.0
04/03/19 01:43 14.7 95 13.9 0.0 0.0 0 0.0 0.0 1022.0 0.0 0.0 14.7 0.0
04/03/19 01:44 14.8 95 14.0 0.0 0.0 0 0.0 0.0 1022.0 0.0 0.0 14.8 0.0
04/03/19 01:48 14.8 95 14.0 0.0 0.0 0 0.0 0.0 1022.0 0.0 0.0 14.8 0.0
04/03/19 01:49 14.8 95 14.0 0.0 0.0 0 0.0 0.0 1022.0 0.0 0.0 14.8 0.0
04/03/19 01:50 14.9 95 14.1 0.0 0.0 0 0.0 0.0 1022.0 0.0 0.0 14.9 0.0
04/03/19 01:51 14.8 95 14.0 0.0 0.0 0 0.0 0.0 1022.0 0.0 0.0 14.8 0.0
04/03/19 01:52 14.9 95 14.1 0.0 0.0 0 0.0 0.0 1022.0 0.0 0.0 14.9 0.0
04/03/19 01:53 14.9 95 14.1 0.0 0.0 0 0.0 0.0 1022.0 0.0 0.0 14.9 0.0
04/03/19 01:54 14.9 95 14.1 0.0 0.0 0 0.0 0.0 1022.0 0.0 0.0 14.9 0.0
04/03/19 01:55 14.9 95 14.1 0.0 0.0 0 0.0 0.0 1022.0 0.0 0.0 14.9 0.0
04/03/19 01:56 14.9 95 14.1 0.0 0.0 0 0.0 0.0 1022.0 0.0 0.0 14.9 0.0
04/03/19 01:57 14.9 95 14.1 0.0 0.0 0 0.0 0.0 1022.0 0.0 0.0 14.9 0.0
04/03/19 01:58 14.9 95 14.1 0.0 0.0 0 0.0 0.0 1022.0 0.0 0.0 14.9 0.0
04/03/19 01:59 14.9 95 14.1 0.0 0.0 0 0.0 0.0 1022.0 0.0 0.0 14.9 0.0
04/03/19 02:00 14.9 95 14.1 0.0 0.0 0 0.0 0.0 1022.0 0.0 0.0 14.9 0.0
04/03/19 02:03 14.8 95 14.0 0.0 0.0 0 0.0 0.0 1022.0 0.0 0.0 14.8 0.0
04/03/19 02:04 14.8 95 14.0 0.0 0.0 0 0.0 0.0 1022.0 0.0 0.0 14.8 0.0
04/03/19 02:05 14.8 95 14.0 0.0 0.0 0 0.0 0.0 1022.0 0.0 0.0 14.8 0.0
04/03/19 02:06 14.7 95 13.9 0.0 0.0 0 0.0 0.0 1022.0 0.0 0.0 14.7 0.0
04/03/19 02:07 14.7 95 13.9 0.0 0.0 0 0.0 0.0 1022.0 0.0 0.0 14.7 0.0
04/03/19 02:08 14.7 95 13.9 0.0 0.0 0 0.0 0.0 1022.0 0.0 0.0 14.7 0.0
04/03/19 02:09 14.7 95 13.9 0.0 0.0 0 0.0 0.0 1022.0 0.0 0.0 14.7 0.0
04/03/19 02:10 14.7 95 13.9 0.0 0.0 0 0.0 0.0 1022.0 0.0 0.0 14.7 0.0
04/03/19 02:11 14.7 95 13.9 0.0 0.0 0 0.0 0.0 1022.0 0.0 0.0 14.7 0.0
04/03/19 02:12 14.7 95 13.9 0.0 0.0 0 0.0 0.0 1022.0 0.0 0.0 14.7 0.0
04/03/19 02:18 14.6 95 13.8 0.0 0.0 0 0.0 0.0 1022.0 0.0 0.0 14.6 0.0
04/03/19 02:19 14.6 95 13.8 0.0 0.0 0 0.0 0.0 1022.0 0.0 0.0 14.6 0.0
04/03/19 02:20 14.5 95 13.7 0.0 0.0 0 0.0 0.0 1022.0 0.0 0.0 14.5 0.0
04/03/19 02:21 14.5 95 13.7 0.0 0.0 0 0.0 0.0 1022.0 0.0 0.0 14.5 0.0
04/03/19 02:22 14.5 95 13.7 0.0 0.0 0 0.0 0.0 1022.0 0.0 0.0 14.5 0.0
04/03/19 02:23 14.5 95 13.7 0.0 0.0 0 0.0 0.0 1022.0 0.0 0.0 14.5 0.0
04/03/19 02:24 14.5 95 13.7 0.0 0.0 0 0.0 0.0 1022.0 0.0 0.0 14.5 0.0
04/03/19 02:25 14.5 95 13.7 0.0 0.0 0 0.0 0.0 1022.0 0.0 0.0 14.5 0.0
04/03/19 02:26 14.5 95 13.7 0.0 0.0 0 0.0 0.0 1022.0 0.0 0.0 14.5 0.0
04/03/19 02:27 14.4 95 13.6 0.0 0.0 0 0.0 0.0 1022.0 0.0 0.0 14.4 0.0
04/03/19 02:28 14.4 95 13.6 0.0 0.0 0 0.0 0.0 1022.0 0.0 0.0 14.4 0.0
04/03/19 02:29 14.4 95 13.6 0.0 0.0 0 0.0 0.0 1022.0 0.0 0.0 14.4 0.0
04/03/19 02:30 14.4 95 13.6 0.0 0.0 0 0.0 0.0 1022.0 0.0 0.0 14.4 0.0
04/03/19 02:33 14.3 95 13.5 0.0 0.0 0 0.0 0.0 1022.0 0.0 0.0 14.3 0.0
04/03/19 02:34 14.3 95 13.5 0.0 0.0 0 0.0 0.0 1022.0 0.0 0.0 14.3 0.0
04/03/19 02:35 14.3 95 13.5 0.0 0.0 0 0.0 0.0 1022.0 0.0 0.0 14.3 0.0
04/03/19 02:36 14.3 95 13.5 0.0 0.0 0 0.0 0.0 1022.0 0.0 0.0 14.3 0.0
04/03/19 02:37 14.3 95 13.5 0.0 0.0 0 0.0 0.0 1022.0 0.0 0.0 14.3 0.0
04/03/19 02:38 14.3 95 13.5 0.0 0.0 0 0.0 0.0 1022.0 0.0 0.0 14.3 0.0
04/03/19 02:39 14.2 95 13.4 0.0 0.0 0 0.0 0.0 1022.0 0.0 0.0 14.2 0.0
04/03/19 02:40 14.2 95 13.4 0.0 0.0 0 0.0 0.0 1022.0 0.0 0.0 14.2 0.0
04/03/19 02:41 14.2 95 13.4 0.0 0.0 0 0.0 0.0 1022.0 0.0 0.0 14.2 0.0
04/03/19 02:42 14.2 95 13.4 0.0 0.0 0 0.0 0.0 1022.0 0.0 0.0 14.2 0.0
04/03/19 02:43 14.2 95 13.4 0.0 0.0 0 0.0 0.0 1022.0 0.0 0.0 14.2 0.0
04/03/19 02:44 14.2 95 13.4 0.0 0.0 0 0.0 0.0 1022.0 0.0 0.0 14.2 0.0
04/03/19 02:45 14.1 95 13.3 0.0 0.0 0 0.0 0.0 1022.0 0.0 0.0 14.1 0.0
04/03/19 02:48 14.1 95 13.3 0.0 0.0 0 0.0 0.0 1022.0 0.0 0.0 14.1 0.0
04/03/19 02:49 14.1 95 13.3 0.0 0.0 0 0.0 0.0 1022.0 0.0 0.0 14.1 0.0
04/03/19 02:50 14.1 95 13.3 0.0 0.0 0 0.0 0.0 1022.0 0.0 0.0 14.1 0.0
04/03/19 02:51 14.1 95 13.3 0.0 0.0 0 0.0 0.0 1022.0 0.0 0.0 14.1 0.0
04/03/19 02:52 14.1 95 13.3 0.0 0.0 0 0.0 0.0 1022.0 0.0 0.0 14.1 0.0
04/03/19 02:53 14.0 95 13.2 0.0 0.0 0 0.0 0.0 1021.0 0.0 0.0 14.0 0.0
04/03/19 02:54 14.0 95 13.2 0.0 0.0 0 0.0 0.0 1021.0 0.0 0.0 14.0 0.0
04/03/19 02:55 14.0 95 13.2 0.0 0.0 0 0.0 0.0 1021.0 0.0 0.0 14.0 0.0
04/03/19 02:56 14.0 95 13.2 0.0 0.0 0 0.0 0.0 1021.0 0.0 0.0 14.0 0.0
04/03/19 02:57 14.0 95 13.2 0.0 0.0 0 0.0 0.0 1021.0 0.0 0.0 14.0 0.0
04/03/19 02:58 14.0 95 13.2 0.0 0.0 0 0.0 0.0 1021.0 0.0 0.0 14.0 0.0
04/03/19 02:59 14.0 95 13.2 0.0 0.0 0 0.0 0.0 1021.0 0.0 0.0 14.0 0.0
04/03/19 03:00 14.1 95 13.3 0.0 0.0 0 0.0 0.0 1021.0 0.0 0.0 14.1 0.0
04/03/19 03:03 14.1 96 13.5 0.0 0.0 0 0.0 0.0 1021.0 0.0 0.0 14.1 0.0
04/03/19 03:04 14.1 96 13.5 0.0 0.0 0 0.0 0.0 1021.0 0.0 0.0 14.1 0.0
04/03/19 03:05 14.0 96 13.4 0.0 0.0 0 0.0 0.0 1021.0 0.0 0.0 14.0 0.0
04/03/19 03:06 14.0 96 13.4 0.0 0.0 0 0.0 0.0 1021.0 0.0 0.0 14.0 0.0
04/03/19 03:07 14.0 96 13.4 0.0 0.0 0 0.0 0.0 1021.0 0.0 0.0 14.0 0.0
04/03/19 03:08 14.0 96 13.4 0.0 0.0 0 0.0 0.0 1021.0 0.0 0.0 14.0 0.0
04/03/19 03:09 14.0 96 13.4 0.0 0.0 0 0.0 0.0 1021.0 0.0 0.0 14.0 0.0
04/03/19 03:10 14.0 96 13.4 0.0 0.0 0 0.0 0.0 1021.0 0.0 0.0 14.0 0.0
04/03/19 03:11 14.0 96 13.4 0.0 0.0 0 0.0 0.0 1021.0 0.0 0.0 14.0 0.0
04/03/19 03:12 14.0 96 13.4 0.0 0.0 0 0.0 0.0 1021.0 0.0 0.0 14.0 0.0
04/03/19 03:13 14.0 96 13.4 0.0 0.0 0 0.0 0.0 1021.0 0.0 0.0 14.0 0.0
04/03/19 03:14 14.0 96 13.4 0.0 0.0 0 0.0 0.0 1021.0 0.0 0.0 14.0 0.0
04/03/19 03:15 13.9 96 13.3 0.0 0.0 0 0.0 0.0 1021.0 0.0 0.0 13.9 0.0
04/03/19 03:18 14.0 96 13.4 0.0 0.0 0 0.0 0.0 1021.0 0.0 0.0 14.0 0.0
04/03/19 03:19 13.9 96 13.3 0.0 0.0 0 0.0 0.0 1021.0 0.0 0.0 13.9 0.0
04/03/19 03:20 14.0 96 13.4 0.0 0.0 0 0.0 0.0 1021.0 0.0 0.0 14.0 0.0
04/03/19 03:21 13.9 96 13.3 0.0 0.0 0 0.0 0.0 1021.0 0.0 0.0 13.9 0.0
04/03/19 03:22 13.9 97 13.4 0.0 0.0 0 0.0 0.0 1021.0 0.0 0.0 13.9 0.0
04/03/19 03:23 14.0 96 13.4 0.0 0.0 0 0.0 0.0 1021.0 0.0 0.0 14.0 0.0
04/03/19 03:24 14.0 96 13.4 0.0 0.0 0 0.0 0.0 1021.0 0.0 0.0 14.0 0.0
04/03/19 03:25 13.9 97 13.4 0.0 0.0 0 0.0 0.0 1021.0 0.0 0.0 13.9 0.0
04/03/19 03:26 13.9 97 13.4 0.0 0.0 0 0.0 0.0 1021.0 0.0 0.0 13.9 0.0
04/03/19 03:27 13.9 97 13.4 0.0 0.0 0 0.0 0.0 1021.0 0.0 0.0 13.9 0.0
04/03/19 03:28 13.9 97 13.4 0.0 0.0 0 0.0 0.0 1021.0 0.0 0.0 13.9 0.0
04/03/19 03:29 13.9 97 13.4 0.0 0.0 0 0.0 0.0 1021.0 0.0 0.0 13.9 0.0
04/03/19 03:30 13.9 97 13.4 0.0 0.0 0 0.0 0.0 1021.0 0.0 0.0 13.9 0.0
04/03/19 03:33 13.9 97 13.4 0.0 0.0 0 0.0 0.0 1021.0 0.0 0.0 13.9 0.0
04/03/19 03:34 13.9 97 13.4 0.0 0.0 0 0.0 0.0 1021.0 0.0 0.0 13.9 0.0
04/03/19 03:35 13.9 97 13.4 0.0 0.0 0 0.0 0.0 1021.0 0.0 0.0 13.9 0.0
04/03/19 03:36 13.9 97 13.4 0.0 0.0 0 0.0 0.0 1021.0 0.0 0.0 13.9 0.0
04/03/19 03:37 13.9 97 13.4 0.0 0.0 0 0.0 0.0 1021.0 0.0 0.0 13.9 0.0
04/03/19 03:38 13.8 97 13.3 0.0 0.0 0 0.0 0.0 1021.0 0.0 0.0 13.8 0.0
04/03/19 03:39 13.8 97 13.3 0.0 0.0 0 0.0 0.0 1021.0 0.0 0.0 13.8 0.0
04/03/19 03:40 13.8 97 13.3 0.0 0.0 0 0.0 0.0 1021.0 0.0 0.0 13.8 0.0
04/03/19 03:41 13.8 97 13.3 0.0 0.0 0 0.0 0.0 1021.0 0.0 0.0 13.8 0.0
04/03/19 03:42 13.8 97 13.3 0.0 0.0 0 0.0 0.0 1021.0 0.0 0.0 13.8 0.0
04/03/19 03:48 13.8 97 13.3 0.0 0.0 0 0.0 0.0 1021.0 0.0 0.0 13.8 0.0
04/03/19 03:49 13.8 97 13.3 0.0 0.0 0 0.0 0.0 1021.0 0.0 0.0 13.8 0.0
04/03/19 03:50 13.8 97 13.3 0.0 0.0 0 0.0 0.0 1021.0 0.0 0.0 13.8 0.0
04/03/19 03:51 13.8 97 13.3 0.0 0.0 0 0.0 0.0 1021.0 0.0 0.0 13.8 0.0
04/03/19 03:52 13.8 97 13.3 0.0 0.0 0 0.0 0.0 1021.0 0.0 0.0 13.8 0.0
04/03/19 03:53 13.8 97 13.3 0.0 0.0 0 0.0 0.0 1021.0 0.0 0.0 13.8 0.0
04/03/19 03:54 13.8 97 13.3 0.0 0.0 0 0.0 0.0 1021.0 0.0 0.0 13.8 0.0
04/03/19 03:55 13.8 97 13.3 0.0 0.0 0 0.0 0.0 1021.0 0.0 0.0 13.8 0.0
04/03/19 03:56 13.8 97 13.3 0.0 0.0 0 0.0 0.0 1021.0 0.0 0.0 13.8 0.0
04/03/19 03:57 13.8 97 13.3 0.0 0.0 0 0.0 0.0 1021.0 0.0 0.0 13.8 0.0
04/03/19 03:58 13.8 97 13.3 0.0 0.0 0 0.0 0.0 1021.0 0.0 0.0 13.8 0.0
04/03/19 03:59 13.8 97 13.3 0.0 0.0 0 0.0 0.0 1021.0 0.0 0.0 13.8 0.0
04/03/19 04:03 13.8 97 13.3 0.0 0.0 0 0.0 0.0 1021.0 0.0 0.0 13.8 0.0
04/03/19 04:04 13.8 97 13.3 0.0 0.0 0 0.0 0.0 1021.0 0.0 0.0 13.8 0.0
04/03/19 04:05 13.8 97 13.3 0.0 0.0 0 0.0 0.0 1021.0 0.0 0.0 13.8 0.0
04/03/19 04:06 13.8 97 13.3 0.0 0.0 0 0.0 0.0 1021.0 0.0 0.0 13.8 0.0
04/03/19 04:07 13.7 97 13.2 0.0 0.0 0 0.0 0.0 1021.0 0.0 0.0 13.7 0.0
04/03/19 04:08 13.7 97 13.2 0.0 0.0 0 0.0 0.0 1021.0 0.0 0.0 13.7 0.0
04/03/19 04:09 13.7 96 13.1 0.0 0.0 0 0.0 0.0 1021.0 0.0 0.0 13.7 0.0
04/03/19 04:10 13.7 96 13.1 0.0 0.0 0 0.0 0.0 1021.0 0.0 0.0 13.7 0.0
04/03/19 04:11 13.7 96 13.1 0.0 0.0 0 0.0 0.0 1021.0 0.0 0.0 13.7 0.0
04/03/19 04:12 13.7 96 13.1 0.0 0.0 0 0.0 0.0 1021.0 0.0 0.0 13.7 0.0
04/03/19 04:13 13.7 96 13.1 0.0 0.0 0 0.0 0.0 1021.0 0.0 0.0 13.7 0.0
04/03/19 04:14 13.7 96 13.1 0.0 0.0 0 0.0 0.0 1021.0 0.0 0.0 13.7 0.0
04/03/19 04:15 13.7 96 13.1 0.0 0.0 0 0.0 0.0 1021.0 0.0 0.0 13.7 0.0
04/03/19 04:18 13.7 96 13.1 0.0 0.0 0 0.0 0.0 1021.0 0.0 0.0 13.7 0.0
04/03/19 04:19 13.7 96 13.1 0.0 0.0 0 0.0 0.0 1021.0 0.0 0.0 13.7 0.0
04/03/19 04:20 13.7 96 13.1 0.0 0.0 0 0.0 0.0 1021.0 0.0 0.0 13.7 0.0
04/03/19 04:21 13.6 96 13.0 0.0 0.0 0 0.0 0.0 1021.0 0.0 0.0 13.6 0.0
04/03/19 04:22 13.7 96 13.1 0.0 0.0 0 0.0 0.0 1021.0 0.0 0.0 13.7 0.0
04/03/19 04:23 13.7 96 13.1 0.0 0.0 0 0.0 0.0 1021.0 0.0 0.0 13.7 0.0
04/03/19 04:24 13.7 96 13.1 0.0 0.0 0 0.0 0.0 1021.0 0.0 0.0 13.7 0.0
04/03/19 04:25 13.6 96 13.0 0.0 0.0 0 0.0 0.0 1021.0 0.0 0.0 13.6 0.0
04/03/19 04:26 13.6 96 13.0 0.0 0.0 0 0.0 0.0 1021.0 0.0 0.0 13.6 0.0
04/03/19 04:27 13.6 96 13.0 0.0 0.0 0 0.0 0.0 1021.0 0.0 0.0 13.6 0.0
04/03/19 04:28 13.6 96 13.0 0.0 0.0 0 0.0 0.0 1021.0 0.0 0.0 13.6 0.0
04/03/19 04:29 13.6 96 13.0 0.0 0.0 0 0.0 0.0 1021.0 0.0 0.0 13.6 0.0
04/03/19 04:33 13.5 96 12.9 0.0 0.0 0 0.0 0.0 1021.0 0.0 0.0 13.5 0.0
04/03/19 04:34 13.5 96 12.9 0.0 0.0 0 0.0 0.0 1021.0 0.0 0.0 13.5 0.0
04/03/19 04:35 13.5 96 12.9 0.0 0.0 0 0.0 0.0 1021.0 0.0 0.0 13.5 0.0
04/03/19 04:36 13.5 96 12.9 0.0 0.0 0 0.0 0.0 1021.0 0.0 0.0 13.5 0.0
04/03/19 04:37 13.5 96 12.9 0.0 0.0 0 0.0 0.0 1021.0 0.0 0.0 13.5 0.0
04/03/19 04:38 13.5 96 12.9 0.0 0.0 0 0.0 0.0 1020.0 0.0 0.0 13.5 0.0
04/03/19 04:39 13.5 96 12.9 0.0 0.0 0 0.0 0.0 1020.0 0.0 0.0 13.5 0.0
04/03/19 04:40 13.5 96 12.9 0.0 0.0 0 0.0 0.0 1020.0 0.0 0.0 13.5 0.0
04/03/19 04:41 13.5 96 12.9 0.0 0.0 0 0.0 0.0 1020.0 0.0 0.0 13.5 0.0
04/03/19 04:42 13.5 96 12.9 0.0 0.0 0 0.0 0.0 1020.0 0.0 0.0 13.5 0.0
04/03/19 04:43 13.5 96 12.9 0.0 0.0 0 0.0 0.0 1020.0 0.0 0.0 13.5 0.0
04/03/19 04:44 13.5 96 12.9 0.0 0.0 0 0.0 0.0 1020.0 0.0 0.0 13.5 0.0
04/03/19 04:48 13.5 97 13.0 0.0 0.0 0 0.0 0.0 1020.0 0.0 0.0 13.5 0.0
04/03/19 04:49 13.5 97 13.0 0.0 0.0 0 0.0 0.0 1020.0 0.0 0.0 13.5 0.0
04/03/19 04:50 13.5 97 13.0 0.0 0.0 0 0.0 0.0 1020.0 0.0 0.0 13.5 0.0
04/03/19 04:51 13.5 96 12.9 0.0 0.0 0 0.0 0.0 1020.0 0.0 0.0 13.5 0.0
04/03/19 04:52 13.4 96 12.8 0.0 0.0 0 0.0 0.0 1020.0 0.0 0.0 13.4 0.0
04/03/19 04:53 13.4 96 12.8 0.0 0.0 0 0.0 0.0 1021.0 0.0 0.0 13.4 0.0
04/03/19 04:54 13.4 96 12.8 0.0 0.0 0 0.0 0.0 1021.0 0.0 0.0 13.4 0.0
04/03/19 04:55 13.4 96 12.8 0.0 0.0 0 0.0 0.0 1021.0 0.0 0.0 13.4 0.0
04/03/19 04:56 13.4 96 12.8 0.0 0.0 0 0.0 0.0 1021.0 0.0 0.0 13.4 0.0
04/03/19 04:57 13.4 96 12.8 0.0 0.0 0 0.0 0.0 1021.0 0.0 0.0 13.4 0.0
04/03/19 04:58 13.4 97 12.9 0.0 0.0 0 0.0 0.0 1021.0 0.0 0.0 13.4 0.0
04/03/19 04:59 13.4 97 12.9 0.0 0.0 0 0.0 0.0 1021.0 0.0 0.0 13.4 0.0
04/03/19 05:00 13.4 97 12.9 0.0 0.0 0 0.0 0.0 1021.0 0.0 0.0 13.4 0.0
04/03/19 05:03 13.3 96 12.7 0.0 0.0 0 0.0 0.0 1021.0 0.0 0.0 13.3 0.0
04/03/19 05:04 13.3 96 12.7 0.0 0.0 0 0.0 0.0 1021.0 0.0 0.0 13.3 0.0
04/03/19 05:05 13.3 96 12.7 0.0 0.0 0 0.0 0.0 1021.0 0.0 0.0 13.3 0.0
04/03/19 05:06 13.3 96 12.7 0.0 0.0 0 0.0 0.0 1021.0 0.0 0.0 13.3 0.0
04/03/19 05:07 13.2 96 12.6 0.0 0.0 0 0.0 0.0 1021.0 0.0 0.0 13.2 0.0
04/03/19 05:08 13.2 96 12.6 0.0 0.0 0 0.0 0.0 1021.0 0.0 0.0 13.2 0.0
04/03/19 05:09 13.1 96 12.5 0.0 0.0 0 0.0 0.0 1021.0 0.0 0.0 13.1 0.0
04/03/19 05:10 13.1 96 12.5 0.0 0.0 0 0.0 0.0 1021.0 0.0 0.0 13.1 0.0
04/03/19 05:11 13.1 96 12.5 0.0 0.0 0 0.0 0.0 1021.0 0.0 0.0 13.1 0.0
04/03/19 05:12 13.1 96 12.5 0.0 0.0 0 0.0 0.0 1021.0 0.0 0.0 13.1 0.0
04/03/19 05:13 13.0 96 12.4 0.0 0.0 0 0.0 0.0 1021.0 0.0 0.0 13.0 0.0
04/03/19 05:14 13.0 96 12.4 0.0 0.0 0 0.0 0.0 1021.0 0.0 0.0 13.0 0.0
04/03/19 05:15 13.0 96 12.4 0.0 0.0 0 0.0 0.0 1021.0 0.0 0.0 13.0 0.0
04/03/19 05:17 13.0 96 12.4 0.0 0.0 0 0.0 0.0 1021.0 0.0 0.0 13.0 0.0
04/03/19 05:18 13.0 96 12.4 0.0 0.0 0 0.0 0.0 1021.0 0.0 0.0 13.0 0.0
04/03/19 05:19 12.9 97 12.4 0.0 0.0 0 0.0 0.0 1021.0 0.0 0.0 12.9 0.0
04/03/19 05:20 12.9 97 12.4 0.0 0.0 0 0.0 0.0 1021.0 0.0 0.0 12.9 0.0
04/03/19 05:21 12.9 97 12.4 0.0 0.0 0 0.0 0.0 1021.0 0.0 0.0 12.9 0.0
04/03/19 05:22 12.9 97 12.4 0.0 0.0 0 0.0 0.0 1021.0 0.0 0.0 12.9 0.0
04/03/19 05:23 12.9 97 12.4 0.0 0.0 0 0.0 0.0 1020.0 0.0 0.0 12.9 0.0
04/03/19 05:24 12.9 97 12.4 0.0 0.0 0 0.0 0.0 1020.0 0.0 0.0 12.9 0.0
04/03/19 05:25 12.9 97 12.4 0.0 0.0 0 0.0 0.0 1020.0 0.0 0.0 12.9 0.0
04/03/19 05:26 12.9 97 12.4 0.0 0.0 0 0.0 0.0 1020.0 0.0 0.0 12.9 0.0
04/03/19 05:27 12.9 97 12.4 0.0 0.0 0 0.0 0.0 1020.0 0.0 0.0 12.9 0.0
04/03/19 05:28 12.9 97 12.4 0.0 0.0 0 0.0 0.0 1020.0 0.0 0.0 12.9 0.0
04/03/19 05:29 12.9 97 12.4 0.0 0.0 0 0.0 0.0 1020.0 0.0 0.0 12.9 0.0
04/03/19 05:32 12.9 98 12.6 0.0 0.0 0 0.0 0.0 1020.0 0.0 0.0 12.9 0.0
04/03/19 05:33 12.9 98 12.6 0.0 0.0 0 0.0 0.0 1020.0 0.0 0.0 12.9 0.0
04/03/19 05:34 12.9 98 12.6 0.0 0.0 0 0.0 0.0 1020.0 0.0 0.0 12.9 0.0
04/03/19 05:35 13.0 97 12.5 0.0 0.0 0 0.0 0.0 1020.0 0.0 0.0 13.0 0.0
04/03/19 05:36 12.9 98 12.6 0.0 0.0 0 0.0 0.0 1020.0 0.0 0.0 12.9 0.0
04/03/19 05:37 12.9 98 12.6 0.0 0.0 0 0.0 0.0 1020.0 0.0 0.0 12.9 0.0
04/03/19 05:38 12.9 98 12.6 0.0 0.0 0 0.0 0.0 1020.0 0.0 0.0 12.9 0.0
04/03/19 05:39 12.9 98 12.6 0.0 0.0 0 0.0 0.0 1020.0 0.0 0.0 12.9 0.0
04/03/19 05:40 12.9 98 12.6 0.0 0.0 0 0.0 0.0 1020.0 0.0 0.0 12.9 0.0
04/03/19 05:41 12.9 98 12.6 0.0 0.0 0 0.0 0.0 1020.0 0.0 0.0 12.9 0.0
04/03/19 05:42 12.9 98 12.6 0.0 0.0 0 0.0 0.0 1020.0 0.0 0.0 12.9 0.0
04/03/19 05:43 12.8 98 12.5 0.0 0.0 0 0.0 0.0 1020.0 0.0 0.0 12.8 0.0
04/03/19 05:44 12.8 98 12.5 0.0 0.0 0 0.0 0.0 1020.0 0.0 0.0 12.8 0.0
04/03/19 05:45 12.8 98 12.5 0.0 0.0 0 0.0 0.0 1020.0 0.0 0.0 12.8 0.0
04/03/19 05:47 12.8 98 12.5 0.0 0.0 0 0.0 0.0 1020.0 0.0 0.0 12.8 0.0
04/03/19 05:48 12.8 98 12.5 0.0 0.0 0 0.0 0.0 1020.0 0.0 0.0 12.8 0.0
04/03/19 05:49 12.8 98 12.5 0.0 0.0 0 0.0 0.0 1020.0 0.0 0.0 12.8 0.0
04/03/19 05:50 12.8 98 12.5 0.0 0.0 0 0.0 0.0 1020.0 0.0 0.0 12.8 0.0
04/03/19 05:51 12.8 98 12.5 0.0 0.0 0 0.0 0.0 1020.0 0.0 0.0 12.8 0.0
04/03/19 05:52 12.7 98 12.4 0.0 0.0 0 0.0 0.0 1020.0 0.0 0.0 12.7 0.0
04/03/19 05:53 12.8 98 12.5 0.0 0.0 0 0.0 0.0 1020.0 0.0 0.0 12.8 0.0
04/03/19 05:54 12.7 98 12.4 0.0 0.0 0 0.0 0.0 1020.0 0.0 0.0 12.7 0.0
04/03/19 05:55 12.7 98 12.4 0.0 0.0 0 0.0 0.0 1020.0 0.0 0.0 12.7 0.0
04/03/19 05:56 12.7 98 12.4 0.0 0.0 0 0.0 0.0 1020.0 0.0 0.0 12.7 0.0
04/03/19 05:57 12.7 98 12.4 0.0 0.0 0 0.0 0.0 1020.0 0.0 0.0 12.7 0.0
04/03/19 05:58 12.7 98 12.4 0.0 0.0 0 0.0 0.0 1020.0 0.0 0.0 12.7 0.0
04/03/19 05:59 12.7 98 12.4 0.0 0.0 0 0.0 0.0 1020.0 0.0 0.0 12.7 0.0
04/03/19 06:02 12.7 98 12.4 0.0 0.0 0 0.0 0.0 1020.0 0.0 0.0 12.7 0.0
04/03/19 06:03 12.7 98 12.4 0.0 0.0 0 0.0 0.0 1020.0 0.0 0.0 12.7 0.0
04/03/19 06:04 12.8 98 12.5 0.0 0.0 0 0.0 0.0 1020.0 0.0 0.0 12.8 0.0
04/03/19 06:05 12.8 98 12.5 0.0 0.0 0 0.0 0.0 1020.0 0.0 0.0 12.8 0.0
04/03/19 06:06 12.7 98 12.4 0.0 0.0 0 0.0 0.0 1020.0 0.0 0.0 12.7 0.0
04/03/19 06:07 12.7 98 12.4 0.0 0.0 0 0.0 0.0 1020.0 0.0 0.0 12.7 0.0
04/03/19 06:08 12.7 98 12.4 0.0 0.0 0 0.0 0.0 1021.0 0.0 0.0 12.7 0.0
04/03/19 06:09 12.7 98 12.4 0.0 0.0 0 0.0 0.0 1021.0 0.0 0.0 12.7 0.0
04/03/19 06:10 12.7 98 12.4 0.0 0.0 0 0.0 0.0 1021.0 0.0 0.0 12.7 0.0
04/03/19 06:11 12.7 98 12.4 0.0 0.0 0 0.0 0.0 1021.0 0.0 0.0 12.7 0.0
04/03/19 06:12 12.7 98 12.4 0.0 0.0 0 0.0 0.0 1021.0 0.0 0.0 12.7 0.0
04/03/19 06:13 12.7 98 12.4 0.0 0.0 0 0.0 0.0 1021.0 0.0 0.0 12.7 0.0
04/03/19 06:14 12.7 98 12.4 0.0 0.0 0 0.0 0.0 1021.0 0.0 0.0 12.7 0.0
04/03/19 06:17 12.6 98 12.3 0.0 0.0 0 0.0 0.0 1021.0 0.0 0.0 12.6 0.0
04/03/19 06:18 12.6 98 12.3 0.0 0.0 0 0.0 0.0 1021.0 0.0 0.0 12.6 0.0
04/03/19 06:19 12.6 98 12.3 0.0 0.0 0 0.0 0.0 1021.0 0.0 0.0 12.6 0.0
04/03/19 06:20 12.6 98 12.3 0.0 0.0 0 0.0 0.0 1021.0 0.0 0.0 12.6 0.0
04/03/19 06:21 12.6 98 12.3 0.0 0.0 0 0.0 0.0 1021.0 0.0 0.0 12.6 0.0
04/03/19 06:22 12.6 98 12.3 0.0 0.0 0 0.0 0.0 1021.0 0.0 0.0 12.6 0.0
04/03/19 06:23 12.6 98 12.3 0.0 0.0 0 0.0 0.0 1021.0 0.0 0.0 12.6 0.0
04/03/19 06:24 12.6 98 12.3 0.0 0.0 0 0.0 0.0 1021.0 0.0 0.0 12.6 0.0
04/03/19 06:25 12.6 98 12.3 0.0 0.0 0 0.0 0.0 1021.0 0.0 0.0 12.6 0.0
04/03/19 06:26 12.6 98 12.3 0.0 0.0 0 0.0 0.0 1021.0 0.0 0.0 12.6 0.0
04/03/19 06:27 12.6 98 12.3 0.0 0.0 0 0.0 0.0 1021.0 0.0 0.0 12.6 0.0
04/03/19 06:28 12.6 98 12.3 0.0 0.0 0 0.0 0.0 1021.0 0.0 0.0 12.6 0.0
04/03/19 06:29 12.6 98 12.3 0.0 0.0 0 0.0 0.0 1021.0 0.0 0.0 12.6 0.0
04/03/19 06:30 12.6 98 12.3 0.0 0.0 0 0.0 0.0 1021.0 0.0 0.0 12.6 0.0
04/03/19 06:33 12.5 98 12.2 0.0 0.0 0 0.0 0.0 1021.0 0.0 0.0 12.5 0.0
04/03/19 06:34 12.5 98 12.2 0.0 0.0 0 0.0 0.0 1021.0 0.0 0.0 12.5 0.0
04/03/19 06:35 12.5 98 12.2 0.0 0.0 0 0.0 0.0 1021.0 0.0 0.0 12.5 0.0
04/03/19 06:36 12.5 98 12.2 0.0 0.0 0 0.0 0.0 1021.0 0.0 0.0 12.5 0.0
04/03/19 06:37 12.5 98 12.2 0.0 0.0 0 0.0 0.0 1021.0 0.0 0.0 12.5 0.0
04/03/19 06:38 12.5 98 12.2 0.0 0.0 0 0.0 0.0 1021.0 0.0 0.0 12.5 0.0
04/03/19 06:39 12.5 98 12.2 0.0 0.0 0 0.0 0.0 1021.0 0.0 0.0 12.5 0.0
04/03/19 06:40 12.5 98 12.2 0.0 0.0 0 0.0 0.0 1021.0 0.0 0.0 12.5 0.0
04/03/19 06:41 12.5 98 12.2 0.0 0.0 0 0.0 0.0 1021.0 0.0 0.0 12.5 0.0
04/03/19 06:42 12.5 98 12.2 0.0 0.0 0 0.0 0.0 1021.0 0.0 0.0 12.5 0.0
04/03/19 06:43 12.5 98 12.2 0.0 0.0 0 0.0 0.0 1021.0 0.0 0.0 12.5 0.0
04/03/19 06:44 12.5 98 12.2 0.0 0.0 0 0.0 0.0 1021.0 0.0 0.0 12.5 0.0
04/03/19 06:45 12.4 98 12.1 0.0 0.0 0 0.0 0.0 1021.0 0.0 0.0 12.4 0.0
04/03/19 06:48 12.4 98 12.1 0.0 0.0 0 0.0 0.0 1021.0 0.0 0.0 12.4 0.0
04/03/19 06:49 12.4 98 12.1 0.0 0.0 0 0.0 0.0 1021.0 0.0 0.0 12.4 0.0
04/03/19 06:50 12.4 98 12.1 0.0 0.0 0 0.0 0.0 1021.0 0.0 0.0 12.4 0.0
04/03/19 06:51 12.4 98 12.1 0.0 0.0 0 0.0 0.0 1021.0 0.0 0.0 12.4 0.0
04/03/19 06:52 12.4 98 12.1 0.0 0.0 0 0.0 0.0 1021.0 0.0 0.0 12.4 0.0
04/03/19 06:53 12.4 98 12.1 0.0 0.0 0 0.0 0.0 1021.0 0.0 0.0 12.4 0.0
04/03/19 06:54 12.5 98 12.2 0.0 0.0 0 0.0 0.0 1021.0 0.0 0.0 12.5 0.0
04/03/19 06:55 12.4 98 12.1 0.0 0.0 0 0.0 0.0 1021.0 0.0 0.0 12.4 0.0
04/03/19 06:56 12.5 98 12.2 0.0 0.0 0 0.0 0.0 1021.0 0.0 0.0 12.5 0.0
04/03/19 06:57 12.5 98 12.2 0.0 0.0 0 0.0 0.0 1021.0 0.0 0.0 12.5 0.0
04/03/19 06:58 12.5 98 12.2 0.0 0.0 0 0.0 0.0 1021.0 0.0 0.0 12.5 0.0
04/03/19 06:59 12.5 98 12.2 0.0 0.0 0 0.0 0.0 1021.0 0.0 0.0 12.5 0.0
04/03/19 07:00 12.5 98 12.2 0.0 0.0 0 0.0 0.0 1021.0 0.0 0.0 12.5 0.0
04/03/19 07:03 12.5 98 12.2 0.0 0.0 0 0.0 0.0 1021.0 0.0 0.0 12.5 0.0
04/03/19 07:04 12.5 98 12.2 0.0 0.0 0 0.0 0.0 1021.0 0.0 0.0 12.5 0.0
04/03/19 07:05 12.5 98 12.2 0.0 0.0 0 0.0 0.0 1021.0 0.0 0.0 12.5 0.0
04/03/19 07:06 12.5 98 12.2 0.0 0.0 0 0.0 0.0 1021.0 0.0 0.0 12.5 0.0
04/03/19 07:07 12.5 98 12.2 0.0 0.0 0 0.0 0.0 1021.0 0.0 0.0 12.5 0.0
04/03/19 07:08 12.5 98 12.2 0.0 0.0 0 0.0 0.0 1021.0 0.0 0.0 12.5 0.0
04/03/19 07:09 12.5 98 12.2 0.0 0.0 0 0.0 0.0 1021.0 0.0 0.0 12.5 0.0
04/03/19 07:10 12.5 98 12.2 0.0 0.0 0 0.0 0.0 1021.0 0.0 0.0 12.5 0.0
04/03/19 07:11 12.5 98 12.2 0.0 0.0 0 0.0 0.0 1021.0 0.0 0.0 12.5 0.0
04/03/19 07:12 12.5 98 12.2 0.0 0.0 0 0.0 0.0 1021.0 0.0 0.0 12.5 0.0
04/03/19 07:13 12.5 98 12.2 0.0 0.0 0 0.0 0.0 1021.0 0.0 0.0 12.5 0.0
04/03/19 07:14 12.5 98 12.2 0.0 0.0 0 0.0 0.0 1021.0 0.0 0.0 12.5 0.0
04/03/19 07:18 12.6 98 12.3 0.0 0.0 0 0.0 0.0 1021.0 0.0 0.0 12.6 0.0
04/03/19 07:19 12.6 98 12.3 0.0 0.0 0 0.0 0.0 1021.0 0.0 0.0 12.6 0.0
04/03/19 07:20 12.7 98 12.4 0.0 0.0 0 0.0 0.0 1021.0 0.0 0.0 12.7 0.0
04/03/19 07:21 12.7 98 12.4 0.0 0.0 0 0.0 0.0 1021.0 0.0 0.0 12.7 0.0
04/03/19 07:22 12.8 98 12.5 0.0 0.0 0 0.0 0.0 1021.0 0.0 0.0 12.8 0.0
04/03/19 07:23 12.8 98 12.5 0.0 0.0 0 0.0 0.0 1021.0 0.0 0.0 12.8 0.0
04/03/19 07:24 12.9 98 12.6 0.0 0.0 0 0.0 0.0 1021.0 0.0 0.0 12.9 0.0
04/03/19 07:25 13.3 98 13.0 0.0 0.0 0 0.0 0.0 1021.0 0.0 0.0 13.3 0.0
04/03/19 07:26 13.8 98 13.5 0.0 0.0 0 0.0 0.0 1021.0 0.0 0.0 13.8 0.0
04/03/19 07:27 14.3 98 14.0 0.0 0.0 0 0.0 0.0 1021.0 0.0 0.0 14.3 0.0
04/03/19 07:28 14.6 98 14.3 0.0 0.0 0 0.0 0.0 1021.0 0.0 0.0 14.6 0.0
04/03/19 07:29 15.0 98 14.7 0.0 0.0 0 0.0 0.0 1021.0 0.0 0.0 15.0 0.0
04/03/19 07:30 15.3 97 14.8 0.0 0.0 0 0.0 0.0 1021.0 0.0 0.0 15.3 0.0
04/03/19 07:33 16.0 94 15.0 0.0 0.0 0 0.0 0.0 1021.0 0.0 0.0 16.0 0.0
04/03/19 07:34 16.1 93 15.0 0.0 0.0 0 0.0 0.0 1021.0 0.0 0.0 16.1 0.0
04/03/19 07:35 16.2 93 15.1 0.0 0.0 0 0.0 0.0 1021.0 0.0 0.0 16.2 0.0
04/03/19 07:36 16.3 92 15.0 0.0 0.0 0 0.0 0.0 1021.0 0.0 0.0 16.3 0.0
04/03/19 07:37 16.3 92 15.0 0.0 0.0 0 0.0 0.0 1021.0 0.0 0.0 16.3 0.0
04/03/19 07:38 16.5 92 15.2 0.0 0.0 0 0.0 0.0 1022.0 0.0 0.0 16.5 0.0
04/03/19 07:39 16.5 92 15.2 0.0 0.0 0 0.0 0.0 1022.0 0.0 0.0 16.5 0.0
04/03/19 07:40 16.5 91 15.0 0.0 0.0 0 0.0 0.0 1022.0 0.0 0.0 16.5 0.0
04/03/19 07:41 16.6 90 15.0 0.0 0.0 0 0.0 0.0 1022.0 0.0 0.0 16.6 0.0
04/03/19 07:42 16.7 90 15.1 0.0 0.0 0 0.0 0.0 1022.0 0.0 0.0 16.7 0.0
04/03/19 07:43 16.7 90 15.1 0.0 0.0 0 0.0 0.0 1022.0 0.0 0.0 16.7 0.0
04/03/19 07:44 16.7 90 15.1 0.0 0.0 0 0.0 0.0 1022.0 0.0 0.0 16.7 0.0
04/03/19 07:45 16.8 90 15.1 0.0 0.0 0 0.0 0.0 1022.0 0.0 0.0 16.8 0.0
04/03/19 07:48 16.8 89 15.0 0.0 0.0 0 0.0 0.0 1022.0 0.0 0.0 16.8 0.0
04/03/19 07:49 16.8 88 14.8 0.0 0.0 0 0.0 0.0 1022.0 0.0 0.0 16.8 0.0
04/03/19 07:50 16.8 88 14.8 0.0 0.0 0 0.0 0.0 1022.0 0.0 0.0 16.8 0.0
04/03/19 07:51 16.9 88 14.9 0.0 0.0 0 0.0 0.0 1022.0 0.0 0.0 16.9 0.0
04/03/19 07:52 16.9 88 14.9 0.0 0.0 0 0.0 0.0 1022.0 0.0 0.0 16.9 0.0
04/03/19 07:53 17.0 88 15.0 0.0 0.0 0 0.0 0.0 1022.0 0.0 0.0 17.0 0.0
04/03/19 07:54 17.0 88 15.0 0.0 0.0 0 0.0 0.0 1022.0 0.0 0.0 17.0 0.0
04/03/19 07:55 17.0 87 14.8 0.0 0.0 0 0.0 0.0 1022.0 0.0 0.0 17.0 0.0
04/03/19 07:56 17.0 87 14.8 0.0 0.0 0 0.0 0.0 1022.0 0.0 0.0 17.0 0.0
04/03/19 07:57 17.2 88 15.2 0.0 0.0 0 0.0 0.0 1022.0 0.0 0.0 17.2 0.0
04/03/19 08:03 17.3 87 15.1 0.0 0.0 0 0.0 0.0 1022.0 0.0 0.0 17.3 0.0
04/03/19 08:04 17.2 87 15.0 0.0 0.0 0 0.0 0.0 1022.0 0.0 0.0 17.2 0.0
04/03/19 08:05 17.2 86 14.8 0.0 0.0 0 0.0 0.0 1022.0 0.0 0.0 17.2 0.0
04/03/19 08:06 17.2 86 14.8 0.0 0.0 0 0.0 0.0 1022.0 0.0 0.0 17.2 0.0
04/03/19 08:07 17.1 86 14.7 0.0 0.0 0 0.0 0.0 1022.0 0.0 0.0 17.1 0.0
04/03/19 08:08 17.1 85 14.6 0.0 0.0 0 0.0 0.0 1022.0 0.0 0.0 17.1 0.0
04/03/19 08:09 17.0 85 14.5 0.0 0.0 0 0.0 0.0 1022.0 0.0 0.0 17.0 0.0
04/03/19 08:10 17.1 85 14.6 0.0 0.0 0 0.0 0.0 1022.0 0.0 0.0 17.1 0.0
04/03/19 08:11 17.1 85 14.6 0.0 0.0 0 0.0 0.0 1022.0 0.0 0.0 17.1 0.0
04/03/19 08:12 17.1 85 14.6 0.0 0.0 0 0.0 0.0 1022.0 0.0 0.0 17.1 0.0
04/03/19 08:13 17.0 84 14.3 0.0 0.0 0 0.0 0.0 1022.0 0.0 0.0 17.0 0.0
04/03/19 08:14 17.0 83 14.1 0.0 0.0 0 0.0 0.0 1022.0 0.0 0.0 17.0 0.0
04/03/19 08:15 17.0 83 14.1 0.0 0.0 0 0.0 0.0 1022.0 0.0 0.0 17.0 0.0
04/03/19 08:18 17.2 83 14.3 0.0 0.0 0 0.0 0.0 1022.0 0.0 0.0 17.2 0.0
04/03/19 08:19 17.2 82 14.1 0.0 0.0 0 0.0 0.0 1022.0 0.0 0.0 17.2 0.0
04/03/19 08:20 17.4 82 14.3 0.0 0.0 0 0.0 0.0 1022.0 0.0 0.0 17.4 0.0
04/03/19 08:21 17.5 82 14.4 0.0 0.0 0 0.0 0.0 1022.0 0.0 0.0 17.5 0.0
04/03/19 08:22 17.5 82 14.4 0.0 0.0 0 0.0 0.0 1022.0 0.0 0.0 17.5 0.0
04/03/19 08:23 17.4 82 14.3 0.0 0.0 0 0.0 0.0 1022.0 0.0 0.0 17.4 0.0
04/03/19 08:24 17.4 82 14.3 0.0 0.0 0 0.0 0.0 1022.0 0.0 0.0 17.4 0.0
04/03/19 08:25 17.4 82 14.3 0.0 0.0 0 0.0 0.0 1022.0 0.0 0.0 17.4 0.0
04/03/19 08:26 17.7 81 14.4 0.0 0.0 0 0.0 0.0 1022.0 0.0 0.0 17.7 0.0
04/03/19 08:27 17.8 81 14.5 0.0 0.0 0 0.0 0.0 1022.0 0.0 0.0 17.8 0.0
04/03/19 08:33 17.8 80 14.3 0.0 0.0 0 0.0 0.0 1022.0 0.0 0.0 17.8 0.0
04/03/19 08:34 17.8 79 14.1 0.0 0.0 0 0.0 0.0 1022.0 0.0 0.0 17.8 0.0
04/03/19 08:35 17.9 79 14.2 0.0 0.0 0 0.0 0.0 1022.0 0.0 0.0 17.9 0.0
04/03/19 08:36 17.9 79 14.2 0.0 0.0 0 0.0 0.0 1022.0 0.0 0.0 17.9 0.0
04/03/19 08:37 18.0 79 14.3 0.0 0.0 0 0.0 0.0 1022.0 0.0 0.0 18.0 0.0
04/03/19 08:38 18.1 78 14.2 0.0 0.0 0 0.0 0.0 1022.0 0.0 0.0 18.1 0.0
04/03/19 08:39 18.2 78 14.3 0.0 0.0 0 0.0 0.0 1022.0 0.0 0.0 18.2 0.0
04/03/19 08:40 18.4 78 14.5 0.0 0.0 0 0.0 0.0 1022.0 0.0 0.0 18.4 0.0
04/03/19 08:41 18.6 79 14.9 0.0 0.0 0 0.0 0.0 1022.0 0.0 0.0 18.6 0.0
04/03/19 08:42 18.7 78 14.8 0.0 0.0 0 0.0 0.0 1022.0 0.0 0.0 18.7 0.0
04/03/19 08:43 18.8 76 14.5 0.0 0.0 0 0.0 0.0 1022.0 0.0 0.0 18.8 0.0
04/03/19 08:44 18.9 77 14.8 0.0 0.0 0 0.0 0.0 1022.0 0.0 0.0 18.9 0.0
04/03/19 08:45 18.9 77 14.8 0.0 0.0 0 0.0 0.0 1022.0 0.0 0.0 18.9 0.0
04/03/19 08:48 18.9 75 14.4 0.0 0.0 0 0.0 0.0 1022.0 0.0 0.0 18.9 0.0
04/03/19 08:49 19.2 76 14.9 0.0 1.8 46 0.0 0.0 1022.0 1.4 19.1 19.2 0.0
04/03/19 08:50 19.2 76 14.9 0.0 1.8 46 0.0 0.0 1022.0 1.4 19.1 19.2 0.0
04/03/19 08:51 19.4 74 14.6 0.0 1.8 45 0.0 0.0 1022.0 1.4 19.2 19.4 0.0
04/03/19 08:52 19.6 75 15.0 0.0 1.8 45 0.0 0.0 1022.0 1.4 19.4 19.6 0.0
04/03/19 08:53 19.7 74 14.9 0.0 1.8 45 0.0 0.0 1022.0 1.4 19.6 19.7 0.0
04/03/19 08:54 19.9 74 15.1 0.0 1.8 45 0.0 0.0 1022.0 1.4 19.7 19.9 0.0
04/03/19 08:55 20.1 73 15.1 0.0 1.8 45 0.0 0.0 1022.0 1.4 19.9 20.1 0.0
04/03/19 08:56 20.1 73 15.1 0.0 1.8 45 0.0 0.0 1022.0 1.4 20.1 20.1 0.0
04/03/19 08:57 20.1 71 14.7 2.2 3.2 69 0.0 0.0 1022.0 3.2 20.1 20.1 0.0
04/03/19 08:58 20.1 71 14.7 2.2 3.2 79 0.0 0.0 1022.0 3.2 20.1 20.1 0.0
04/03/19 08:59 20.1 71 14.7 2.2 3.2 93 0.0 0.0 1022.0 3.2 20.1 20.1 0.0
04/03/19 09:00 20.3 72 15.1 2.2 3.2 103 0.0 0.0 1022.0 3.2 20.1 20.3 0.0
04/03/19 09:02 20.5 70 14.8 2.2 3.2 80 0.0 0.0 1022.0 3.2 0.0 20.5 0.0
04/03/19 09:03 20.6 70 14.9 2.2 3.2 90 0.0 0.0 1022.0 3.2 20.5 20.6 0.0
04/03/19 09:04 20.9 71 15.4 2.2 3.2 102 0.0 0.0 1022.0 3.2 20.8 20.9 0.0
04/03/19 09:05 20.9 70 15.2 2.2 3.2 108 0.0 0.0 1022.0 3.2 20.9 20.9 0.0
04/03/19 09:06 21.0 69 15.1 2.2 3.2 113 0.0 0.0 1022.0 3.2 20.9 21.0 0.0
04/03/19 09:07 21.1 67 14.7 0.0 3.2 116 0.0 0.0 1022.0 0.0 21.0 21.1 0.0
04/03/19 09:08 21.2 67 14.8 0.0 3.2 121 0.0 0.0 1022.0 0.0 21.1 21.2 0.0
04/03/19 09:18 22.2 65 15.3 1.4 1.4 135 0.0 0.0 1022.0 1.4 22.1 22.2 0.0
04/03/19 09:19 22.3 63 14.9 0.0 1.4 135 0.0 0.0 1022.0 0.0 22.2 22.3 0.0
04/03/19 09:20 22.3 64 15.2 0.0 1.4 135 0.0 0.0 1022.0 0.0 22.3 22.3 0.0
04/03/19 09:21 21.9 63 14.5 2.2 3.6 135 0.0 0.0 1022.0 3.6 22.3 21.9 0.0
04/03/19 09:22 21.8 63 14.4 4.7 3.6 135 0.0 0.0 1022.0 3.2 21.9 21.8 0.0
04/03/19 09:23 21.6 63 14.3 3.2 3.6 135 0.0 0.0 1023.0 2.5 21.6 21.6 0.0
04/03/19 09:24 21.6 64 14.5 2.2 3.6 135 0.0 0.0 1023.0 3.6 21.6 21.6 0.0
04/03/19 09:25 21.7 64 14.6 2.2 4.0 135 0.0 0.0 1023.0 2.5 21.7 21.7 0.0
04/03/19 09:26 21.7 63 14.3 2.2 4.0 135 0.0 0.0 1023.0 1.4 21.7 21.7 0.0
04/03/19 09:27 22.2 64 15.1 2.2 4.0 135 0.0 0.0 1023.0 1.4 21.9 22.2 0.0
04/03/19 09:28 22.4 63 15.0 0.0 4.0 135 0.0 0.0 1023.0 0.0 22.4 22.4 0.0
04/03/19 09:29 22.6 62 14.9 0.0 4.0 135 0.0 0.0 1023.0 0.0 22.6 22.6 0.0
04/03/19 09:30 22.8 61 14.9 0.0 4.0 135 0.0 0.0 1023.0 1.4 22.8 22.8 0.0
04/03/19 09:32 22.9 61 15.0 3.2 6.8 135 0.0 0.0 1023.0 6.8 22.9 22.9 0.0
04/03/19 09:33 22.4 59 14.0 3.2 6.8 135 0.0 0.0 1023.0 6.8 22.9 22.4 0.0
04/03/19 09:34 22.5 59 14.1 3.2 6.8 135 0.0 0.0 1023.0 6.8 22.4 22.5 0.0
04/03/19 09:47 23.1 57 14.1 0.0 2.5 135 0.0 0.0 1023.0 0.0 23.1 23.1 0.0
04/03/19 09:48 23.3 57 14.3 0.0 2.5 135 0.0 0.0 1023.0 0.0 23.3 23.3 0.0
04/03/19 09:49 23.5 54 13.7 0.0 2.5 135 0.0 0.0 1023.0 0.0 23.5 23.5 0.0
04/03/19 09:50 23.6 55 14.0 0.0 2.5 135 0.0 0.0 1023.0 0.0 23.5 23.6 0.0
04/03/19 09:51 23.7 55 14.1 1.8 2.5 135 0.0 0.0 1023.0 0.0 23.6 23.7 0.0
04/03/19 09:52 23.8 54 13.9 0.0 2.5 135 0.0 0.0 1023.0 0.0 23.8 23.8 0.0
04/03/19 09:53 23.9 53 13.7 0.0 2.5 135 0.0 0.0 1023.0 0.0 23.9 23.9 0.0
04/03/19 09:54 24.0 54 14.1 0.0 2.5 135 0.0 0.0 1023.0 0.0 24.0 24.0 0.0
04/03/19 09:55 24.1 54 14.2 0.0 2.5 135 0.0 0.0 1023.0 0.0 24.1 24.1 0.0
04/03/19 09:56 24.1 52 13.6 0.0 2.5 135 0.0 0.0 1023.0 0.0 24.1 24.1 0.0
04/03/19 09:57 24.1 52 13.6 0.0 1.4 135 0.0 0.0 1023.0 0.0 24.1 24.1 0.0
04/03/19 09:58 24.3 53 14.1 0.0 1.4 135 0.0 0.0 1023.0 0.0 24.3 24.3 0.0
04/03/19 09:59 24.2 51 13.4 0.0 1.4 135 0.0 0.0 1023.0 0.0 24.2 24.2 0.0
04/03/19 10:00 24.2 51 13.4 0.0 1.4 135 0.0 0.0 1023.0 0.0 24.2 24.2 0.0
04/03/19 10:02 24.3 52 13.8 0.0 1.4 135 0.0 0.0 1023.0 1.4 24.3 24.3 0.0
04/03/19 10:03 24.3 51 13.5 0.0 1.4 135 0.0 0.0 1023.0 0.0 24.3 24.3 0.0
04/03/19 10:04 24.4 51 13.6 0.0 1.4 135 0.0 0.0 1023.0 0.0 24.4 24.4 0.0
04/03/19 10:05 24.6 52 14.1 0.0 1.8 135 0.0 0.0 1023.0 1.8 24.6 24.6 0.0
04/03/19 10:06 24.6 51 13.8 0.0 4.0 135 0.0 0.0 1023.0 1.8 24.6 24.6 0.0
04/03/19 10:07 24.7 51 13.9 1.4 4.0 135 0.0 0.0 1023.0 0.0 24.7 24.7 0.0
04/03/19 10:08 24.9 52 14.4 1.4 4.0 135 0.0 0.0 1024.0 0.0 24.9 24.9 0.0
04/03/19 10:09 24.9 50 13.8 0.0 4.0 135 0.0 0.0 1024.0 1.4 24.9 24.9 0.0
04/03/19 10:10 24.9 49 13.4 0.0 4.0 135 0.0 0.0 1024.0 1.8 24.9 24.9 0.0
04/03/19 10:11 25.0 50 13.9 1.8 4.0 135 0.0 0.0 1024.0 0.0 25.0 25.0 0.0
04/03/19 10:12 25.1 49 13.6 0.0 4.0 135 0.0 0.0 1024.0 1.4 25.1 25.1 0.0
04/03/19 10:13 25.2 50 14.0 0.0 4.0 135 0.0 0.0 1024.0 0.0 25.1 25.2 0.0
04/03/19 10:14 25.1 50 13.9 1.4 4.0 135 0.0 0.0 1024.0 2.5 25.1 25.1 0.0
04/03/19 10:15 25.1 49 13.6 2.2 4.0 135 0.0 0.0 1024.0 2.2 25.1 25.1 0.0
04/03/19 10:17 25.3 50 14.1 1.8 2.5 166 0.0 0.0 1024.0 0.0 25.3 25.3 0.0
04/03/19 10:18 25.4 48 13.6 0.0 2.5 166 0.0 0.0 1024.0 0.0 25.4 25.4 0.0
04/03/19 10:19 25.6 49 14.1 0.0 2.5 166 0.0 0.0 1024.0 0.0 25.6 25.6 0.0
04/03/19 10:20 25.8 49 14.3 0.0 3.6 149 0.0 0.0 1024.0 2.2 25.7 25.8 0.0
04/03/19 10:21 25.8 48 14.0 0.0 3.6 151 0.0 0.0 1024.0 0.0 25.8 25.8 0.0
04/03/19 10:22 25.9 49 14.4 0.0 3.6 151 0.0 0.0 1024.0 0.0 25.9 25.9 0.0
04/03/19 10:23 25.9 47 13.7 0.0 3.6 153 0.0 0.0 1023.0 0.0 25.9 25.9 0.0
04/03/19 10:24 26.0 47 13.8 0.0 3.6 153 0.0 0.0 1023.0 0.0 26.0 26.0 0.0
04/03/19 10:32 25.9 47 13.7 2.2 4.0 135 0.0 0.0 1023.0 0.0 25.9 25.9 0.0
04/03/19 10:33 26.1 47 13.9 0.0 4.0 135 0.0 0.0 1023.0 0.0 26.1 26.1 0.0
04/03/19 10:34 26.3 47 14.1 0.0 4.0 135 0.0 0.0 1023.0 0.0 26.3 26.3 0.0
04/03/19 10:35 26.7 47 14.5 0.0 4.0 135 0.0 0.0 1023.0 0.0 26.5 27.0 0.0
04/03/19 10:36 26.9 47 14.6 0.0 4.0 135 0.0 0.0 1023.0 0.0 26.9 27.2 0.0
04/03/19 10:37 27.0 44 13.7 0.0 4.0 135 0.0 0.0 1023.0 0.0 26.9 27.1 0.0
04/03/19 10:38 27.0 44 13.7 0.0 4.0 135 0.0 0.0 1023.0 2.2 27.0 27.1 0.0
04/03/19 10:39 27.0 44 13.7 0.0 4.0 135 0.0 0.0 1023.0 0.0 27.0 27.1 0.0
04/03/19 10:40 27.0 45 14.1 1.4 4.0 135 0.0 0.0 1023.0 1.4 27.0 27.1 0.0
04/03/19 10:41 26.9 45 14.0 1.4 4.0 135 0.0 0.0 1023.0 0.0 26.9 27.0 0.0
04/03/19 10:42 27.2 44 13.9 1.4 2.5 135 0.0 0.0 1023.0 1.8 27.1 27.2 0.0
04/03/19 10:43 27.3 44 14.0 0.0 2.5 135 0.0 0.0 1023.0 0.0 27.3 27.3 0.0
04/03/19 10:44 27.4 44 14.1 0.0 2.5 135 0.0 0.0 1023.0 1.8 27.4 27.4 0.0
04/03/19 10:45 27.4 44 14.1 0.0 2.5 135 0.0 0.0 1023.0 0.0 27.4 27.4 0.0
04/03/19 10:47 27.4 43 13.7 0.0 2.2 135 0.0 0.0 1023.0 0.0 27.4 27.3 0.0
04/03/19 11:02 28.0 42 13.9 0.0 1.4 135 0.0 0.0 1023.0 1.4 28.0 27.8 0.0
04/03/19 11:03 28.1 41 13.6 0.0 1.8 135 0.0 0.0 1023.0 1.8 28.1 27.8 0.0
04/03/19 11:04 28.2 41 13.7 1.8 3.6 135 0.0 0.0 1023.0 3.6 28.2 27.9 0.0
04/03/19 11:05 27.9 41 13.4 2.2 3.6 135 0.0 0.0 1023.0 0.0 28.2 27.6 0.0
04/03/19 11:06 27.9 41 13.4 2.2 3.6 135 0.0 0.0 1023.0 1.4 27.9 27.6 0.0
04/03/19 11:07 28.0 41 13.5 0.0 3.6 135 0.0 0.0 1023.0 1.4 28.0 27.7 0.0
04/03/19 11:08 28.2 42 14.1 1.8 3.6 135 0.0 0.0 1023.0 2.5 28.2 28.0 0.0
04/03/19 11:09 28.2 41 13.7 1.8 3.6 135 0.0 0.0 1023.0 0.0 28.2 27.9 0.0
04/03/19 11:10 28.1 41 13.6 1.8 6.5 135 0.0 0.0 1023.0 3.2 28.1 27.8 0.0
04/03/19 11:11 28.1 41 13.6 2.5 6.5 135 0.0 0.0 1023.0 3.2 28.1 27.8 0.0
04/03/19 11:12 28.1 41 13.6 1.8 6.5 135 0.0 0.0 1023.0 1.4 28.1 27.8 0.0
04/03/19 11:13 28.1 40 13.2 1.8 6.5 135 0.0 0.0 1023.0 1.8 28.0 27.8 0.0
04/03/19 11:14 28.3 41 13.8 0.0 6.5 135 0.0 0.0 1023.0 0.0 28.3 28.0 0.0
04/03/19 11:15 28.4 41 13.9 0.0 6.5 135 0.0 0.0 1023.0 2.2 28.4 28.1 0.0
04/03/19 11:17 28.2 40 13.3 1.8 3.2 135 0.0 0.0 1023.0 3.2 28.2 27.8 0.0
04/03/19 11:18 28.1 40 13.2 1.8 5.4 135 0.0 0.0 1023.0 0.0 28.1 27.8 0.0
04/03/19 11:19 28.2 41 13.7 2.2 5.4 135 0.0 0.0 1023.0 2.2 28.2 27.9 0.0
04/03/19 11:20 28.3 40 13.4 2.2 5.4 135 0.0 0.0 1023.0 4.3 28.4 27.9 0.0
04/03/19 11:21 28.4 40 13.5 0.0 5.4 135 0.0 0.0 1023.0 0.0 28.4 28.0 0.0
04/03/19 11:22 28.5 41 14.0 2.2 5.4 135 0.0 0.0 1023.0 4.3 28.5 28.2 0.0
04/03/19 11:23 28.6 40 13.7 2.2 5.4 135 0.0 0.0 1023.0 0.0 28.6 28.2 0.0
04/03/19 11:24 28.6 40 13.7 2.2 5.4 135 0.0 0.0 1023.0 5.0 28.6 28.2 0.0
04/03/19 11:25 28.5 40 13.6 5.8 6.5 135 0.0 0.0 1023.0 6.1 28.5 28.1 0.0
04/03/19 11:26 27.7 40 12.9 2.2 6.5 135 0.0 0.0 1023.0 1.4 27.7 27.4 0.0
04/03/19 11:27 27.5 40 12.7 2.2 6.5 135 0.0 0.0 1023.0 2.2 27.5 27.2 0.0
04/03/19 11:28 27.9 40 13.1 0.0 6.5 135 0.0 0.0 1023.0 0.0 27.9 27.6 0.0
04/03/19 11:37 28.9 39 13.6 4.3 7.6 188 0.0 0.0 1023.0 1.8 28.9 28.4 0.0
04/03/19 11:38 28.9 40 13.9 4.7 7.6 155 0.0 0.0 1022.0 5.4 28.9 28.5 0.0
04/03/19 11:39 28.5 39 13.2 4.3 7.6 148 0.0 0.0 1022.0 2.5 28.5 28.0 0.0
04/03/19 11:40 28.4 39 13.1 4.3 7.6 147 0.0 0.0 1022.0 2.2 28.4 27.9 0.0
04/03/19 11:41 28.6 39 13.3 2.2 7.6 145 0.0 0.0 1022.0 6.1 28.6 28.1 0.0
04/03/19 11:42 28.5 39 13.2 4.7 7.6 148 0.0 0.0 1022.0 4.7 28.5 28.0 0.0
04/03/19 11:43 28.4 39 13.1 2.2 7.6 149 0.0 0.0 1022.0 1.4 28.3 27.9 0.0
04/03/19 11:44 28.6 39 13.3 2.2 7.6 148 0.0 0.0 1022.0 4.0 28.6 28.1 0.0
04/03/19 11:45 28.9 39 13.6 2.2 7.6 147 0.0 0.0 1022.0 1.4 28.9 28.4 0.0
04/03/19 11:47 29.1 39 13.7 2.2 6.1 161 0.0 0.0 1022.0 3.2 29.1 28.6 0.0
04/03/19 11:48 29.3 38 13.5 2.2 6.1 160 0.0 0.0 1022.0 0.0 29.3 28.7 0.0
04/03/19 11:49 29.5 39 14.1 1.8 6.1 269 0.0 0.0 1022.0 0.0 29.5 29.0 0.0
04/03/19 11:50 29.6 39 14.2 1.8 6.1 298 0.0 0.0 1022.0 4.0 29.6 29.1 0.0
04/03/19 11:51 29.5 39 14.1 1.8 6.1 316 0.0 0.0 1022.0 3.2 29.7 29.0 0.0
04/03/19 11:52 29.1 38 13.3 3.2 4.7 333 0.0 0.0 1022.0 4.7 29.1 28.5 0.0
04/03/19 11:53 28.9 39 13.6 4.3 5.0 340 0.0 0.0 1022.0 2.5 28.9 28.4 0.0
04/03/19 11:54 28.7 39 13.4 4.3 5.8 346 0.0 0.0 1022.0 5.4 28.7 28.2 0.0
04/03/19 11:55 28.8 39 13.5 4.3 5.8 350 0.0 0.0 1022.0 2.5 28.8 28.3 0.0
04/03/19 11:56 28.8 38 13.1 2.5 5.8 7 0.0 0.0 1022.0 5.0 28.8 28.2 0.0
04/03/19 11:57 28.7 39 13.4 4.0 5.8 35 0.0 0.0 1022.0 3.2 28.7 28.2 0.0
04/03/19 11:58 28.5 38 12.8 4.3 5.8 80 0.0 0.0 1022.0 4.3 28.6 28.0 0.0
04/03/19 11:59 28.6 38 12.9 3.6 5.8 84 0.0 0.0 1022.0 2.2 28.6 28.1 0.0
04/03/19 12:02 28.2 38 12.5 4.0 5.4 77 0.0 0.0 1022.0 5.4 28.2 27.7 0.0
04/03/19 12:03 28.1 38 12.4 4.3 5.4 106 0.0 0.0 1022.0 5.0 28.1 27.6 0.0
04/03/19 12:04 28.2 38 12.5 4.3 5.4 112 0.0 0.0 1022.0 5.0 28.1 27.7 0.0
04/03/19 12:05 28.4 39 13.1 3.6 5.4 106 0.0 0.0 1022.0 2.2 28.4 27.9 0.0
04/03/19 12:06 28.8 39 13.5 2.5 5.4 97 0.0 0.0 1022.0 2.2 28.6 28.3 0.0
04/03/19 12:07 29.0 38 13.2 1.8 5.4 97 0.0 0.0 1022.0 3.6 29.0 28.4 0.0
04/03/19 12:08 29.2 38 13.4 1.8 5.4 96 0.0 0.0 1022.0 3.6 29.0 28.6 0.0
04/03/19 12:09 29.3 38 13.5 1.8 5.4 92 0.0 0.0 1022.0 3.6 29.2 28.7 0.0
04/03/19 12:10 29.6 39 14.2 1.8 5.4 88 0.0 0.0 1022.0 3.6 29.3 29.1 0.0
04/03/19 12:11 29.8 37 13.5 0.0 5.4 82 0.0 0.0 1022.0 0.0 29.8 29.2 0.0
04/03/19 12:12 30.0 38 14.1 0.0 5.4 67 0.0 0.0 1022.0 0.0 30.0 29.5 0.0
04/03/19 12:13 30.3 38 14.4 1.8 5.0 21 0.0 0.0 1022.0 0.0 30.1 29.8 0.0
04/03/19 12:14 30.5 37 14.2 0.0 5.0 20 0.0 0.0 1022.0 2.2 30.5 29.9 0.0
04/03/19 12:15 30.5 37 14.2 0.0 4.0 46 0.0 0.0 1022.0 2.5 30.5 29.9 0.0
04/03/19 12:17 30.4 37 14.1 0.0 3.6 84 0.0 0.0 1022.0 0.0 30.4 29.8 0.0
04/03/19 12:18 30.6 37 14.3 0.0 3.6 81 0.0 0.0 1022.0 0.0 30.4 30.0 0.0
04/03/19 12:19 30.7 37 14.3 0.0 3.6 82 0.0 0.0 1022.0 1.4 30.7 30.1 0.0
04/03/19 12:20 30.9 36 14.1 0.0 2.5 83 0.0 0.0 1022.0 0.0 30.9 30.3 0.0
04/03/19 12:21 30.9 35 13.7 0.0 2.5 83 0.0 0.0 1022.0 0.0 30.9 30.1 0.0
04/03/19 12:22 30.8 35 13.6 0.0 2.5 83 0.0 0.0 1022.0 0.0 30.8 30.0 0.0
04/03/19 12:23 30.9 35 13.7 0.0 2.5 83 0.0 0.0 1022.0 0.0 30.8 30.1 0.0
04/03/19 12:24 30.9 35 13.7 1.4 2.5 97 0.0 0.0 1022.0 2.5 30.9 30.1 0.0
04/03/19 12:25 30.8 35 13.6 1.8 3.2 126 0.0 0.0 1022.0 1.4 30.8 30.0 0.0
04/03/19 12:26 30.9 35 13.7 1.8 4.0 147 0.0 0.0 1022.0 4.0 30.9 30.1 0.0
04/03/19 12:27 31.0 35 13.7 2.5 4.0 154 0.0 0.0 1022.0 2.5 31.0 30.3 0.0
04/03/19 12:28 31.2 34 13.5 2.5 4.0 148 0.0 0.0 1022.0 2.2 31.1 30.4 0.0
04/03/19 12:29 31.3 33 13.1 1.4 4.0 148 0.0 0.0 1022.0 0.0 31.2 30.4 0.0
04/03/19 12:30 31.3 34 13.6 0.0 4.0 148 0.0 0.0 1022.0 0.0 31.3 30.5 0.0
04/03/19 12:32 31.7 34 13.9 2.2 4.0 136 0.0 0.0 1022.0 1.8 31.7 31.0 0.0
04/03/19 12:33 31.7 34 13.9 2.2 4.0 135 0.0 0.0 1022.0 1.4 31.7 31.0 0.0
04/03/19 12:34 31.7 34 13.9 2.2 4.0 135 0.0 0.0 1022.0 2.5 31.7 31.0 0.0
04/03/19 12:35 31.9 33 13.6 2.2 4.3 137 0.0 0.0 1022.0 4.3 31.9 31.1 0.0
04/03/19 12:36 31.8 34 14.0 2.2 4.3 137 0.0 0.0 1022.0 2.5 31.8 31.1 0.0
04/03/19 12:37 31.8 33 13.5 2.2 4.3 136 0.0 0.0 1022.0 0.0 31.8 30.9 0.0
04/03/19 12:38 31.9 33 13.6 1.4 4.3 135 0.0 0.0 1021.0 1.4 31.9 31.1 0.0
04/03/19 12:39 31.9 33 13.6 1.4 4.3 135 0.0 0.0 1021.0 3.2 31.9 31.1 0.0
04/03/19 12:40 31.8 32 13.1 3.2 4.3 135 0.0 0.0 1021.0 4.3 31.8 30.8 0.0
04/03/19 12:47 31.6 31 12.4 2.2 9.0 140 0.0 0.0 1021.0 6.1 31.6 30.5 0.0
04/03/19 12:48 31.0 32 12.4 6.1 9.0 139 0.0 0.0 1021.0 2.2 31.0 29.9 0.0
04/03/19 12:49 31.1 32 12.5 2.2 9.0 139 0.0 0.0 1021.0 0.0 31.1 30.0 0.0
04/03/19 12:50 31.3 33 13.1 0.0 9.0 138 0.0 0.0 1021.0 0.0 31.3 30.4 0.0
04/03/19 12:51 31.6 33 13.4 0.0 9.0 138 0.0 0.0 1021.0 4.0 31.6 30.7 0.0
04/03/19 12:52 31.5 33 13.3 2.2 9.0 138 0.0 0.0 1021.0 1.4 31.5 30.6 0.0
04/03/19 12:53 31.7 33 13.5 2.2 9.0 138 0.0 0.0 1021.0 0.0 31.5 30.8 0.0
04/03/19 12:54 31.9 33 13.6 0.0 9.0 138 0.0 0.0 1021.0 3.2 31.9 31.1 0.0
04/03/19 12:55 32.0 32 13.2 2.2 9.0 137 0.0 0.0 1021.0 0.0 32.0 31.1 0.0
04/03/19 12:56 32.2 33 13.9 1.4 9.0 137 0.0 0.0 1021.0 1.4 32.2 31.4 0.0
04/03/19 12:57 32.3 33 14.0 1.4 9.0 135 0.0 0.0 1021.0 1.4 32.2 31.6 0.0
04/03/19 12:58 32.2 33 13.9 3.6 4.0 135 0.0 0.0 1021.0 2.2 32.2 31.4 0.0
04/03/19 12:59 32.5 33 14.1 1.8 4.0 135 0.0 0.0 1021.0 1.8 32.3 31.8 0.0
04/03/19 13:00 32.5 32 13.7 3.6 5.4 128 0.0 0.0 1021.0 5.4 32.5 31.7 0.0
04/03/19 13:02 32.4 32 13.6 3.2 6.8 113 0.0 0.0 1021.0 6.8 0.0 31.5 0.0
04/03/19 13:03 32.3 32 13.5 4.0 6.8 308 0.0 0.0 1021.0 2.2 32.3 31.4 0.0
04/03/19 13:04 32.3 31 13.0 3.2 6.8 237 0.0 0.0 1021.0 2.2 32.3 31.3 0.0
04/03/19 13:05 32.2 31 12.9 2.2 6.8 299 0.0 0.0 1021.0 0.0 32.2 31.2 0.0
04/03/19 13:06 32.1 32 13.3 2.5 6.8 341 0.0 0.0 1021.0 2.5 32.1 31.2 0.0
04/03/19 13:07 32.2 32 13.4 2.5 6.8 342 0.0 0.0 1021.0 2.5 32.1 31.3 0.0
04/03/19 13:08 32.3 32 13.5 1.8 6.8 330 0.0 0.0 1021.0 4.7 32.2 31.4 0.0
04/03/19 13:09 32.2 32 13.4 3.2 6.8 326 0.0 0.0 1021.0 3.6 32.2 31.3 0.0
04/03/19 13:10 32.2 32 13.4 3.6 6.8 346 0.0 0.0 1021.0 4.3 32.2 31.3 0.0
04/03/19 13:11 32.3 32 13.5 1.4 6.8 352 0.0 0.0 1021.0 0.0 32.3 31.4 0.0
04/03/19 13:12 32.5 32 13.7 1.4 6.8 114 0.0 0.0 1021.0 0.0 32.5 31.7 0.0
04/03/19 13:13 32.7 32 13.8 1.8 4.7 121 0.0 0.0 1021.0 4.3 32.7 31.9 0.0
04/03/19 13:14 32.9 31 13.5 2.5 4.7 124 0.0 0.0 1021.0 2.2 32.8 32.0 0.0
04/03/19 13:15 32.8 31 13.4 2.5 6.8 127 0.0 0.0 1021.0 6.8 32.8 31.9 0.0
04/03/19 13:17 32.6 31 13.3 2.5 6.8 90 0.0 0.0 1021.0 2.2 32.6 31.6 0.0
04/03/19 13:18 32.7 31 13.4 2.5 6.8 120 0.0 0.0 1021.0 4.3 32.7 31.8 0.0
04/03/19 13:19 32.7 31 13.4 2.5 6.8 127 0.0 0.0 1021.0 2.2 32.7 31.8 0.0
04/03/19 13:20 32.8 31 13.4 2.2 6.8 130 0.0 0.0 1021.0 2.5 32.8 31.9 0.0
04/03/19 13:21 32.9 31 13.5 2.5 6.8 133 0.0 0.0 1021.0 2.2 32.9 32.0 0.0
04/03/19 13:22 32.9 31 13.5 2.5 6.8 133 0.0 0.0 1021.0 1.8 32.9 32.0 0.0
04/03/19 13:23 32.7 30 12.9 3.2 6.8 134 0.0 0.0 1020.0 2.5 32.7 31.6 0.0
04/03/19 13:24 32.7 30 12.9 3.2 6.8 134 0.0 0.0 1020.0 3.6 32.7 31.6 0.0
04/03/19 13:25 32.4 30 12.6 0.0 6.8 134 0.0 0.0 1020.0 0.0 32.4 31.3 0.0
04/03/19 13:26 32.4 30 12.6 0.0 6.1 135 0.0 0.0 1020.0 5.8 32.4 31.3 0.0
04/03/19 13:27 32.3 30 12.5 1.8 6.1 135 0.0 0.0 1020.0 2.2 32.3 31.2 0.0
04/03/19 13:28 32.6 30 12.8 2.2 6.1 135 0.0 0.0 1020.0 1.8 32.6 31.5 0.0
04/03/19 13:29 32.9 30 13.0 2.2 6.1 135 0.0 0.0 1020.0 4.7 32.8 31.9 0.0
04/03/19 13:30 32.7 30 12.9 2.5 6.8 135 0.0 0.0 1020.0 4.7 32.9 31.6 0.0
04/03/19 13:32 32.2 30 12.4 3.6 5.8 134 0.0 0.0 1020.0 3.2 32.2 31.0 0.0
04/03/19 13:33 32.0 30 12.3 3.6 6.8 134 0.0 0.0 1020.0 5.4 32.0 30.8 0.0
04/03/19 13:34 32.0 30 12.3 3.6 6.8 134 0.0 0.0 1020.0 3.2 32.0 30.8 0.0
04/03/19 13:35 31.9 30 12.2 5.8 12.2 135 0.0 0.0 1020.0 2.5 31.9 30.7 0.0
04/03/19 13:36 31.5 31 12.3 5.8 12.2 135 0.0 0.0 1020.0 2.2 31.5 30.4 0.0
04/03/19 13:37 31.5 31 12.3 3.6 12.2 135 0.0 0.0 1020.0 1.8 31.5 30.4 0.0
04/03/19 13:38 31.8 31 12.6 2.2 12.2 135 0.0 0.0 1021.0 2.5 31.8 30.7 0.0
04/03/19 13:47 32.2 31 12.9 2.2 4.0 135 0.0 0.0 1021.0 1.8 32.2 31.2 0.0
04/03/19 13:48 32.4 31 13.1 2.5 5.0 135 0.0 0.0 1021.0 3.6 32.4 31.4 0.0
04/03/19 13:49 32.5 31 13.2 1.4 5.0 135 0.0 0.0 1021.0 4.0 32.5 31.5 0.0
04/03/19 13:50 32.6 30 12.8 1.4 5.0 135 0.0 0.0 1021.0 4.3 32.6 31.5 0.0
04/03/19 13:51 32.6 30 12.8 4.0 7.6 135 0.0 0.0 1021.0 5.8 32.6 31.5 0.0
04/03/19 13:52 32.0 29 11.7 6.1 7.6 135 0.0 0.0 1021.0 7.2 32.0 30.7 0.0
04/03/19 13:53 31.7 30 12.0 4.7 7.9 135 0.0 0.0 1021.0 4.7 31.7 30.5 0.0
04/03/19 13:54 31.8 30 12.1 4.7 7.9 135 0.0 0.0 1021.0 3.2 31.7 30.6 0.0
04/03/19 13:55 32.0 30 12.3 2.5 7.9 135 0.0 0.0 1021.0 2.2 32.0 30.8 0.0
04/03/19 13:56 32.0 30 12.3 4.0 7.9 135 0.0 0.0 1021.0 5.4 32.0 30.8 0.0
04/03/19 13:57 32.2 30 12.4 4.0 7.9 135 0.0 0.0 1021.0 1.8 32.2 31.0 0.0
04/03/19 13:58 32.3 30 12.5 2.2 7.9 135 0.0 0.0 1021.0 2.5 32.3 31.2 0.0
04/03/19 13:59 32.4 30 12.6 4.0 7.9 135 0.0 0.0 1021.0 1.8 32.4 31.3 0.0
04/03/19 14:00 32.4 30 12.6 2.2 7.9 135 0.0 0.0 1021.0 2.5 32.4 31.3 0.0
04/03/19 14:02 32.4 30 12.6 3.2 7.2 135 0.0 0.0 1021.0 4.0 32.4 31.3 0.0
04/03/19 14:03 32.5 30 12.7 1.4 5.4 135 0.0 0.0 1021.0 0.0 32.5 31.4 0.0
04/03/19 14:04 32.7 29 12.3 1.4 5.4 135 0.0 0.0 1021.0 2.5 32.7 31.5 0.0
04/03/19 14:05 32.8 29 12.4 2.2 5.4 135 0.0 0.0 1021.0 0.0 32.8 31.6 0.0
04/03/19 14:06 32.9 29 12.5 1.8 5.4 314 0.0 0.0 1021.0 1.8 32.9 31.7 0.0
04/03/19 14:07 33.2 29 12.8 1.4 5.0 288 0.0 0.0 1021.0 2.5 33.0 32.1 0.0
04/03/19 14:08 33.2 29 12.8 1.4 5.0 246 0.0 0.0 1021.0 4.0 33.2 32.1 0.0
04/03/19 14:09 33.2 29 12.8 3.6 5.0 234 0.0 0.0 1021.0 1.8 33.2 32.1 0.0
04/03/19 14:10 33.4 29 12.9 2.2 5.0 255 0.0 0.0 1021.0 2.5 33.4 32.4 0.0
04/03/19 14:11 33.4 29 12.9 2.2 5.0 255 0.0 0.0 1021.0 1.4 33.4 32.4 0.0
04/03/19 14:12 33.4 29 12.9 1.8 5.0 267 0.0 0.0 1021.0 0.0 33.4 32.4 0.0
04/03/19 14:13 33.7 29 13.2 1.4 5.0 270 0.0 0.0 1021.0 1.8 33.7 32.7 0.0
04/03/19 14:14 33.8 29 13.3 2.5 5.0 253 0.0 0.0 1021.0 2.2 33.8 32.9 0.0
04/03/19 14:17 34.2 29 13.6 2.2 4.0 262 0.0 0.0 1021.0 3.6 34.2 33.4 0.0
04/03/19 14:18 34.1 28 13.0 2.2 4.0 258 0.0 0.0 1021.0 2.5 34.1 33.1 0.0
04/03/19 14:19 34.0 28 12.9 2.5 5.8 240 0.0 0.0 1021.0 4.3 34.0 33.0 0.0
04/03/19 14:20 33.9 29 13.4 3.6 5.8 171 0.0 0.0 1021.0 5.0 33.9 33.0 0.0
04/03/19 14:21 33.8 28 12.7 2.2 5.8 160 0.0 0.0 1021.0 1.8 33.8 32.7 0.0
04/03/19 14:22 34.0 28 12.9 2.2 5.8 177 0.0 0.0 1021.0 2.5 33.9 33.0 0.0
04/03/19 14:23 34.0 28 12.9 2.2 5.8 199 0.0 0.0 1021.0 3.2 34.0 33.0 0.0
04/03/19 14:24 34.1 28 13.0 2.2 5.8 214 0.0 0.0 1021.0 2.2 34.0 33.1 0.0
04/03/19 14:25 34.2 28 13.1 1.8 5.8 222 0.0 0.0 1021.0 1.8 34.2 33.2 0.0
04/03/19 14:26 34.1 27 12.4 1.8 5.8 232 0.0 0.0 1021.0 1.4 34.1 32.9 0.0
04/03/19 14:27 34.1 27 12.4 2.2 5.8 234 0.0 0.0 1021.0 3.6 34.1 32.9 0.0
04/03/19 14:28 34.0 28 12.9 2.2 5.8 243 0.0 0.0 1021.0 1.4 34.0 33.0 0.0
04/03/19 14:29 34.0 28 12.9 2.2 5.8 250 0.0 0.0 1021.0 0.0 34.0 33.0 0.0
04/03/19 14:32 34.0 27 12.4 4.0 5.8 187 0.0 0.0 1021.0 4.7 34.0 32.8 0.0
04/03/19 14:33 34.1 28 13.0 4.3 5.8 155 0.0 0.0 1021.0 2.5 34.1 33.1 0.0
04/03/19 14:34 33.4 27 11.9 6.1 10.4 141 0.0 0.0 1021.0 4.3 33.4 32.1 0.0
04/03/19 14:35 33.1 27 11.6 5.4 10.4 138 0.0 0.0 1021.0 6.5 33.1 31.7 0.0
04/03/19 14:36 32.9 28 12.0 5.4 10.4 136 0.0 0.0 1021.0 5.0 32.9 31.6 0.0
04/03/19 14:37 32.9 28 12.0 4.0 10.4 135 0.0 0.0 1021.0 4.0 32.9 31.6 0.0
04/03/19 14:38 32.9 28 12.0 3.2 10.4 133 0.0 0.0 1020.0 4.0 32.9 31.6 0.0
04/03/19 14:39 32.8 28 11.9 3.2 10.4 137 0.0 0.0 1020.0 2.5 32.8 31.5 0.0
04/03/19 14:40 33.0 28 12.1 4.7 10.4 134 0.0 0.0 1020.0 0.0 33.0 31.7 0.0
04/03/19 14:41 33.3 28 12.3 0.0 10.4 131 0.0 0.0 1020.0 0.0 33.3 32.1 0.0
04/03/19 14:42 33.6 28 12.6 1.8 10.4 130 0.0 0.0 1020.0 1.8 33.6 32.5 0.0
04/03/19 14:43 33.8 28 12.7 1.8 10.4 123 0.0 0.0 1020.0 4.7 33.8 32.7 0.0
04/03/19 14:44 33.9 28 12.8 2.5 10.1 118 0.0 0.0 1020.0 1.4 33.9 32.8 0.0
04/03/19 14:45 34.1 28 13.0 1.8 10.1 79 0.0 0.0 1020.0 2.5 34.0 33.1 0.0
04/03/19 14:47 34.3 28 13.2 2.2 4.7 122 0.0 0.0 1020.0 3.2 0.0 33.3 0.0
04/03/19 14:48 34.4 28 13.3 2.5 4.7 116 0.0 0.0 1020.0 1.8 34.4 33.5 0.0
04/03/19 14:49 34.5 28 13.3 2.5 4.7 267 0.0 0.0 1020.0 3.6 34.5 33.6 0.0
04/03/19 14:50 34.5 28 13.3 2.5 4.7 263 0.0 0.0 1020.0 2.2 34.5 33.6 0.0
04/03/19 14:51 34.5 28 13.3 2.2 4.7 269 0.0 0.0 1020.0 4.0 34.5 33.6 0.0
04/03/19 14:52 34.6 27 12.9 2.5 4.7 270 0.0 0.0 1020.0 2.2 34.6 33.6 0.0
04/03/19 14:53 34.7 27 13.0 2.5 4.7 270 0.0 0.0 1020.0 0.0 34.6 33.7 0.0
04/03/19 14:54 34.8 27 13.0 0.0 4.7 274 0.0 0.0 1020.0 0.0 34.7 33.8 0.0
04/03/19 14:55 34.9 27 13.1 1.4 4.7 273 0.0 0.0 1020.0 4.0 34.9 34.0 0.0
04/03/19 14:56 34.5 27 12.8 2.5 4.7 272 0.0 0.0 1020.0 4.7 34.9 33.4 0.0
04/03/19 14:57 34.4 27 12.7 3.2 4.7 274 0.0 0.0 1020.0 0.0 34.5 33.3 0.0
04/03/19 14:58 34.3 27 12.6 3.2 4.7 268 0.0 0.0 1020.0 0.0 34.4 33.2 0.0
04/03/19 14:59 34.3 27 12.6 3.2 4.7 269 0.0 0.0 1020.0 0.0 34.3 33.2 0.0
04/03/19 15:02 34.6 27 12.9 3.2 4.7 271 0.0 0.0 1020.0 0.0 0.0 33.6 0.0
04/03/19 15:03 34.9 27 13.1 3.2 4.7 272 0.0 0.0 1020.0 0.0 34.6 34.0 0.0
04/03/19 15:04 34.9 27 13.1 3.2 4.7 272 0.0 0.0 1020.0 0.0 34.9 34.0 0.0
04/03/19 15:05 34.7 27 13.0 3.2 4.7 272 0.0 0.0 1020.0 0.0 34.9 33.7 0.0
04/03/19 15:06 34.6 27 12.9 3.2 4.7 271 0.0 0.0 1020.0 0.0 34.7 33.6 0.0
04/03/19 15:07 33.8 27 12.2 3.2 0.0 0 0.0 0.0 1020.0 0.0 34.6 32.6 0.0
04/03/19 15:08 33.7 28 12.7 3.2 0.0 0 0.0 0.0 1020.0 0.0 33.5 32.6 0.0
04/03/19 15:09 33.9 28 12.8 3.2 0.0 0 0.0 0.0 1020.0 0.0 33.7 32.8 0.0
04/03/19 15:10 34.1 27 12.4 3.2 0.0 0 0.0 0.0 1020.0 0.0 33.9 32.9 0.0
04/03/19 15:11 34.2 27 12.5 3.2 0.0 0 0.0 0.0 1020.0 0.0 34.1 33.1 0.0
04/03/19 15:12 33.9 27 12.3 3.2 0.0 0 0.0 0.0 1020.0 0.0 34.2 32.7 0.0
04/03/19 15:13 33.7 27 12.1 3.2 0.0 0 0.0 0.0 1020.0 0.0 34.2 32.4 0.0
04/03/19 15:14 33.8 27 12.2 3.2 0.0 0 0.0 0.0 1020.0 0.0 34.2 32.6 0.0
04/03/19 15:15 34.3 27 12.6 3.2 0.0 0 0.0 0.0 1020.0 0.0 34.2 33.2 0.0
04/03/19 15:18 34.8 27 13.0 0.0 0.0 0 0.0 0.0 1020.0 0.0 0.0 33.8 0.0
04/03/19 15:19 34.9 27 13.1 0.0 0.0 0 0.0 0.0 1020.0 0.0 0.0 34.0 0.0
04/03/19 15:20 35.0 27 13.2 0.0 0.0 0 0.0 0.0 1020.0 0.0 0.0 34.1 0.0
04/03/19 15:21 35.1 27 13.3 0.0 0.0 0 0.0 0.0 1020.0 0.0 0.0 34.2 0.0
04/03/19 15:22 35.1 27 13.3 0.0 0.0 0 0.0 0.0 1020.0 0.0 0.0 34.2 0.0
04/03/19 15:23 35.0 26 12.6 0.0 0.0 0 0.0 0.0 1019.0 0.0 0.0 33.9 0.0
04/03/19 15:24 34.7 27 13.0 0.0 0.0 0 0.0 0.0 1019.0 0.0 0.0 33.7 0.0
04/03/19 15:25 34.5 27 12.8 0.0 0.0 0 0.0 0.0 1019.0 0.0 0.0 33.4 0.0
04/03/19 15:26 34.5 27 12.8 0.0 0.0 0 0.0 0.0 1019.0 0.0 0.0 33.4 0.0
04/03/19 15:27 34.6 27 12.9 0.0 0.0 0 0.0 0.0 1019.0 0.0 0.0 33.6 0.0
04/03/19 15:28 34.7 27 13.0 0.0 0.0 0 0.0 0.0 1019.0 0.0 0.0 33.7 0.0
04/03/19 15:29 34.6 27 12.9 0.0 0.0 0 0.0 0.0 1019.0 0.0 0.0 33.6 0.0
04/03/19 15:30 34.1 27 12.4 0.0 0.0 0 0.0 0.0 1019.0 0.0 0.0 32.9 0.0
04/03/19 15:33 34.0 27 12.4 0.0 0.0 0 0.0 0.0 1019.0 0.0 0.0 32.8 0.0
04/03/19 15:34 34.0 27 12.4 0.0 0.0 0 0.0 0.0 1019.0 0.0 0.0 32.8 0.0
04/03/19 15:35 33.9 27 12.3 0.0 0.0 0 0.0 0.0 1019.0 0.0 0.0 32.7 0.0
04/03/19 15:36 34.0 27 12.4 0.0 0.0 0 0.0 0.0 1019.0 0.0 0.0 32.8 0.0
04/03/19 15:37 33.9 27 12.3 0.0 0.0 0 0.0 0.0 1019.0 0.0 0.0 32.7 0.0
04/03/19 15:38 33.5 27 11.9 0.0 0.0 0 0.0 0.0 1019.0 0.0 0.0 32.2 0.0
04/03/19 15:39 33.6 27 12.0 0.0 0.0 0 0.0 0.0 1019.0 0.0 0.0 32.3 0.0
04/03/19 15:40 33.8 27 12.2 0.0 0.0 0 0.0 0.0 1019.0 0.0 0.0 32.6 0.0
04/03/19 15:41 33.8 27 12.2 0.0 0.0 0 0.0 0.0 1019.0 0.0 0.0 32.6 0.0
04/03/19 15:42 33.8 27 12.2 0.0 0.0 0 0.0 0.0 1019.0 0.0 0.0 32.6 0.0
04/03/19 15:43 33.8 27 12.2 0.0 0.0 0 0.0 0.0 1019.0 0.0 0.0 32.6 0.0
04/03/19 15:44 33.8 27 12.2 0.0 0.0 0 0.0 0.0 1019.0 0.0 0.0 32.6 0.0
04/03/19 15:45 34.1 27 12.4 0.0 0.0 0 0.0 0.0 1019.0 0.0 0.0 32.9 0.0
04/03/19 15:48 34.4 27 12.7 0.0 0.0 0 0.0 0.0 1019.0 0.0 0.0 33.3 0.0
04/03/19 15:49 34.4 27 12.7 0.0 0.0 0 0.0 0.0 1019.0 0.0 0.0 33.3 0.0
04/03/19 15:50 34.5 27 12.8 0.0 0.0 0 0.0 0.0 1019.0 0.0 0.0 33.4 0.0
04/03/19 15:51 34.6 27 12.9 0.0 0.0 0 0.0 0.0 1019.0 0.0 0.0 33.6 0.0
04/03/19 15:52 34.7 27 13.0 0.0 0.0 0 0.0 0.0 1019.0 0.0 0.0 33.7 0.0
04/03/19 15:53 34.8 27 13.0 0.0 0.0 0 0.0 0.0 1019.0 0.0 0.0 33.8 0.0
04/03/19 15:54 34.8 27 13.0 0.0 0.0 0 0.0 0.0 1019.0 0.0 0.0 33.8 0.0
04/03/19 15:55 34.9 27 13.1 0.0 0.0 0 0.0 0.0 1019.0 0.0 0.0 34.0 0.0
04/03/19 15:56 35.0 26 12.6 0.0 0.0 0 0.0 0.0 1019.0 0.0 0.0 33.9 0.0
04/03/19 15:57 35.2 26 12.8 0.0 0.0 0 0.0 0.0 1019.0 0.0 0.0 34.2 0.0
04/03/19 15:58 34.9 27 13.1 0.0 0.0 0 0.0 0.0 1019.0 0.0 0.0 34.0 0.0
04/03/19 15:59 34.6 27 12.9 0.0 0.0 0 0.0 0.0 1019.0 0.0 0.0 33.6 0.0
04/03/19 16:00 34.7 27 13.0 0.0 0.0 0 0.0 0.0 1019.0 0.0 0.0 33.7 0.0
04/03/19 16:03 35.5 26 13.1 0.0 0.0 0 0.0 0.0 1019.0 0.0 0.0 34.6 0.0
04/03/19 16:04 35.5 26 13.1 0.0 0.0 0 0.0 0.0 1019.0 0.0 0.0 34.6 0.0
04/03/19 16:05 35.5 26 13.1 0.0 0.0 0 0.0 0.0 1019.0 0.0 0.0 34.6 0.0
04/03/19 16:06 35.3 26 12.9 0.0 0.0 0 0.0 0.0 1019.0 0.0 0.0 34.3 0.0
04/03/19 16:07 35.0 26 12.6 0.0 0.0 0 0.0 0.0 1019.0 0.0 0.0 33.9 0.0
04/03/19 16:08 34.4 27 12.7 0.0 0.0 0 0.0 0.0 1019.0 0.0 0.0 33.3 0.0
04/03/19 16:09 34.5 27 12.8 0.0 0.0 0 0.0 0.0 1019.0 0.0 0.0 33.4 0.0
04/03/19 16:10 34.6 27 12.9 0.0 0.0 0 0.0 0.0 1019.0 0.0 0.0 33.6 0.0
04/03/19 16:11 34.2 27 12.5 0.0 0.0 0 0.0 0.0 1019.0 0.0 0.0 33.1 0.0
04/03/19 16:12 34.1 27 12.4 0.0 0.0 0 0.0 0.0 1019.0 0.0 0.0 32.9 0.0
04/03/19 16:13 34.0 27 12.4 4.7 6.5 135 0.0 0.0 1019.0 6.5 34.0 32.8 0.0
04/03/19 16:14 34.1 27 12.4 4.7 6.5 135 0.0 0.0 1019.0 6.5 34.0 32.9 0.0
04/03/19 16:15 34.2 27 12.5 4.7 6.5 135 0.0 0.0 1019.0 6.5 34.1 33.1 0.0
04/03/19 16:17 34.1 27 12.4 4.7 6.5 135 0.0 0.0 1019.0 6.5 0.0 32.9 0.0
04/03/19 16:18 33.8 27 12.2 4.7 6.5 135 0.0 0.0 1019.0 6.5 34.1 32.6 0.0
04/03/19 16:19 33.8 27 12.2 4.7 6.5 135 0.0 0.0 1019.0 6.5 33.8 32.6 0.0
04/03/19 16:20 33.7 27 12.1 4.7 6.5 135 0.0 0.0 1019.0 6.5 33.8 32.4 0.0
04/03/19 16:21 33.8 27 12.2 4.7 6.5 135 0.0 0.0 1019.0 6.5 33.7 32.6 0.0
04/03/19 16:22 33.9 27 12.3 4.7 6.5 135 0.0 0.0 1019.0 6.5 33.8 32.7 0.0
04/03/19 16:23 34.0 27 12.4 4.7 6.5 135 0.0 0.0 1019.0 6.5 33.9 32.8 0.0
04/03/19 16:24 34.1 27 12.4 4.7 6.5 135 0.0 0.0 1019.0 6.5 34.0 32.9 0.0
04/03/19 16:25 34.1 27 12.4 4.7 6.5 135 0.0 0.0 1019.0 6.5 34.1 32.9 0.0
04/03/19 16:26 34.2 27 12.5 4.7 6.5 135 0.0 0.0 1019.0 6.5 34.1 33.1 0.0
04/03/19 16:27 34.3 27 12.6 4.7 6.5 135 0.0 0.0 1019.0 6.5 34.2 33.2 0.0
04/03/19 16:28 34.4 27 12.7 4.7 6.5 135 0.0 0.0 1019.0 6.5 34.3 33.3 0.0
04/03/19 16:29 34.4 27 12.7 4.7 6.5 135 0.0 0.0 1019.0 6.5 34.3 33.3 0.0
04/03/19 16:30 34.5 27 12.8 4.7 6.5 135 0.0 0.0 1019.0 6.5 34.3 33.4 0.0
04/03/19 16:33 34.7 27 13.0 0.0 0.0 0 0.0 0.0 1019.0 0.0 0.0 33.7 0.0
04/03/19 16:34 34.6 27 12.9 0.0 0.0 0 0.0 0.0 1019.0 0.0 0.0 33.6 0.0
04/03/19 16:35 34.4 27 12.7 0.0 0.0 0 0.0 0.0 1019.0 0.0 0.0 33.3 0.0
04/03/19 16:36 34.3 27 12.6 0.0 0.0 0 0.0 0.0 1019.0 0.0 0.0 33.2 0.0
04/03/19 16:37 34.1 27 12.4 0.0 0.0 0 0.0 0.0 1019.0 0.0 0.0 32.9 0.0
04/03/19 16:38 34.1 27 12.4 0.0 0.0 0 0.0 0.0 1018.0 0.0 0.0 32.9 0.0
04/03/19 16:39 34.3 27 12.6 0.0 0.0 0 0.0 0.0 1018.0 0.0 0.0 33.2 0.0
04/03/19 16:40 34.4 27 12.7 0.0 0.0 0 0.0 0.0 1018.0 0.0 0.0 33.3 0.0
04/03/19 16:41 34.5 27 12.8 0.0 0.0 0 0.0 0.0 1018.0 0.0 0.0 33.4 0.0
04/03/19 16:42 34.5 27 12.8 0.0 0.0 0 0.0 0.0 1018.0 0.0 0.0 33.4 0.0
04/03/19 16:43 34.2 27 12.5 0.0 0.0 0 0.0 0.0 1018.0 0.0 0.0 33.1 0.0
04/03/19 16:44 33.8 27 12.2 0.0 0.0 0 0.0 0.0 1018.0 0.0 0.0 32.6 0.0
04/03/19 16:48 33.3 28 12.3 0.0 0.0 0 0.0 0.0 1018.0 0.0 0.0 32.1 0.0
04/03/19 16:49 33.4 28 12.4 0.0 0.0 0 0.0 0.0 1018.0 0.0 0.0 32.2 0.0
04/03/19 16:50 33.4 28 12.4 0.0 0.0 0 0.0 0.0 1018.0 0.0 0.0 32.2 0.0
04/03/19 16:51 33.3 28 12.3 2.2 3.2 270 0.0 0.0 1018.0 3.2 33.3 32.1 0.0
04/03/19 16:52 33.4 28 12.4 2.2 3.2 270 0.0 0.0 1018.0 1.4 33.3 32.2 0.0
04/03/19 16:53 33.5 28 12.5 2.2 3.2 270 0.0 0.0 1018.0 1.4 33.4 32.3 0.0
04/03/19 16:54 33.8 28 12.7 2.2 3.2 270 0.0 0.0 1018.0 1.4 33.6 32.7 0.0
04/03/19 16:55 33.9 28 12.8 1.4 3.2 270 0.0 0.0 1018.0 3.2 33.8 32.8 0.0
04/03/19 16:56 33.9 28 12.8 1.4 3.2 270 0.0 0.0 1018.0 3.2 33.9 32.8 0.0
04/03/19 16:57 34.0 28 12.9 1.8 3.6 274 0.0 0.0 1018.0 3.6 34.0 33.0 0.0
04/03/19 16:58 33.9 28 12.8 2.5 3.6 282 0.0 0.0 1018.0 3.2 33.9 32.8 0.0
04/03/19 16:59 34.0 28 12.9 2.5 3.6 284 0.0 0.0 1018.0 0.0 34.0 33.0 0.0
04/03/19 17:00 34.1 27 12.4 2.5 3.6 284 0.0 0.0 1018.0 0.0 34.0 32.9 0.0
04/03/19 17:02 33.3 28 12.3 4.0 3.6 254 0.0 0.0 1018.0 3.2 0.0 32.1 0.0
04/03/19 17:03 33.2 28 12.2 3.6 3.6 228 0.0 0.0 1018.0 1.8 33.2 32.0 0.0
04/03/19 17:04 33.2 28 12.2 2.5 5.4 175 0.0 0.0 1018.0 5.4 33.2 32.0 0.0
04/03/19 17:05 33.0 28 12.1 4.0 6.1 153 0.0 0.0 1018.0 1.4 33.0 31.7 0.0
04/03/19 17:06 33.2 28 12.2 4.0 6.1 147 0.0 0.0 1018.0 1.4 33.0 32.0 0.0
04/03/19 17:07 33.3 28 12.3 4.0 6.1 141 0.0 0.0 1018.0 1.4 33.2 32.1 0.0
04/03/19 17:08 33.2 28 12.2 4.0 6.1 137 0.0 0.0 1018.0 1.4 33.3 32.0 0.0
04/03/19 17:18 31.8 29 11.6 2.2 2.2 135 0.0 0.0 1018.0 2.2 31.8 30.5 0.0
04/03/19 17:19 31.5 29 11.3 2.2 2.2 135 0.0 0.0 1018.0 2.2 31.8 30.2 0.0
04/03/19 17:20 31.2 29 11.1 2.2 2.2 135 0.0 0.0 1018.0 2.2 31.5 29.8 0.0
04/03/19 17:21 31.1 29 11.0 4.0 2.2 147 0.0 0.0 1018.0 1.8 31.2 29.7 0.0
04/03/19 17:22 31.1 29 11.0 4.0 2.2 152 0.0 0.0 1018.0 1.8 31.1 29.7 0.0
04/03/19 17:23 31.1 29 11.0 4.0 2.2 155 0.0 0.0 1019.0 1.8 31.1 29.7 0.0
04/03/19 17:24 30.9 30 11.3 4.0 2.2 160 0.0 0.0 1019.0 1.8 31.0 29.6 0.0
04/03/19 17:25 30.9 30 11.3 4.0 2.2 161 0.0 0.0 1019.0 1.8 30.9 29.6 0.0
04/03/19 17:26 30.7 30 11.1 4.0 2.2 163 0.0 0.0 1019.0 1.8 30.9 29.4 0.0
04/03/19 17:27 30.5 30 11.0 4.0 2.2 164 0.0 0.0 1019.0 1.8 30.7 29.2 0.0
04/03/19 17:28 30.1 30 10.6 4.0 2.2 168 0.0 0.0 1019.0 1.8 30.5 28.8 0.0
04/03/19 17:29 29.9 31 10.9 4.0 2.2 172 0.0 0.0 1019.0 1.8 30.1 28.7 0.0
04/03/19 17:32 29.5 31 10.6 4.0 1.8 163 0.0 0.0 1019.0 1.8 0.0 28.4 0.0
04/03/19 17:33 29.5 31 10.6 4.0 1.8 166 0.0 0.0 1019.0 1.8 29.5 28.4 0.0
04/03/19 17:34 29.5 32 11.1 4.0 1.8 169 0.0 0.0 1019.0 1.8 29.5 28.4 0.0
04/03/19 17:35 29.3 32 10.9 4.0 1.8 172 0.0 0.0 1019.0 1.8 29.5 28.3 0.0
04/03/19 17:36 29.3 32 10.9 4.0 1.8 174 0.0 0.0 1019.0 1.8 29.3 28.3 0.0
04/03/19 17:37 29.4 32 11.0 4.0 1.8 174 0.0 0.0 1019.0 1.8 29.3 28.3 0.0
04/03/19 17:38 29.4 32 11.0 4.0 1.8 174 0.0 0.0 1019.0 1.8 29.3 28.3 0.0
04/03/19 17:39 29.5 32 11.1 4.0 1.8 174 0.0 0.0 1019.0 1.8 29.3 28.4 0.0
04/03/19 17:40 29.6 32 11.2 4.0 1.8 174 0.0 0.0 1019.0 1.8 29.3 28.5 0.0
04/03/19 17:41 29.5 32 11.1 4.0 1.8 174 0.0 0.0 1019.0 1.8 29.3 28.4 0.0
04/03/19 17:42 29.5 33 11.5 4.0 1.8 174 0.0 0.0 1019.0 1.8 29.3 28.5 0.0
04/03/19 17:43 29.5 33 11.5 4.0 1.8 174 0.0 0.0 1019.0 1.8 29.3 28.5 0.0
04/03/19 17:44 29.4 33 11.4 4.0 1.8 174 0.0 0.0 1019.0 1.8 29.3 28.4 0.0
04/03/19 17:45 29.5 33 11.5 4.0 1.8 174 0.0 0.0 1019.0 1.8 29.3 28.5 0.0
04/03/19 17:47 29.5 33 11.5 0.0 0.0 0 0.0 0.0 1019.0 0.0 0.0 28.5 0.0
04/03/19 17:48 29.5 33 11.5 0.0 0.0 0 0.0 0.0 1019.0 0.0 0.0 28.5 0.0
04/03/19 17:49 29.5 33 11.5 0.0 0.0 0 0.0 0.0 1019.0 0.0 0.0 28.5 0.0
04/03/19 17:50 29.5 33 11.5 0.0 0.0 0 0.0 0.0 1019.0 0.0 0.0 28.5 0.0
04/03/19 17:51 29.5 33 11.5 0.0 0.0 0 0.0 0.0 1019.0 0.0 0.0 28.5 0.0
04/03/19 17:52 29.5 33 11.5 0.0 0.0 0 0.0 0.0 1019.0 0.0 0.0 28.5 0.0
04/03/19 18:03 28.2 35 11.3 0.0 0.0 0 0.0 0.0 1019.0 0.0 0.0 27.5 0.0
04/03/19 18:04 28.1 35 11.2 0.0 0.0 0 0.0 0.0 1019.0 0.0 0.0 27.4 0.0
04/03/19 18:05 27.9 36 11.4 0.0 0.0 0 0.0 0.0 1019.0 0.0 0.0 27.3 0.0
04/03/19 18:06 27.9 36 11.4 0.0 0.0 0 0.0 0.0 1019.0 0.0 0.0 27.3 0.0
04/03/19 18:07 27.8 36 11.4 0.0 0.0 0 0.0 0.0 1019.0 0.0 0.0 27.3 0.0
04/03/19 18:08 27.7 36 11.3 0.0 0.0 0 0.0 0.0 1019.0 0.0 0.0 27.2 0.0
04/03/19 18:09 27.6 37 11.6 0.0 0.0 0 0.0 0.0 1019.0 0.0 0.0 27.2 0.0
04/03/19 18:10 27.6 37 11.6 0.0 0.0 0 0.0 0.0 1019.0 0.0 0.0 27.2 0.0
04/03/19 18:11 27.6 37 11.6 0.0 0.0 0 0.0 0.0 1019.0 0.0 0.0 27.2 0.0
04/03/19 18:12 27.5 38 11.9 0.0 0.0 0 0.0 0.0 1019.0 0.0 0.0 27.1 0.0
04/03/19 18:13 27.5 37 11.5 0.0 0.0 0 0.0 0.0 1019.0 0.0 0.0 27.1 0.0
04/03/19 18:14 27.4 38 11.8 0.0 0.0 0 0.0 0.0 1019.0 0.0 0.0 27.1 0.0
04/03/19 18:15 27.3 38 11.7 0.0 0.0 0 0.0 0.0 1019.0 0.0 0.0 27.0 0.0
04/03/19 18:18 27.0 39 11.9 0.0 0.0 0 0.0 0.0 1019.0 0.0 0.0 26.8 0.0
04/03/19 18:19 26.8 40 12.1 0.0 0.0 0 0.0 0.0 1019.0 0.0 0.0 26.7 0.0
04/03/19 18:20 26.8 40 12.1 0.0 0.0 0 0.0 0.0 1019.0 0.0 0.0 26.7 0.0
04/03/19 18:21 26.6 40 11.9 0.0 0.0 0 0.0 0.0 1019.0 0.0 0.0 26.6 0.0
04/03/19 18:22 26.4 40 11.7 0.0 0.0 0 0.0 0.0 1019.0 0.0 0.0 26.4 0.0
04/03/19 18:23 26.3 40 11.6 0.0 0.0 0 0.0 0.0 1019.0 0.0 0.0 26.3 0.0
04/03/19 18:24 26.0 40 11.4 0.0 0.0 0 0.0 0.0 1019.0 0.0 0.0 26.0 0.0
04/03/19 18:25 25.9 41 11.6 0.0 0.0 0 0.0 0.0 1019.0 0.0 0.0 25.9 0.0
04/03/19 18:26 25.9 41 11.6 0.0 0.0 0 0.0 0.0 1019.0 0.0 0.0 25.9 0.0
04/03/19 18:27 25.7 42 11.8 0.0 0.0 0 0.0 0.0 1019.0 0.0 0.0 25.7 0.0
04/03/19 18:28 25.6 42 11.7 0.0 0.0 0 0.0 0.0 1019.0 0.0 0.0 25.6 0.0
04/03/19 18:29 25.5 42 11.6 0.0 0.0 0 0.0 0.0 1019.0 0.0 0.0 25.5 0.0
04/03/19 18:30 25.4 42 11.6 0.0 0.0 0 0.0 0.0 1019.0 0.0 0.0 25.4 0.0
04/03/19 18:32 25.1 43 11.6 0.0 0.0 0 0.0 0.0 1019.0 0.0 0.0 25.1 0.0
04/03/19 18:33 25.0 43 11.5 0.0 0.0 0 0.0 0.0 1019.0 0.0 0.0 25.0 0.0
04/03/19 18:34 24.9 43 11.5 0.0 0.0 0 0.0 0.0 1019.0 0.0 0.0 24.9 0.0
04/03/19 18:35 24.8 44 11.7 0.0 0.0 0 0.0 0.0 1019.0 0.0 0.0 24.8 0.0
04/03/19 18:36 24.8 44 11.7 0.0 0.0 0 0.0 0.0 1019.0 0.0 0.0 24.8 0.0
04/03/19 18:37 24.7 45 12.0 0.0 0.0 0 0.0 0.0 1019.0 0.0 0.0 24.7 0.0
04/03/19 18:38 24.6 45 11.9 0.0 0.0 0 0.0 0.0 1019.0 0.0 0.0 24.6 0.0
04/03/19 18:39 24.6 45 11.9 0.0 0.0 0 0.0 0.0 1019.0 0.0 0.0 24.6 0.0
04/03/19 18:40 24.4 45 11.7 0.0 0.0 0 0.0 0.0 1019.0 0.0 0.0 24.4 0.0
04/03/19 18:41 24.4 45 11.7 0.0 0.0 0 0.0 0.0 1019.0 0.0 0.0 24.4 0.0
04/03/19 18:42 24.3 46 11.9 0.0 0.0 0 0.0 0.0 1019.0 0.0 0.0 24.3 0.0
04/03/19 18:43 24.2 46 11.8 0.0 0.0 0 0.0 0.0 1019.0 0.0 0.0 24.2 0.0
04/03/19 18:44 24.2 46 11.8 0.0 0.0 0 0.0 0.0 1019.0 0.0 0.0 24.2 0.0
04/03/19 18:45 24.1 47 12.1 0.0 0.0 0 0.0 0.0 1019.0 0.0 0.0 24.1 0.0
04/03/19 19:03 23.0 51 12.3 0.0 0.0 0 0.0 0.0 1019.0 0.0 0.0 23.0 0.0
04/03/19 19:04 22.9 52 12.5 0.0 0.0 0 0.0 0.0 1019.0 0.0 0.0 22.9 0.0
04/03/19 19:05 22.9 52 12.5 0.0 0.0 0 0.0 0.0 1019.0 0.0 0.0 22.9 0.0
04/03/19 19:06 22.8 52 12.4 0.0 0.0 0 0.0 0.0 1019.0 0.0 0.0 22.8 0.0
04/03/19 19:07 22.8 53 12.7 0.0 0.0 0 0.0 0.0 1019.0 0.0 0.0 22.8 0.0
04/03/19 19:08 22.7 53 12.6 0.0 0.0 0 0.0 0.0 1020.0 0.0 0.0 22.7 0.0
04/03/19 19:09 22.7 54 12.9 0.0 0.0 0 0.0 0.0 1020.0 0.0 0.0 22.7 0.0
04/03/19 19:10 22.6 54 12.8 0.0 0.0 0 0.0 0.0 1020.0 0.0 0.0 22.6 0.0
04/03/19 19:11 22.6 54 12.8 0.0 0.0 0 0.0 0.0 1020.0 0.0 0.0 22.6 0.0
04/03/19 19:12 22.5 54 12.7 0.0 0.0 0 0.0 0.0 1020.0 0.0 0.0 22.5 0.0
04/03/19 19:13 22.5 54 12.7 0.0 0.0 0 0.0 0.0 1020.0 0.0 0.0 22.5 0.0
04/03/19 19:14 22.4 56 13.2 0.0 0.0 0 0.0 0.0 1020.0 0.0 0.0 22.4 0.0
04/03/19 19:15 22.4 56 13.2 0.0 0.0 0 0.0 0.0 1020.0 0.0 0.0 22.4 0.0
04/03/19 19:18 22.2 57 13.3 0.0 0.0 0 0.0 0.0 1020.0 0.0 0.0 22.2 0.0
04/03/19 19:19 22.2 56 13.0 0.0 0.0 0 0.0 0.0 1020.0 0.0 0.0 22.2 0.0
04/03/19 19:20 22.1 57 13.2 0.0 0.0 0 0.0 0.0 1020.0 0.0 0.0 22.1 0.0
04/03/19 19:21 22.1 56 12.9 0.0 0.0 0 0.0 0.0 1020.0 0.0 0.0 22.1 0.0
04/03/19 19:22 22.0 56 12.8 0.0 0.0 0 0.0 0.0 1020.0 0.0 0.0 22.0 0.0
04/03/19 19:23 22.0 56 12.8 0.0 0.0 0 0.0 0.0 1020.0 0.0 0.0 22.0 0.0
04/03/19 19:24 21.9 57 13.0 0.0 0.0 0 0.0 0.0 1020.0 0.0 0.0 21.9 0.0
04/03/19 19:25 21.8 57 12.9 0.0 0.0 0 0.0 0.0 1020.0 0.0 0.0 21.8 0.0
04/03/19 19:26 21.8 57 12.9 0.0 0.0 0 0.0 0.0 1020.0 0.0 0.0 21.8 0.0
04/03/19 19:27 21.8 57 12.9 0.0 0.0 0 0.0 0.0 1020.0 0.0 0.0 21.8 0.0
04/03/19 19:28 21.7 57 12.8 0.0 0.0 0 0.0 0.0 1020.0 0.0 0.0 21.7 0.0
04/03/19 19:29 21.7 57 12.8 0.0 0.0 0 0.0 0.0 1020.0 0.0 0.0 21.7 0.0
04/03/19 19:30 21.7 58 13.1 0.0 0.0 0 0.0 0.0 1020.0 0.0 0.0 21.7 0.0
04/03/19 19:33 21.5 58 12.9 0.0 0.0 0 0.0 0.0 1020.0 0.0 0.0 21.5 0.0
04/03/19 19:34 21.5 58 12.9 0.0 0.0 0 0.0 0.0 1020.0 0.0 0.0 21.5 0.0
04/03/19 19:35 21.4 58 12.8 0.0 0.0 0 0.0 0.0 1020.0 0.0 0.0 21.4 0.0
04/03/19 19:36 21.4 59 13.1 0.0 0.0 0 0.0 0.0 1020.0 0.0 0.0 21.4 0.0
04/03/19 19:37 21.4 58 12.8 0.0 0.0 0 0.0 0.0 1020.0 0.0 0.0 21.4 0.0
04/03/19 19:38 21.3 59 13.0 0.0 0.0 0 0.0 0.0 1020.0 0.0 0.0 21.3 0.0
04/03/19 19:39 21.3 59 13.0 0.0 0.0 0 0.0 0.0 1020.0 0.0 0.0 21.3 0.0
04/03/19 19:40 21.2 59 12.9 0.0 0.0 0 0.0 0.0 1020.0 0.0 0.0 21.2 0.0
04/03/19 19:41 21.2 59 12.9 0.0 0.0 0 0.0 0.0 1020.0 0.0 0.0 21.2 0.0
04/03/19 19:42 21.1 59 12.8 0.0 0.0 0 0.0 0.0 1020.0 0.0 0.0 21.1 0.0
04/03/19 19:43 21.1 59 12.8 0.0 0.0 0 0.0 0.0 1020.0 0.0 0.0 21.1 0.0
04/03/19 19:44 21.1 60 13.0 0.0 0.0 0 0.0 0.0 1020.0 0.0 0.0 21.1 0.0
04/03/19 19:48 20.9 61 13.1 0.0 0.0 0 0.0 0.0 1020.0 0.0 0.0 20.9 0.0
04/03/19 19:49 20.9 61 13.1 0.0 0.0 0 0.0 0.0 1020.0 0.0 0.0 20.9 0.0
04/03/19 19:50 20.8 61 13.0 0.0 0.0 0 0.0 0.0 1020.0 0.0 0.0 20.8 0.0
04/03/19 19:51 20.8 62 13.3 0.0 0.0 0 0.0 0.0 1020.0 0.0 0.0 20.8 0.0
04/03/19 19:52 20.8 61 13.0 0.0 0.0 0 0.0 0.0 1020.0 0.0 0.0 20.8 0.0
04/03/19 19:53 20.8 62 13.3 0.0 0.0 0 0.0 0.0 1021.0 0.0 0.0 20.8 0.0
04/03/19 19:54 20.8 62 13.3 0.0 0.0 0 0.0 0.0 1021.0 0.0 0.0 20.8 0.0
04/03/19 19:55 20.7 62 13.2 0.0 0.0 0 0.0 0.0 1021.0 0.0 0.0 20.7 0.0
04/03/19 19:56 20.7 62 13.2 0.0 0.0 0 0.0 0.0 1021.0 0.0 0.0 20.7 0.0
04/03/19 19:57 20.7 62 13.2 0.0 0.0 0 0.0 0.0 1021.0 0.0 0.0 20.7 0.0
04/03/19 19:58 20.6 63 13.3 0.0 0.0 0 0.0 0.0 1021.0 0.0 0.0 20.6 0.0
04/03/19 19:59 20.6 64 13.5 0.0 0.0 0 0.0 0.0 1021.0 0.0 0.0 20.6 0.0
04/03/19 20:03 20.5 64 13.5 0.0 0.0 0 0.0 0.0 1021.0 0.0 0.0 20.5 0.0
04/03/19 20:04 20.5 65 13.7 0.0 0.0 0 0.0 0.0 1021.0 0.0 0.0 20.5 0.0
04/03/19 20:05 20.5 65 13.7 0.0 0.0 0 0.0 0.0 1021.0 0.0 0.0 20.5 0.0
04/03/19 20:06 20.5 65 13.7 0.0 0.0 0 0.0 0.0 1021.0 0.0 0.0 20.5 0.0
04/03/19 20:07 20.4 66 13.8 0.0 0.0 0 0.0 0.0 1021.0 0.0 0.0 20.4 0.0
04/03/19 20:08 20.4 66 13.8 0.0 0.0 0 0.0 0.0 1021.0 0.0 0.0 20.4 0.0
04/03/19 20:09 20.4 66 13.8 0.0 0.0 0 0.0 0.0 1021.0 0.0 0.0 20.4 0.0
04/03/19 20:10 20.4 66 13.8 0.0 0.0 0 0.0 0.0 1021.0 0.0 0.0 20.4 0.0
04/03/19 20:11 20.3 66 13.7 0.0 0.0 0 0.0 0.0 1021.0 0.0 0.0 20.3 0.0
04/03/19 20:12 20.3 66 13.7 0.0 0.0 0 0.0 0.0 1021.0 0.0 0.0 20.3 0.0
04/03/19 20:13 20.2 66 13.6 0.0 0.0 0 0.0 0.0 1021.0 0.0 0.0 20.2 0.0
04/03/19 20:14 20.2 66 13.6 0.0 0.0 0 0.0 0.0 1021.0 0.0 0.0 20.2 0.0
04/03/19 20:15 20.2 66 13.6 0.0 0.0 0 0.0 0.0 1021.0 0.0 0.0 20.2 0.0
04/03/19 20:18 20.1 68 14.0 0.0 0.0 0 0.0 0.0 1021.0 0.0 0.0 20.1 0.0
04/03/19 20:19 20.1 68 14.0 0.0 0.0 0 0.0 0.0 1021.0 0.0 0.0 20.1 0.0
04/03/19 20:20 20.1 68 14.0 0.0 0.0 0 0.0 0.0 1021.0 0.0 0.0 20.1 0.0
04/03/19 20:21 20.1 69 14.2 0.0 0.0 0 0.0 0.0 1021.0 0.0 0.0 20.1 0.0
04/03/19 20:22 20.0 69 14.1 0.0 0.0 0 0.0 0.0 1021.0 0.0 0.0 20.0 0.0
04/03/19 20:23 20.0 69 14.1 0.0 0.0 0 0.0 0.0 1022.0 0.0 0.0 20.0 0.0
04/03/19 20:24 20.0 70 14.4 0.0 0.0 0 0.0 0.0 1022.0 0.0 0.0 20.0 0.0
04/03/19 20:25 20.0 69 14.1 0.0 0.0 0 0.0 0.0 1022.0 0.0 0.0 20.0 0.0
04/03/19 20:26 19.9 71 14.5 0.0 0.0 0 0.0 0.0 1022.0 0.0 0.0 19.9 0.0
04/03/19 20:27 19.9 72 14.7 0.0 0.0 0 0.0 0.0 1022.0 0.0 0.0 19.9 0.0
04/03/19 20:28 19.9 72 14.7 0.0 0.0 0 0.0 0.0 1022.0 0.0 0.0 19.9 0.0
04/03/19 20:29 19.9 72 14.7 0.0 0.0 0 0.0 0.0 1022.0 0.0 0.0 19.9 0.0
04/03/19 20:30 19.8 72 14.6 0.0 0.0 0 0.0 0.0 1022.0 0.0 0.0 19.8 0.0
04/03/19 20:33 19.8 74 15.0 0.0 0.0 0 0.0 0.0 1022.0 0.0 0.0 19.8 0.0
04/03/19 20:34 19.8 74 15.0 0.0 0.0 0 0.0 0.0 1022.0 0.0 0.0 19.8 0.0
04/03/19 20:35 19.7 74 14.9 0.0 0.0 0 0.0 0.0 1022.0 0.0 0.0 19.7 0.0
04/03/19 20:36 19.7 74 14.9 0.0 0.0 0 0.0 0.0 1022.0 0.0 0.0 19.7 0.0
04/03/19 20:37 19.7 74 14.9 0.0 0.0 0 0.0 0.0 1022.0 0.0 0.0 19.7 0.0
04/03/19 20:38 19.7 75 15.1 0.0 0.0 0 0.0 0.0 1021.0 0.0 0.0 19.7 0.0
04/03/19 20:39 19.7 75 15.1 0.0 0.0 0 0.0 0.0 1021.0 0.0 0.0 19.7 0.0
04/03/19 20:40 19.6 76 15.3 0.0 0.0 0 0.0 0.0 1021.0 0.0 0.0 19.6 0.0
04/03/19 20:41 19.6 76 15.3 0.0 0.0 0 0.0 0.0 1021.0 0.0 0.0 19.6 0.0
04/03/19 20:42 19.5 75 14.9 0.0 0.0 0 0.0 0.0 1021.0 0.0 0.0 19.5 0.0
04/03/19 20:43 19.5 75 14.9 0.0 0.0 0 0.0 0.0 1021.0 0.0 0.0 19.5 0.0
04/03/19 20:44 19.5 75 14.9 0.0 0.0 0 0.0 0.0 1021.0 0.0 0.0 19.5 0.0
04/03/19 20:48 19.4 77 15.3 0.0 0.0 0 0.0 0.0 1021.0 0.0 0.0 19.4 0.0
04/03/19 20:49 19.4 77 15.3 0.0 0.0 0 0.0 0.0 1021.0 0.0 0.0 19.4 0.0
04/03/19 20:50 19.4 77 15.3 0.0 0.0 0 0.0 0.0 1021.0 0.0 0.0 19.4 0.0
04/03/19 20:51 19.4 78 15.5 0.0 0.0 0 0.0 0.0 1021.0 0.0 0.0 19.4 0.0
04/03/19 20:52 19.3 79 15.6 0.0 0.0 0 0.0 0.0 1021.0 0.0 0.0 19.3 0.0
04/03/19 20:53 19.3 79 15.6 0.0 0.0 0 0.0 0.0 1021.0 0.0 0.0 19.3 0.0
04/03/19 20:54 19.3 81 16.0 0.0 0.0 0 0.0 0.0 1021.0 0.0 0.0 19.3 0.0
04/03/19 20:55 19.2 81 15.9 0.0 0.0 0 0.0 0.0 1021.0 0.0 0.0 19.2 0.0
04/03/19 20:56 19.2 80 15.7 0.0 0.0 0 0.0 0.0 1021.0 0.0 0.0 19.2 0.0
04/03/19 20:57 19.2 80 15.7 0.0 0.0 0 0.0 0.0 1021.0 0.0 0.0 19.2 0.0
04/03/19 20:58 19.2 80 15.7 0.0 0.0 0 0.0 0.0 1021.0 0.0 0.0 19.2 0.0
04/03/19 20:59 19.1 80 15.6 0.0 0.0 0 0.0 0.0 1021.0 0.0 0.0 19.1 0.0
04/03/19 21:00 19.1 80 15.6 0.0 0.0 0 0.0 0.0 1021.0 0.0 0.0 19.1 0.0
04/03/19 21:03 19.0 81 15.7 0.0 0.0 0 0.0 0.0 1021.0 0.0 0.0 19.0 0.0
04/03/19 21:04 19.0 81 15.7 0.0 0.0 0 0.0 0.0 1021.0 0.0 0.0 19.0 0.0
04/03/19 21:05 19.0 81 15.7 0.0 0.0 0 0.0 0.0 1021.0 0.0 0.0 19.0 0.0
04/03/19 21:06 19.0 82 15.9 0.0 0.0 0 0.0 0.0 1021.0 0.0 0.0 19.0 0.0
04/03/19 21:07 18.9 82 15.8 0.0 0.0 0 0.0 0.0 1021.0 0.0 0.0 18.9 0.0
04/03/19 21:08 18.9 83 15.9 0.0 0.0 0 0.0 0.0 1021.0 0.0 0.0 18.9 0.0
04/03/19 21:18 18.7 85 16.1 0.0 0.0 0 0.0 0.0 1021.0 0.0 0.0 18.7 0.0
04/03/19 21:19 18.7 85 16.1 0.0 0.0 0 0.0 0.0 1021.0 0.0 0.0 18.7 0.0
04/03/19 21:20 18.7 85 16.1 0.0 0.0 0 0.0 0.0 1021.0 0.0 0.0 18.7 0.0
04/03/19 21:33 18.4 85 15.8 0.0 0.0 0 0.0 0.0 1021.0 0.0 0.0 18.4 0.0
04/03/19 21:34 18.4 85 15.8 0.0 0.0 0 0.0 0.0 1021.0 0.0 0.0 18.4 0.0
04/03/19 21:35 18.4 85 15.8 0.0 0.0 0 0.0 0.0 1021.0 0.0 0.0 18.4 0.0
04/03/19 21:36 18.3 84 15.5 0.0 0.0 0 0.0 0.0 1021.0 0.0 0.0 18.3 0.0
04/03/19 21:37 18.2 84 15.5 0.0 0.0 0 0.0 0.0 1021.0 0.0 0.0 18.2 0.0
04/03/19 21:38 18.2 84 15.5 0.0 0.0 0 0.0 0.0 1021.0 0.0 0.0 18.2 0.0
04/03/19 21:39 18.2 84 15.5 0.0 0.0 0 0.0 0.0 1021.0 0.0 0.0 18.2 0.0
04/03/19 21:40 18.2 85 15.6 0.0 0.0 0 0.0 0.0 1021.0 0.0 0.0 18.2 0.0
04/03/19 21:41 18.2 85 15.6 0.0 0.0 0 0.0 0.0 1021.0 0.0 0.0 18.2 0.0
04/03/19 21:42 18.2 85 15.6 0.0 0.0 0 0.0 0.0 1021.0 0.0 0.0 18.2 0.0
04/03/19 21:43 18.2 85 15.6 0.0 0.0 0 0.0 0.0 1021.0 0.0 0.0 18.2 0.0
04/03/19 21:44 18.1 85 15.5 0.0 0.0 0 0.0 0.0 1021.0 0.0 0.0 18.1 0.0
04/03/19 21:48 18.0 86 15.6 0.0 0.0 0 0.0 0.0 1021.0 0.0 0.0 18.0 0.0
04/03/19 21:49 18.0 87 15.8 0.0 0.0 0 0.0 0.0 1021.0 0.0 0.0 18.0 0.0
04/03/19 21:50 18.0 86 15.6 0.0 0.0 0 0.0 0.0 1021.0 0.0 0.0 18.0 0.0
04/03/19 21:51 18.0 86 15.6 0.0 0.0 0 0.0 0.0 1021.0 0.0 0.0 18.0 0.0
04/03/19 21:52 18.0 86 15.6 0.0 0.0 0 0.0 0.0 1021.0 0.0 0.0 18.0 0.0
04/03/19 21:53 18.0 86 15.6 0.0 0.0 0 0.0 0.0 1021.0 0.0 0.0 18.0 0.0
04/03/19 21:54 18.0 86 15.6 0.0 0.0 0 0.0 0.0 1021.0 0.0 0.0 18.0 0.0
04/03/19 21:55 18.0 86 15.6 0.0 0.0 0 0.0 0.0 1021.0 0.0 0.0 18.0 0.0
04/03/19 21:56 17.9 86 15.5 0.0 0.0 0 0.0 0.0 1021.0 0.0 0.0 17.9 0.0
04/03/19 21:57 17.9 86 15.5 0.0 0.0 0 0.0 0.0 1021.0 0.0 0.0 17.9 0.0
04/03/19 21:58 17.9 86 15.5 0.0 0.0 0 0.0 0.0 1021.0 0.0 0.0 17.9 0.0
04/03/19 21:59 17.9 86 15.5 0.0 0.0 0 0.0 0.0 1021.0 0.0 0.0 17.9 0.0
04/03/19 22:00 17.9 86 15.5 0.0 0.0 0 0.0 0.0 1021.0 0.0 0.0 17.9 0.0
04/03/19 22:03 17.8 87 15.6 0.0 0.0 0 0.0 0.0 1021.0 0.0 0.0 17.8 0.0
04/03/19 22:04 17.8 87 15.6 0.0 0.0 0 0.0 0.0 1021.0 0.0 0.0 17.8 0.0
04/03/19 22:05 17.7 86 15.3 0.0 0.0 0 0.0 0.0 1021.0 0.0 0.0 17.7 0.0
04/03/19 22:06 17.8 87 15.6 0.0 0.0 0 0.0 0.0 1021.0 0.0 0.0 17.8 0.0
04/03/19 22:07 17.7 87 15.5 0.0 0.0 0 0.0 0.0 1021.0 0.0 0.0 17.7 0.0
04/03/19 22:08 17.7 86 15.3 0.0 0.0 0 0.0 0.0 1021.0 0.0 0.0 17.7 0.0
04/03/19 22:09 17.7 86 15.3 0.0 0.0 0 0.0 0.0 1021.0 0.0 0.0 17.7 0.0
04/03/19 22:10 17.7 86 15.3 0.0 0.0 0 0.0 0.0 1021.0 0.0 0.0 17.7 0.0
04/03/19 22:11 17.7 86 15.3 0.0 0.0 0 0.0 0.0 1021.0 0.0 0.0 17.7 0.0
04/03/19 22:12 17.6 86 15.2 0.0 0.0 0 0.0 0.0 1021.0 0.0 0.0 17.6 0.0
04/03/19 22:13 17.6 87 15.4 0.0 0.0 0 0.0 0.0 1021.0 0.0 0.0 17.6 0.0
04/03/19 22:14 17.6 87 15.4 0.0 0.0 0 0.0 0.0 1021.0 0.0 0.0 17.6 0.0
04/03/19 22:18 17.5 88 15.5 0.0 0.0 0 0.0 0.0 1021.0 0.0 0.0 17.5 0.0
04/03/19 22:19 17.5 88 15.5 0.0 0.0 0 0.0 0.0 1021.0 0.0 0.0 17.5 0.0
04/03/19 22:20 17.5 88 15.5 0.0 0.0 0 0.0 0.0 1021.0 0.0 0.0 17.5 0.0
04/03/19 22:21 17.5 88 15.5 0.0 0.0 0 0.0 0.0 1021.0 0.0 0.0 17.5 0.0
04/03/19 22:22 17.5 87 15.3 0.0 0.0 0 0.0 0.0 1021.0 0.0 0.0 17.5 0.0
04/03/19 22:23 17.5 87 15.3 0.0 0.0 0 0.0 0.0 1021.0 0.0 0.0 17.5 0.0
04/03/19 22:24 17.5 87 15.3 0.0 0.0 0 0.0 0.0 1021.0 0.0 0.0 17.5 0.0
04/03/19 22:25 17.5 87 15.3 0.0 0.0 0 0.0 0.0 1021.0 0.0 0.0 17.5 0.0
04/03/19 22:26 17.5 87 15.3 0.0 0.0 0 0.0 0.0 1021.0 0.0 0.0 17.5 0.0
04/03/19 22:27 17.5 87 15.3 0.0 0.0 0 0.0 0.0 1021.0 0.0 0.0 17.5 0.0
04/03/19 22:28 17.4 87 15.2 0.0 0.0 0 0.0 0.0 1021.0 0.0 0.0 17.4 0.0
04/03/19 22:29 17.4 87 15.2 0.0 0.0 0 0.0 0.0 1021.0 0.0 0.0 17.4 0.0
04/03/19 22:30 17.4 87 15.2 0.0 0.0 0 0.0 0.0 1021.0 0.0 0.0 17.4 0.0
04/03/19 22:33 17.3 87 15.1 0.0 0.0 0 0.0 0.0 1021.0 0.0 0.0 17.3 0.0
04/03/19 22:34 17.3 87 15.1 0.0 0.0 0 0.0 0.0 1021.0 0.0 0.0 17.3 0.0
04/03/19 22:35 17.3 87 15.1 0.0 0.0 0 0.0 0.0 1021.0 0.0 0.0 17.3 0.0
04/03/19 22:36 17.3 87 15.1 0.0 0.0 0 0.0 0.0 1021.0 0.0 0.0 17.3 0.0
04/03/19 22:37 17.3 87 15.1 0.0 0.0 0 0.0 0.0 1021.0 0.0 0.0 17.3 0.0
04/03/19 22:38 17.2 87 15.0 0.0 0.0 0 0.0 0.0 1021.0 0.0 0.0 17.2 0.0
04/03/19 22:48 17.1 88 15.1 0.0 0.0 0 0.0 0.0 1021.0 0.0 0.0 17.1 0.0
04/03/19 22:49 17.1 88 15.1 0.0 0.0 0 0.0 0.0 1021.0 0.0 0.0 17.1 0.0
04/03/19 23:03 16.8 88 14.8 0.0 0.0 0 0.0 0.0 1021.0 0.0 0.0 16.8 0.0
04/03/19 23:04 16.8 88 14.8 0.0 0.0 0 0.0 0.0 1021.0 0.0 0.0 16.8 0.0
04/03/19 23:05 16.8 88 14.8 0.0 0.0 0 0.0 0.0 1021.0 0.0 0.0 16.8 0.0
04/03/19 23:06 16.8 88 14.8 0.0 0.0 0 0.0 0.0 1021.0 0.0 0.0 16.8 0.0